<gpx xmlns="http://www.topografix.com/GPX/1/1" xmlns:xsi="http://www.w3.org/2001/XMLSchema-instance" version="1.1" xsi:schemaLocation="http://www.topografix.com/GPX/1/1 http://www.topografix.com/GPX/1/1/gpx.xsd" creator="MotionXGPSFull 24.2 Build 5063R64">
<trk>
<name>NG 13 Sep 2017</name>
<desc>13 Sep 2017  8:09 am</desc>
<trkseg>
<trkpt lat="-27.3588940" lon="152.9698844">
<ele>59.515</ele>
<time>2017-09-12T22:09:11.428Z</time>
</trkpt>
<trkpt lat="-27.3588940" lon="152.9698844">
<ele>59.706</ele>
<time>2017-09-12T22:32:00.385Z</time>
</trkpt>
<trkpt lat="-27.3588920" lon="152.9696578">
<ele>59.798</ele>
<time>2017-09-12T22:32:15.161Z</time>
</trkpt>
<trkpt lat="-27.3589045" lon="152.9696460">
<ele>58.866</ele>
<time>2017-09-12T22:32:15.988Z</time>
</trkpt>
<trkpt lat="-27.3589817" lon="152.9695886">
<ele>56.535</ele>
<time>2017-09-12T22:32:18.721Z</time>
</trkpt>
<trkpt lat="-27.3590185" lon="152.9694632">
<ele>54.239</ele>
<time>2017-09-12T22:32:20.960Z</time>
</trkpt>
<trkpt lat="-27.3590070" lon="152.9693234">
<ele>53.238</ele>
<time>2017-09-12T22:32:23.158Z</time>
</trkpt>
<trkpt lat="-27.3590090" lon="152.9691578">
<ele>53.234</ele>
<time>2017-09-12T22:32:25.707Z</time>
</trkpt>
<trkpt lat="-27.3590313" lon="152.9690348">
<ele>53.696</ele>
<time>2017-09-12T22:32:27.583Z</time>
</trkpt>
<trkpt lat="-27.3591064" lon="152.9688892">
<ele>54.332</ele>
<time>2017-09-12T22:32:29.969Z</time>
</trkpt>
<trkpt lat="-27.3592144" lon="152.9688145">
<ele>55.083</ele>
<time>2017-09-12T22:32:31.495Z</time>
</trkpt>
<trkpt lat="-27.3593937" lon="152.9688220">
<ele>55.990</ele>
<time>2017-09-12T22:32:33.394Z</time>
</trkpt>
<trkpt lat="-27.3595744" lon="152.9688733">
<ele>56.992</ele>
<time>2017-09-12T22:32:35.337Z</time>
</trkpt>
<trkpt lat="-27.3598174" lon="152.9688556">
<ele>57.878</ele>
<time>2017-09-12T22:32:38.059Z</time>
</trkpt>
<trkpt lat="-27.3599478" lon="152.9688434">
<ele>58.468</ele>
<time>2017-09-12T22:32:39.953Z</time>
</trkpt>
<trkpt lat="-27.3600648" lon="152.9688343">
<ele>58.730</ele>
<time>2017-09-12T22:32:42.000Z</time>
</trkpt>
<trkpt lat="-27.3600648" lon="152.9688343">
<ele>58.771</ele>
<time>2017-09-12T22:32:46.000Z</time>
</trkpt>
<trkpt lat="-27.3600648" lon="152.9688343">
<ele>58.726</ele>
<time>2017-09-12T22:33:34.472Z</time>
</trkpt>
<trkpt lat="-27.3603028" lon="152.9687618">
<ele>58.685</ele>
<time>2017-09-12T22:33:44.235Z</time>
</trkpt>
<trkpt lat="-27.3604486" lon="152.9687066">
<ele>58.682</ele>
<time>2017-09-12T22:33:46.279Z</time>
</trkpt>
<trkpt lat="-27.3606027" lon="152.9686374">
<ele>58.748</ele>
<time>2017-09-12T22:33:48.411Z</time>
</trkpt>
<trkpt lat="-27.3607948" lon="152.9685025">
<ele>58.881</ele>
<time>2017-09-12T22:33:51.380Z</time>
</trkpt>
<trkpt lat="-27.3609294" lon="152.9684172">
<ele>58.991</ele>
<time>2017-09-12T22:33:53.221Z</time>
</trkpt>
<trkpt lat="-27.3611533" lon="152.9685241">
<ele>58.977</ele>
<time>2017-09-12T22:33:55.695Z</time>
</trkpt>
<trkpt lat="-27.3614184" lon="152.9688124">
<ele>58.843</ele>
<time>2017-09-12T22:33:58.898Z</time>
</trkpt>
<trkpt lat="-27.3616052" lon="152.9690126">
<ele>58.680</ele>
<time>2017-09-12T22:34:00.839Z</time>
</trkpt>
<trkpt lat="-27.3618610" lon="152.9694032">
<ele>58.580</ele>
<time>2017-09-12T22:34:03.990Z</time>
</trkpt>
<trkpt lat="-27.3621720" lon="152.9697303">
<ele>58.595</ele>
<time>2017-09-12T22:34:07.067Z</time>
</trkpt>
<trkpt lat="-27.3623528" lon="152.9699652">
<ele>58.774</ele>
<time>2017-09-12T22:34:09.108Z</time>
</trkpt>
<trkpt lat="-27.3625231" lon="152.9701933">
<ele>59.086</ele>
<time>2017-09-12T22:34:11.137Z</time>
</trkpt>
<trkpt lat="-27.3627723" lon="152.9705115">
<ele>59.396</ele>
<time>2017-09-12T22:34:14.082Z</time>
</trkpt>
<trkpt lat="-27.3629475" lon="152.9707147">
<ele>59.635</ele>
<time>2017-09-12T22:34:16.075Z</time>
</trkpt>
<trkpt lat="-27.3631364" lon="152.9708951">
<ele>59.852</ele>
<time>2017-09-12T22:34:18.061Z</time>
</trkpt>
<trkpt lat="-27.3633452" lon="152.9710402">
<ele>60.098</ele>
<time>2017-09-12T22:34:20.018Z</time>
</trkpt>
<trkpt lat="-27.3635705" lon="152.9711654">
<ele>60.410</ele>
<time>2017-09-12T22:34:21.955Z</time>
</trkpt>
<trkpt lat="-27.3639280" lon="152.9713527">
<ele>60.840</ele>
<time>2017-09-12T22:34:24.991Z</time>
</trkpt>
<trkpt lat="-27.3642665" lon="152.9715359">
<ele>61.457</ele>
<time>2017-09-12T22:34:27.969Z</time>
</trkpt>
<trkpt lat="-27.3645893" lon="152.9717072">
<ele>62.393</ele>
<time>2017-09-12T22:34:30.913Z</time>
</trkpt>
<trkpt lat="-27.3647856" lon="152.9718382">
<ele>63.948</ele>
<time>2017-09-12T22:34:33.085Z</time>
</trkpt>
<trkpt lat="-27.3650010" lon="152.9719900">
<ele>66.241</ele>
<time>2017-09-12T22:34:36.334Z</time>
</trkpt>
<trkpt lat="-27.3651017" lon="152.9720776">
<ele>69.070</ele>
<time>2017-09-12T22:34:39.035Z</time>
</trkpt>
<trkpt lat="-27.3651788" lon="152.9721444">
<ele>72.125</ele>
<time>2017-09-12T22:34:41.677Z</time>
</trkpt>
<trkpt lat="-27.3653093" lon="152.9721408">
<ele>74.982</ele>
<time>2017-09-12T22:34:44.283Z</time>
</trkpt>
<trkpt lat="-27.3654901" lon="152.9718944">
<ele>77.229</ele>
<time>2017-09-12T22:34:47.481Z</time>
</trkpt>
<trkpt lat="-27.3656184" lon="152.9716196">
<ele>78.893</ele>
<time>2017-09-12T22:34:49.491Z</time>
</trkpt>
<trkpt lat="-27.3658754" lon="152.9711834">
<ele>80.274</ele>
<time>2017-09-12T22:34:52.595Z</time>
</trkpt>
<trkpt lat="-27.3660537" lon="152.9709157">
<ele>81.761</ele>
<time>2017-09-12T22:34:54.561Z</time>
</trkpt>
<trkpt lat="-27.3662524" lon="152.9706804">
<ele>83.554</ele>
<time>2017-09-12T22:34:56.537Z</time>
</trkpt>
<trkpt lat="-27.3664532" lon="152.9704672">
<ele>85.432</ele>
<time>2017-09-12T22:34:58.432Z</time>
</trkpt>
<trkpt lat="-27.3668053" lon="152.9701173">
<ele>87.092</ele>
<time>2017-09-12T22:35:01.488Z</time>
</trkpt>
<trkpt lat="-27.3671136" lon="152.9698989">
<ele>88.538</ele>
<time>2017-09-12T22:35:03.551Z</time>
</trkpt>
<trkpt lat="-27.3674415" lon="152.9696947">
<ele>89.822</ele>
<time>2017-09-12T22:35:05.519Z</time>
</trkpt>
<trkpt lat="-27.3680000" lon="152.9695191">
<ele>90.860</ele>
<time>2017-09-12T22:35:08.506Z</time>
</trkpt>
<trkpt lat="-27.3683048" lon="152.9692676">
<ele>91.631</ele>
<time>2017-09-12T22:35:10.506Z</time>
</trkpt>
<trkpt lat="-27.3686275" lon="152.9691115">
<ele>92.349</ele>
<time>2017-09-12T22:35:12.477Z</time>
</trkpt>
<trkpt lat="-27.3689002" lon="152.9689085">
<ele>93.187</ele>
<time>2017-09-12T22:35:14.402Z</time>
</trkpt>
<trkpt lat="-27.3691200" lon="152.9686587">
<ele>94.067</ele>
<time>2017-09-12T22:35:16.241Z</time>
</trkpt>
<trkpt lat="-27.3694617" lon="152.9682313">
<ele>94.766</ele>
<time>2017-09-12T22:35:19.204Z</time>
</trkpt>
<trkpt lat="-27.3698331" lon="152.9678247">
<ele>95.179</ele>
<time>2017-09-12T22:35:22.159Z</time>
</trkpt>
<trkpt lat="-27.3701439" lon="152.9676269">
<ele>95.370</ele>
<time>2017-09-12T22:35:24.147Z</time>
</trkpt>
<trkpt lat="-27.3704770" lon="152.9674126">
<ele>95.480</ele>
<time>2017-09-12T22:35:26.208Z</time>
</trkpt>
<trkpt lat="-27.3709735" lon="152.9671035">
<ele>95.629</ele>
<time>2017-09-12T22:35:29.201Z</time>
</trkpt>
<trkpt lat="-27.3713154" lon="152.9668746">
<ele>95.802</ele>
<time>2017-09-12T22:35:31.294Z</time>
</trkpt>
<trkpt lat="-27.3716448" lon="152.9666549">
<ele>95.869</ele>
<time>2017-09-12T22:35:33.323Z</time>
</trkpt>
<trkpt lat="-27.3720274" lon="152.9662046">
<ele>95.786</ele>
<time>2017-09-12T22:35:36.236Z</time>
</trkpt>
<trkpt lat="-27.3720957" lon="152.9657764">
<ele>95.714</ele>
<time>2017-09-12T22:35:38.220Z</time>
</trkpt>
<trkpt lat="-27.3723018" lon="152.9651620">
<ele>95.858</ele>
<time>2017-09-12T22:35:41.193Z</time>
</trkpt>
<trkpt lat="-27.3724475" lon="152.9647688">
<ele>96.300</ele>
<time>2017-09-12T22:35:43.125Z</time>
</trkpt>
<trkpt lat="-27.3726156" lon="152.9643692">
<ele>96.977</ele>
<time>2017-09-12T22:35:45.127Z</time>
</trkpt>
<trkpt lat="-27.3729018" lon="152.9640620">
<ele>97.724</ele>
<time>2017-09-12T22:35:47.137Z</time>
</trkpt>
<trkpt lat="-27.3732085" lon="152.9637621">
<ele>98.431</ele>
<time>2017-09-12T22:35:49.251Z</time>
</trkpt>
<trkpt lat="-27.3735481" lon="152.9632553">
<ele>99.067</ele>
<time>2017-09-12T22:35:52.293Z</time>
</trkpt>
<trkpt lat="-27.3735980" lon="152.9626875">
<ele>99.642</ele>
<time>2017-09-12T22:35:55.105Z</time>
</trkpt>
<trkpt lat="-27.3736468" lon="152.9622725">
<ele>100.250</ele>
<time>2017-09-12T22:35:57.132Z</time>
</trkpt>
<trkpt lat="-27.3736946" lon="152.9616458">
<ele>100.965</ele>
<time>2017-09-12T22:36:00.102Z</time>
</trkpt>
<trkpt lat="-27.3737315" lon="152.9612221">
<ele>101.876</ele>
<time>2017-09-12T22:36:02.072Z</time>
</trkpt>
<trkpt lat="-27.3737464" lon="152.9607961">
<ele>103.103</ele>
<time>2017-09-12T22:36:04.044Z</time>
</trkpt>
<trkpt lat="-27.3737508" lon="152.9603765">
<ele>104.550</ele>
<time>2017-09-12T22:36:06.010Z</time>
</trkpt>
<trkpt lat="-27.3737392" lon="152.9599660">
<ele>105.894</ele>
<time>2017-09-12T22:36:08.011Z</time>
</trkpt>
<trkpt lat="-27.3737881" lon="152.9594096">
<ele>106.866</ele>
<time>2017-09-12T22:36:10.843Z</time>
</trkpt>
<trkpt lat="-27.3738313" lon="152.9590291">
<ele>107.421</ele>
<time>2017-09-12T22:36:12.826Z</time>
</trkpt>
<trkpt lat="-27.3738616" lon="152.9584533">
<ele>107.740</ele>
<time>2017-09-12T22:36:15.782Z</time>
</trkpt>
<trkpt lat="-27.3739278" lon="152.9578716">
<ele>108.117</ele>
<time>2017-09-12T22:36:18.716Z</time>
</trkpt>
<trkpt lat="-27.3740953" lon="152.9572771">
<ele>108.826</ele>
<time>2017-09-12T22:36:21.680Z</time>
</trkpt>
<trkpt lat="-27.3744574" lon="152.9567310">
<ele>110.032</ele>
<time>2017-09-12T22:36:24.744Z</time>
</trkpt>
<trkpt lat="-27.3747349" lon="152.9561443">
<ele>111.705</ele>
<time>2017-09-12T22:36:27.702Z</time>
</trkpt>
<trkpt lat="-27.3747888" lon="152.9557068">
<ele>113.584</ele>
<time>2017-09-12T22:36:29.677Z</time>
</trkpt>
<trkpt lat="-27.3748050" lon="152.9552466">
<ele>115.273</ele>
<time>2017-09-12T22:36:31.711Z</time>
</trkpt>
<trkpt lat="-27.3748401" lon="152.9545652">
<ele>116.521</ele>
<time>2017-09-12T22:36:34.710Z</time>
</trkpt>
<trkpt lat="-27.3748271" lon="152.9541346">
<ele>117.399</ele>
<time>2017-09-12T22:36:36.673Z</time>
</trkpt>
<trkpt lat="-27.3748208" lon="152.9535426">
<ele>118.028</ele>
<time>2017-09-12T22:36:39.519Z</time>
</trkpt>
<trkpt lat="-27.3749930" lon="152.9529781">
<ele>118.351</ele>
<time>2017-09-12T22:36:42.504Z</time>
</trkpt>
<trkpt lat="-27.3752141" lon="152.9525556">
<ele>118.372</ele>
<time>2017-09-12T22:36:44.857Z</time>
</trkpt>
<trkpt lat="-27.3754776" lon="152.9522536">
<ele>118.267</ele>
<time>2017-09-12T22:36:46.834Z</time>
</trkpt>
<trkpt lat="-27.3757154" lon="152.9519479">
<ele>118.174</ele>
<time>2017-09-12T22:36:48.752Z</time>
</trkpt>
<trkpt lat="-27.3761051" lon="152.9515026">
<ele>118.107</ele>
<time>2017-09-12T22:36:51.733Z</time>
</trkpt>
<trkpt lat="-27.3765136" lon="152.9510750">
<ele>118.038</ele>
<time>2017-09-12T22:36:54.701Z</time>
</trkpt>
<trkpt lat="-27.3768243" lon="152.9508136">
<ele>118.030</ele>
<time>2017-09-12T22:36:56.730Z</time>
</trkpt>
<trkpt lat="-27.3773024" lon="152.9504492">
<ele>118.253</ele>
<time>2017-09-12T22:36:59.739Z</time>
</trkpt>
<trkpt lat="-27.3777558" lon="152.9500923">
<ele>118.956</ele>
<time>2017-09-12T22:37:02.694Z</time>
</trkpt>
<trkpt lat="-27.3782554" lon="152.9498469">
<ele>120.247</ele>
<time>2017-09-12T22:37:05.653Z</time>
</trkpt>
<trkpt lat="-27.3788083" lon="152.9495653">
<ele>121.845</ele>
<time>2017-09-12T22:37:08.796Z</time>
</trkpt>
<trkpt lat="-27.3793205" lon="152.9492983">
<ele>123.207</ele>
<time>2017-09-12T22:37:11.704Z</time>
</trkpt>
<trkpt lat="-27.3797545" lon="152.9489522">
<ele>123.969</ele>
<time>2017-09-12T22:37:14.611Z</time>
</trkpt>
<trkpt lat="-27.3801129" lon="152.9485597">
<ele>124.045</ele>
<time>2017-09-12T22:37:17.484Z</time>
</trkpt>
<trkpt lat="-27.3803445" lon="152.9483204">
<ele>123.652</ele>
<time>2017-09-12T22:37:19.388Z</time>
</trkpt>
<trkpt lat="-27.3806122" lon="152.9481834">
<ele>123.251</ele>
<time>2017-09-12T22:37:21.322Z</time>
</trkpt>
<trkpt lat="-27.3808250" lon="152.9482097">
<ele>123.262</ele>
<time>2017-09-12T22:37:22.912Z</time>
</trkpt>
<trkpt lat="-27.3809975" lon="152.9482747">
<ele>123.735</ele>
<time>2017-09-12T22:37:24.891Z</time>
</trkpt>
<trkpt lat="-27.3810901" lon="152.9483243">
<ele>124.421</ele>
<time>2017-09-12T22:37:26.061Z</time>
</trkpt>
<trkpt lat="-27.3811653" lon="152.9483868">
<ele>125.046</ele>
<time>2017-09-12T22:37:28.108Z</time>
</trkpt>
<trkpt lat="-27.3812555" lon="152.9484213">
<ele>125.543</ele>
<time>2017-09-12T22:37:30.788Z</time>
</trkpt>
<trkpt lat="-27.3813786" lon="152.9484224">
<ele>125.993</ele>
<time>2017-09-12T22:37:36.551Z</time>
</trkpt>
<trkpt lat="-27.3814974" lon="152.9483954">
<ele>126.462</ele>
<time>2017-09-12T22:37:42.510Z</time>
</trkpt>
<trkpt lat="-27.3815763" lon="152.9479202">
<ele>126.985</ele>
<time>2017-09-12T22:37:50.643Z</time>
</trkpt>
<trkpt lat="-27.3815851" lon="152.9475987">
<ele>127.656</ele>
<time>2017-09-12T22:37:52.723Z</time>
</trkpt>
<trkpt lat="-27.3816395" lon="152.9472602">
<ele>128.403</ele>
<time>2017-09-12T22:37:54.790Z</time>
</trkpt>
<trkpt lat="-27.3816849" lon="152.9467402">
<ele>128.932</ele>
<time>2017-09-12T22:37:57.828Z</time>
</trkpt>
<trkpt lat="-27.3817325" lon="152.9462457">
<ele>129.004</ele>
<time>2017-09-12T22:38:00.712Z</time>
</trkpt>
<trkpt lat="-27.3818362" lon="152.9457544">
<ele>128.526</ele>
<time>2017-09-12T22:38:03.659Z</time>
</trkpt>
<trkpt lat="-27.3818254" lon="152.9452191">
<ele>127.525</ele>
<time>2017-09-12T22:38:06.687Z</time>
</trkpt>
<trkpt lat="-27.3818875" lon="152.9446965">
<ele>126.181</ele>
<time>2017-09-12T22:38:09.609Z</time>
</trkpt>
<trkpt lat="-27.3820128" lon="152.9443649">
<ele>124.898</ele>
<time>2017-09-12T22:38:11.617Z</time>
</trkpt>
<trkpt lat="-27.3820831" lon="152.9440110">
<ele>124.146</ele>
<time>2017-09-12T22:38:13.623Z</time>
</trkpt>
<trkpt lat="-27.3822324" lon="152.9434900">
<ele>124.100</ele>
<time>2017-09-12T22:38:16.582Z</time>
</trkpt>
<trkpt lat="-27.3823419" lon="152.9431356">
<ele>124.632</ele>
<time>2017-09-12T22:38:18.571Z</time>
</trkpt>
<trkpt lat="-27.3825413" lon="152.9426323">
<ele>125.454</ele>
<time>2017-09-12T22:38:21.511Z</time>
</trkpt>
<trkpt lat="-27.3827254" lon="152.9423299">
<ele>126.252</ele>
<time>2017-09-12T22:38:23.485Z</time>
</trkpt>
<trkpt lat="-27.3828823" lon="152.9419970">
<ele>126.990</ele>
<time>2017-09-12T22:38:25.479Z</time>
</trkpt>
<trkpt lat="-27.3831281" lon="152.9414807">
<ele>127.873</ele>
<time>2017-09-12T22:38:28.493Z</time>
</trkpt>
<trkpt lat="-27.3832176" lon="152.9411034">
<ele>129.099</ele>
<time>2017-09-12T22:38:30.468Z</time>
</trkpt>
<trkpt lat="-27.3832541" lon="152.9405103">
<ele>130.573</ele>
<time>2017-09-12T22:38:33.452Z</time>
</trkpt>
<trkpt lat="-27.3833039" lon="152.9401219">
<ele>132.026</ele>
<time>2017-09-12T22:38:35.418Z</time>
</trkpt>
<trkpt lat="-27.3832595" lon="152.9397428">
<ele>133.183</ele>
<time>2017-09-12T22:38:37.354Z</time>
</trkpt>
<trkpt lat="-27.3831253" lon="152.9391786">
<ele>133.795</ele>
<time>2017-09-12T22:38:40.343Z</time>
</trkpt>
<trkpt lat="-27.3830375" lon="152.9388056">
<ele>133.626</ele>
<time>2017-09-12T22:38:42.327Z</time>
</trkpt>
<trkpt lat="-27.3829153" lon="152.9384517">
<ele>132.688</ele>
<time>2017-09-12T22:38:44.285Z</time>
</trkpt>
<trkpt lat="-27.3826241" lon="152.9380116">
<ele>131.467</ele>
<time>2017-09-12T22:38:47.152Z</time>
</trkpt>
<trkpt lat="-27.3822615" lon="152.9376473">
<ele>130.598</ele>
<time>2017-09-12T22:38:50.073Z</time>
</trkpt>
<trkpt lat="-27.3819280" lon="152.9372957">
<ele>130.234</ele>
<time>2017-09-12T22:38:52.915Z</time>
</trkpt>
<trkpt lat="-27.3816838" lon="152.9371175">
<ele>130.020</ele>
<time>2017-09-12T22:38:54.801Z</time>
</trkpt>
<trkpt lat="-27.3813817" lon="152.9370936">
<ele>129.487</ele>
<time>2017-09-12T22:38:56.822Z</time>
</trkpt>
<trkpt lat="-27.3810564" lon="152.9371566">
<ele>128.461</ele>
<time>2017-09-12T22:38:59.008Z</time>
</trkpt>
<trkpt lat="-27.3806149" lon="152.9371241">
<ele>127.074</ele>
<time>2017-09-12T22:39:01.924Z</time>
</trkpt>
<trkpt lat="-27.3803148" lon="152.9371634">
<ele>125.433</ele>
<time>2017-09-12T22:39:03.916Z</time>
</trkpt>
<trkpt lat="-27.3799883" lon="152.9372766">
<ele>123.695</ele>
<time>2017-09-12T22:39:06.049Z</time>
</trkpt>
<trkpt lat="-27.3795569" lon="152.9375262">
<ele>122.175</ele>
<time>2017-09-12T22:39:08.979Z</time>
</trkpt>
<trkpt lat="-27.3793126" lon="152.9377506">
<ele>120.978</ele>
<time>2017-09-12T22:39:10.904Z</time>
</trkpt>
<trkpt lat="-27.3789618" lon="152.9381224">
<ele>119.923</ele>
<time>2017-09-12T22:39:13.809Z</time>
</trkpt>
<trkpt lat="-27.3787406" lon="152.9384461">
<ele>118.933</ele>
<time>2017-09-12T22:39:15.899Z</time>
</trkpt>
<trkpt lat="-27.3783846" lon="152.9389362">
<ele>118.091</ele>
<time>2017-09-12T22:39:18.942Z</time>
</trkpt>
<trkpt lat="-27.3781448" lon="152.9392917">
<ele>117.508</ele>
<time>2017-09-12T22:39:20.986Z</time>
</trkpt>
<trkpt lat="-27.3777565" lon="152.9397761">
<ele>117.212</ele>
<time>2017-09-12T22:39:23.946Z</time>
</trkpt>
<trkpt lat="-27.3775575" lon="152.9401212">
<ele>116.987</ele>
<time>2017-09-12T22:39:25.847Z</time>
</trkpt>
<trkpt lat="-27.3773480" lon="152.9404346">
<ele>116.573</ele>
<time>2017-09-12T22:39:27.731Z</time>
</trkpt>
<trkpt lat="-27.3771750" lon="152.9407409">
<ele>115.985</ele>
<time>2017-09-12T22:39:29.571Z</time>
</trkpt>
<trkpt lat="-27.3769315" lon="152.9411298">
<ele>115.357</ele>
<time>2017-09-12T22:39:32.239Z</time>
</trkpt>
<trkpt lat="-27.3767620" lon="152.9413503">
<ele>114.669</ele>
<time>2017-09-12T22:39:34.025Z</time>
</trkpt>
<trkpt lat="-27.3765687" lon="152.9417208">
<ele>113.956</ele>
<time>2017-09-12T22:39:36.876Z</time>
</trkpt>
<trkpt lat="-27.3763417" lon="152.9418796">
<ele>113.424</ele>
<time>2017-09-12T22:39:38.901Z</time>
</trkpt>
<trkpt lat="-27.3758898" lon="152.9419624">
<ele>113.224</ele>
<time>2017-09-12T22:39:42.132Z</time>
</trkpt>
<trkpt lat="-27.3753051" lon="152.9418815">
<ele>113.447</ele>
<time>2017-09-12T22:39:45.656Z</time>
</trkpt>
<trkpt lat="-27.3747275" lon="152.9418413">
<ele>114.221</ele>
<time>2017-09-12T22:39:48.781Z</time>
</trkpt>
<trkpt lat="-27.3743654" lon="152.9417843">
<ele>115.328</ele>
<time>2017-09-12T22:39:50.737Z</time>
</trkpt>
<trkpt lat="-27.3738449" lon="152.9416751">
<ele>116.211</ele>
<time>2017-09-12T22:39:53.607Z</time>
</trkpt>
<trkpt lat="-27.3735265" lon="152.9415320">
<ele>116.597</ele>
<time>2017-09-12T22:39:55.505Z</time>
</trkpt>
<trkpt lat="-27.3732045" lon="152.9413386">
<ele>116.638</ele>
<time>2017-09-12T22:39:57.548Z</time>
</trkpt>
<trkpt lat="-27.3729139" lon="152.9410460">
<ele>116.564</ele>
<time>2017-09-12T22:39:59.662Z</time>
</trkpt>
<trkpt lat="-27.3725784" lon="152.9404569">
<ele>116.404</ele>
<time>2017-09-12T22:40:02.823Z</time>
</trkpt>
<trkpt lat="-27.3723078" lon="152.9401518">
<ele>115.923</ele>
<time>2017-09-12T22:40:04.763Z</time>
</trkpt>
<trkpt lat="-27.3720013" lon="152.9399408">
<ele>114.979</ele>
<time>2017-09-12T22:40:06.700Z</time>
</trkpt>
<trkpt lat="-27.3714516" lon="152.9399688">
<ele>113.741</ele>
<time>2017-09-12T22:40:09.794Z</time>
</trkpt>
<trkpt lat="-27.3709549" lon="152.9400139">
<ele>112.294</ele>
<time>2017-09-12T22:40:12.668Z</time>
</trkpt>
<trkpt lat="-27.3705151" lon="152.9398594">
<ele>110.516</ele>
<time>2017-09-12T22:40:15.439Z</time>
</trkpt>
<trkpt lat="-27.3702402" lon="152.9394852">
<ele>108.332</ele>
<time>2017-09-12T22:40:18.004Z</time>
</trkpt>
<trkpt lat="-27.3701279" lon="152.9390396">
<ele>105.902</ele>
<time>2017-09-12T22:40:20.224Z</time>
</trkpt>
<trkpt lat="-27.3700405" lon="152.9386180">
<ele>103.606</ele>
<time>2017-09-12T22:40:22.204Z</time>
</trkpt>
<trkpt lat="-27.3699897" lon="152.9382133">
<ele>101.661</ele>
<time>2017-09-12T22:40:24.102Z</time>
</trkpt>
<trkpt lat="-27.3699168" lon="152.9378349">
<ele>99.883</ele>
<time>2017-09-12T22:40:25.991Z</time>
</trkpt>
<trkpt lat="-27.3697372" lon="152.9373489">
<ele>97.968</ele>
<time>2017-09-12T22:40:28.782Z</time>
</trkpt>
<trkpt lat="-27.3696065" lon="152.9370797">
<ele>95.522</ele>
<time>2017-09-12T22:40:30.560Z</time>
</trkpt>
<trkpt lat="-27.3692635" lon="152.9368046">
<ele>91.956</ele>
<time>2017-09-12T22:40:33.474Z</time>
</trkpt>
<trkpt lat="-27.3689831" lon="152.9366846">
<ele>86.365</ele>
<time>2017-09-12T22:40:35.532Z</time>
</trkpt>
<trkpt lat="-27.3685418" lon="152.9364380">
<ele>78.936</ele>
<time>2017-09-12T22:40:38.703Z</time>
</trkpt>
<trkpt lat="-27.3681375" lon="152.9361123">
<ele>71.290</ele>
<time>2017-09-12T22:40:41.727Z</time>
</trkpt>
<trkpt lat="-27.3678386" lon="152.9358719">
<ele>64.487</ele>
<time>2017-09-12T22:40:43.874Z</time>
</trkpt>
<trkpt lat="-27.3675638" lon="152.9352979">
<ele>59.170</ele>
<time>2017-09-12T22:40:47.026Z</time>
</trkpt>
<trkpt lat="-27.3674341" lon="152.9348696">
<ele>56.667</ele>
<time>2017-09-12T22:40:49.070Z</time>
</trkpt>
<trkpt lat="-27.3672770" lon="152.9341855">
<ele>56.964</ele>
<time>2017-09-12T22:40:52.133Z</time>
</trkpt>
<trkpt lat="-27.3672403" lon="152.9337400">
<ele>57.478</ele>
<time>2017-09-12T22:40:54.046Z</time>
</trkpt>
<trkpt lat="-27.3673214" lon="152.9330721">
<ele>56.105</ele>
<time>2017-09-12T22:40:56.949Z</time>
</trkpt>
<trkpt lat="-27.3673170" lon="152.9326482">
<ele>53.673</ele>
<time>2017-09-12T22:40:58.844Z</time>
</trkpt>
<trkpt lat="-27.3673242" lon="152.9322484">
<ele>51.869</ele>
<time>2017-09-12T22:41:00.729Z</time>
</trkpt>
<trkpt lat="-27.3672103" lon="152.9318842">
<ele>51.042</ele>
<time>2017-09-12T22:41:02.621Z</time>
</trkpt>
<trkpt lat="-27.3669892" lon="152.9315808">
<ele>50.592</ele>
<time>2017-09-12T22:41:04.583Z</time>
</trkpt>
<trkpt lat="-27.3666238" lon="152.9311229">
<ele>49.678</ele>
<time>2017-09-12T22:41:07.624Z</time>
</trkpt>
<trkpt lat="-27.3662663" lon="152.9306747">
<ele>47.747</ele>
<time>2017-09-12T22:41:10.555Z</time>
</trkpt>
<trkpt lat="-27.3658591" lon="152.9302383">
<ele>45.273</ele>
<time>2017-09-12T22:41:13.636Z</time>
</trkpt>
<trkpt lat="-27.3657074" lon="152.9298311">
<ele>43.875</ele>
<time>2017-09-12T22:41:15.749Z</time>
</trkpt>
<trkpt lat="-27.3657538" lon="152.9290528">
<ele>44.318</ele>
<time>2017-09-12T22:41:19.180Z</time>
</trkpt>
<trkpt lat="-27.3656883" lon="152.9283959">
<ele>45.569</ele>
<time>2017-09-12T22:41:21.953Z</time>
</trkpt>
<trkpt lat="-27.3656202" lon="152.9278926">
<ele>46.558</ele>
<time>2017-09-12T22:41:24.426Z</time>
</trkpt>
<trkpt lat="-27.3655859" lon="152.9275454">
<ele>47.455</ele>
<time>2017-09-12T22:41:26.323Z</time>
</trkpt>
<trkpt lat="-27.3656268" lon="152.9271761">
<ele>48.922</ele>
<time>2017-09-12T22:41:28.416Z</time>
</trkpt>
<trkpt lat="-27.3655594" lon="152.9266215">
<ele>51.070</ele>
<time>2017-09-12T22:41:31.435Z</time>
</trkpt>
<trkpt lat="-27.3653638" lon="152.9260870">
<ele>53.481</ele>
<time>2017-09-12T22:41:34.464Z</time>
</trkpt>
<trkpt lat="-27.3652216" lon="152.9257638">
<ele>55.579</ele>
<time>2017-09-12T22:41:36.350Z</time>
</trkpt>
<trkpt lat="-27.3650397" lon="152.9254410">
<ele>56.777</ele>
<time>2017-09-12T22:41:38.351Z</time>
</trkpt>
<trkpt lat="-27.3646157" lon="152.9251094">
<ele>57.114</ele>
<time>2017-09-12T22:41:41.339Z</time>
</trkpt>
<trkpt lat="-27.3642844" lon="152.9249816">
<ele>57.282</ele>
<time>2017-09-12T22:41:43.343Z</time>
</trkpt>
<trkpt lat="-27.3637678" lon="152.9249648">
<ele>57.987</ele>
<time>2017-09-12T22:41:46.305Z</time>
</trkpt>
<trkpt lat="-27.3634353" lon="152.9250951">
<ele>59.827</ele>
<time>2017-09-12T22:41:48.339Z</time>
</trkpt>
<trkpt lat="-27.3630229" lon="152.9253402">
<ele>62.892</ele>
<time>2017-09-12T22:41:51.169Z</time>
</trkpt>
<trkpt lat="-27.3627757" lon="152.9257554">
<ele>66.079</ele>
<time>2017-09-12T22:41:54.014Z</time>
</trkpt>
<trkpt lat="-27.3625798" lon="152.9262673">
<ele>68.014</ele>
<time>2017-09-12T22:41:57.158Z</time>
</trkpt>
<trkpt lat="-27.3624319" lon="152.9268269">
<ele>68.455</ele>
<time>2017-09-12T22:42:00.307Z</time>
</trkpt>
<trkpt lat="-27.3623048" lon="152.9273476">
<ele>68.043</ele>
<time>2017-09-12T22:42:03.254Z</time>
</trkpt>
<trkpt lat="-27.3622255" lon="152.9276359">
<ele>67.745</ele>
<time>2017-09-12T22:42:04.988Z</time>
</trkpt>
<trkpt lat="-27.3620819" lon="152.9278966">
<ele>68.328</ele>
<time>2017-09-12T22:42:06.859Z</time>
</trkpt>
<trkpt lat="-27.3619042" lon="152.9281616">
<ele>69.858</ele>
<time>2017-09-12T22:42:08.938Z</time>
</trkpt>
<trkpt lat="-27.3615920" lon="152.9285373">
<ele>72.020</ele>
<time>2017-09-12T22:42:12.069Z</time>
</trkpt>
<trkpt lat="-27.3613396" lon="152.9286818">
<ele>74.676</ele>
<time>2017-09-12T22:42:13.989Z</time>
</trkpt>
<trkpt lat="-27.3610549" lon="152.9286712">
<ele>77.584</ele>
<time>2017-09-12T22:42:15.958Z</time>
</trkpt>
<trkpt lat="-27.3607049" lon="152.9285014">
<ele>80.134</ele>
<time>2017-09-12T22:42:18.629Z</time>
</trkpt>
<trkpt lat="-27.3604531" lon="152.9282699">
<ele>81.860</ele>
<time>2017-09-12T22:42:20.786Z</time>
</trkpt>
<trkpt lat="-27.3600811" lon="152.9279207">
<ele>82.765</ele>
<time>2017-09-12T22:42:23.783Z</time>
</trkpt>
<trkpt lat="-27.3598271" lon="152.9276310">
<ele>83.019</ele>
<time>2017-09-12T22:42:25.887Z</time>
</trkpt>
<trkpt lat="-27.3595594" lon="152.9273341">
<ele>82.793</ele>
<time>2017-09-12T22:42:27.960Z</time>
</trkpt>
<trkpt lat="-27.3592716" lon="152.9271057">
<ele>82.179</ele>
<time>2017-09-12T22:42:29.914Z</time>
</trkpt>
<trkpt lat="-27.3587245" lon="152.9270224">
<ele>81.202</ele>
<time>2017-09-12T22:42:33.015Z</time>
</trkpt>
<trkpt lat="-27.3583464" lon="152.9270813">
<ele>79.769</ele>
<time>2017-09-12T22:42:35.116Z</time>
</trkpt>
<trkpt lat="-27.3579958" lon="152.9270793">
<ele>77.793</ele>
<time>2017-09-12T22:42:37.046Z</time>
</trkpt>
<trkpt lat="-27.3576476" lon="152.9270490">
<ele>75.467</ele>
<time>2017-09-12T22:42:39.009Z</time>
</trkpt>
<trkpt lat="-27.3571995" lon="152.9267715">
<ele>73.111</ele>
<time>2017-09-12T22:42:41.921Z</time>
</trkpt>
<trkpt lat="-27.3567283" lon="152.9265220">
<ele>70.879</ele>
<time>2017-09-12T22:42:44.892Z</time>
</trkpt>
<trkpt lat="-27.3561957" lon="152.9265152">
<ele>69.068</ele>
<time>2017-09-12T22:42:47.907Z</time>
</trkpt>
<trkpt lat="-27.3558359" lon="152.9265665">
<ele>68.065</ele>
<time>2017-09-12T22:42:49.917Z</time>
</trkpt>
<trkpt lat="-27.3554669" lon="152.9266040">
<ele>68.206</ele>
<time>2017-09-12T22:42:51.925Z</time>
</trkpt>
<trkpt lat="-27.3549581" lon="152.9265275">
<ele>69.298</ele>
<time>2017-09-12T22:42:54.748Z</time>
</trkpt>
<trkpt lat="-27.3544940" lon="152.9264486">
<ele>70.399</ele>
<time>2017-09-12T22:42:57.518Z</time>
</trkpt>
<trkpt lat="-27.3541781" lon="152.9264101">
<ele>70.579</ele>
<time>2017-09-12T22:42:59.470Z</time>
</trkpt>
<trkpt lat="-27.3538613" lon="152.9263060">
<ele>69.802</ele>
<time>2017-09-12T22:43:01.500Z</time>
</trkpt>
<trkpt lat="-27.3535571" lon="152.9262984">
<ele>68.723</ele>
<time>2017-09-12T22:43:03.383Z</time>
</trkpt>
<trkpt lat="-27.3532727" lon="152.9262420">
<ele>68.003</ele>
<time>2017-09-12T22:43:05.224Z</time>
</trkpt>
<trkpt lat="-27.3528024" lon="152.9261590">
<ele>67.797</ele>
<time>2017-09-12T22:43:08.259Z</time>
</trkpt>
<trkpt lat="-27.3524908" lon="152.9260428">
<ele>67.963</ele>
<time>2017-09-12T22:43:10.283Z</time>
</trkpt>
<trkpt lat="-27.3520367" lon="152.9258658">
<ele>68.256</ele>
<time>2017-09-12T22:43:13.200Z</time>
</trkpt>
<trkpt lat="-27.3517639" lon="152.9256281">
<ele>68.424</ele>
<time>2017-09-12T22:43:15.286Z</time>
</trkpt>
<trkpt lat="-27.3515096" lon="152.9249268">
<ele>68.385</ele>
<time>2017-09-12T22:43:18.997Z</time>
</trkpt>
<trkpt lat="-27.3514545" lon="152.9244349">
<ele>68.236</ele>
<time>2017-09-12T22:43:21.185Z</time>
</trkpt>
<trkpt lat="-27.3513786" lon="152.9238498">
<ele>68.048</ele>
<time>2017-09-12T22:43:23.885Z</time>
</trkpt>
<trkpt lat="-27.3511545" lon="152.9233404">
<ele>67.643</ele>
<time>2017-09-12T22:43:26.643Z</time>
</trkpt>
<trkpt lat="-27.3509668" lon="152.9230649">
<ele>66.860</ele>
<time>2017-09-12T22:43:28.442Z</time>
</trkpt>
<trkpt lat="-27.3507444" lon="152.9226571">
<ele>65.977</ele>
<time>2017-09-12T22:43:31.162Z</time>
</trkpt>
<trkpt lat="-27.3505555" lon="152.9222465">
<ele>65.420</ele>
<time>2017-09-12T22:43:33.965Z</time>
</trkpt>
<trkpt lat="-27.3502960" lon="152.9218324">
<ele>65.142</ele>
<time>2017-09-12T22:43:37.091Z</time>
</trkpt>
<trkpt lat="-27.3502263" lon="152.9215214">
<ele>64.536</ele>
<time>2017-09-12T22:43:39.047Z</time>
</trkpt>
<trkpt lat="-27.3502466" lon="152.9210528">
<ele>63.053</ele>
<time>2017-09-12T22:43:41.898Z</time>
</trkpt>
<trkpt lat="-27.3502623" lon="152.9207595">
<ele>60.557</ele>
<time>2017-09-12T22:43:43.728Z</time>
</trkpt>
<trkpt lat="-27.3503354" lon="152.9205059">
<ele>57.342</ele>
<time>2017-09-12T22:43:45.488Z</time>
</trkpt>
<trkpt lat="-27.3503649" lon="152.9201236">
<ele>54.101</ele>
<time>2017-09-12T22:43:48.276Z</time>
</trkpt>
<trkpt lat="-27.3503653" lon="152.9198698">
<ele>51.308</ele>
<time>2017-09-12T22:43:50.193Z</time>
</trkpt>
<trkpt lat="-27.3502877" lon="152.9196179">
<ele>48.904</ele>
<time>2017-09-12T22:43:52.265Z</time>
</trkpt>
<trkpt lat="-27.3502601" lon="152.9193628">
<ele>46.867</ele>
<time>2017-09-12T22:43:54.248Z</time>
</trkpt>
<trkpt lat="-27.3501470" lon="152.9191461">
<ele>45.240</ele>
<time>2017-09-12T22:43:56.172Z</time>
</trkpt>
<trkpt lat="-27.3501163" lon="152.9188299">
<ele>43.885</ele>
<time>2017-09-12T22:43:58.724Z</time>
</trkpt>
<trkpt lat="-27.3501819" lon="152.9186838">
<ele>42.485</ele>
<time>2017-09-12T22:44:00.116Z</time>
</trkpt>
<trkpt lat="-27.3502881" lon="152.9185874">
<ele>40.771</ele>
<time>2017-09-12T22:44:01.502Z</time>
</trkpt>
<trkpt lat="-27.3504824" lon="152.9185588">
<ele>38.798</ele>
<time>2017-09-12T22:44:03.885Z</time>
</trkpt>
<trkpt lat="-27.3506650" lon="152.9185740">
<ele>36.848</ele>
<time>2017-09-12T22:44:06.461Z</time>
</trkpt>
<trkpt lat="-27.3508441" lon="152.9185165">
<ele>35.244</ele>
<time>2017-09-12T22:44:09.023Z</time>
</trkpt>
<trkpt lat="-27.3510622" lon="152.9183822">
<ele>34.252</ele>
<time>2017-09-12T22:44:12.042Z</time>
</trkpt>
<trkpt lat="-27.3511890" lon="152.9182122">
<ele>33.963</ele>
<time>2017-09-12T22:44:14.413Z</time>
</trkpt>
<trkpt lat="-27.3512875" lon="152.9181051">
<ele>34.306</ele>
<time>2017-09-12T22:44:16.206Z</time>
</trkpt>
<trkpt lat="-27.3512580" lon="152.9179062">
<ele>35.072</ele>
<time>2017-09-12T22:44:18.733Z</time>
</trkpt>
<trkpt lat="-27.3511348" lon="152.9176545">
<ele>36.034</ele>
<time>2017-09-12T22:44:22.278Z</time>
</trkpt>
<trkpt lat="-27.3510377" lon="152.9174738">
<ele>37.027</ele>
<time>2017-09-12T22:44:24.602Z</time>
</trkpt>
<trkpt lat="-27.3508605" lon="152.9173152">
<ele>37.875</ele>
<time>2017-09-12T22:44:26.992Z</time>
</trkpt>
<trkpt lat="-27.3505503" lon="152.9171328">
<ele>38.405</ele>
<time>2017-09-12T22:44:30.103Z</time>
</trkpt>
<trkpt lat="-27.3502642" lon="152.9171263">
<ele>38.632</ele>
<time>2017-09-12T22:44:32.376Z</time>
</trkpt>
<trkpt lat="-27.3497841" lon="152.9171789">
<ele>38.762</ele>
<time>2017-09-12T22:44:35.781Z</time>
</trkpt>
<trkpt lat="-27.3494006" lon="152.9171939">
<ele>39.276</ele>
<time>2017-09-12T22:44:38.388Z</time>
</trkpt>
<trkpt lat="-27.3490980" lon="152.9169766">
<ele>40.779</ele>
<time>2017-09-12T22:44:40.991Z</time>
</trkpt>
<trkpt lat="-27.3488466" lon="152.9166431">
<ele>43.209</ele>
<time>2017-09-12T22:44:43.991Z</time>
</trkpt>
<trkpt lat="-27.3487442" lon="152.9161398">
<ele>45.551</ele>
<time>2017-09-12T22:44:47.387Z</time>
</trkpt>
<trkpt lat="-27.3487981" lon="152.9158087">
<ele>46.874</ele>
<time>2017-09-12T22:44:49.442Z</time>
</trkpt>
<trkpt lat="-27.3488858" lon="152.9154859">
<ele>47.170</ele>
<time>2017-09-12T22:44:51.459Z</time>
</trkpt>
<trkpt lat="-27.3489192" lon="152.9149934">
<ele>47.094</ele>
<time>2017-09-12T22:44:54.420Z</time>
</trkpt>
<trkpt lat="-27.3489781" lon="152.9146750">
<ele>47.193</ele>
<time>2017-09-12T22:44:56.380Z</time>
</trkpt>
<trkpt lat="-27.3489831" lon="152.9143224">
<ele>47.518</ele>
<time>2017-09-12T22:44:58.491Z</time>
</trkpt>
<trkpt lat="-27.3488929" lon="152.9139815">
<ele>47.859</ele>
<time>2017-09-12T22:45:00.565Z</time>
</trkpt>
<trkpt lat="-27.3486643" lon="152.9135155">
<ele>48.273</ele>
<time>2017-09-12T22:45:03.587Z</time>
</trkpt>
<trkpt lat="-27.3484290" lon="152.9132756">
<ele>49.103</ele>
<time>2017-09-12T22:45:05.586Z</time>
</trkpt>
<trkpt lat="-27.3480096" lon="152.9129424">
<ele>50.261</ele>
<time>2017-09-12T22:45:08.671Z</time>
</trkpt>
<trkpt lat="-27.3476045" lon="152.9124691">
<ele>51.011</ele>
<time>2017-09-12T22:45:11.987Z</time>
</trkpt>
<trkpt lat="-27.3473825" lon="152.9119088">
<ele>50.991</ele>
<time>2017-09-12T22:45:14.944Z</time>
</trkpt>
<trkpt lat="-27.3473219" lon="152.9115072">
<ele>50.865</ele>
<time>2017-09-12T22:45:16.892Z</time>
</trkpt>
<trkpt lat="-27.3470215" lon="152.9110867">
<ele>51.551</ele>
<time>2017-09-12T22:45:19.657Z</time>
</trkpt>
<trkpt lat="-27.3467570" lon="152.9108888">
<ele>52.951</ele>
<time>2017-09-12T22:45:21.599Z</time>
</trkpt>
<trkpt lat="-27.3464609" lon="152.9107298">
<ele>53.656</ele>
<time>2017-09-12T22:45:23.617Z</time>
</trkpt>
<trkpt lat="-27.3460430" lon="152.9105204">
<ele>52.646</ele>
<time>2017-09-12T22:45:26.461Z</time>
</trkpt>
<trkpt lat="-27.3457564" lon="152.9104434">
<ele>50.607</ele>
<time>2017-09-12T22:45:28.391Z</time>
</trkpt>
<trkpt lat="-27.3454263" lon="152.9104503">
<ele>48.557</ele>
<time>2017-09-12T22:45:30.634Z</time>
</trkpt>
<trkpt lat="-27.3450877" lon="152.9105552">
<ele>46.734</ele>
<time>2017-09-12T22:45:33.010Z</time>
</trkpt>
<trkpt lat="-27.3447435" lon="152.9107440">
<ele>44.565</ele>
<time>2017-09-12T22:45:35.710Z</time>
</trkpt>
<trkpt lat="-27.3445457" lon="152.9108759">
<ele>41.251</ele>
<time>2017-09-12T22:45:37.514Z</time>
</trkpt>
<trkpt lat="-27.3444079" lon="152.9109255">
<ele>37.488</ele>
<time>2017-09-12T22:45:38.858Z</time>
</trkpt>
<trkpt lat="-27.3443711" lon="152.9107934">
<ele>35.007</ele>
<time>2017-09-12T22:45:40.527Z</time>
</trkpt>
<trkpt lat="-27.3444742" lon="152.9103216">
<ele>33.551</ele>
<time>2017-09-12T22:45:44.858Z</time>
</trkpt>
<trkpt lat="-27.3446564" lon="152.9097778">
<ele>31.935</ele>
<time>2017-09-12T22:45:48.307Z</time>
</trkpt>
<trkpt lat="-27.3447772" lon="152.9094804">
<ele>31.184</ele>
<time>2017-09-12T22:45:50.334Z</time>
</trkpt>
<trkpt lat="-27.3448459" lon="152.9091073">
<ele>32.746</ele>
<time>2017-09-12T22:45:53.028Z</time>
</trkpt>
<trkpt lat="-27.3448521" lon="152.9088933">
<ele>35.924</ele>
<time>2017-09-12T22:45:55.044Z</time>
</trkpt>
<trkpt lat="-27.3449288" lon="152.9086904">
<ele>39.303</ele>
<time>2017-09-12T22:45:57.803Z</time>
</trkpt>
<trkpt lat="-27.3449292" lon="152.9085722">
<ele>42.232</ele>
<time>2017-09-12T22:46:00.011Z</time>
</trkpt>
<trkpt lat="-27.3449292" lon="152.9085722">
<ele>44.382</ele>
<time>2017-09-12T22:46:06.011Z</time>
</trkpt>
<trkpt lat="-27.3449292" lon="152.9085722">
<ele>45.366</ele>
<time>2017-09-12T22:46:31.572Z</time>
</trkpt>
<trkpt lat="-27.3448112" lon="152.9084217">
<ele>45.234</ele>
<time>2017-09-12T22:46:38.469Z</time>
</trkpt>
<trkpt lat="-27.3446012" lon="152.9086203">
<ele>45.476</ele>
<time>2017-09-12T22:46:41.131Z</time>
</trkpt>
<trkpt lat="-27.3442770" lon="152.9089610">
<ele>47.106</ele>
<time>2017-09-12T22:46:44.195Z</time>
</trkpt>
<trkpt lat="-27.3440353" lon="152.9092432">
<ele>48.874</ele>
<time>2017-09-12T22:46:46.178Z</time>
</trkpt>
<trkpt lat="-27.3436847" lon="152.9096993">
<ele>49.235</ele>
<time>2017-09-12T22:46:48.978Z</time>
</trkpt>
<trkpt lat="-27.3434120" lon="152.9103039">
<ele>48.014</ele>
<time>2017-09-12T22:46:51.869Z</time>
</trkpt>
<trkpt lat="-27.3432899" lon="152.9107637">
<ele>45.475</ele>
<time>2017-09-12T22:46:53.803Z</time>
</trkpt>
<trkpt lat="-27.3432039" lon="152.9115070">
<ele>42.168</ele>
<time>2017-09-12T22:46:56.769Z</time>
</trkpt>
<trkpt lat="-27.3432280" lon="152.9120118">
<ele>38.742</ele>
<time>2017-09-12T22:46:58.747Z</time>
</trkpt>
<trkpt lat="-27.3433520" lon="152.9127343">
<ele>35.732</ele>
<time>2017-09-12T22:47:01.676Z</time>
</trkpt>
<trkpt lat="-27.3434364" lon="152.9131896">
<ele>33.699</ele>
<time>2017-09-12T22:47:03.632Z</time>
</trkpt>
<trkpt lat="-27.3435055" lon="152.9136180">
<ele>33.027</ele>
<time>2017-09-12T22:47:05.560Z</time>
</trkpt>
<trkpt lat="-27.3435324" lon="152.9142533">
<ele>33.684</ele>
<time>2017-09-12T22:47:08.446Z</time>
</trkpt>
<trkpt lat="-27.3433447" lon="152.9148469">
<ele>35.628</ele>
<time>2017-09-12T22:47:11.327Z</time>
</trkpt>
<trkpt lat="-27.3431345" lon="152.9152147">
<ele>38.760</ele>
<time>2017-09-12T22:47:13.280Z</time>
</trkpt>
<trkpt lat="-27.3428589" lon="152.9155457">
<ele>42.358</ele>
<time>2017-09-12T22:47:15.229Z</time>
</trkpt>
<trkpt lat="-27.3422791" lon="152.9158606">
<ele>45.399</ele>
<time>2017-09-12T22:47:18.239Z</time>
</trkpt>
<trkpt lat="-27.3418676" lon="152.9159771">
<ele>47.674</ele>
<time>2017-09-12T22:47:20.167Z</time>
</trkpt>
<trkpt lat="-27.3414307" lon="152.9159305">
<ele>49.634</ele>
<time>2017-09-12T22:47:22.124Z</time>
</trkpt>
<trkpt lat="-27.3409881" lon="152.9158209">
<ele>51.603</ele>
<time>2017-09-12T22:47:24.127Z</time>
</trkpt>
<trkpt lat="-27.3405882" lon="152.9156545">
<ele>53.783</ele>
<time>2017-09-12T22:47:26.032Z</time>
</trkpt>
<trkpt lat="-27.3401786" lon="152.9155143">
<ele>56.327</ele>
<time>2017-09-12T22:47:27.972Z</time>
</trkpt>
<trkpt lat="-27.3395685" lon="152.9153426">
<ele>59.175</ele>
<time>2017-09-12T22:47:30.852Z</time>
</trkpt>
<trkpt lat="-27.3391623" lon="152.9152182">
<ele>62.314</ele>
<time>2017-09-12T22:47:32.808Z</time>
</trkpt>
<trkpt lat="-27.3385649" lon="152.9150338">
<ele>65.534</ele>
<time>2017-09-12T22:47:35.730Z</time>
</trkpt>
<trkpt lat="-27.3379732" lon="152.9148883">
<ele>68.236</ele>
<time>2017-09-12T22:47:38.641Z</time>
</trkpt>
<trkpt lat="-27.3375662" lon="152.9148798">
<ele>70.077</ele>
<time>2017-09-12T22:47:40.600Z</time>
</trkpt>
<trkpt lat="-27.3369592" lon="152.9150389">
<ele>71.197</ele>
<time>2017-09-12T22:47:43.587Z</time>
</trkpt>
<trkpt lat="-27.3366021" lon="152.9152439">
<ele>71.811</ele>
<time>2017-09-12T22:47:45.507Z</time>
</trkpt>
<trkpt lat="-27.3361684" lon="152.9156932">
<ele>72.165</ele>
<time>2017-09-12T22:47:48.360Z</time>
</trkpt>
<trkpt lat="-27.3359072" lon="152.9160632">
<ele>72.509</ele>
<time>2017-09-12T22:47:50.393Z</time>
</trkpt>
<trkpt lat="-27.3356307" lon="152.9164058">
<ele>73.025</ele>
<time>2017-09-12T22:47:52.375Z</time>
</trkpt>
<trkpt lat="-27.3352175" lon="152.9168467">
<ele>73.810</ele>
<time>2017-09-12T22:47:55.184Z</time>
</trkpt>
<trkpt lat="-27.3346649" lon="152.9169985">
<ele>75.133</ele>
<time>2017-09-12T22:47:58.081Z</time>
</trkpt>
<trkpt lat="-27.3342812" lon="152.9169282">
<ele>77.514</ele>
<time>2017-09-12T22:48:00.069Z</time>
</trkpt>
<trkpt lat="-27.3339127" lon="152.9168131">
<ele>81.403</ele>
<time>2017-09-12T22:48:02.004Z</time>
</trkpt>
<trkpt lat="-27.3335652" lon="152.9167309">
<ele>86.632</ele>
<time>2017-09-12T22:48:03.867Z</time>
</trkpt>
<trkpt lat="-27.3332516" lon="152.9167403">
<ele>92.295</ele>
<time>2017-09-12T22:48:05.664Z</time>
</trkpt>
<trkpt lat="-27.3328926" lon="152.9169287">
<ele>97.497</ele>
<time>2017-09-12T22:48:08.353Z</time>
</trkpt>
<trkpt lat="-27.3327320" lon="152.9170359">
<ele>101.855</ele>
<time>2017-09-12T22:48:09.825Z</time>
</trkpt>
<trkpt lat="-27.3323863" lon="152.9170567">
<ele>105.038</ele>
<time>2017-09-12T22:48:12.912Z</time>
</trkpt>
<trkpt lat="-27.3320986" lon="152.9170087">
<ele>107.037</ele>
<time>2017-09-12T22:48:15.301Z</time>
</trkpt>
<trkpt lat="-27.3318262" lon="152.9169480">
<ele>108.489</ele>
<time>2017-09-12T22:48:17.322Z</time>
</trkpt>
<trkpt lat="-27.3314373" lon="152.9166524">
<ele>109.943</ele>
<time>2017-09-12T22:48:20.555Z</time>
</trkpt>
<trkpt lat="-27.3311749" lon="152.9163926">
<ele>111.384</ele>
<time>2017-09-12T22:48:22.783Z</time>
</trkpt>
<trkpt lat="-27.3308555" lon="152.9159644">
<ele>112.582</ele>
<time>2017-09-12T22:48:25.714Z</time>
</trkpt>
<trkpt lat="-27.3306938" lon="152.9156612">
<ele>113.404</ele>
<time>2017-09-12T22:48:27.611Z</time>
</trkpt>
<trkpt lat="-27.3305070" lon="152.9154517">
<ele>113.935</ele>
<time>2017-09-12T22:48:29.333Z</time>
</trkpt>
<trkpt lat="-27.3301157" lon="152.9153848">
<ele>114.308</ele>
<time>2017-09-12T22:48:32.071Z</time>
</trkpt>
<trkpt lat="-27.3296479" lon="152.9154858">
<ele>114.627</ele>
<time>2017-09-12T22:48:35.259Z</time>
</trkpt>
<trkpt lat="-27.3293353" lon="152.9154832">
<ele>114.929</ele>
<time>2017-09-12T22:48:37.253Z</time>
</trkpt>
<trkpt lat="-27.3290043" lon="152.9153631">
<ele>115.125</ele>
<time>2017-09-12T22:48:39.369Z</time>
</trkpt>
<trkpt lat="-27.3286836" lon="152.9152198">
<ele>115.088</ele>
<time>2017-09-12T22:48:41.381Z</time>
</trkpt>
<trkpt lat="-27.3282964" lon="152.9149278">
<ele>114.843</ele>
<time>2017-09-12T22:48:44.156Z</time>
</trkpt>
<trkpt lat="-27.3280877" lon="152.9146560">
<ele>114.622</ele>
<time>2017-09-12T22:48:46.123Z</time>
</trkpt>
<trkpt lat="-27.3277289" lon="152.9142390">
<ele>114.584</ele>
<time>2017-09-12T22:48:49.297Z</time>
</trkpt>
<trkpt lat="-27.3273413" lon="152.9138372">
<ele>114.560</ele>
<time>2017-09-12T22:48:52.369Z</time>
</trkpt>
<trkpt lat="-27.3268779" lon="152.9136371">
<ele>114.233</ele>
<time>2017-09-12T22:48:55.266Z</time>
</trkpt>
<trkpt lat="-27.3266033" lon="152.9135678">
<ele>113.627</ele>
<time>2017-09-12T22:48:56.989Z</time>
</trkpt>
<trkpt lat="-27.3262136" lon="152.9133363">
<ele>113.150</ele>
<time>2017-09-12T22:48:59.899Z</time>
</trkpt>
<trkpt lat="-27.3260824" lon="152.9130708">
<ele>113.209</ele>
<time>2017-09-12T22:49:01.757Z</time>
</trkpt>
<trkpt lat="-27.3259731" lon="152.9127655">
<ele>113.880</ele>
<time>2017-09-12T22:49:03.834Z</time>
</trkpt>
<trkpt lat="-27.3256001" lon="152.9125151">
<ele>114.798</ele>
<time>2017-09-12T22:49:06.852Z</time>
</trkpt>
<trkpt lat="-27.3250920" lon="152.9124784">
<ele>115.498</ele>
<time>2017-09-12T22:49:10.160Z</time>
</trkpt>
<trkpt lat="-27.3247523" lon="152.9124531">
<ele>115.866</ele>
<time>2017-09-12T22:49:12.226Z</time>
</trkpt>
<trkpt lat="-27.3242638" lon="152.9124022">
<ele>116.136</ele>
<time>2017-09-12T22:49:15.133Z</time>
</trkpt>
<trkpt lat="-27.3239567" lon="152.9123299">
<ele>116.619</ele>
<time>2017-09-12T22:49:17.024Z</time>
</trkpt>
<trkpt lat="-27.3236487" lon="152.9122141">
<ele>117.278</ele>
<time>2017-09-12T22:49:19.035Z</time>
</trkpt>
<trkpt lat="-27.3232987" lon="152.9118710">
<ele>117.706</ele>
<time>2017-09-12T22:49:22.024Z</time>
</trkpt>
<trkpt lat="-27.3231684" lon="152.9113320">
<ele>117.559</ele>
<time>2017-09-12T22:49:25.212Z</time>
</trkpt>
<trkpt lat="-27.3231744" lon="152.9109503">
<ele>116.733</ele>
<time>2017-09-12T22:49:27.311Z</time>
</trkpt>
<trkpt lat="-27.3231713" lon="152.9106232">
<ele>115.383</ele>
<time>2017-09-12T22:49:29.106Z</time>
</trkpt>
<trkpt lat="-27.3231317" lon="152.9101027">
<ele>113.887</ele>
<time>2017-09-12T22:49:32.059Z</time>
</trkpt>
<trkpt lat="-27.3228193" lon="152.9097475">
<ele>112.586</ele>
<time>2017-09-12T22:49:34.888Z</time>
</trkpt>
<trkpt lat="-27.3225868" lon="152.9095367">
<ele>111.466</ele>
<time>2017-09-12T22:49:36.809Z</time>
</trkpt>
<trkpt lat="-27.3224058" lon="152.9091659">
<ele>110.274</ele>
<time>2017-09-12T22:49:39.268Z</time>
</trkpt>
<trkpt lat="-27.3221482" lon="152.9087753">
<ele>108.972</ele>
<time>2017-09-12T22:49:42.066Z</time>
</trkpt>
<trkpt lat="-27.3219295" lon="152.9085499">
<ele>107.772</ele>
<time>2017-09-12T22:49:44.005Z</time>
</trkpt>
<trkpt lat="-27.3218239" lon="152.9080494">
<ele>106.894</ele>
<time>2017-09-12T22:49:47.024Z</time>
</trkpt>
<trkpt lat="-27.3217834" lon="152.9077066">
<ele>106.608</ele>
<time>2017-09-12T22:49:49.046Z</time>
</trkpt>
<trkpt lat="-27.3216920" lon="152.9073978">
<ele>107.028</ele>
<time>2017-09-12T22:49:50.953Z</time>
</trkpt>
<trkpt lat="-27.3213497" lon="152.9069266">
<ele>107.777</ele>
<time>2017-09-12T22:49:54.507Z</time>
</trkpt>
<trkpt lat="-27.3210237" lon="152.9067635">
<ele>108.286</ele>
<time>2017-09-12T22:49:56.787Z</time>
</trkpt>
<trkpt lat="-27.3206681" lon="152.9067482">
<ele>108.183</ele>
<time>2017-09-12T22:49:58.959Z</time>
</trkpt>
<trkpt lat="-27.3202600" lon="152.9067676">
<ele>107.559</ele>
<time>2017-09-12T22:50:01.545Z</time>
</trkpt>
<trkpt lat="-27.3198785" lon="152.9067248">
<ele>107.034</ele>
<time>2017-09-12T22:50:04.197Z</time>
</trkpt>
<trkpt lat="-27.3196656" lon="152.9067169">
<ele>107.271</ele>
<time>2017-09-12T22:50:05.786Z</time>
</trkpt>
<trkpt lat="-27.3194880" lon="152.9065707">
<ele>108.344</ele>
<time>2017-09-12T22:50:07.608Z</time>
</trkpt>
<trkpt lat="-27.3193876" lon="152.9062675">
<ele>109.913</ele>
<time>2017-09-12T22:50:10.139Z</time>
</trkpt>
<trkpt lat="-27.3191802" lon="152.9059379">
<ele>111.778</ele>
<time>2017-09-12T22:50:13.066Z</time>
</trkpt>
<trkpt lat="-27.3188896" lon="152.9056762">
<ele>114.003</ele>
<time>2017-09-12T22:50:16.063Z</time>
</trkpt>
<trkpt lat="-27.3187556" lon="152.9050368">
<ele>116.188</ele>
<time>2017-09-12T22:50:20.351Z</time>
</trkpt>
<trkpt lat="-27.3187284" lon="152.9045246">
<ele>117.422</ele>
<time>2017-09-12T22:50:23.293Z</time>
</trkpt>
<trkpt lat="-27.3187389" lon="152.9041644">
<ele>117.399</ele>
<time>2017-09-12T22:50:25.290Z</time>
</trkpt>
<trkpt lat="-27.3186346" lon="152.9037424">
<ele>116.804</ele>
<time>2017-09-12T22:50:27.863Z</time>
</trkpt>
<trkpt lat="-27.3183738" lon="152.9036933">
<ele>116.326</ele>
<time>2017-09-12T22:50:29.833Z</time>
</trkpt>
<trkpt lat="-27.3178366" lon="152.9037847">
<ele>116.074</ele>
<time>2017-09-12T22:50:33.781Z</time>
</trkpt>
<trkpt lat="-27.3175627" lon="152.9039129">
<ele>115.760</ele>
<time>2017-09-12T22:50:35.809Z</time>
</trkpt>
<trkpt lat="-27.3171517" lon="152.9037622">
<ele>115.265</ele>
<time>2017-09-12T22:50:38.828Z</time>
</trkpt>
<trkpt lat="-27.3169435" lon="152.9034558">
<ele>114.939</ele>
<time>2017-09-12T22:50:41.172Z</time>
</trkpt>
<trkpt lat="-27.3169125" lon="152.9028782">
<ele>115.024</ele>
<time>2017-09-12T22:50:44.396Z</time>
</trkpt>
<trkpt lat="-27.3167951" lon="152.9023374">
<ele>115.219</ele>
<time>2017-09-12T22:50:47.396Z</time>
</trkpt>
<trkpt lat="-27.3166066" lon="152.9020731">
<ele>115.124</ele>
<time>2017-09-12T22:50:49.215Z</time>
</trkpt>
<trkpt lat="-27.3161689" lon="152.9017510">
<ele>114.633</ele>
<time>2017-09-12T22:50:52.294Z</time>
</trkpt>
<trkpt lat="-27.3158389" lon="152.9016137">
<ele>113.945</ele>
<time>2017-09-12T22:50:54.381Z</time>
</trkpt>
<trkpt lat="-27.3155440" lon="152.9015441">
<ele>113.401</ele>
<time>2017-09-12T22:50:56.333Z</time>
</trkpt>
<trkpt lat="-27.3151377" lon="152.9015840">
<ele>113.326</ele>
<time>2017-09-12T22:50:59.086Z</time>
</trkpt>
<trkpt lat="-27.3148455" lon="152.9016340">
<ele>114.041</ele>
<time>2017-09-12T22:51:01.054Z</time>
</trkpt>
<trkpt lat="-27.3145493" lon="152.9017005">
<ele>115.435</ele>
<time>2017-09-12T22:51:03.038Z</time>
</trkpt>
<trkpt lat="-27.3141241" lon="152.9017894">
<ele>116.763</ele>
<time>2017-09-12T22:51:05.947Z</time>
</trkpt>
<trkpt lat="-27.3138649" lon="152.9018737">
<ele>117.351</ele>
<time>2017-09-12T22:51:08.023Z</time>
</trkpt>
<trkpt lat="-27.3135977" lon="152.9019903">
<ele>117.214</ele>
<time>2017-09-12T22:51:10.542Z</time>
</trkpt>
<trkpt lat="-27.3133864" lon="152.9017035">
<ele>116.970</ele>
<time>2017-09-12T22:51:13.594Z</time>
</trkpt>
<trkpt lat="-27.3131430" lon="152.9013328">
<ele>117.324</ele>
<time>2017-09-12T22:51:16.712Z</time>
</trkpt>
<trkpt lat="-27.3126417" lon="152.9010878">
<ele>118.305</ele>
<time>2017-09-12T22:51:20.120Z</time>
</trkpt>
<trkpt lat="-27.3121989" lon="152.9007319">
<ele>119.326</ele>
<time>2017-09-12T22:51:23.356Z</time>
</trkpt>
<trkpt lat="-27.3120174" lon="152.9004396">
<ele>120.157</ele>
<time>2017-09-12T22:51:25.406Z</time>
</trkpt>
<trkpt lat="-27.3119235" lon="152.9001250">
<ele>121.209</ele>
<time>2017-09-12T22:51:27.392Z</time>
</trkpt>
<trkpt lat="-27.3119054" lon="152.8997915">
<ele>122.831</ele>
<time>2017-09-12T22:51:29.419Z</time>
</trkpt>
<trkpt lat="-27.3118684" lon="152.8994759">
<ele>124.828</ele>
<time>2017-09-12T22:51:31.367Z</time>
</trkpt>
<trkpt lat="-27.3117430" lon="152.8990157">
<ele>126.595</ele>
<time>2017-09-12T22:51:34.342Z</time>
</trkpt>
<trkpt lat="-27.3116109" lon="152.8987592">
<ele>127.669</ele>
<time>2017-09-12T22:51:36.230Z</time>
</trkpt>
<trkpt lat="-27.3113066" lon="152.8985115">
<ele>128.120</ele>
<time>2017-09-12T22:51:38.914Z</time>
</trkpt>
<trkpt lat="-27.3110035" lon="152.8984553">
<ele>128.350</ele>
<time>2017-09-12T22:51:41.056Z</time>
</trkpt>
<trkpt lat="-27.3105369" lon="152.8983197">
<ele>128.617</ele>
<time>2017-09-12T22:51:44.455Z</time>
</trkpt>
<trkpt lat="-27.3103997" lon="152.8980513">
<ele>128.866</ele>
<time>2017-09-12T22:51:46.309Z</time>
</trkpt>
<trkpt lat="-27.3103214" lon="152.8975025">
<ele>128.979</ele>
<time>2017-09-12T22:51:49.480Z</time>
</trkpt>
<trkpt lat="-27.3101627" lon="152.8970060">
<ele>128.963</ele>
<time>2017-09-12T22:51:52.414Z</time>
</trkpt>
<trkpt lat="-27.3099428" lon="152.8967526">
<ele>128.978</ele>
<time>2017-09-12T22:51:54.374Z</time>
</trkpt>
<trkpt lat="-27.3096790" lon="152.8965555">
<ele>129.134</ele>
<time>2017-09-12T22:51:56.394Z</time>
</trkpt>
<trkpt lat="-27.3094402" lon="152.8963721">
<ele>129.323</ele>
<time>2017-09-12T22:51:58.364Z</time>
</trkpt>
<trkpt lat="-27.3091087" lon="152.8963561">
<ele>129.431</ele>
<time>2017-09-12T22:52:00.672Z</time>
</trkpt>
<trkpt lat="-27.3088053" lon="152.8964491">
<ele>129.479</ele>
<time>2017-09-12T22:52:02.719Z</time>
</trkpt>
<trkpt lat="-27.3084902" lon="152.8964873">
<ele>129.460</ele>
<time>2017-09-12T22:52:04.698Z</time>
</trkpt>
<trkpt lat="-27.3081763" lon="152.8964767">
<ele>129.291</ele>
<time>2017-09-12T22:52:06.536Z</time>
</trkpt>
<trkpt lat="-27.3076460" lon="152.8963694">
<ele>128.900</ele>
<time>2017-09-12T22:52:09.480Z</time>
</trkpt>
<trkpt lat="-27.3072539" lon="152.8962796">
<ele>128.173</ele>
<time>2017-09-12T22:52:11.457Z</time>
</trkpt>
<trkpt lat="-27.3066640" lon="152.8960653">
<ele>127.188</ele>
<time>2017-09-12T22:52:14.511Z</time>
</trkpt>
<trkpt lat="-27.3061474" lon="152.8958527">
<ele>126.371</ele>
<time>2017-09-12T22:52:17.367Z</time>
</trkpt>
<trkpt lat="-27.3058085" lon="152.8957382">
<ele>126.316</ele>
<time>2017-09-12T22:52:19.337Z</time>
</trkpt>
<trkpt lat="-27.3053019" lon="152.8954982">
<ele>127.601</ele>
<time>2017-09-12T22:52:22.471Z</time>
</trkpt>
<trkpt lat="-27.3050349" lon="152.8952837">
<ele>130.974</ele>
<time>2017-09-12T22:52:24.383Z</time>
</trkpt>
<trkpt lat="-27.3046357" lon="152.8949528">
<ele>136.392</ele>
<time>2017-09-12T22:52:27.272Z</time>
</trkpt>
<trkpt lat="-27.3043530" lon="152.8947504">
<ele>142.728</ele>
<time>2017-09-12T22:52:29.250Z</time>
</trkpt>
<trkpt lat="-27.3041216" lon="152.8945201">
<ele>148.871</ele>
<time>2017-09-12T22:52:31.131Z</time>
</trkpt>
<trkpt lat="-27.3038815" lon="152.8940436">
<ele>154.294</ele>
<time>2017-09-12T22:52:34.100Z</time>
</trkpt>
<trkpt lat="-27.3037084" lon="152.8937288">
<ele>159.093</ele>
<time>2017-09-12T22:52:36.052Z</time>
</trkpt>
<trkpt lat="-27.3034475" lon="152.8934956">
<ele>163.739</ele>
<time>2017-09-12T22:52:38.012Z</time>
</trkpt>
<trkpt lat="-27.3031986" lon="152.8932359">
<ele>168.361</ele>
<time>2017-09-12T22:52:39.995Z</time>
</trkpt>
<trkpt lat="-27.3029727" lon="152.8929429">
<ele>173.033</ele>
<time>2017-09-12T22:52:41.971Z</time>
</trkpt>
<trkpt lat="-27.3026942" lon="152.8923223">
<ele>177.754</ele>
<time>2017-09-12T22:52:45.448Z</time>
</trkpt>
<trkpt lat="-27.3026155" lon="152.8919689">
<ele>181.854</ele>
<time>2017-09-12T22:52:47.295Z</time>
</trkpt>
<trkpt lat="-27.3025897" lon="152.8916122">
<ele>184.548</ele>
<time>2017-09-12T22:52:49.117Z</time>
</trkpt>
<trkpt lat="-27.3024999" lon="152.8910277">
<ele>185.787</ele>
<time>2017-09-12T22:52:52.102Z</time>
</trkpt>
<trkpt lat="-27.3024536" lon="152.8906435">
<ele>186.112</ele>
<time>2017-09-12T22:52:54.030Z</time>
</trkpt>
<trkpt lat="-27.3023614" lon="152.8902659">
<ele>186.035</ele>
<time>2017-09-12T22:52:55.990Z</time>
</trkpt>
<trkpt lat="-27.3022995" lon="152.8898850">
<ele>185.902</ele>
<time>2017-09-12T22:52:57.936Z</time>
</trkpt>
<trkpt lat="-27.3021472" lon="152.8893119">
<ele>185.858</ele>
<time>2017-09-12T22:53:00.939Z</time>
</trkpt>
<trkpt lat="-27.3021657" lon="152.8887197">
<ele>185.780</ele>
<time>2017-09-12T22:53:03.901Z</time>
</trkpt>
<trkpt lat="-27.3021408" lon="152.8883313">
<ele>185.285</ele>
<time>2017-09-12T22:53:05.875Z</time>
</trkpt>
<trkpt lat="-27.3022015" lon="152.8879657">
<ele>184.225</ele>
<time>2017-09-12T22:53:07.811Z</time>
</trkpt>
<trkpt lat="-27.3024584" lon="152.8874925">
<ele>183.024</ele>
<time>2017-09-12T22:53:10.785Z</time>
</trkpt>
<trkpt lat="-27.3026356" lon="152.8872113">
<ele>182.084</ele>
<time>2017-09-12T22:53:12.694Z</time>
</trkpt>
<trkpt lat="-27.3030829" lon="152.8869400">
<ele>181.455</ele>
<time>2017-09-12T22:53:15.782Z</time>
</trkpt>
<trkpt lat="-27.3034910" lon="152.8867703">
<ele>181.295</ele>
<time>2017-09-12T22:53:18.222Z</time>
</trkpt>
<trkpt lat="-27.3039256" lon="152.8864455">
<ele>182.074</ele>
<time>2017-09-12T22:53:21.174Z</time>
</trkpt>
<trkpt lat="-27.3042197" lon="152.8863439">
<ele>184.382</ele>
<time>2017-09-12T22:53:23.062Z</time>
</trkpt>
<trkpt lat="-27.3046834" lon="152.8863510">
<ele>188.189</ele>
<time>2017-09-12T22:53:26.115Z</time>
</trkpt>
<trkpt lat="-27.3050437" lon="152.8862031">
<ele>193.066</ele>
<time>2017-09-12T22:53:29.018Z</time>
</trkpt>
<trkpt lat="-27.3053677" lon="152.8861881">
<ele>198.923</ele>
<time>2017-09-12T22:53:31.979Z</time>
</trkpt>
<trkpt lat="-27.3054765" lon="152.8860323">
<ele>205.458</ele>
<time>2017-09-12T22:53:33.770Z</time>
</trkpt>
<trkpt lat="-27.3053493" lon="152.8857927">
<ele>211.594</ele>
<time>2017-09-12T22:53:36.216Z</time>
</trkpt>
<trkpt lat="-27.3051504" lon="152.8854413">
<ele>216.488</ele>
<time>2017-09-12T22:53:39.308Z</time>
</trkpt>
<trkpt lat="-27.3050055" lon="152.8851529">
<ele>219.908</ele>
<time>2017-09-12T22:53:41.423Z</time>
</trkpt>
<trkpt lat="-27.3048660" lon="152.8847081">
<ele>222.052</ele>
<time>2017-09-12T22:53:44.433Z</time>
</trkpt>
<trkpt lat="-27.3048084" lon="152.8844245">
<ele>223.458</ele>
<time>2017-09-12T22:53:46.306Z</time>
</trkpt>
<trkpt lat="-27.3047966" lon="152.8841062">
<ele>224.506</ele>
<time>2017-09-12T22:53:48.322Z</time>
</trkpt>
<trkpt lat="-27.3048927" lon="152.8837720">
<ele>225.001</ele>
<time>2017-09-12T22:53:50.486Z</time>
</trkpt>
<trkpt lat="-27.3049317" lon="152.8832549">
<ele>224.715</ele>
<time>2017-09-12T22:53:53.646Z</time>
</trkpt>
<trkpt lat="-27.3048162" lon="152.8829859">
<ele>223.456</ele>
<time>2017-09-12T22:53:55.400Z</time>
</trkpt>
<trkpt lat="-27.3046180" lon="152.8825095">
<ele>221.548</ele>
<time>2017-09-12T22:53:58.363Z</time>
</trkpt>
<trkpt lat="-27.3045634" lon="152.8819425">
<ele>220.816</ele>
<time>2017-09-12T22:54:01.418Z</time>
</trkpt>
<trkpt lat="-27.3043766" lon="152.8814298">
<ele>222.295</ele>
<time>2017-09-12T22:54:04.420Z</time>
</trkpt>
<trkpt lat="-27.3040659" lon="152.8810875">
<ele>224.033</ele>
<time>2017-09-12T22:54:07.190Z</time>
</trkpt>
<trkpt lat="-27.3037896" lon="152.8808888">
<ele>223.434</ele>
<time>2017-09-12T22:54:09.222Z</time>
</trkpt>
<trkpt lat="-27.3034837" lon="152.8804021">
<ele>220.680</ele>
<time>2017-09-12T22:54:12.353Z</time>
</trkpt>
<trkpt lat="-27.3032981" lon="152.8800831">
<ele>218.250</ele>
<time>2017-09-12T22:54:14.360Z</time>
</trkpt>
<trkpt lat="-27.3030682" lon="152.8798558">
<ele>217.858</ele>
<time>2017-09-12T22:54:16.286Z</time>
</trkpt>
<trkpt lat="-27.3026964" lon="152.8795464">
<ele>219.092</ele>
<time>2017-09-12T22:54:19.281Z</time>
</trkpt>
<trkpt lat="-27.3024672" lon="152.8790949">
<ele>220.963</ele>
<time>2017-09-12T22:54:22.262Z</time>
</trkpt>
<trkpt lat="-27.3025206" lon="152.8785756">
<ele>222.871</ele>
<time>2017-09-12T22:54:25.242Z</time>
</trkpt>
<trkpt lat="-27.3027305" lon="152.8781163">
<ele>224.849</ele>
<time>2017-09-12T22:54:28.315Z</time>
</trkpt>
<trkpt lat="-27.3028277" lon="152.8778370">
<ele>227.360</ele>
<time>2017-09-12T22:54:30.183Z</time>
</trkpt>
<trkpt lat="-27.3027999" lon="152.8774379">
<ele>230.453</ele>
<time>2017-09-12T22:54:32.600Z</time>
</trkpt>
<trkpt lat="-27.3026706" lon="152.8769592">
<ele>233.551</ele>
<time>2017-09-12T22:54:35.581Z</time>
</trkpt>
<trkpt lat="-27.3024666" lon="152.8767727">
<ele>236.450</ele>
<time>2017-09-12T22:54:37.329Z</time>
</trkpt>
<trkpt lat="-27.3021524" lon="152.8766546">
<ele>239.304</ele>
<time>2017-09-12T22:54:39.500Z</time>
</trkpt>
<trkpt lat="-27.3017281" lon="152.8764863">
<ele>241.864</ele>
<time>2017-09-12T22:54:42.480Z</time>
</trkpt>
<trkpt lat="-27.3013737" lon="152.8761888">
<ele>243.627</ele>
<time>2017-09-12T22:54:45.495Z</time>
</trkpt>
<trkpt lat="-27.3012290" lon="152.8759086">
<ele>244.380</ele>
<time>2017-09-12T22:54:47.750Z</time>
</trkpt>
<trkpt lat="-27.3010699" lon="152.8756152">
<ele>244.203</ele>
<time>2017-09-12T22:54:50.710Z</time>
</trkpt>
<trkpt lat="-27.3010293" lon="152.8754856">
<ele>242.951</ele>
<time>2017-09-12T22:54:52.908Z</time>
</trkpt>
<trkpt lat="-27.3009446" lon="152.8754143">
<ele>240.442</ele>
<time>2017-09-12T22:54:55.000Z</time>
</trkpt>
<trkpt lat="-27.3009446" lon="152.8754143">
<ele>237.571</ele>
<time>2017-09-12T22:55:01.000Z</time>
</trkpt>
<trkpt lat="-27.3009446" lon="152.8754143">
<ele>235.938</ele>
<time>2017-09-12T22:55:52.405Z</time>
</trkpt>
<trkpt lat="-27.3007691" lon="152.8751907">
<ele>235.962</ele>
<time>2017-09-12T22:56:09.044Z</time>
</trkpt>
<trkpt lat="-27.3005525" lon="152.8750743">
<ele>234.760</ele>
<time>2017-09-12T22:56:12.135Z</time>
</trkpt>
<trkpt lat="-27.3004291" lon="152.8749122">
<ele>230.204</ele>
<time>2017-09-12T22:56:14.266Z</time>
</trkpt>
<trkpt lat="-27.3002513" lon="152.8747120">
<ele>224.919</ele>
<time>2017-09-12T22:56:17.266Z</time>
</trkpt>
<trkpt lat="-27.3001366" lon="152.8745876">
<ele>221.719</ele>
<time>2017-09-12T22:56:19.539Z</time>
</trkpt>
<trkpt lat="-27.3000674" lon="152.8744711">
<ele>220.167</ele>
<time>2017-09-12T22:56:21.443Z</time>
</trkpt>
<trkpt lat="-27.2999998" lon="152.8742725">
<ele>219.348</ele>
<time>2017-09-12T22:56:24.367Z</time>
</trkpt>
<trkpt lat="-27.2999279" lon="152.8741588">
<ele>218.772</ele>
<time>2017-09-12T22:56:26.312Z</time>
</trkpt>
<trkpt lat="-27.2998396" lon="152.8739670">
<ele>218.292</ele>
<time>2017-09-12T22:56:29.366Z</time>
</trkpt>
<trkpt lat="-27.2997245" lon="152.8738030">
<ele>217.916</ele>
<time>2017-09-12T22:56:32.250Z</time>
</trkpt>
<trkpt lat="-27.2996201" lon="152.8736202">
<ele>217.612</ele>
<time>2017-09-12T22:56:34.844Z</time>
</trkpt>
<trkpt lat="-27.2995274" lon="152.8735035">
<ele>217.320</ele>
<time>2017-09-12T22:56:36.544Z</time>
</trkpt>
<trkpt lat="-27.2993718" lon="152.8732700">
<ele>217.062</ele>
<time>2017-09-12T22:56:39.219Z</time>
</trkpt>
<trkpt lat="-27.2992537" lon="152.8730915">
<ele>216.871</ele>
<time>2017-09-12T22:56:41.105Z</time>
</trkpt>
<trkpt lat="-27.2990168" lon="152.8728279">
<ele>216.712</ele>
<time>2017-09-12T22:56:43.945Z</time>
</trkpt>
<trkpt lat="-27.2987794" lon="152.8725249">
<ele>216.429</ele>
<time>2017-09-12T22:56:46.884Z</time>
</trkpt>
<trkpt lat="-27.2986158" lon="152.8723364">
<ele>215.835</ele>
<time>2017-09-12T22:56:48.816Z</time>
</trkpt>
<trkpt lat="-27.2984502" lon="152.8721358">
<ele>215.048</ele>
<time>2017-09-12T22:56:50.842Z</time>
</trkpt>
<trkpt lat="-27.2982165" lon="152.8718406">
<ele>214.458</ele>
<time>2017-09-12T22:56:53.869Z</time>
</trkpt>
<trkpt lat="-27.2979844" lon="152.8715777">
<ele>214.411</ele>
<time>2017-09-12T22:56:56.817Z</time>
</trkpt>
<trkpt lat="-27.2977681" lon="152.8713096">
<ele>215.066</ele>
<time>2017-09-12T22:56:59.725Z</time>
</trkpt>
<trkpt lat="-27.2976409" lon="152.8709645">
<ele>216.214</ele>
<time>2017-09-12T22:57:02.602Z</time>
</trkpt>
<trkpt lat="-27.2975987" lon="152.8706942">
<ele>217.296</ele>
<time>2017-09-12T22:57:04.682Z</time>
</trkpt>
<trkpt lat="-27.2974929" lon="152.8703390">
<ele>217.921</ele>
<time>2017-09-12T22:57:07.471Z</time>
</trkpt>
<trkpt lat="-27.2972982" lon="152.8699929">
<ele>218.038</ele>
<time>2017-09-12T22:57:10.340Z</time>
</trkpt>
<trkpt lat="-27.2969911" lon="152.8697273">
<ele>217.674</ele>
<time>2017-09-12T22:57:13.233Z</time>
</trkpt>
<trkpt lat="-27.2966497" lon="152.8694896">
<ele>216.652</ele>
<time>2017-09-12T22:57:16.139Z</time>
</trkpt>
<trkpt lat="-27.2964108" lon="152.8693417">
<ele>214.660</ele>
<time>2017-09-12T22:57:18.056Z</time>
</trkpt>
<trkpt lat="-27.2960354" lon="152.8691163">
<ele>211.779</ele>
<time>2017-09-12T22:57:20.999Z</time>
</trkpt>
<trkpt lat="-27.2956426" lon="152.8689381">
<ele>208.495</ele>
<time>2017-09-12T22:57:23.895Z</time>
</trkpt>
<trkpt lat="-27.2953675" lon="152.8688500">
<ele>205.305</ele>
<time>2017-09-12T22:57:25.874Z</time>
</trkpt>
<trkpt lat="-27.2949929" lon="152.8686514">
<ele>202.623</ele>
<time>2017-09-12T22:57:28.769Z</time>
</trkpt>
<trkpt lat="-27.2947985" lon="152.8684175">
<ele>200.445</ele>
<time>2017-09-12T22:57:30.803Z</time>
</trkpt>
<trkpt lat="-27.2946412" lon="152.8681605">
<ele>198.351</ele>
<time>2017-09-12T22:57:32.885Z</time>
</trkpt>
<trkpt lat="-27.2943027" lon="152.8679826">
<ele>194.947</ele>
<time>2017-09-12T22:57:35.657Z</time>
</trkpt>
<trkpt lat="-27.2940150" lon="152.8679618">
<ele>189.765</ele>
<time>2017-09-12T22:57:37.631Z</time>
</trkpt>
<trkpt lat="-27.2935701" lon="152.8678950">
<ele>184.302</ele>
<time>2017-09-12T22:57:40.566Z</time>
</trkpt>
<trkpt lat="-27.2932526" lon="152.8678706">
<ele>179.618</ele>
<time>2017-09-12T22:57:42.465Z</time>
</trkpt>
<trkpt lat="-27.2926617" lon="152.8677446">
<ele>175.973</ele>
<time>2017-09-12T22:57:45.866Z</time>
</trkpt>
<trkpt lat="-27.2921206" lon="152.8676563">
<ele>173.869</ele>
<time>2017-09-12T22:57:48.832Z</time>
</trkpt>
<trkpt lat="-27.2917588" lon="152.8676886">
<ele>172.469</ele>
<time>2017-09-12T22:57:50.800Z</time>
</trkpt>
<trkpt lat="-27.2912595" lon="152.8678549">
<ele>170.273</ele>
<time>2017-09-12T22:57:53.705Z</time>
</trkpt>
<trkpt lat="-27.2907819" lon="152.8680189">
<ele>166.260</ele>
<time>2017-09-12T22:57:56.605Z</time>
</trkpt>
<trkpt lat="-27.2904542" lon="152.8680267">
<ele>160.308</ele>
<time>2017-09-12T22:57:58.528Z</time>
</trkpt>
<trkpt lat="-27.2899553" lon="152.8679702">
<ele>154.042</ele>
<time>2017-09-12T22:58:01.457Z</time>
</trkpt>
<trkpt lat="-27.2896421" lon="152.8678490">
<ele>149.820</ele>
<time>2017-09-12T22:58:03.436Z</time>
</trkpt>
<trkpt lat="-27.2893627" lon="152.8677073">
<ele>148.209</ele>
<time>2017-09-12T22:58:05.332Z</time>
</trkpt>
<trkpt lat="-27.2889559" lon="152.8674441">
<ele>148.222</ele>
<time>2017-09-12T22:58:08.260Z</time>
</trkpt>
<trkpt lat="-27.2885383" lon="152.8671656">
<ele>148.846</ele>
<time>2017-09-12T22:58:11.267Z</time>
</trkpt>
<trkpt lat="-27.2882597" lon="152.8669970">
<ele>149.329</ele>
<time>2017-09-12T22:58:13.236Z</time>
</trkpt>
<trkpt lat="-27.2880035" lon="152.8668219">
<ele>149.190</ele>
<time>2017-09-12T22:58:15.113Z</time>
</trkpt>
<trkpt lat="-27.2875075" lon="152.8667183">
<ele>148.197</ele>
<time>2017-09-12T22:58:18.376Z</time>
</trkpt>
<trkpt lat="-27.2871397" lon="152.8666134">
<ele>145.887</ele>
<time>2017-09-12T22:58:21.130Z</time>
</trkpt>
<trkpt lat="-27.2868194" lon="152.8665199">
<ele>141.701</ele>
<time>2017-09-12T22:58:23.950Z</time>
</trkpt>
<trkpt lat="-27.2866323" lon="152.8665729">
<ele>135.723</ele>
<time>2017-09-12T22:58:25.997Z</time>
</trkpt>
<trkpt lat="-27.2865156" lon="152.8666191">
<ele>128.920</ele>
<time>2017-09-12T22:58:27.700Z</time>
</trkpt>
<trkpt lat="-27.2863826" lon="152.8666017">
<ele>122.442</ele>
<time>2017-09-12T22:58:29.998Z</time>
</trkpt>
<trkpt lat="-27.2863826" lon="152.8666017">
<ele>117.499</ele>
<time>2017-09-12T22:58:34.998Z</time>
</trkpt>
<trkpt lat="-27.2863826" lon="152.8666017">
<ele>115.223</ele>
<time>2017-09-12T22:58:35.098Z</time>
</trkpt>
<trkpt lat="-27.2861651" lon="152.8664541">
<ele>115.437</ele>
<time>2017-09-12T22:58:41.830Z</time>
</trkpt>
<trkpt lat="-27.2858771" lon="152.8666127">
<ele>114.536</ele>
<time>2017-09-12T22:58:45.070Z</time>
</trkpt>
<trkpt lat="-27.2856245" lon="152.8666600">
<ele>110.111</ele>
<time>2017-09-12T22:58:47.107Z</time>
</trkpt>
<trkpt lat="-27.2852230" lon="152.8666233">
<ele>105.026</ele>
<time>2017-09-12T22:58:50.033Z</time>
</trkpt>
<trkpt lat="-27.2846800" lon="152.8666895">
<ele>102.396</ele>
<time>2017-09-12T22:58:53.589Z</time>
</trkpt>
<trkpt lat="-27.2843785" lon="152.8668209">
<ele>101.609</ele>
<time>2017-09-12T22:58:55.566Z</time>
</trkpt>
<trkpt lat="-27.2840015" lon="152.8671726">
<ele>101.137</ele>
<time>2017-09-12T22:58:58.379Z</time>
</trkpt>
<trkpt lat="-27.2837765" lon="152.8674931">
<ele>99.875</ele>
<time>2017-09-12T22:59:00.370Z</time>
</trkpt>
<trkpt lat="-27.2835323" lon="152.8677964">
<ele>97.631</ele>
<time>2017-09-12T22:59:02.358Z</time>
</trkpt>
<trkpt lat="-27.2832366" lon="152.8682950">
<ele>95.039</ele>
<time>2017-09-12T22:59:05.261Z</time>
</trkpt>
<trkpt lat="-27.2829363" lon="152.8688214">
<ele>92.729</ele>
<time>2017-09-12T22:59:08.203Z</time>
</trkpt>
<trkpt lat="-27.2827856" lon="152.8692193">
<ele>90.718</ele>
<time>2017-09-12T22:59:10.135Z</time>
</trkpt>
<trkpt lat="-27.2826164" lon="152.8698852">
<ele>88.860</ele>
<time>2017-09-12T22:59:13.133Z</time>
</trkpt>
<trkpt lat="-27.2825207" lon="152.8703398">
<ele>86.949</ele>
<time>2017-09-12T22:59:15.077Z</time>
</trkpt>
<trkpt lat="-27.2824508" lon="152.8708223">
<ele>84.739</ele>
<time>2017-09-12T22:59:17.103Z</time>
</trkpt>
<trkpt lat="-27.2824105" lon="152.8713015">
<ele>82.340</ele>
<time>2017-09-12T22:59:19.129Z</time>
</trkpt>
<trkpt lat="-27.2823625" lon="152.8717607">
<ele>80.144</ele>
<time>2017-09-12T22:59:21.137Z</time>
</trkpt>
<trkpt lat="-27.2823612" lon="152.8722079">
<ele>78.356</ele>
<time>2017-09-12T22:59:23.136Z</time>
</trkpt>
<trkpt lat="-27.2824452" lon="152.8728602">
<ele>77.067</ele>
<time>2017-09-12T22:59:26.068Z</time>
</trkpt>
<trkpt lat="-27.2825924" lon="152.8732968">
<ele>76.340</ele>
<time>2017-09-12T22:59:28.085Z</time>
</trkpt>
<trkpt lat="-27.2828082" lon="152.8736987">
<ele>76.131</ele>
<time>2017-09-12T22:59:30.070Z</time>
</trkpt>
<trkpt lat="-27.2831040" lon="152.8740517">
<ele>76.300</ele>
<time>2017-09-12T22:59:32.107Z</time>
</trkpt>
<trkpt lat="-27.2835479" lon="152.8745592">
<ele>76.703</ele>
<time>2017-09-12T22:59:35.118Z</time>
</trkpt>
<trkpt lat="-27.2837871" lon="152.8749302">
<ele>77.229</ele>
<time>2017-09-12T22:59:37.073Z</time>
</trkpt>
<trkpt lat="-27.2841046" lon="152.8755406">
<ele>77.808</ele>
<time>2017-09-12T22:59:40.112Z</time>
</trkpt>
<trkpt lat="-27.2842521" lon="152.8759609">
<ele>78.436</ele>
<time>2017-09-12T22:59:42.082Z</time>
</trkpt>
<trkpt lat="-27.2843506" lon="152.8764100">
<ele>79.114</ele>
<time>2017-09-12T22:59:44.092Z</time>
</trkpt>
<trkpt lat="-27.2844508" lon="152.8770851">
<ele>79.782</ele>
<time>2017-09-12T22:59:47.030Z</time>
</trkpt>
<trkpt lat="-27.2844096" lon="152.8777975">
<ele>80.428</ele>
<time>2017-09-12T22:59:50.027Z</time>
</trkpt>
<trkpt lat="-27.2843453" lon="152.8785258">
<ele>81.020</ele>
<time>2017-09-12T22:59:53.067Z</time>
</trkpt>
<trkpt lat="-27.2842676" lon="152.8792440">
<ele>81.208</ele>
<time>2017-09-12T22:59:56.125Z</time>
</trkpt>
<trkpt lat="-27.2841811" lon="152.8799208">
<ele>80.470</ele>
<time>2017-09-12T22:59:59.106Z</time>
</trkpt>
<trkpt lat="-27.2841629" lon="152.8805957">
<ele>78.696</ele>
<time>2017-09-12T23:00:02.118Z</time>
</trkpt>
<trkpt lat="-27.2841473" lon="152.8810276">
<ele>76.641</ele>
<time>2017-09-12T23:00:04.055Z</time>
</trkpt>
<trkpt lat="-27.2842849" lon="152.8816759">
<ele>75.300</ele>
<time>2017-09-12T23:00:07.016Z</time>
</trkpt>
<trkpt lat="-27.2844413" lon="152.8820901">
<ele>75.074</ele>
<time>2017-09-12T23:00:08.990Z</time>
</trkpt>
<trkpt lat="-27.2847543" lon="152.8826822">
<ele>75.775</ele>
<time>2017-09-12T23:00:12.013Z</time>
</trkpt>
<trkpt lat="-27.2850248" lon="152.8830168">
<ele>76.965</ele>
<time>2017-09-12T23:00:13.964Z</time>
</trkpt>
<trkpt lat="-27.2853426" lon="152.8833323">
<ele>78.126</ele>
<time>2017-09-12T23:00:15.969Z</time>
</trkpt>
<trkpt lat="-27.2858695" lon="152.8837366">
<ele>78.896</ele>
<time>2017-09-12T23:00:19.008Z</time>
</trkpt>
<trkpt lat="-27.2863644" lon="152.8841500">
<ele>79.073</ele>
<time>2017-09-12T23:00:22.013Z</time>
</trkpt>
<trkpt lat="-27.2866850" lon="152.8844142">
<ele>78.529</ele>
<time>2017-09-12T23:00:24.017Z</time>
</trkpt>
<trkpt lat="-27.2871630" lon="152.8848004">
<ele>77.310</ele>
<time>2017-09-12T23:00:27.025Z</time>
</trkpt>
<trkpt lat="-27.2874558" lon="152.8850745">
<ele>75.661</ele>
<time>2017-09-12T23:00:28.991Z</time>
</trkpt>
<trkpt lat="-27.2877658" lon="152.8853374">
<ele>73.902</ele>
<time>2017-09-12T23:00:30.951Z</time>
</trkpt>
<trkpt lat="-27.2882492" lon="152.8857317">
<ele>72.409</ele>
<time>2017-09-12T23:00:33.945Z</time>
</trkpt>
<trkpt lat="-27.2887394" lon="152.8861035">
<ele>71.409</ele>
<time>2017-09-12T23:00:36.936Z</time>
</trkpt>
<trkpt lat="-27.2892083" lon="152.8864852">
<ele>70.845</ele>
<time>2017-09-12T23:00:39.889Z</time>
</trkpt>
<trkpt lat="-27.2895133" lon="152.8867664">
<ele>70.601</ele>
<time>2017-09-12T23:00:41.883Z</time>
</trkpt>
<trkpt lat="-27.2897754" lon="152.8870828">
<ele>70.636</ele>
<time>2017-09-12T23:00:43.828Z</time>
</trkpt>
<trkpt lat="-27.2900670" lon="152.8876857">
<ele>70.988</ele>
<time>2017-09-12T23:00:46.858Z</time>
</trkpt>
<trkpt lat="-27.2901797" lon="152.8881469">
<ele>71.937</ele>
<time>2017-09-12T23:00:48.912Z</time>
</trkpt>
<trkpt lat="-27.2903014" lon="152.8885772">
<ele>73.843</ele>
<time>2017-09-12T23:00:50.900Z</time>
</trkpt>
<trkpt lat="-27.2904841" lon="152.8889965">
<ele>76.217</ele>
<time>2017-09-12T23:00:53.001Z</time>
</trkpt>
<trkpt lat="-27.2906960" lon="152.8893523">
<ele>77.308</ele>
<time>2017-09-12T23:00:54.952Z</time>
</trkpt>
<trkpt lat="-27.2909944" lon="152.8898995">
<ele>76.357</ele>
<time>2017-09-12T23:00:57.849Z</time>
</trkpt>
<trkpt lat="-27.2911675" lon="152.8905519">
<ele>76.764</ele>
<time>2017-09-12T23:01:00.860Z</time>
</trkpt>
<trkpt lat="-27.2911081" lon="152.8912366">
<ele>81.843</ele>
<time>2017-09-12T23:01:03.852Z</time>
</trkpt>
<trkpt lat="-27.2909401" lon="152.8919518">
<ele>89.363</ele>
<time>2017-09-12T23:01:07.047Z</time>
</trkpt>
<trkpt lat="-27.2908287" lon="152.8923761">
<ele>95.520</ele>
<time>2017-09-12T23:01:08.984Z</time>
</trkpt>
<trkpt lat="-27.2907516" lon="152.8928161">
<ele>99.539</ele>
<time>2017-09-12T23:01:10.967Z</time>
</trkpt>
<trkpt lat="-27.2907941" lon="152.8935118">
<ele>102.071</ele>
<time>2017-09-12T23:01:14.050Z</time>
</trkpt>
<trkpt lat="-27.2909035" lon="152.8939674">
<ele>104.004</ele>
<time>2017-09-12T23:01:16.075Z</time>
</trkpt>
<trkpt lat="-27.2910709" lon="152.8943954">
<ele>105.955</ele>
<time>2017-09-12T23:01:18.027Z</time>
</trkpt>
<trkpt lat="-27.2913422" lon="152.8950506">
<ele>107.889</ele>
<time>2017-09-12T23:01:21.062Z</time>
</trkpt>
<trkpt lat="-27.2915219" lon="152.8957029">
<ele>109.501</ele>
<time>2017-09-12T23:01:23.980Z</time>
</trkpt>
<trkpt lat="-27.2915961" lon="152.8963959">
<ele>110.640</ele>
<time>2017-09-12T23:01:27.039Z</time>
</trkpt>
<trkpt lat="-27.2916083" lon="152.8968349">
<ele>111.395</ele>
<time>2017-09-12T23:01:29.033Z</time>
</trkpt>
<trkpt lat="-27.2914928" lon="152.8974817">
<ele>111.967</ele>
<time>2017-09-12T23:01:32.015Z</time>
</trkpt>
<trkpt lat="-27.2913814" lon="152.8979130">
<ele>112.395</ele>
<time>2017-09-12T23:01:34.015Z</time>
</trkpt>
<trkpt lat="-27.2912131" lon="152.8983297">
<ele>112.523</ele>
<time>2017-09-12T23:01:36.051Z</time>
</trkpt>
<trkpt lat="-27.2909990" lon="152.8987203">
<ele>112.149</ele>
<time>2017-09-12T23:01:38.091Z</time>
</trkpt>
<trkpt lat="-27.2908282" lon="152.8991252">
<ele>111.065</ele>
<time>2017-09-12T23:01:40.088Z</time>
</trkpt>
<trkpt lat="-27.2905892" lon="152.8997449">
<ele>109.158</ele>
<time>2017-09-12T23:01:43.061Z</time>
</trkpt>
<trkpt lat="-27.2905007" lon="152.9004320">
<ele>106.043</ele>
<time>2017-09-12T23:01:46.058Z</time>
</trkpt>
<trkpt lat="-27.2905431" lon="152.9008956">
<ele>101.097</ele>
<time>2017-09-12T23:01:48.042Z</time>
</trkpt>
<trkpt lat="-27.2906992" lon="152.9015769">
<ele>94.884</ele>
<time>2017-09-12T23:01:51.064Z</time>
</trkpt>
<trkpt lat="-27.2909248" lon="152.9019732">
<ele>88.911</ele>
<time>2017-09-12T23:01:53.138Z</time>
</trkpt>
<trkpt lat="-27.2913378" lon="152.9025003">
<ele>83.951</ele>
<time>2017-09-12T23:01:56.220Z</time>
</trkpt>
<trkpt lat="-27.2916537" lon="152.9028034">
<ele>79.721</ele>
<time>2017-09-12T23:01:58.255Z</time>
</trkpt>
<trkpt lat="-27.2922092" lon="152.9030783">
<ele>76.133</ele>
<time>2017-09-12T23:02:01.254Z</time>
</trkpt>
<trkpt lat="-27.2928049" lon="152.9032381">
<ele>73.786</ele>
<time>2017-09-12T23:02:04.292Z</time>
</trkpt>
<trkpt lat="-27.2932027" lon="152.9032630">
<ele>73.233</ele>
<time>2017-09-12T23:02:06.242Z</time>
</trkpt>
<trkpt lat="-27.2938138" lon="152.9031433">
<ele>74.326</ele>
<time>2017-09-12T23:02:09.292Z</time>
</trkpt>
<trkpt lat="-27.2943680" lon="152.9028855">
<ele>76.196</ele>
<time>2017-09-12T23:02:12.291Z</time>
</trkpt>
<trkpt lat="-27.2947123" lon="152.9026551">
<ele>77.318</ele>
<time>2017-09-12T23:02:14.265Z</time>
</trkpt>
<trkpt lat="-27.2951418" lon="152.9021778">
<ele>76.925</ele>
<time>2017-09-12T23:02:17.198Z</time>
</trkpt>
<trkpt lat="-27.2955616" lon="152.9016691">
<ele>75.752</ele>
<time>2017-09-12T23:02:20.233Z</time>
</trkpt>
<trkpt lat="-27.2958343" lon="152.9013471">
<ele>75.074</ele>
<time>2017-09-12T23:02:22.240Z</time>
</trkpt>
<trkpt lat="-27.2961296" lon="152.9010730">
<ele>75.516</ele>
<time>2017-09-12T23:02:24.202Z</time>
</trkpt>
<trkpt lat="-27.2964522" lon="152.9008226">
<ele>76.786</ele>
<time>2017-09-12T23:02:26.179Z</time>
</trkpt>
<trkpt lat="-27.2970090" lon="152.9005611">
<ele>78.285</ele>
<time>2017-09-12T23:02:29.202Z</time>
</trkpt>
<trkpt lat="-27.2974097" lon="152.9005579">
<ele>79.762</ele>
<time>2017-09-12T23:02:31.224Z</time>
</trkpt>
<trkpt lat="-27.2978497" lon="152.9006544">
<ele>81.169</ele>
<time>2017-09-12T23:02:33.469Z</time>
</trkpt>
<trkpt lat="-27.2982485" lon="152.9008425">
<ele>82.406</ele>
<time>2017-09-12T23:02:35.642Z</time>
</trkpt>
<trkpt lat="-27.2985678" lon="152.9011262">
<ele>83.365</ele>
<time>2017-09-12T23:02:37.711Z</time>
</trkpt>
<trkpt lat="-27.2989271" lon="152.9016491">
<ele>84.094</ele>
<time>2017-09-12T23:02:40.683Z</time>
</trkpt>
<trkpt lat="-27.2990844" lon="152.9020800">
<ele>84.880</ele>
<time>2017-09-12T23:02:42.742Z</time>
</trkpt>
<trkpt lat="-27.2991171" lon="152.9027649">
<ele>85.985</ele>
<time>2017-09-12T23:02:45.689Z</time>
</trkpt>
<trkpt lat="-27.2990150" lon="152.9032385">
<ele>87.419</ele>
<time>2017-09-12T23:02:47.771Z</time>
</trkpt>
<trkpt lat="-27.2988487" lon="152.9039070">
<ele>88.917</ele>
<time>2017-09-12T23:02:50.787Z</time>
</trkpt>
<trkpt lat="-27.2987090" lon="152.9045691">
<ele>90.037</ele>
<time>2017-09-12T23:02:53.739Z</time>
</trkpt>
<trkpt lat="-27.2986388" lon="152.9050351">
<ele>90.533</ele>
<time>2017-09-12T23:02:55.801Z</time>
</trkpt>
<trkpt lat="-27.2985142" lon="152.9056929">
<ele>90.571</ele>
<time>2017-09-12T23:02:58.853Z</time>
</trkpt>
<trkpt lat="-27.2984652" lon="152.9061114">
<ele>90.397</ele>
<time>2017-09-12T23:03:00.795Z</time>
</trkpt>
<trkpt lat="-27.2983645" lon="152.9067648">
<ele>90.181</ele>
<time>2017-09-12T23:03:03.799Z</time>
</trkpt>
<trkpt lat="-27.2983064" lon="152.9074344">
<ele>90.022</ele>
<time>2017-09-12T23:03:06.851Z</time>
</trkpt>
<trkpt lat="-27.2982300" lon="152.9080789">
<ele>89.827</ele>
<time>2017-09-12T23:03:09.798Z</time>
</trkpt>
<trkpt lat="-27.2982051" lon="152.9085141">
<ele>89.338</ele>
<time>2017-09-12T23:03:11.733Z</time>
</trkpt>
<trkpt lat="-27.2982245" lon="152.9092043">
<ele>88.483</ele>
<time>2017-09-12T23:03:14.756Z</time>
</trkpt>
<trkpt lat="-27.2984214" lon="152.9098378">
<ele>87.355</ele>
<time>2017-09-12T23:03:17.654Z</time>
</trkpt>
<trkpt lat="-27.2984931" lon="152.9102965">
<ele>86.018</ele>
<time>2017-09-12T23:03:19.636Z</time>
</trkpt>
<trkpt lat="-27.2985547" lon="152.9107662">
<ele>84.663</ele>
<time>2017-09-12T23:03:21.703Z</time>
</trkpt>
<trkpt lat="-27.2985526" lon="152.9112122">
<ele>83.595</ele>
<time>2017-09-12T23:03:23.695Z</time>
</trkpt>
<trkpt lat="-27.2985683" lon="152.9118720">
<ele>82.931</ele>
<time>2017-09-12T23:03:26.775Z</time>
</trkpt>
<trkpt lat="-27.2985525" lon="152.9122898">
<ele>82.604</ele>
<time>2017-09-12T23:03:28.789Z</time>
</trkpt>
<trkpt lat="-27.2985607" lon="152.9128947">
<ele>82.531</ele>
<time>2017-09-12T23:03:31.669Z</time>
</trkpt>
<trkpt lat="-27.2984705" lon="152.9135149">
<ele>82.837</ele>
<time>2017-09-12T23:03:34.483Z</time>
</trkpt>
<trkpt lat="-27.2982248" lon="152.9141817">
<ele>83.887</ele>
<time>2017-09-12T23:03:37.517Z</time>
</trkpt>
<trkpt lat="-27.2979707" lon="152.9145763">
<ele>85.841</ele>
<time>2017-09-12T23:03:39.517Z</time>
</trkpt>
<trkpt lat="-27.2975009" lon="152.9151011">
<ele>88.147</ele>
<time>2017-09-12T23:03:42.627Z</time>
</trkpt>
<trkpt lat="-27.2971864" lon="152.9153997">
<ele>89.897</ele>
<time>2017-09-12T23:03:44.562Z</time>
</trkpt>
<trkpt lat="-27.2967753" lon="152.9159623">
<ele>90.591</ele>
<time>2017-09-12T23:03:47.544Z</time>
</trkpt>
<trkpt lat="-27.2965408" lon="152.9163782">
<ele>90.268</ele>
<time>2017-09-12T23:03:49.563Z</time>
</trkpt>
<trkpt lat="-27.2963051" lon="152.9167856">
<ele>89.183</ele>
<time>2017-09-12T23:03:51.606Z</time>
</trkpt>
<trkpt lat="-27.2960768" lon="152.9171750">
<ele>87.593</ele>
<time>2017-09-12T23:03:53.597Z</time>
</trkpt>
<trkpt lat="-27.2958356" lon="152.9175464">
<ele>85.667</ele>
<time>2017-09-12T23:03:55.557Z</time>
</trkpt>
<trkpt lat="-27.2954691" lon="152.9181181">
<ele>83.505</ele>
<time>2017-09-12T23:03:58.542Z</time>
</trkpt>
<trkpt lat="-27.2950500" lon="152.9186433">
<ele>81.078</ele>
<time>2017-09-12T23:04:01.522Z</time>
</trkpt>
<trkpt lat="-27.2945436" lon="152.9190958">
<ele>78.630</ele>
<time>2017-09-12T23:04:04.589Z</time>
</trkpt>
<trkpt lat="-27.2940452" lon="152.9195289">
<ele>76.871</ele>
<time>2017-09-12T23:04:07.600Z</time>
</trkpt>
<trkpt lat="-27.2935689" lon="152.9199814">
<ele>76.369</ele>
<time>2017-09-12T23:04:10.596Z</time>
</trkpt>
<trkpt lat="-27.2931067" lon="152.9204385">
<ele>76.877</ele>
<time>2017-09-12T23:04:13.594Z</time>
</trkpt>
<trkpt lat="-27.2926542" lon="152.9208715">
<ele>77.366</ele>
<time>2017-09-12T23:04:16.549Z</time>
</trkpt>
<trkpt lat="-27.2923554" lon="152.9211681">
<ele>77.137</ele>
<time>2017-09-12T23:04:18.574Z</time>
</trkpt>
<trkpt lat="-27.2920691" lon="152.9214497">
<ele>76.755</ele>
<time>2017-09-12T23:04:20.537Z</time>
</trkpt>
<trkpt lat="-27.2917550" lon="152.9216969">
<ele>77.132</ele>
<time>2017-09-12T23:04:22.505Z</time>
</trkpt>
<trkpt lat="-27.2913111" lon="152.9221378">
<ele>78.456</ele>
<time>2017-09-12T23:04:25.480Z</time>
</trkpt>
<trkpt lat="-27.2910069" lon="152.9224324">
<ele>80.365</ele>
<time>2017-09-12T23:04:27.474Z</time>
</trkpt>
<trkpt lat="-27.2905623" lon="152.9228932">
<ele>82.361</ele>
<time>2017-09-12T23:04:30.427Z</time>
</trkpt>
<trkpt lat="-27.2900554" lon="152.9234253">
<ele>83.896</ele>
<time>2017-09-12T23:04:33.754Z</time>
</trkpt>
<trkpt lat="-27.2897464" lon="152.9237268">
<ele>84.426</ele>
<time>2017-09-12T23:04:35.750Z</time>
</trkpt>
<trkpt lat="-27.2894575" lon="152.9240084">
<ele>83.786</ele>
<time>2017-09-12T23:04:37.655Z</time>
</trkpt>
<trkpt lat="-27.2889806" lon="152.9243829">
<ele>82.364</ele>
<time>2017-09-12T23:04:40.560Z</time>
</trkpt>
<trkpt lat="-27.2886332" lon="152.9246041">
<ele>80.796</ele>
<time>2017-09-12T23:04:42.528Z</time>
</trkpt>
<trkpt lat="-27.2880503" lon="152.9247972">
<ele>79.601</ele>
<time>2017-09-12T23:04:45.515Z</time>
</trkpt>
<trkpt lat="-27.2876887" lon="152.9249712">
<ele>79.116</ele>
<time>2017-09-12T23:04:47.446Z</time>
</trkpt>
<trkpt lat="-27.2871011" lon="152.9251449">
<ele>79.332</ele>
<time>2017-09-12T23:04:50.450Z</time>
</trkpt>
<trkpt lat="-27.2865232" lon="152.9253285">
<ele>79.843</ele>
<time>2017-09-12T23:04:53.465Z</time>
</trkpt>
<trkpt lat="-27.2859652" lon="152.9255405">
<ele>80.201</ele>
<time>2017-09-12T23:04:56.413Z</time>
</trkpt>
<trkpt lat="-27.2856048" lon="152.9257602">
<ele>79.981</ele>
<time>2017-09-12T23:04:58.439Z</time>
</trkpt>
<trkpt lat="-27.2852784" lon="152.9261091">
<ele>78.903</ele>
<time>2017-09-12T23:05:00.691Z</time>
</trkpt>
<trkpt lat="-27.2850382" lon="152.9264852">
<ele>77.176</ele>
<time>2017-09-12T23:05:02.766Z</time>
</trkpt>
<trkpt lat="-27.2847815" lon="152.9271184">
<ele>75.201</ele>
<time>2017-09-12T23:05:05.882Z</time>
</trkpt>
<trkpt lat="-27.2848174" lon="152.9276009">
<ele>72.953</ele>
<time>2017-09-12T23:05:08.240Z</time>
</trkpt>
<trkpt lat="-27.2848473" lon="152.9280273">
<ele>70.325</ele>
<time>2017-09-12T23:05:10.927Z</time>
</trkpt>
<trkpt lat="-27.2848999" lon="152.9283365">
<ele>67.533</ele>
<time>2017-09-12T23:05:13.436Z</time>
</trkpt>
<trkpt lat="-27.2850543" lon="152.9287050">
<ele>64.792</ele>
<time>2017-09-12T23:05:17.820Z</time>
</trkpt>
<trkpt lat="-27.2851011" lon="152.9288871">
<ele>61.435</ele>
<time>2017-09-12T23:05:19.540Z</time>
</trkpt>
<trkpt lat="-27.2850061" lon="152.9290054">
<ele>57.241</ele>
<time>2017-09-12T23:05:20.716Z</time>
</trkpt>
<trkpt lat="-27.2846937" lon="152.9290300">
<ele>53.669</ele>
<time>2017-09-12T23:05:23.061Z</time>
</trkpt>
<trkpt lat="-27.2844300" lon="152.9289627">
<ele>51.976</ele>
<time>2017-09-12T23:05:25.021Z</time>
</trkpt>
<trkpt lat="-27.2841586" lon="152.9288741">
<ele>51.841</ele>
<time>2017-09-12T23:05:27.084Z</time>
</trkpt>
<trkpt lat="-27.2837551" lon="152.9288091">
<ele>52.556</ele>
<time>2017-09-12T23:05:30.041Z</time>
</trkpt>
<trkpt lat="-27.2834869" lon="152.9287807">
<ele>53.569</ele>
<time>2017-09-12T23:05:31.874Z</time>
</trkpt>
<trkpt lat="-27.2831904" lon="152.9287840">
<ele>54.487</ele>
<time>2017-09-12T23:05:33.788Z</time>
</trkpt>
<trkpt lat="-27.2828837" lon="152.9288737">
<ele>55.098</ele>
<time>2017-09-12T23:05:35.794Z</time>
</trkpt>
<trkpt lat="-27.2824718" lon="152.9291737">
<ele>55.453</ele>
<time>2017-09-12T23:05:38.788Z</time>
</trkpt>
<trkpt lat="-27.2822499" lon="152.9294464">
<ele>55.727</ele>
<time>2017-09-12T23:05:40.723Z</time>
</trkpt>
<trkpt lat="-27.2820622" lon="152.9297580">
<ele>55.996</ele>
<time>2017-09-12T23:05:42.619Z</time>
</trkpt>
<trkpt lat="-27.2818930" lon="152.9301128">
<ele>56.208</ele>
<time>2017-09-12T23:05:44.619Z</time>
</trkpt>
<trkpt lat="-27.2817060" lon="152.9304734">
<ele>56.368</ele>
<time>2017-09-12T23:05:46.815Z</time>
</trkpt>
<trkpt lat="-27.2814557" lon="152.9307250">
<ele>56.706</ele>
<time>2017-09-12T23:05:48.854Z</time>
</trkpt>
<trkpt lat="-27.2810130" lon="152.9308112">
<ele>57.625</ele>
<time>2017-09-12T23:05:51.631Z</time>
</trkpt>
<trkpt lat="-27.2805419" lon="152.9306224">
<ele>59.017</ele>
<time>2017-09-12T23:05:54.701Z</time>
</trkpt>
<trkpt lat="-27.2800636" lon="152.9306630">
<ele>60.850</ele>
<time>2017-09-12T23:05:57.608Z</time>
</trkpt>
<trkpt lat="-27.2797551" lon="152.9308722">
<ele>64.118</ele>
<time>2017-09-12T23:05:59.758Z</time>
</trkpt>
<trkpt lat="-27.2794342" lon="152.9310973">
<ele>68.936</ele>
<time>2017-09-12T23:06:02.001Z</time>
</trkpt>
<trkpt lat="-27.2790334" lon="152.9314537">
<ele>73.290</ele>
<time>2017-09-12T23:06:05.012Z</time>
</trkpt>
<trkpt lat="-27.2787415" lon="152.9319424">
<ele>75.538</ele>
<time>2017-09-12T23:06:08.153Z</time>
</trkpt>
<trkpt lat="-27.2785013" lon="152.9324438">
<ele>75.747</ele>
<time>2017-09-12T23:06:11.360Z</time>
</trkpt>
<trkpt lat="-27.2782717" lon="152.9328992">
<ele>74.553</ele>
<time>2017-09-12T23:06:14.451Z</time>
</trkpt>
<trkpt lat="-27.2780193" lon="152.9333027">
<ele>72.413</ele>
<time>2017-09-12T23:06:17.317Z</time>
</trkpt>
<trkpt lat="-27.2778311" lon="152.9335574">
<ele>69.672</ele>
<time>2017-09-12T23:06:19.111Z</time>
</trkpt>
<trkpt lat="-27.2775581" lon="152.9337603">
<ele>66.794</ele>
<time>2017-09-12T23:06:21.061Z</time>
</trkpt>
<trkpt lat="-27.2771113" lon="152.9340483">
<ele>64.285</ele>
<time>2017-09-12T23:06:24.071Z</time>
</trkpt>
<trkpt lat="-27.2768299" lon="152.9342921">
<ele>62.239</ele>
<time>2017-09-12T23:06:26.168Z</time>
</trkpt>
<trkpt lat="-27.2763900" lon="152.9345841">
<ele>60.536</ele>
<time>2017-09-12T23:06:29.199Z</time>
</trkpt>
<trkpt lat="-27.2760322" lon="152.9349648">
<ele>59.257</ele>
<time>2017-09-12T23:06:32.030Z</time>
</trkpt>
<trkpt lat="-27.2758552" lon="152.9355203">
<ele>58.436</ele>
<time>2017-09-12T23:06:34.851Z</time>
</trkpt>
<trkpt lat="-27.2758645" lon="152.9361667">
<ele>57.970</ele>
<time>2017-09-12T23:06:37.769Z</time>
</trkpt>
<trkpt lat="-27.2758985" lon="152.9366197">
<ele>57.874</ele>
<time>2017-09-12T23:06:39.813Z</time>
</trkpt>
<trkpt lat="-27.2759893" lon="152.9372838">
<ele>58.202</ele>
<time>2017-09-12T23:06:42.863Z</time>
</trkpt>
<trkpt lat="-27.2759800" lon="152.9377198">
<ele>59.004</ele>
<time>2017-09-12T23:06:44.885Z</time>
</trkpt>
<trkpt lat="-27.2759604" lon="152.9381584">
<ele>60.221</ele>
<time>2017-09-12T23:06:46.963Z</time>
</trkpt>
<trkpt lat="-27.2759206" lon="152.9387986">
<ele>61.476</ele>
<time>2017-09-12T23:06:50.086Z</time>
</trkpt>
<trkpt lat="-27.2758195" lon="152.9391872">
<ele>62.318</ele>
<time>2017-09-12T23:06:52.023Z</time>
</trkpt>
<trkpt lat="-27.2756224" lon="152.9395560">
<ele>62.646</ele>
<time>2017-09-12T23:06:53.994Z</time>
</trkpt>
<trkpt lat="-27.2753696" lon="152.9398870">
<ele>62.666</ele>
<time>2017-09-12T23:06:55.966Z</time>
</trkpt>
<trkpt lat="-27.2747685" lon="152.9401702">
<ele>62.675</ele>
<time>2017-09-12T23:06:59.279Z</time>
</trkpt>
<trkpt lat="-27.2743775" lon="152.9402731">
<ele>62.968</ele>
<time>2017-09-12T23:07:01.383Z</time>
</trkpt>
<trkpt lat="-27.2739893" lon="152.9403521">
<ele>63.673</ele>
<time>2017-09-12T23:07:03.487Z</time>
</trkpt>
<trkpt lat="-27.2734331" lon="152.9404107">
<ele>64.660</ele>
<time>2017-09-12T23:07:06.531Z</time>
</trkpt>
<trkpt lat="-27.2730371" lon="152.9405310">
<ele>65.594</ele>
<time>2017-09-12T23:07:08.748Z</time>
</trkpt>
<trkpt lat="-27.2725342" lon="152.9407716">
<ele>66.089</ele>
<time>2017-09-12T23:07:11.623Z</time>
</trkpt>
<trkpt lat="-27.2719961" lon="152.9408873">
<ele>65.785</ele>
<time>2017-09-12T23:07:14.456Z</time>
</trkpt>
<trkpt lat="-27.2714039" lon="152.9408577">
<ele>64.564</ele>
<time>2017-09-12T23:07:17.578Z</time>
</trkpt>
<trkpt lat="-27.2710334" lon="152.9408479">
<ele>62.824</ele>
<time>2017-09-12T23:07:19.527Z</time>
</trkpt>
<trkpt lat="-27.2706626" lon="152.9408090">
<ele>61.236</ele>
<time>2017-09-12T23:07:21.482Z</time>
</trkpt>
<trkpt lat="-27.2700872" lon="152.9407642">
<ele>60.147</ele>
<time>2017-09-12T23:07:24.519Z</time>
</trkpt>
<trkpt lat="-27.2695198" lon="152.9407674">
<ele>59.531</ele>
<time>2017-09-12T23:07:27.563Z</time>
</trkpt>
<trkpt lat="-27.2689554" lon="152.9407448">
<ele>59.253</ele>
<time>2017-09-12T23:07:30.928Z</time>
</trkpt>
<trkpt lat="-27.2684327" lon="152.9407037">
<ele>59.189</ele>
<time>2017-09-12T23:07:34.807Z</time>
</trkpt>
<trkpt lat="-27.2680374" lon="152.9407811">
<ele>59.137</ele>
<time>2017-09-12T23:07:37.698Z</time>
</trkpt>
<trkpt lat="-27.2679170" lon="152.9410053">
<ele>58.752</ele>
<time>2017-09-12T23:07:39.055Z</time>
</trkpt>
<trkpt lat="-27.2679181" lon="152.9413340">
<ele>57.911</ele>
<time>2017-09-12T23:07:40.640Z</time>
</trkpt>
<trkpt lat="-27.2679613" lon="152.9417425">
<ele>57.005</ele>
<time>2017-09-12T23:07:42.529Z</time>
</trkpt>
<trkpt lat="-27.2680215" lon="152.9421889">
<ele>56.467</ele>
<time>2017-09-12T23:07:44.534Z</time>
</trkpt>
<trkpt lat="-27.2681251" lon="152.9428603">
<ele>56.257</ele>
<time>2017-09-12T23:07:47.505Z</time>
</trkpt>
<trkpt lat="-27.2682110" lon="152.9435235">
<ele>55.850</ele>
<time>2017-09-12T23:07:50.417Z</time>
</trkpt>
<trkpt lat="-27.2683064" lon="152.9442365">
<ele>54.641</ele>
<time>2017-09-12T23:07:53.616Z</time>
</trkpt>
<trkpt lat="-27.2684002" lon="152.9448881">
<ele>52.863</ele>
<time>2017-09-12T23:07:56.594Z</time>
</trkpt>
<trkpt lat="-27.2685168" lon="152.9455323">
<ele>51.418</ele>
<time>2017-09-12T23:07:59.516Z</time>
</trkpt>
<trkpt lat="-27.2685876" lon="152.9459791">
<ele>50.718</ele>
<time>2017-09-12T23:08:01.564Z</time>
</trkpt>
<trkpt lat="-27.2686626" lon="152.9464238">
<ele>50.482</ele>
<time>2017-09-12T23:08:03.661Z</time>
</trkpt>
<trkpt lat="-27.2687031" lon="152.9468569">
<ele>50.259</ele>
<time>2017-09-12T23:08:05.705Z</time>
</trkpt>
<trkpt lat="-27.2687777" lon="152.9474886">
<ele>49.767</ele>
<time>2017-09-12T23:08:08.706Z</time>
</trkpt>
<trkpt lat="-27.2688642" lon="152.9481106">
<ele>48.967</ele>
<time>2017-09-12T23:08:11.693Z</time>
</trkpt>
<trkpt lat="-27.2689489" lon="152.9485179">
<ele>47.874</ele>
<time>2017-09-12T23:08:13.703Z</time>
</trkpt>
<trkpt lat="-27.2690541" lon="152.9491377">
<ele>46.644</ele>
<time>2017-09-12T23:08:16.781Z</time>
</trkpt>
<trkpt lat="-27.2690866" lon="152.9495437">
<ele>45.493</ele>
<time>2017-09-12T23:08:18.850Z</time>
</trkpt>
<trkpt lat="-27.2691708" lon="152.9501413">
<ele>44.516</ele>
<time>2017-09-12T23:08:22.096Z</time>
</trkpt>
<trkpt lat="-27.2692570" lon="152.9507063">
<ele>43.636</ele>
<time>2017-09-12T23:08:25.633Z</time>
</trkpt>
<trkpt lat="-27.2692855" lon="152.9510461">
<ele>42.621</ele>
<time>2017-09-12T23:08:27.939Z</time>
</trkpt>
<trkpt lat="-27.2693853" lon="152.9514992">
<ele>41.350</ele>
<time>2017-09-12T23:08:31.441Z</time>
</trkpt>
<trkpt lat="-27.2694372" lon="152.9519107">
<ele>39.928</ele>
<time>2017-09-12T23:08:35.215Z</time>
</trkpt>
<trkpt lat="-27.2694973" lon="152.9522875">
<ele>38.387</ele>
<time>2017-09-12T23:08:40.968Z</time>
</trkpt>
<trkpt lat="-27.2695174" lon="152.9525045">
<ele>36.674</ele>
<time>2017-09-12T23:08:43.440Z</time>
</trkpt>
<trkpt lat="-27.2695484" lon="152.9526797">
<ele>34.918</ele>
<time>2017-09-12T23:08:44.848Z</time>
</trkpt>
<trkpt lat="-27.2695922" lon="152.9528599">
<ele>33.405</ele>
<time>2017-09-12T23:08:46.075Z</time>
</trkpt>
<trkpt lat="-27.2695470" lon="152.9530197">
<ele>32.234</ele>
<time>2017-09-12T23:08:47.151Z</time>
</trkpt>
<trkpt lat="-27.2691816" lon="152.9531652">
<ele>31.383</ele>
<time>2017-09-12T23:08:49.598Z</time>
</trkpt>
<trkpt lat="-27.2686979" lon="152.9533392">
<ele>31.089</ele>
<time>2017-09-12T23:08:52.956Z</time>
</trkpt>
<trkpt lat="-27.2682492" lon="152.9534889">
<ele>31.739</ele>
<time>2017-09-12T23:08:56.288Z</time>
</trkpt>
<trkpt lat="-27.2679854" lon="152.9536257">
<ele>33.316</ele>
<time>2017-09-12T23:08:58.342Z</time>
</trkpt>
<trkpt lat="-27.2676737" lon="152.9539038">
<ele>35.147</ele>
<time>2017-09-12T23:09:00.940Z</time>
</trkpt>
<trkpt lat="-27.2675752" lon="152.9543840">
<ele>36.427</ele>
<time>2017-09-12T23:09:03.732Z</time>
</trkpt>
<trkpt lat="-27.2675970" lon="152.9547376">
<ele>36.819</ele>
<time>2017-09-12T23:09:05.773Z</time>
</trkpt>
<trkpt lat="-27.2675714" lon="152.9552724">
<ele>36.338</ele>
<time>2017-09-12T23:09:09.132Z</time>
</trkpt>
<trkpt lat="-27.2675510" lon="152.9556283">
<ele>34.918</ele>
<time>2017-09-12T23:09:11.690Z</time>
</trkpt>
<trkpt lat="-27.2675221" lon="152.9561050">
<ele>32.539</ele>
<time>2017-09-12T23:09:15.255Z</time>
</trkpt>
<trkpt lat="-27.2673141" lon="152.9564250">
<ele>29.373</ele>
<time>2017-09-12T23:09:17.770Z</time>
</trkpt>
<trkpt lat="-27.2670868" lon="152.9565308">
<ele>25.680</ele>
<time>2017-09-12T23:09:19.398Z</time>
</trkpt>
<trkpt lat="-27.2668188" lon="152.9565531">
<ele>22.110</ele>
<time>2017-09-12T23:09:21.132Z</time>
</trkpt>
<trkpt lat="-27.2665502" lon="152.9564997">
<ele>19.568</ele>
<time>2017-09-12T23:09:22.879Z</time>
</trkpt>
<trkpt lat="-27.2661246" lon="152.9562646">
<ele>18.346</ele>
<time>2017-09-12T23:09:25.889Z</time>
</trkpt>
<trkpt lat="-27.2658255" lon="152.9561778">
<ele>18.193</ele>
<time>2017-09-12T23:09:27.827Z</time>
</trkpt>
<trkpt lat="-27.2655124" lon="152.9561530">
<ele>18.800</ele>
<time>2017-09-12T23:09:29.787Z</time>
</trkpt>
<trkpt lat="-27.2650406" lon="152.9563553">
<ele>19.851</ele>
<time>2017-09-12T23:09:32.932Z</time>
</trkpt>
<trkpt lat="-27.2645798" lon="152.9565471">
<ele>21.099</ele>
<time>2017-09-12T23:09:36.154Z</time>
</trkpt>
<trkpt lat="-27.2642654" lon="152.9566533">
<ele>22.262</ele>
<time>2017-09-12T23:09:38.500Z</time>
</trkpt>
<trkpt lat="-27.2639743" lon="152.9568055">
<ele>22.951</ele>
<time>2017-09-12T23:09:40.938Z</time>
</trkpt>
<trkpt lat="-27.2636041" lon="152.9570027">
<ele>23.025</ele>
<time>2017-09-12T23:09:44.814Z</time>
</trkpt>
<trkpt lat="-27.2632633" lon="152.9572052">
<ele>22.746</ele>
<time>2017-09-12T23:09:49.986Z</time>
</trkpt>
<trkpt lat="-27.2630583" lon="152.9573121">
<ele>22.446</ele>
<time>2017-09-12T23:09:52.619Z</time>
</trkpt>
<trkpt lat="-27.2629183" lon="152.9574245">
<ele>22.377</ele>
<time>2017-09-12T23:09:54.127Z</time>
</trkpt>
<trkpt lat="-27.2627455" lon="152.9575591">
<ele>22.669</ele>
<time>2017-09-12T23:09:55.827Z</time>
</trkpt>
<trkpt lat="-27.2625773" lon="152.9576475">
<ele>23.327</ele>
<time>2017-09-12T23:09:57.080Z</time>
</trkpt>
<trkpt lat="-27.2623340" lon="152.9574412">
<ele>24.224</ele>
<time>2017-09-12T23:09:59.077Z</time>
</trkpt>
<trkpt lat="-27.2619713" lon="152.9571178">
<ele>25.121</ele>
<time>2017-09-12T23:10:01.976Z</time>
</trkpt>
<trkpt lat="-27.2615883" lon="152.9567813">
<ele>25.832</ele>
<time>2017-09-12T23:10:05.202Z</time>
</trkpt>
<trkpt lat="-27.2613518" lon="152.9565219">
<ele>26.335</ele>
<time>2017-09-12T23:10:07.500Z</time>
</trkpt>
<trkpt lat="-27.2610355" lon="152.9561832">
<ele>26.642</ele>
<time>2017-09-12T23:10:10.406Z</time>
</trkpt>
<trkpt lat="-27.2607685" lon="152.9558156">
<ele>26.847</ele>
<time>2017-09-12T23:10:13.039Z</time>
</trkpt>
<trkpt lat="-27.2606095" lon="152.9555132">
<ele>27.303</ele>
<time>2017-09-12T23:10:14.963Z</time>
</trkpt>
<trkpt lat="-27.2604339" lon="152.9552118">
<ele>28.363</ele>
<time>2017-09-12T23:10:16.929Z</time>
</trkpt>
<trkpt lat="-27.2601741" lon="152.9547413">
<ele>29.999</ele>
<time>2017-09-12T23:10:19.936Z</time>
</trkpt>
<trkpt lat="-27.2599234" lon="152.9542786">
<ele>31.909</ele>
<time>2017-09-12T23:10:22.946Z</time>
</trkpt>
<trkpt lat="-27.2597578" lon="152.9539605">
<ele>33.674</ele>
<time>2017-09-12T23:10:25.131Z</time>
</trkpt>
<trkpt lat="-27.2595931" lon="152.9536456">
<ele>34.844</ele>
<time>2017-09-12T23:10:27.357Z</time>
</trkpt>
<trkpt lat="-27.2593455" lon="152.9532388">
<ele>35.219</ele>
<time>2017-09-12T23:10:30.218Z</time>
</trkpt>
<trkpt lat="-27.2592120" lon="152.9529699">
<ele>35.034</ele>
<time>2017-09-12T23:10:31.929Z</time>
</trkpt>
<trkpt lat="-27.2589773" lon="152.9525031">
<ele>34.718</ele>
<time>2017-09-12T23:10:34.931Z</time>
</trkpt>
<trkpt lat="-27.2587962" lon="152.9522025">
<ele>34.776</ele>
<time>2017-09-12T23:10:36.845Z</time>
</trkpt>
<trkpt lat="-27.2586549" lon="152.9518911">
<ele>35.540</ele>
<time>2017-09-12T23:10:38.610Z</time>
</trkpt>
<trkpt lat="-27.2584538" lon="152.9515940">
<ele>36.796</ele>
<time>2017-09-12T23:10:40.364Z</time>
</trkpt>
<trkpt lat="-27.2581229" lon="152.9510814">
<ele>38.005</ele>
<time>2017-09-12T23:10:43.178Z</time>
</trkpt>
<trkpt lat="-27.2577285" lon="152.9505992">
<ele>38.827</ele>
<time>2017-09-12T23:10:46.048Z</time>
</trkpt>
<trkpt lat="-27.2572500" lon="152.9501646">
<ele>39.245</ele>
<time>2017-09-12T23:10:49.247Z</time>
</trkpt>
<trkpt lat="-27.2569086" lon="152.9499243">
<ele>39.635</ele>
<time>2017-09-12T23:10:51.453Z</time>
</trkpt>
<trkpt lat="-27.2564500" lon="152.9496073">
<ele>40.482</ele>
<time>2017-09-12T23:10:54.449Z</time>
</trkpt>
<trkpt lat="-27.2559752" lon="152.9493167">
<ele>42.034</ele>
<time>2017-09-12T23:10:57.406Z</time>
</trkpt>
<trkpt lat="-27.2557451" lon="152.9489973">
<ele>44.329</ele>
<time>2017-09-12T23:10:59.388Z</time>
</trkpt>
<trkpt lat="-27.2554333" lon="152.9484720">
<ele>47.082</ele>
<time>2017-09-12T23:11:02.474Z</time>
</trkpt>
<trkpt lat="-27.2553091" lon="152.9480891">
<ele>49.781</ele>
<time>2017-09-12T23:11:04.442Z</time>
</trkpt>
<trkpt lat="-27.2552491" lon="152.9477002">
<ele>51.980</ele>
<time>2017-09-12T23:11:06.288Z</time>
</trkpt>
<trkpt lat="-27.2551903" lon="152.9470714">
<ele>53.336</ele>
<time>2017-09-12T23:11:09.307Z</time>
</trkpt>
<trkpt lat="-27.2551918" lon="152.9464175">
<ele>53.765</ele>
<time>2017-09-12T23:11:12.664Z</time>
</trkpt>
<trkpt lat="-27.2551760" lon="152.9458257">
<ele>53.492</ele>
<time>2017-09-12T23:11:15.865Z</time>
</trkpt>
<trkpt lat="-27.2551835" lon="152.9454528">
<ele>52.788</ele>
<time>2017-09-12T23:11:17.918Z</time>
</trkpt>
<trkpt lat="-27.2551796" lon="152.9450779">
<ele>51.993</ele>
<time>2017-09-12T23:11:19.993Z</time>
</trkpt>
<trkpt lat="-27.2551181" lon="152.9445394">
<ele>51.465</ele>
<time>2017-09-12T23:11:22.908Z</time>
</trkpt>
<trkpt lat="-27.2550707" lon="152.9441945">
<ele>51.542</ele>
<time>2017-09-12T23:11:24.687Z</time>
</trkpt>
<trkpt lat="-27.2549540" lon="152.9436567">
<ele>52.459</ele>
<time>2017-09-12T23:11:27.409Z</time>
</trkpt>
<trkpt lat="-27.2548178" lon="152.9430523">
<ele>54.319</ele>
<time>2017-09-12T23:11:30.539Z</time>
</trkpt>
<trkpt lat="-27.2547067" lon="152.9426727">
<ele>57.083</ele>
<time>2017-09-12T23:11:32.581Z</time>
</trkpt>
<trkpt lat="-27.2545928" lon="152.9420954">
<ele>60.230</ele>
<time>2017-09-12T23:11:35.605Z</time>
</trkpt>
<trkpt lat="-27.2544701" lon="152.9415438">
<ele>63.010</ele>
<time>2017-09-12T23:11:38.516Z</time>
</trkpt>
<trkpt lat="-27.2543920" lon="152.9411530">
<ele>65.318</ele>
<time>2017-09-12T23:11:40.544Z</time>
</trkpt>
<trkpt lat="-27.2541822" lon="152.9406367">
<ele>67.379</ele>
<time>2017-09-12T23:11:43.316Z</time>
</trkpt>
<trkpt lat="-27.2540313" lon="152.9402789">
<ele>69.174</ele>
<time>2017-09-12T23:11:45.174Z</time>
</trkpt>
<trkpt lat="-27.2537347" lon="152.9397151">
<ele>70.488</ele>
<time>2017-09-12T23:11:48.289Z</time>
</trkpt>
<trkpt lat="-27.2535196" lon="152.9393739">
<ele>71.031</ele>
<time>2017-09-12T23:11:50.369Z</time>
</trkpt>
<trkpt lat="-27.2533211" lon="152.9390100">
<ele>70.712</ele>
<time>2017-09-12T23:11:52.626Z</time>
</trkpt>
<trkpt lat="-27.2530370" lon="152.9385334">
<ele>69.781</ele>
<time>2017-09-12T23:11:55.628Z</time>
</trkpt>
<trkpt lat="-27.2528251" lon="152.9382622">
<ele>68.572</ele>
<time>2017-09-12T23:11:57.478Z</time>
</trkpt>
<trkpt lat="-27.2526068" lon="152.9379713">
<ele>67.384</ele>
<time>2017-09-12T23:11:59.369Z</time>
</trkpt>
<trkpt lat="-27.2522310" lon="152.9375554">
<ele>66.474</ele>
<time>2017-09-12T23:12:02.216Z</time>
</trkpt>
<trkpt lat="-27.2519502" lon="152.9372913">
<ele>65.893</ele>
<time>2017-09-12T23:12:04.161Z</time>
</trkpt>
<trkpt lat="-27.2516012" lon="152.9367836">
<ele>65.546</ele>
<time>2017-09-12T23:12:07.249Z</time>
</trkpt>
<trkpt lat="-27.2513537" lon="152.9362043">
<ele>65.462</ele>
<time>2017-09-12T23:12:10.419Z</time>
</trkpt>
<trkpt lat="-27.2512107" lon="152.9358323">
<ele>65.732</ele>
<time>2017-09-12T23:12:12.409Z</time>
</trkpt>
<trkpt lat="-27.2510413" lon="152.9354958">
<ele>66.294</ele>
<time>2017-09-12T23:12:14.318Z</time>
</trkpt>
<trkpt lat="-27.2508479" lon="152.9351181">
<ele>66.992</ele>
<time>2017-09-12T23:12:16.482Z</time>
</trkpt>
<trkpt lat="-27.2506519" lon="152.9347862">
<ele>67.775</ele>
<time>2017-09-12T23:12:18.483Z</time>
</trkpt>
<trkpt lat="-27.2502877" lon="152.9343441">
<ele>68.680</ele>
<time>2017-09-12T23:12:21.548Z</time>
</trkpt>
<trkpt lat="-27.2500488" lon="152.9340623">
<ele>69.853</ele>
<time>2017-09-12T23:12:23.566Z</time>
</trkpt>
<trkpt lat="-27.2496620" lon="152.9336659">
<ele>71.441</ele>
<time>2017-09-12T23:12:26.664Z</time>
</trkpt>
<trkpt lat="-27.2492648" lon="152.9333328">
<ele>73.525</ele>
<time>2017-09-12T23:12:29.516Z</time>
</trkpt>
<trkpt lat="-27.2488788" lon="152.9329582">
<ele>75.883</ele>
<time>2017-09-12T23:12:32.397Z</time>
</trkpt>
<trkpt lat="-27.2484684" lon="152.9325761">
<ele>77.835</ele>
<time>2017-09-12T23:12:35.416Z</time>
</trkpt>
<trkpt lat="-27.2482286" lon="152.9322951">
<ele>79.034</ele>
<time>2017-09-12T23:12:37.290Z</time>
</trkpt>
<trkpt lat="-27.2480356" lon="152.9319791">
<ele>79.822</ele>
<time>2017-09-12T23:12:39.100Z</time>
</trkpt>
<trkpt lat="-27.2478918" lon="152.9315992">
<ele>80.391</ele>
<time>2017-09-12T23:12:41.008Z</time>
</trkpt>
<trkpt lat="-27.2478305" lon="152.9309452">
<ele>80.669</ele>
<time>2017-09-12T23:12:44.145Z</time>
</trkpt>
<trkpt lat="-27.2479786" lon="152.9303325">
<ele>80.836</ele>
<time>2017-09-12T23:12:47.291Z</time>
</trkpt>
<trkpt lat="-27.2482184" lon="152.9297998">
<ele>81.426</ele>
<time>2017-09-12T23:12:50.254Z</time>
</trkpt>
<trkpt lat="-27.2483617" lon="152.9294290">
<ele>83.000</ele>
<time>2017-09-12T23:12:52.176Z</time>
</trkpt>
<trkpt lat="-27.2486156" lon="152.9288869">
<ele>85.418</ele>
<time>2017-09-12T23:12:55.041Z</time>
</trkpt>
<trkpt lat="-27.2487300" lon="152.9282461">
<ele>87.800</ele>
<time>2017-09-12T23:12:58.273Z</time>
</trkpt>
<trkpt lat="-27.2487711" lon="152.9278253">
<ele>89.404</ele>
<time>2017-09-12T23:13:00.470Z</time>
</trkpt>
<trkpt lat="-27.2487024" lon="152.9272511">
<ele>90.144</ele>
<time>2017-09-12T23:13:03.447Z</time>
</trkpt>
<trkpt lat="-27.2485291" lon="152.9267061">
<ele>90.417</ele>
<time>2017-09-12T23:13:06.382Z</time>
</trkpt>
<trkpt lat="-27.2483901" lon="152.9263381">
<ele>90.962</ele>
<time>2017-09-12T23:13:08.403Z</time>
</trkpt>
<trkpt lat="-27.2482462" lon="152.9259725">
<ele>92.369</ele>
<time>2017-09-12T23:13:10.389Z</time>
</trkpt>
<trkpt lat="-27.2479828" lon="152.9254704">
<ele>94.595</ele>
<time>2017-09-12T23:13:13.203Z</time>
</trkpt>
<trkpt lat="-27.2477615" lon="152.9249018">
<ele>97.406</ele>
<time>2017-09-12T23:13:16.175Z</time>
</trkpt>
<trkpt lat="-27.2475981" lon="152.9245224">
<ele>100.314</ele>
<time>2017-09-12T23:13:18.215Z</time>
</trkpt>
<trkpt lat="-27.2472823" lon="152.9240170">
<ele>102.630</ele>
<time>2017-09-12T23:13:21.271Z</time>
</trkpt>
<trkpt lat="-27.2469763" lon="152.9235040">
<ele>104.453</ele>
<time>2017-09-12T23:13:24.470Z</time>
</trkpt>
<trkpt lat="-27.2466846" lon="152.9230187">
<ele>106.481</ele>
<time>2017-09-12T23:13:27.550Z</time>
</trkpt>
<trkpt lat="-27.2463309" lon="152.9226359">
<ele>109.015</ele>
<time>2017-09-12T23:13:30.367Z</time>
</trkpt>
<trkpt lat="-27.2461118" lon="152.9223366">
<ele>111.982</ele>
<time>2017-09-12T23:13:32.310Z</time>
</trkpt>
<trkpt lat="-27.2457362" lon="152.9219145">
<ele>114.931</ele>
<time>2017-09-12T23:13:35.298Z</time>
</trkpt>
<trkpt lat="-27.2453187" lon="152.9215508">
<ele>117.361</ele>
<time>2017-09-12T23:13:38.252Z</time>
</trkpt>
<trkpt lat="-27.2449262" lon="152.9211393">
<ele>119.202</ele>
<time>2017-09-12T23:13:41.217Z</time>
</trkpt>
<trkpt lat="-27.2446385" lon="152.9209037">
<ele>120.644</ele>
<time>2017-09-12T23:13:43.166Z</time>
</trkpt>
<trkpt lat="-27.2443601" lon="152.9206403">
<ele>121.768</ele>
<time>2017-09-12T23:13:45.150Z</time>
</trkpt>
<trkpt lat="-27.2440458" lon="152.9204304">
<ele>122.544</ele>
<time>2017-09-12T23:13:47.103Z</time>
</trkpt>
<trkpt lat="-27.2435802" lon="152.9201036">
<ele>122.942</ele>
<time>2017-09-12T23:13:49.963Z</time>
</trkpt>
<trkpt lat="-27.2430557" lon="152.9198345">
<ele>122.938</ele>
<time>2017-09-12T23:13:52.767Z</time>
</trkpt>
<trkpt lat="-27.2426952" lon="152.9196545">
<ele>122.371</ele>
<time>2017-09-12T23:13:54.584Z</time>
</trkpt>
<trkpt lat="-27.2423125" lon="152.9194774">
<ele>121.150</ele>
<time>2017-09-12T23:13:56.450Z</time>
</trkpt>
<trkpt lat="-27.2418898" lon="152.9193187">
<ele>119.464</ele>
<time>2017-09-12T23:13:58.454Z</time>
</trkpt>
<trkpt lat="-27.2412876" lon="152.9189975">
<ele>117.471</ele>
<time>2017-09-12T23:14:01.396Z</time>
</trkpt>
<trkpt lat="-27.2406515" lon="152.9187591">
<ele>114.979</ele>
<time>2017-09-12T23:14:04.209Z</time>
</trkpt>
<trkpt lat="-27.2401947" lon="152.9185378">
<ele>111.735</ele>
<time>2017-09-12T23:14:06.233Z</time>
</trkpt>
<trkpt lat="-27.2397556" lon="152.9183037">
<ele>108.068</ele>
<time>2017-09-12T23:14:08.184Z</time>
</trkpt>
<trkpt lat="-27.2390942" lon="152.9179570">
<ele>104.845</ele>
<time>2017-09-12T23:14:11.084Z</time>
</trkpt>
<trkpt lat="-27.2384181" lon="152.9175658">
<ele>102.194</ele>
<time>2017-09-12T23:14:14.097Z</time>
</trkpt>
<trkpt lat="-27.2379745" lon="152.9172613">
<ele>99.204</ele>
<time>2017-09-12T23:14:16.155Z</time>
</trkpt>
<trkpt lat="-27.2373528" lon="152.9167581">
<ele>95.533</ele>
<time>2017-09-12T23:14:19.180Z</time>
</trkpt>
<trkpt lat="-27.2369515" lon="152.9164202">
<ele>91.979</ele>
<time>2017-09-12T23:14:21.159Z</time>
</trkpt>
<trkpt lat="-27.2363971" lon="152.9158316">
<ele>89.209</ele>
<time>2017-09-12T23:14:24.168Z</time>
</trkpt>
<trkpt lat="-27.2358615" lon="152.9152298">
<ele>87.250</ele>
<time>2017-09-12T23:14:27.139Z</time>
</trkpt>
<trkpt lat="-27.2355437" lon="152.9147876">
<ele>85.739</ele>
<time>2017-09-12T23:14:29.114Z</time>
</trkpt>
<trkpt lat="-27.2350793" lon="152.9140993">
<ele>84.398</ele>
<time>2017-09-12T23:14:32.157Z</time>
</trkpt>
<trkpt lat="-27.2347924" lon="152.9136259">
<ele>83.409</ele>
<time>2017-09-12T23:14:34.209Z</time>
</trkpt>
<trkpt lat="-27.2344229" lon="152.9129158">
<ele>83.029</ele>
<time>2017-09-12T23:14:37.168Z</time>
</trkpt>
<trkpt lat="-27.2341645" lon="152.9124458">
<ele>83.501</ele>
<time>2017-09-12T23:14:39.131Z</time>
</trkpt>
<trkpt lat="-27.2338977" lon="152.9119727">
<ele>85.052</ele>
<time>2017-09-12T23:14:41.102Z</time>
</trkpt>
<trkpt lat="-27.2336183" lon="152.9114977">
<ele>87.338</ele>
<time>2017-09-12T23:14:43.106Z</time>
</trkpt>
<trkpt lat="-27.2331926" lon="152.9107870">
<ele>89.599</ele>
<time>2017-09-12T23:14:46.132Z</time>
</trkpt>
<trkpt lat="-27.2328783" lon="152.9103532">
<ele>91.482</ele>
<time>2017-09-12T23:14:48.110Z</time>
</trkpt>
<trkpt lat="-27.2323995" lon="152.9097128">
<ele>92.954</ele>
<time>2017-09-12T23:14:51.059Z</time>
</trkpt>
<trkpt lat="-27.2320254" lon="152.9093317">
<ele>93.993</ele>
<time>2017-09-12T23:14:53.048Z</time>
</trkpt>
<trkpt lat="-27.2316720" lon="152.9089280">
<ele>94.680</ele>
<time>2017-09-12T23:14:55.033Z</time>
</trkpt>
<trkpt lat="-27.2312766" lon="152.9085648">
<ele>95.279</ele>
<time>2017-09-12T23:14:57.051Z</time>
</trkpt>
<trkpt lat="-27.2306847" lon="152.9080426">
<ele>95.996</ele>
<time>2017-09-12T23:15:00.027Z</time>
</trkpt>
<trkpt lat="-27.2300863" lon="152.9075517">
<ele>96.796</ele>
<time>2017-09-12T23:15:02.969Z</time>
</trkpt>
<trkpt lat="-27.2296775" lon="152.9072132">
<ele>97.416</ele>
<time>2017-09-12T23:15:05.096Z</time>
</trkpt>
<trkpt lat="-27.2292860" lon="152.9068920">
<ele>97.683</ele>
<time>2017-09-12T23:15:07.348Z</time>
</trkpt>
<trkpt lat="-27.2289401" lon="152.9065858">
<ele>97.592</ele>
<time>2017-09-12T23:15:09.654Z</time>
</trkpt>
<trkpt lat="-27.2286669" lon="152.9062490">
<ele>97.177</ele>
<time>2017-09-12T23:15:12.241Z</time>
</trkpt>
<trkpt lat="-27.2283099" lon="152.9058539">
<ele>96.413</ele>
<time>2017-09-12T23:15:16.240Z</time>
</trkpt>
<trkpt lat="-27.2280595" lon="152.9055428">
<ele>95.113</ele>
<time>2017-09-12T23:15:20.433Z</time>
</trkpt>
<trkpt lat="-27.2279144" lon="152.9053468">
<ele>93.197</ele>
<time>2017-09-12T23:15:25.823Z</time>
</trkpt>
<trkpt lat="-27.2277463" lon="152.9052279">
<ele>91.073</ele>
<time>2017-09-12T23:15:30.742Z</time>
</trkpt>
<trkpt lat="-27.2275410" lon="152.9051767">
<ele>89.281</ele>
<time>2017-09-12T23:15:33.168Z</time>
</trkpt>
<trkpt lat="-27.2274602" lon="152.9051118">
<ele>87.932</ele>
<time>2017-09-12T23:15:34.071Z</time>
</trkpt>
<trkpt lat="-27.2273999" lon="152.9050288">
<ele>86.921</ele>
<time>2017-09-12T23:15:34.902Z</time>
</trkpt>
<trkpt lat="-27.2272147" lon="152.9047540">
<ele>86.274</ele>
<time>2017-09-12T23:15:37.515Z</time>
</trkpt>
<trkpt lat="-27.2270419" lon="152.9045648">
<ele>86.238</ele>
<time>2017-09-12T23:15:39.308Z</time>
</trkpt>
<trkpt lat="-27.2268193" lon="152.9045846">
<ele>86.969</ele>
<time>2017-09-12T23:15:40.901Z</time>
</trkpt>
<trkpt lat="-27.2265671" lon="152.9046870">
<ele>88.244</ele>
<time>2017-09-12T23:15:42.612Z</time>
</trkpt>
<trkpt lat="-27.2261551" lon="152.9049597">
<ele>89.768</ele>
<time>2017-09-12T23:15:45.523Z</time>
</trkpt>
<trkpt lat="-27.2257745" lon="152.9052952">
<ele>91.757</ele>
<time>2017-09-12T23:15:48.290Z</time>
</trkpt>
<trkpt lat="-27.2254626" lon="152.9058001">
<ele>94.455</ele>
<time>2017-09-12T23:15:51.395Z</time>
</trkpt>
<trkpt lat="-27.2251977" lon="152.9063750">
<ele>97.537</ele>
<time>2017-09-12T23:15:55.376Z</time>
</trkpt>
<trkpt lat="-27.2250498" lon="152.9066815">
<ele>100.390</ele>
<time>2017-09-12T23:15:57.547Z</time>
</trkpt>
<trkpt lat="-27.2247373" lon="152.9068883">
<ele>102.454</ele>
<time>2017-09-12T23:15:59.662Z</time>
</trkpt>
<trkpt lat="-27.2242099" lon="152.9066665">
<ele>103.363</ele>
<time>2017-09-12T23:16:02.716Z</time>
</trkpt>
<trkpt lat="-27.2236946" lon="152.9063527">
<ele>103.102</ele>
<time>2017-09-12T23:16:05.860Z</time>
</trkpt>
<trkpt lat="-27.2234277" lon="152.9061976">
<ele>101.718</ele>
<time>2017-09-12T23:16:07.473Z</time>
</trkpt>
<trkpt lat="-27.2231862" lon="152.9060766">
<ele>99.401</ele>
<time>2017-09-12T23:16:08.892Z</time>
</trkpt>
<trkpt lat="-27.2230184" lon="152.9059538">
<ele>96.554</ele>
<time>2017-09-12T23:16:09.967Z</time>
</trkpt>
<trkpt lat="-27.2228489" lon="152.9056186">
<ele>93.697</ele>
<time>2017-09-12T23:16:11.808Z</time>
</trkpt>
<trkpt lat="-27.2227551" lon="152.9053270">
<ele>91.460</ele>
<time>2017-09-12T23:16:13.289Z</time>
</trkpt>
<trkpt lat="-27.2224843" lon="152.9049023">
<ele>90.242</ele>
<time>2017-09-12T23:16:15.784Z</time>
</trkpt>
<trkpt lat="-27.2221071" lon="152.9045944">
<ele>89.895</ele>
<time>2017-09-12T23:16:18.528Z</time>
</trkpt>
<trkpt lat="-27.2217401" lon="152.9043739">
<ele>89.998</ele>
<time>2017-09-12T23:16:21.064Z</time>
</trkpt>
<trkpt lat="-27.2214175" lon="152.9041817">
<ele>90.183</ele>
<time>2017-09-12T23:16:23.121Z</time>
</trkpt>
<trkpt lat="-27.2209761" lon="152.9038617">
<ele>90.304</ele>
<time>2017-09-12T23:16:26.050Z</time>
</trkpt>
<trkpt lat="-27.2207218" lon="152.9036813">
<ele>90.406</ele>
<time>2017-09-12T23:16:27.831Z</time>
</trkpt>
<trkpt lat="-27.2205698" lon="152.9031746">
<ele>90.597</ele>
<time>2017-09-12T23:16:30.824Z</time>
</trkpt>
<trkpt lat="-27.2204227" lon="152.9027971">
<ele>91.089</ele>
<time>2017-09-12T23:16:33.030Z</time>
</trkpt>
<trkpt lat="-27.2202441" lon="152.9024565">
<ele>92.052</ele>
<time>2017-09-12T23:16:35.038Z</time>
</trkpt>
<trkpt lat="-27.2198514" lon="152.9021499">
<ele>93.359</ele>
<time>2017-09-12T23:16:37.874Z</time>
</trkpt>
<trkpt lat="-27.2192799" lon="152.9019964">
<ele>94.942</ele>
<time>2017-09-12T23:16:41.167Z</time>
</trkpt>
<trkpt lat="-27.2186566" lon="152.9018619">
<ele>96.994</ele>
<time>2017-09-12T23:16:44.365Z</time>
</trkpt>
<trkpt lat="-27.2180796" lon="152.9016274">
<ele>99.190</ele>
<time>2017-09-12T23:16:47.451Z</time>
</trkpt>
<trkpt lat="-27.2175601" lon="152.9014197">
<ele>100.714</ele>
<time>2017-09-12T23:16:50.333Z</time>
</trkpt>
<trkpt lat="-27.2171823" lon="152.9009220">
<ele>101.277</ele>
<time>2017-09-12T23:16:53.413Z</time>
</trkpt>
<trkpt lat="-27.2167926" lon="152.9004882">
<ele>101.520</ele>
<time>2017-09-12T23:16:56.410Z</time>
</trkpt>
<trkpt lat="-27.2165825" lon="152.9002303">
<ele>102.265</ele>
<time>2017-09-12T23:16:58.267Z</time>
</trkpt>
<trkpt lat="-27.2162760" lon="152.9001716">
<ele>103.663</ele>
<time>2017-09-12T23:17:00.248Z</time>
</trkpt>
<trkpt lat="-27.2157621" lon="152.9002165">
<ele>105.323</ele>
<time>2017-09-12T23:17:03.488Z</time>
</trkpt>
<trkpt lat="-27.2154509" lon="152.9004000">
<ele>106.889</ele>
<time>2017-09-12T23:17:05.584Z</time>
</trkpt>
<trkpt lat="-27.2150233" lon="152.9007315">
<ele>108.026</ele>
<time>2017-09-12T23:17:08.643Z</time>
</trkpt>
<trkpt lat="-27.2147675" lon="152.9010134">
<ele>108.262</ele>
<time>2017-09-12T23:17:10.776Z</time>
</trkpt>
<trkpt lat="-27.2145608" lon="152.9013047">
<ele>107.329</ele>
<time>2017-09-12T23:17:12.738Z</time>
</trkpt>
<trkpt lat="-27.2142192" lon="152.9017698">
<ele>105.539</ele>
<time>2017-09-12T23:17:15.853Z</time>
</trkpt>
<trkpt lat="-27.2137472" lon="152.9020419">
<ele>103.378</ele>
<time>2017-09-12T23:17:18.910Z</time>
</trkpt>
<trkpt lat="-27.2134658" lon="152.9022162">
<ele>101.052</ele>
<time>2017-09-12T23:17:20.834Z</time>
</trkpt>
<trkpt lat="-27.2131846" lon="152.9023726">
<ele>98.769</ele>
<time>2017-09-12T23:17:22.814Z</time>
</trkpt>
<trkpt lat="-27.2127959" lon="152.9026007">
<ele>96.768</ele>
<time>2017-09-12T23:17:25.722Z</time>
</trkpt>
<trkpt lat="-27.2125753" lon="152.9027712">
<ele>95.001</ele>
<time>2017-09-12T23:17:27.611Z</time>
</trkpt>
<trkpt lat="-27.2122578" lon="152.9030606">
<ele>93.349</ele>
<time>2017-09-12T23:17:30.522Z</time>
</trkpt>
<trkpt lat="-27.2119050" lon="152.9034391">
<ele>91.935</ele>
<time>2017-09-12T23:17:33.695Z</time>
</trkpt>
<trkpt lat="-27.2115427" lon="152.9038363">
<ele>90.990</ele>
<time>2017-09-12T23:17:36.716Z</time>
</trkpt>
<trkpt lat="-27.2111449" lon="152.9041975">
<ele>90.571</ele>
<time>2017-09-12T23:17:39.669Z</time>
</trkpt>
<trkpt lat="-27.2106166" lon="152.9043533">
<ele>90.522</ele>
<time>2017-09-12T23:17:42.715Z</time>
</trkpt>
<trkpt lat="-27.2102711" lon="152.9044739">
<ele>90.415</ele>
<time>2017-09-12T23:17:44.681Z</time>
</trkpt>
<trkpt lat="-27.2099198" lon="152.9046187">
<ele>89.781</ele>
<time>2017-09-12T23:17:46.704Z</time>
</trkpt>
<trkpt lat="-27.2094369" lon="152.9049359">
<ele>88.470</ele>
<time>2017-09-12T23:17:49.779Z</time>
</trkpt>
<trkpt lat="-27.2090351" lon="152.9053051">
<ele>86.481</ele>
<time>2017-09-12T23:17:52.775Z</time>
</trkpt>
<trkpt lat="-27.2088030" lon="152.9055181">
<ele>83.635</ele>
<time>2017-09-12T23:17:54.635Z</time>
</trkpt>
<trkpt lat="-27.2085882" lon="152.9057373">
<ele>80.414</ele>
<time>2017-09-12T23:17:56.543Z</time>
</trkpt>
<trkpt lat="-27.2081526" lon="152.9059079">
<ele>77.890</ele>
<time>2017-09-12T23:17:59.619Z</time>
</trkpt>
<trkpt lat="-27.2078431" lon="152.9058948">
<ele>76.127</ele>
<time>2017-09-12T23:18:01.606Z</time>
</trkpt>
<trkpt lat="-27.2073628" lon="152.9056911">
<ele>73.429</ele>
<time>2017-09-12T23:18:04.744Z</time>
</trkpt>
<trkpt lat="-27.2070879" lon="152.9054867">
<ele>69.292</ele>
<time>2017-09-12T23:18:06.731Z</time>
</trkpt>
<trkpt lat="-27.2066834" lon="152.9052135">
<ele>66.088</ele>
<time>2017-09-12T23:18:09.683Z</time>
</trkpt>
<trkpt lat="-27.2064057" lon="152.9050947">
<ele>65.652</ele>
<time>2017-09-12T23:18:11.618Z</time>
</trkpt>
<trkpt lat="-27.2061069" lon="152.9050049">
<ele>66.894</ele>
<time>2017-09-12T23:18:13.605Z</time>
</trkpt>
<trkpt lat="-27.2056048" lon="152.9050238">
<ele>68.109</ele>
<time>2017-09-12T23:18:16.718Z</time>
</trkpt>
<trkpt lat="-27.2052600" lon="152.9050201">
<ele>68.641</ele>
<time>2017-09-12T23:18:18.775Z</time>
</trkpt>
<trkpt lat="-27.2049276" lon="152.9049981">
<ele>68.860</ele>
<time>2017-09-12T23:18:20.750Z</time>
</trkpt>
<trkpt lat="-27.2044341" lon="152.9049857">
<ele>69.457</ele>
<time>2017-09-12T23:18:23.722Z</time>
</trkpt>
<trkpt lat="-27.2041129" lon="152.9050444">
<ele>70.741</ele>
<time>2017-09-12T23:18:25.722Z</time>
</trkpt>
<trkpt lat="-27.2037979" lon="152.9050888">
<ele>72.304</ele>
<time>2017-09-12T23:18:27.739Z</time>
</trkpt>
<trkpt lat="-27.2035432" lon="152.9052064">
<ele>73.453</ele>
<time>2017-09-12T23:18:29.565Z</time>
</trkpt>
<trkpt lat="-27.2032559" lon="152.9052941">
<ele>73.850</ele>
<time>2017-09-12T23:18:31.570Z</time>
</trkpt>
<trkpt lat="-27.2028327" lon="152.9054800">
<ele>73.682</ele>
<time>2017-09-12T23:18:34.610Z</time>
</trkpt>
<trkpt lat="-27.2025764" lon="152.9056346">
<ele>73.344</ele>
<time>2017-09-12T23:18:36.604Z</time>
</trkpt>
<trkpt lat="-27.2022124" lon="152.9058822">
<ele>73.171</ele>
<time>2017-09-12T23:18:39.578Z</time>
</trkpt>
<trkpt lat="-27.2019486" lon="152.9060321">
<ele>73.382</ele>
<time>2017-09-12T23:18:41.634Z</time>
</trkpt>
<trkpt lat="-27.2015771" lon="152.9062664">
<ele>74.125</ele>
<time>2017-09-12T23:18:44.604Z</time>
</trkpt>
<trkpt lat="-27.2013266" lon="152.9063887">
<ele>75.457</ele>
<time>2017-09-12T23:18:46.541Z</time>
</trkpt>
<trkpt lat="-27.2010252" lon="152.9067411">
<ele>77.109</ele>
<time>2017-09-12T23:18:49.554Z</time>
</trkpt>
<trkpt lat="-27.2009655" lon="152.9071418">
<ele>78.618</ele>
<time>2017-09-12T23:18:51.801Z</time>
</trkpt>
<trkpt lat="-27.2009085" lon="152.9075425">
<ele>79.846</ele>
<time>2017-09-12T23:18:53.881Z</time>
</trkpt>
<trkpt lat="-27.2008150" lon="152.9079291">
<ele>80.951</ele>
<time>2017-09-12T23:18:55.928Z</time>
</trkpt>
<trkpt lat="-27.2007418" lon="152.9082719">
<ele>82.059</ele>
<time>2017-09-12T23:18:57.894Z</time>
</trkpt>
<trkpt lat="-27.2005753" lon="152.9086582">
<ele>83.345</ele>
<time>2017-09-12T23:19:00.559Z</time>
</trkpt>
<trkpt lat="-27.2001911" lon="152.9087212">
<ele>85.065</ele>
<time>2017-09-12T23:19:03.538Z</time>
</trkpt>
<trkpt lat="-27.1998373" lon="152.9084428">
<ele>87.222</ele>
<time>2017-09-12T23:19:06.738Z</time>
</trkpt>
<trkpt lat="-27.1995187" lon="152.9080681">
<ele>89.311</ele>
<time>2017-09-12T23:19:09.916Z</time>
</trkpt>
<trkpt lat="-27.1992891" lon="152.9078381">
<ele>90.818</ele>
<time>2017-09-12T23:19:11.922Z</time>
</trkpt>
<trkpt lat="-27.1988648" lon="152.9075822">
<ele>91.709</ele>
<time>2017-09-12T23:19:14.978Z</time>
</trkpt>
<trkpt lat="-27.1983904" lon="152.9074366">
<ele>92.229</ele>
<time>2017-09-12T23:19:18.066Z</time>
</trkpt>
<trkpt lat="-27.1979252" lon="152.9073116">
<ele>92.631</ele>
<time>2017-09-12T23:19:21.123Z</time>
</trkpt>
<trkpt lat="-27.1976322" lon="152.9072022">
<ele>93.304</ele>
<time>2017-09-12T23:19:23.110Z</time>
</trkpt>
<trkpt lat="-27.1971524" lon="152.9070510">
<ele>94.575</ele>
<time>2017-09-12T23:19:26.301Z</time>
</trkpt>
<trkpt lat="-27.1967075" lon="152.9069253">
<ele>96.067</ele>
<time>2017-09-12T23:19:29.205Z</time>
</trkpt>
<trkpt lat="-27.1962451" lon="152.9067080">
<ele>97.003</ele>
<time>2017-09-12T23:19:32.331Z</time>
</trkpt>
<trkpt lat="-27.1958399" lon="152.9064680">
<ele>96.781</ele>
<time>2017-09-12T23:19:35.257Z</time>
</trkpt>
<trkpt lat="-27.1955757" lon="152.9062829">
<ele>95.065</ele>
<time>2017-09-12T23:19:37.318Z</time>
</trkpt>
<trkpt lat="-27.1951369" lon="152.9061275">
<ele>92.267</ele>
<time>2017-09-12T23:19:40.364Z</time>
</trkpt>
<trkpt lat="-27.1946800" lon="152.9061272">
<ele>89.129</ele>
<time>2017-09-12T23:19:43.364Z</time>
</trkpt>
<trkpt lat="-27.1943686" lon="152.9061563">
<ele>85.859</ele>
<time>2017-09-12T23:19:45.393Z</time>
</trkpt>
<trkpt lat="-27.1939193" lon="152.9060643">
<ele>82.627</ele>
<time>2017-09-12T23:19:48.361Z</time>
</trkpt>
<trkpt lat="-27.1936288" lon="152.9059296">
<ele>79.864</ele>
<time>2017-09-12T23:19:50.435Z</time>
</trkpt>
<trkpt lat="-27.1933173" lon="152.9059266">
<ele>77.672</ele>
<time>2017-09-12T23:19:52.502Z</time>
</trkpt>
<trkpt lat="-27.1930223" lon="152.9059898">
<ele>75.384</ele>
<time>2017-09-12T23:19:54.461Z</time>
</trkpt>
<trkpt lat="-27.1927204" lon="152.9060679">
<ele>72.584</ele>
<time>2017-09-12T23:19:56.405Z</time>
</trkpt>
<trkpt lat="-27.1922383" lon="152.9061356">
<ele>69.873</ele>
<time>2017-09-12T23:19:59.369Z</time>
</trkpt>
<trkpt lat="-27.1919248" lon="152.9062007">
<ele>67.617</ele>
<time>2017-09-12T23:20:01.288Z</time>
</trkpt>
<trkpt lat="-27.1914457" lon="152.9063014">
<ele>65.536</ele>
<time>2017-09-12T23:20:04.265Z</time>
</trkpt>
<trkpt lat="-27.1911560" lon="152.9063957">
<ele>63.860</ele>
<time>2017-09-12T23:20:06.369Z</time>
</trkpt>
<trkpt lat="-27.1908212" lon="152.9064218">
<ele>63.001</ele>
<time>2017-09-12T23:20:09.301Z</time>
</trkpt>
<trkpt lat="-27.1906041" lon="152.9063063">
<ele>61.336</ele>
<time>2017-09-12T23:20:11.934Z</time>
</trkpt>
<trkpt lat="-27.1905799" lon="152.9060015">
<ele>57.512</ele>
<time>2017-09-12T23:20:14.322Z</time>
</trkpt>
<trkpt lat="-27.1904846" lon="152.9054766">
<ele>53.537</ele>
<time>2017-09-12T23:20:17.641Z</time>
</trkpt>
<trkpt lat="-27.1904514" lon="152.9051033">
<ele>51.869</ele>
<time>2017-09-12T23:20:19.726Z</time>
</trkpt>
<trkpt lat="-27.1903868" lon="152.9047678">
<ele>52.368</ele>
<time>2017-09-12T23:20:21.675Z</time>
</trkpt>
<trkpt lat="-27.1901512" lon="152.9042987">
<ele>53.710</ele>
<time>2017-09-12T23:20:24.658Z</time>
</trkpt>
<trkpt lat="-27.1896614" lon="152.9040206">
<ele>54.617</ele>
<time>2017-09-12T23:20:27.915Z</time>
</trkpt>
<trkpt lat="-27.1893726" lon="152.9038681">
<ele>54.718</ele>
<time>2017-09-12T23:20:29.858Z</time>
</trkpt>
<trkpt lat="-27.1890858" lon="152.9037520">
<ele>54.289</ele>
<time>2017-09-12T23:20:31.784Z</time>
</trkpt>
<trkpt lat="-27.1887956" lon="152.9036945">
<ele>53.686</ele>
<time>2017-09-12T23:20:33.675Z</time>
</trkpt>
<trkpt lat="-27.1883286" lon="152.9036400">
<ele>53.109</ele>
<time>2017-09-12T23:20:36.706Z</time>
</trkpt>
<trkpt lat="-27.1880254" lon="152.9035982">
<ele>52.638</ele>
<time>2017-09-12T23:20:38.689Z</time>
</trkpt>
<trkpt lat="-27.1877262" lon="152.9035569">
<ele>52.305</ele>
<time>2017-09-12T23:20:40.704Z</time>
</trkpt>
<trkpt lat="-27.1874458" lon="152.9035452">
<ele>52.150</ele>
<time>2017-09-12T23:20:42.672Z</time>
</trkpt>
<trkpt lat="-27.1870273" lon="152.9034911">
<ele>52.159</ele>
<time>2017-09-12T23:20:45.609Z</time>
</trkpt>
<trkpt lat="-27.1865906" lon="152.9033714">
<ele>52.261</ele>
<time>2017-09-12T23:20:48.558Z</time>
</trkpt>
<trkpt lat="-27.1861645" lon="152.9029838">
<ele>52.512</ele>
<time>2017-09-12T23:20:51.911Z</time>
</trkpt>
<trkpt lat="-27.1858895" lon="152.9027906">
<ele>53.004</ele>
<time>2017-09-12T23:20:53.889Z</time>
</trkpt>
<trkpt lat="-27.1856275" lon="152.9025785">
<ele>53.597</ele>
<time>2017-09-12T23:20:55.914Z</time>
</trkpt>
<trkpt lat="-27.1853526" lon="152.9024053">
<ele>54.067</ele>
<time>2017-09-12T23:20:58.003Z</time>
</trkpt>
<trkpt lat="-27.1849760" lon="152.9021690">
<ele>54.380</ele>
<time>2017-09-12T23:21:01.009Z</time>
</trkpt>
<trkpt lat="-27.1847358" lon="152.9020378">
<ele>54.598</ele>
<time>2017-09-12T23:21:03.137Z</time>
</trkpt>
<trkpt lat="-27.1844371" lon="152.9018581">
<ele>54.736</ele>
<time>2017-09-12T23:21:06.500Z</time>
</trkpt>
<trkpt lat="-27.1842921" lon="152.9017082">
<ele>54.789</ele>
<time>2017-09-12T23:21:09.719Z</time>
</trkpt>
<trkpt lat="-27.1841743" lon="152.9016549">
<ele>54.753</ele>
<time>2017-09-12T23:21:11.998Z</time>
</trkpt>
<trkpt lat="-27.1840347" lon="152.9017762">
<ele>54.652</ele>
<time>2017-09-12T23:21:14.160Z</time>
</trkpt>
<trkpt lat="-27.1839095" lon="152.9022772">
<ele>54.633</ele>
<time>2017-09-12T23:21:17.715Z</time>
</trkpt>
<trkpt lat="-27.1837173" lon="152.9028818">
<ele>55.114</ele>
<time>2017-09-12T23:21:21.109Z</time>
</trkpt>
<trkpt lat="-27.1836436" lon="152.9032190">
<ele>56.693</ele>
<time>2017-09-12T23:21:22.957Z</time>
</trkpt>
<trkpt lat="-27.1835381" lon="152.9035334">
<ele>59.399</ele>
<time>2017-09-12T23:21:24.769Z</time>
</trkpt>
<trkpt lat="-27.1833903" lon="152.9038680">
<ele>62.548</ele>
<time>2017-09-12T23:21:26.784Z</time>
</trkpt>
<trkpt lat="-27.1830964" lon="152.9043116">
<ele>65.437</ele>
<time>2017-09-12T23:21:29.804Z</time>
</trkpt>
<trkpt lat="-27.1827564" lon="152.9046837">
<ele>67.747</ele>
<time>2017-09-12T23:21:32.744Z</time>
</trkpt>
<trkpt lat="-27.1824229" lon="152.9050838">
<ele>70.242</ele>
<time>2017-09-12T23:21:35.812Z</time>
</trkpt>
<trkpt lat="-27.1822606" lon="152.9053644">
<ele>73.819</ele>
<time>2017-09-12T23:21:37.734Z</time>
</trkpt>
<trkpt lat="-27.1821641" lon="152.9057044">
<ele>77.777</ele>
<time>2017-09-12T23:21:39.774Z</time>
</trkpt>
<trkpt lat="-27.1820762" lon="152.9060375">
<ele>80.978</ele>
<time>2017-09-12T23:21:41.772Z</time>
</trkpt>
<trkpt lat="-27.1821289" lon="152.9063957">
<ele>83.358</ele>
<time>2017-09-12T23:21:43.871Z</time>
</trkpt>
<trkpt lat="-27.1823125" lon="152.9069050">
<ele>85.278</ele>
<time>2017-09-12T23:21:47.066Z</time>
</trkpt>
<trkpt lat="-27.1825182" lon="152.9071700">
<ele>87.218</ele>
<time>2017-09-12T23:21:49.201Z</time>
</trkpt>
<trkpt lat="-27.1828789" lon="152.9074027">
<ele>89.528</ele>
<time>2017-09-12T23:21:52.192Z</time>
</trkpt>
<trkpt lat="-27.1831311" lon="152.9074883">
<ele>92.227</ele>
<time>2017-09-12T23:21:54.260Z</time>
</trkpt>
<trkpt lat="-27.1834504" lon="152.9078325">
<ele>95.055</ele>
<time>2017-09-12T23:21:57.772Z</time>
</trkpt>
<trkpt lat="-27.1834685" lon="152.9082702">
<ele>97.735</ele>
<time>2017-09-12T23:22:00.626Z</time>
</trkpt>
<trkpt lat="-27.1832900" lon="152.9087394">
<ele>100.177</ele>
<time>2017-09-12T23:22:03.816Z</time>
</trkpt>
<trkpt lat="-27.1831523" lon="152.9091955">
<ele>102.366</ele>
<time>2017-09-12T23:22:06.848Z</time>
</trkpt>
<trkpt lat="-27.1831824" lon="152.9095038">
<ele>104.036</ele>
<time>2017-09-12T23:22:08.731Z</time>
</trkpt>
<trkpt lat="-27.1833828" lon="152.9099606">
<ele>104.962</ele>
<time>2017-09-12T23:22:11.494Z</time>
</trkpt>
<trkpt lat="-27.1835759" lon="152.9102941">
<ele>105.233</ele>
<time>2017-09-12T23:22:13.515Z</time>
</trkpt>
<trkpt lat="-27.1838891" lon="152.9107772">
<ele>105.152</ele>
<time>2017-09-12T23:22:16.499Z</time>
</trkpt>
<trkpt lat="-27.1840685" lon="152.9111316">
<ele>104.602</ele>
<time>2017-09-12T23:22:18.561Z</time>
</trkpt>
<trkpt lat="-27.1841513" lon="152.9115354">
<ele>103.151</ele>
<time>2017-09-12T23:22:20.741Z</time>
</trkpt>
<trkpt lat="-27.1842780" lon="152.9120581">
<ele>101.194</ele>
<time>2017-09-12T23:22:23.755Z</time>
</trkpt>
<trkpt lat="-27.1843728" lon="152.9124063">
<ele>99.844</ele>
<time>2017-09-12T23:22:25.893Z</time>
</trkpt>
<trkpt lat="-27.1844000" lon="152.9127486">
<ele>99.492</ele>
<time>2017-09-12T23:22:27.997Z</time>
</trkpt>
<trkpt lat="-27.1845271" lon="152.9131926">
<ele>99.664</ele>
<time>2017-09-12T23:22:31.130Z</time>
</trkpt>
<trkpt lat="-27.1847200" lon="152.9135581">
<ele>99.617</ele>
<time>2017-09-12T23:22:34.177Z</time>
</trkpt>
<trkpt lat="-27.1848489" lon="152.9139321">
<ele>96.162</ele>
<time>2017-09-12T23:22:37.237Z</time>
</trkpt>
<trkpt lat="-27.1849658" lon="152.9141534">
<ele>87.806</ele>
<time>2017-09-12T23:22:39.240Z</time>
</trkpt>
<trkpt lat="-27.1850225" lon="152.9145206">
<ele>79.222</ele>
<time>2017-09-12T23:22:42.166Z</time>
</trkpt>
<trkpt lat="-27.1850503" lon="152.9149022">
<ele>74.752</ele>
<time>2017-09-12T23:22:45.286Z</time>
</trkpt>
<trkpt lat="-27.1850966" lon="152.9151372">
<ele>73.528</ele>
<time>2017-09-12T23:22:47.310Z</time>
</trkpt>
<trkpt lat="-27.1851357" lon="152.9154831">
<ele>73.552</ele>
<time>2017-09-12T23:22:50.367Z</time>
</trkpt>
<trkpt lat="-27.1851399" lon="152.9157042">
<ele>73.557</ele>
<time>2017-09-12T23:22:52.337Z</time>
</trkpt>
<trkpt lat="-27.1851532" lon="152.9160412">
<ele>73.172</ele>
<time>2017-09-12T23:22:55.379Z</time>
</trkpt>
<trkpt lat="-27.1852407" lon="152.9163585">
<ele>72.491</ele>
<time>2017-09-12T23:22:58.355Z</time>
</trkpt>
<trkpt lat="-27.1852859" lon="152.9166839">
<ele>71.661</ele>
<time>2017-09-12T23:23:01.190Z</time>
</trkpt>
<trkpt lat="-27.1853573" lon="152.9170281">
<ele>70.783</ele>
<time>2017-09-12T23:23:04.026Z</time>
</trkpt>
<trkpt lat="-27.1854155" lon="152.9172871">
<ele>69.938</ele>
<time>2017-09-12T23:23:06.104Z</time>
</trkpt>
<trkpt lat="-27.1854746" lon="152.9176574">
<ele>69.154</ele>
<time>2017-09-12T23:23:08.991Z</time>
</trkpt>
<trkpt lat="-27.1855037" lon="152.9179163">
<ele>68.359</ele>
<time>2017-09-12T23:23:10.998Z</time>
</trkpt>
<trkpt lat="-27.1855483" lon="152.9181710">
<ele>67.444</ele>
<time>2017-09-12T23:23:12.992Z</time>
</trkpt>
<trkpt lat="-27.1855965" lon="152.9185736">
<ele>66.462</ele>
<time>2017-09-12T23:23:16.235Z</time>
</trkpt>
<trkpt lat="-27.1856707" lon="152.9187889">
<ele>65.573</ele>
<time>2017-09-12T23:23:18.117Z</time>
</trkpt>
<trkpt lat="-27.1857585" lon="152.9191243">
<ele>64.853</ele>
<time>2017-09-12T23:23:20.951Z</time>
</trkpt>
<trkpt lat="-27.1858530" lon="152.9194955">
<ele>64.281</ele>
<time>2017-09-12T23:23:23.891Z</time>
</trkpt>
<trkpt lat="-27.1859106" lon="152.9197407">
<ele>63.791</ele>
<time>2017-09-12T23:23:25.711Z</time>
</trkpt>
<trkpt lat="-27.1859296" lon="152.9200232">
<ele>63.379</ele>
<time>2017-09-12T23:23:27.652Z</time>
</trkpt>
<trkpt lat="-27.1859549" lon="152.9203031">
<ele>63.090</ele>
<time>2017-09-12T23:23:29.491Z</time>
</trkpt>
<trkpt lat="-27.1860433" lon="152.9208270">
<ele>62.934</ele>
<time>2017-09-12T23:23:32.478Z</time>
</trkpt>
<trkpt lat="-27.1862719" lon="152.9213885">
<ele>62.936</ele>
<time>2017-09-12T23:23:35.542Z</time>
</trkpt>
<trkpt lat="-27.1864846" lon="152.9217278">
<ele>63.084</ele>
<time>2017-09-12T23:23:37.587Z</time>
</trkpt>
<trkpt lat="-27.1867679" lon="152.9222163">
<ele>63.194</ele>
<time>2017-09-12T23:23:40.540Z</time>
</trkpt>
<trkpt lat="-27.1870143" lon="152.9227372">
<ele>63.135</ele>
<time>2017-09-12T23:23:43.588Z</time>
</trkpt>
<trkpt lat="-27.1871565" lon="152.9232918">
<ele>63.114</ele>
<time>2017-09-12T23:23:46.608Z</time>
</trkpt>
<trkpt lat="-27.1871522" lon="152.9238570">
<ele>63.318</ele>
<time>2017-09-12T23:23:49.594Z</time>
</trkpt>
<trkpt lat="-27.1870948" lon="152.9242277">
<ele>63.475</ele>
<time>2017-09-12T23:23:51.599Z</time>
</trkpt>
<trkpt lat="-27.1869766" lon="152.9245782">
<ele>63.224</ele>
<time>2017-09-12T23:23:53.612Z</time>
</trkpt>
<trkpt lat="-27.1868174" lon="152.9249030">
<ele>62.628</ele>
<time>2017-09-12T23:23:55.613Z</time>
</trkpt>
<trkpt lat="-27.1864879" lon="152.9253109">
<ele>61.980</ele>
<time>2017-09-12T23:23:58.569Z</time>
</trkpt>
<trkpt lat="-27.1860649" lon="152.9256360">
<ele>61.469</ele>
<time>2017-09-12T23:24:01.648Z</time>
</trkpt>
<trkpt lat="-27.1858121" lon="152.9258734">
<ele>61.067</ele>
<time>2017-09-12T23:24:03.705Z</time>
</trkpt>
<trkpt lat="-27.1855887" lon="152.9261121">
<ele>60.530</ele>
<time>2017-09-12T23:24:05.717Z</time>
</trkpt>
<trkpt lat="-27.1852695" lon="152.9264342">
<ele>59.617</ele>
<time>2017-09-12T23:24:08.657Z</time>
</trkpt>
<trkpt lat="-27.1850103" lon="152.9268061">
<ele>58.196</ele>
<time>2017-09-12T23:24:11.487Z</time>
</trkpt>
<trkpt lat="-27.1847741" lon="152.9272523">
<ele>56.294</ele>
<time>2017-09-12T23:24:14.562Z</time>
</trkpt>
<trkpt lat="-27.1846037" lon="152.9275158">
<ele>54.229</ele>
<time>2017-09-12T23:24:16.517Z</time>
</trkpt>
<trkpt lat="-27.1843876" lon="152.9279460">
<ele>52.456</ele>
<time>2017-09-12T23:24:19.525Z</time>
</trkpt>
<trkpt lat="-27.1842280" lon="152.9282180">
<ele>51.152</ele>
<time>2017-09-12T23:24:21.653Z</time>
</trkpt>
<trkpt lat="-27.1841493" lon="152.9284990">
<ele>50.190</ele>
<time>2017-09-12T23:24:23.867Z</time>
</trkpt>
<trkpt lat="-27.1841197" lon="152.9287524">
<ele>49.348</ele>
<time>2017-09-12T23:24:26.144Z</time>
</trkpt>
<trkpt lat="-27.1840712" lon="152.9289524">
<ele>48.405</ele>
<time>2017-09-12T23:24:28.407Z</time>
</trkpt>
<trkpt lat="-27.1840791" lon="152.9291484">
<ele>47.184</ele>
<time>2017-09-12T23:24:30.641Z</time>
</trkpt>
<trkpt lat="-27.1839957" lon="152.9293252">
<ele>45.653</ele>
<time>2017-09-12T23:24:32.686Z</time>
</trkpt>
<trkpt lat="-27.1836879" lon="152.9293649">
<ele>43.841</ele>
<time>2017-09-12T23:24:35.182Z</time>
</trkpt>
<trkpt lat="-27.1832242" lon="152.9292375">
<ele>41.987</ele>
<time>2017-09-12T23:24:38.393Z</time>
</trkpt>
<trkpt lat="-27.1829340" lon="152.9291372">
<ele>40.514</ele>
<time>2017-09-12T23:24:40.266Z</time>
</trkpt>
<trkpt lat="-27.1825030" lon="152.9288472">
<ele>39.538</ele>
<time>2017-09-12T23:24:43.301Z</time>
</trkpt>
<trkpt lat="-27.1820424" lon="152.9286023">
<ele>38.731</ele>
<time>2017-09-12T23:24:46.319Z</time>
</trkpt>
<trkpt lat="-27.1817283" lon="152.9284572">
<ele>37.795</ele>
<time>2017-09-12T23:24:48.308Z</time>
</trkpt>
<trkpt lat="-27.1814056" lon="152.9283100">
<ele>36.779</ele>
<time>2017-09-12T23:24:50.313Z</time>
</trkpt>
<trkpt lat="-27.1809417" lon="152.9280186">
<ele>35.919</ele>
<time>2017-09-12T23:24:53.303Z</time>
</trkpt>
<trkpt lat="-27.1806308" lon="152.9277939">
<ele>35.328</ele>
<time>2017-09-12T23:24:55.374Z</time>
</trkpt>
<trkpt lat="-27.1801766" lon="152.9275023">
<ele>35.012</ele>
<time>2017-09-12T23:24:58.431Z</time>
</trkpt>
<trkpt lat="-27.1799172" lon="152.9272720">
<ele>34.948</ele>
<time>2017-09-12T23:25:00.548Z</time>
</trkpt>
<trkpt lat="-27.1797252" lon="152.9270406">
<ele>35.055</ele>
<time>2017-09-12T23:25:02.498Z</time>
</trkpt>
<trkpt lat="-27.1794130" lon="152.9267416">
<ele>35.142</ele>
<time>2017-09-12T23:25:05.502Z</time>
</trkpt>
<trkpt lat="-27.1791391" lon="152.9264041">
<ele>34.963</ele>
<time>2017-09-12T23:25:08.606Z</time>
</trkpt>
<trkpt lat="-27.1789698" lon="152.9261849">
<ele>34.416</ele>
<time>2017-09-12T23:25:10.715Z</time>
</trkpt>
<trkpt lat="-27.1787330" lon="152.9259141">
<ele>33.658</ele>
<time>2017-09-12T23:25:14.530Z</time>
</trkpt>
<trkpt lat="-27.1786434" lon="152.9257326">
<ele>32.866</ele>
<time>2017-09-12T23:25:17.832Z</time>
</trkpt>
<trkpt lat="-27.1786090" lon="152.9256221">
<ele>32.021</ele>
<time>2017-09-12T23:25:19.941Z</time>
</trkpt>
<trkpt lat="-27.1784513" lon="152.9254243">
<ele>31.046</ele>
<time>2017-09-12T23:25:23.781Z</time>
</trkpt>
<trkpt lat="-27.1781744" lon="152.9252593">
<ele>30.102</ele>
<time>2017-09-12T23:25:26.883Z</time>
</trkpt>
<trkpt lat="-27.1778898" lon="152.9249676">
<ele>29.566</ele>
<time>2017-09-12T23:25:30.067Z</time>
</trkpt>
<trkpt lat="-27.1777381" lon="152.9247301">
<ele>29.617</ele>
<time>2017-09-12T23:25:32.056Z</time>
</trkpt>
<trkpt lat="-27.1775407" lon="152.9245144">
<ele>30.037</ele>
<time>2017-09-12T23:25:34.106Z</time>
</trkpt>
<trkpt lat="-27.1772591" lon="152.9241805">
<ele>30.558</ele>
<time>2017-09-12T23:25:37.090Z</time>
</trkpt>
<trkpt lat="-27.1770552" lon="152.9239735">
<ele>31.102</ele>
<time>2017-09-12T23:25:38.964Z</time>
</trkpt>
<trkpt lat="-27.1767104" lon="152.9236267">
<ele>31.690</ele>
<time>2017-09-12T23:25:41.977Z</time>
</trkpt>
<trkpt lat="-27.1765043" lon="152.9233407">
<ele>32.303</ele>
<time>2017-09-12T23:25:43.968Z</time>
</trkpt>
<trkpt lat="-27.1761532" lon="152.9229353">
<ele>32.822</ele>
<time>2017-09-12T23:25:46.993Z</time>
</trkpt>
<trkpt lat="-27.1757886" lon="152.9225425">
<ele>32.998</ele>
<time>2017-09-12T23:25:49.944Z</time>
</trkpt>
<trkpt lat="-27.1754061" lon="152.9220912">
<ele>32.500</ele>
<time>2017-09-12T23:25:53.053Z</time>
</trkpt>
<trkpt lat="-27.1751625" lon="152.9217844">
<ele>31.285</ele>
<time>2017-09-12T23:25:55.049Z</time>
</trkpt>
<trkpt lat="-27.1749327" lon="152.9214767">
<ele>29.835</ele>
<time>2017-09-12T23:25:56.991Z</time>
</trkpt>
<trkpt lat="-27.1746836" lon="152.9211802">
<ele>28.739</ele>
<time>2017-09-12T23:25:58.951Z</time>
</trkpt>
<trkpt lat="-27.1744129" lon="152.9208958">
<ele>28.197</ele>
<time>2017-09-12T23:26:00.966Z</time>
</trkpt>
<trkpt lat="-27.1740221" lon="152.9204696">
<ele>28.151</ele>
<time>2017-09-12T23:26:03.970Z</time>
</trkpt>
<trkpt lat="-27.1737796" lon="152.9201794">
<ele>28.665</ele>
<time>2017-09-12T23:26:06.013Z</time>
</trkpt>
<trkpt lat="-27.1734389" lon="152.9197684">
<ele>29.815</ele>
<time>2017-09-12T23:26:08.985Z</time>
</trkpt>
<trkpt lat="-27.1732032" lon="152.9195328">
<ele>31.518</ele>
<time>2017-09-12T23:26:10.891Z</time>
</trkpt>
<trkpt lat="-27.1728461" lon="152.9191193">
<ele>33.590</ele>
<time>2017-09-12T23:26:13.936Z</time>
</trkpt>
<trkpt lat="-27.1725970" lon="152.9188495">
<ele>35.907</ele>
<time>2017-09-12T23:26:15.924Z</time>
</trkpt>
<trkpt lat="-27.1723519" lon="152.9185601">
<ele>38.306</ele>
<time>2017-09-12T23:26:17.893Z</time>
</trkpt>
<trkpt lat="-27.1720940" lon="152.9182564">
<ele>40.539</ele>
<time>2017-09-12T23:26:19.900Z</time>
</trkpt>
<trkpt lat="-27.1716636" lon="152.9178556">
<ele>42.469</ele>
<time>2017-09-12T23:26:22.896Z</time>
</trkpt>
<trkpt lat="-27.1713226" lon="152.9176916">
<ele>44.266</ele>
<time>2017-09-12T23:26:24.895Z</time>
</trkpt>
<trkpt lat="-27.1707827" lon="152.9175310">
<ele>46.032</ele>
<time>2017-09-12T23:26:27.901Z</time>
</trkpt>
<trkpt lat="-27.1704083" lon="152.9175022">
<ele>47.702</ele>
<time>2017-09-12T23:26:29.894Z</time>
</trkpt>
<trkpt lat="-27.1698363" lon="152.9175383">
<ele>49.170</ele>
<time>2017-09-12T23:26:32.900Z</time>
</trkpt>
<trkpt lat="-27.1694563" lon="152.9176600">
<ele>50.422</ele>
<time>2017-09-12T23:26:34.917Z</time>
</trkpt>
<trkpt lat="-27.1690845" lon="152.9178136">
<ele>51.445</ele>
<time>2017-09-12T23:26:36.902Z</time>
</trkpt>
<trkpt lat="-27.1687132" lon="152.9179853">
<ele>52.141</ele>
<time>2017-09-12T23:26:38.883Z</time>
</trkpt>
<trkpt lat="-27.1683272" lon="152.9181470">
<ele>52.372</ele>
<time>2017-09-12T23:26:40.914Z</time>
</trkpt>
<trkpt lat="-27.1677549" lon="152.9183794">
<ele>52.132</ele>
<time>2017-09-12T23:26:43.930Z</time>
</trkpt>
<trkpt lat="-27.1671957" lon="152.9186412">
<ele>51.405</ele>
<time>2017-09-12T23:26:46.937Z</time>
</trkpt>
<trkpt lat="-27.1668113" lon="152.9187540">
<ele>50.274</ele>
<time>2017-09-12T23:26:48.909Z</time>
</trkpt>
<trkpt lat="-27.1664321" lon="152.9188936">
<ele>49.130</ele>
<time>2017-09-12T23:26:50.869Z</time>
</trkpt>
<trkpt lat="-27.1658899" lon="152.9192391">
<ele>48.349</ele>
<time>2017-09-12T23:26:53.902Z</time>
</trkpt>
<trkpt lat="-27.1653124" lon="152.9195193">
<ele>47.869</ele>
<time>2017-09-12T23:26:57.023Z</time>
</trkpt>
<trkpt lat="-27.1647834" lon="152.9197283">
<ele>47.319</ele>
<time>2017-09-12T23:26:59.972Z</time>
</trkpt>
<trkpt lat="-27.1644475" lon="152.9198774">
<ele>46.430</ele>
<time>2017-09-12T23:27:02.001Z</time>
</trkpt>
<trkpt lat="-27.1639643" lon="152.9201032">
<ele>45.338</ele>
<time>2017-09-12T23:27:04.934Z</time>
</trkpt>
<trkpt lat="-27.1634865" lon="152.9203743">
<ele>44.468</ele>
<time>2017-09-12T23:27:07.898Z</time>
</trkpt>
<trkpt lat="-27.1631842" lon="152.9205925">
<ele>44.048</ele>
<time>2017-09-12T23:27:09.881Z</time>
</trkpt>
<trkpt lat="-27.1627450" lon="152.9209251">
<ele>43.970</ele>
<time>2017-09-12T23:27:12.793Z</time>
</trkpt>
<trkpt lat="-27.1622616" lon="152.9212244">
<ele>43.951</ele>
<time>2017-09-12T23:27:15.806Z</time>
</trkpt>
<trkpt lat="-27.1619461" lon="152.9214325">
<ele>43.747</ele>
<time>2017-09-12T23:27:17.808Z</time>
</trkpt>
<trkpt lat="-27.1616414" lon="152.9216583">
<ele>43.384</ele>
<time>2017-09-12T23:27:19.812Z</time>
</trkpt>
<trkpt lat="-27.1613295" lon="152.9218605">
<ele>43.121</ele>
<time>2017-09-12T23:27:21.760Z</time>
</trkpt>
<trkpt lat="-27.1608457" lon="152.9221977">
<ele>43.173</ele>
<time>2017-09-12T23:27:24.717Z</time>
</trkpt>
<trkpt lat="-27.1602605" lon="152.9224771">
<ele>43.681</ele>
<time>2017-09-12T23:27:27.850Z</time>
</trkpt>
<trkpt lat="-27.1599014" lon="152.9226825">
<ele>44.695</ele>
<time>2017-09-12T23:27:29.825Z</time>
</trkpt>
<trkpt lat="-27.1593529" lon="152.9229578">
<ele>45.952</ele>
<time>2017-09-12T23:27:32.791Z</time>
</trkpt>
<trkpt lat="-27.1589664" lon="152.9230843">
<ele>47.043</ele>
<time>2017-09-12T23:27:34.784Z</time>
</trkpt>
<trkpt lat="-27.1585883" lon="152.9232427">
<ele>47.744</ele>
<time>2017-09-12T23:27:36.773Z</time>
</trkpt>
<trkpt lat="-27.1580062" lon="152.9234043">
<ele>48.017</ele>
<time>2017-09-12T23:27:39.740Z</time>
</trkpt>
<trkpt lat="-27.1576383" lon="152.9235721">
<ele>47.811</ele>
<time>2017-09-12T23:27:41.742Z</time>
</trkpt>
<trkpt lat="-27.1572619" lon="152.9236605">
<ele>47.056</ele>
<time>2017-09-12T23:27:43.725Z</time>
</trkpt>
<trkpt lat="-27.1567208" lon="152.9238626">
<ele>45.816</ele>
<time>2017-09-12T23:27:46.696Z</time>
</trkpt>
<trkpt lat="-27.1561782" lon="152.9240635">
<ele>44.186</ele>
<time>2017-09-12T23:27:49.692Z</time>
</trkpt>
<trkpt lat="-27.1556349" lon="152.9242139">
<ele>42.175</ele>
<time>2017-09-12T23:27:52.695Z</time>
</trkpt>
<trkpt lat="-27.1551337" lon="152.9243955">
<ele>39.882</ele>
<time>2017-09-12T23:27:55.647Z</time>
</trkpt>
<trkpt lat="-27.1547998" lon="152.9244859">
<ele>37.522</ele>
<time>2017-09-12T23:27:57.624Z</time>
</trkpt>
<trkpt lat="-27.1543211" lon="152.9246866">
<ele>35.347</ele>
<time>2017-09-12T23:28:00.509Z</time>
</trkpt>
<trkpt lat="-27.1538500" lon="152.9249799">
<ele>33.276</ele>
<time>2017-09-12T23:28:03.408Z</time>
</trkpt>
<trkpt lat="-27.1534496" lon="152.9254509">
<ele>30.836</ele>
<time>2017-09-12T23:28:06.380Z</time>
</trkpt>
<trkpt lat="-27.1531755" lon="152.9257873">
<ele>28.008</ele>
<time>2017-09-12T23:28:08.420Z</time>
</trkpt>
<trkpt lat="-27.1529321" lon="152.9260977">
<ele>25.523</ele>
<time>2017-09-12T23:28:10.312Z</time>
</trkpt>
<trkpt lat="-27.1525522" lon="152.9265556">
<ele>23.949</ele>
<time>2017-09-12T23:28:13.269Z</time>
</trkpt>
<trkpt lat="-27.1522040" lon="152.9270106">
<ele>23.093</ele>
<time>2017-09-12T23:28:16.314Z</time>
</trkpt>
<trkpt lat="-27.1520114" lon="152.9272516">
<ele>22.392</ele>
<time>2017-09-12T23:28:18.210Z</time>
</trkpt>
<trkpt lat="-27.1518525" lon="152.9274681">
<ele>21.555</ele>
<time>2017-09-12T23:28:20.271Z</time>
</trkpt>
<trkpt lat="-27.1517125" lon="152.9276975">
<ele>20.635</ele>
<time>2017-09-12T23:28:22.928Z</time>
</trkpt>
<trkpt lat="-27.1516052" lon="152.9277987">
<ele>19.679</ele>
<time>2017-09-12T23:28:24.998Z</time>
</trkpt>
<trkpt lat="-27.1516052" lon="152.9277987">
<ele>18.786</ele>
<time>2017-09-12T23:28:28.998Z</time>
</trkpt>
<trkpt lat="-27.1516052" lon="152.9277987">
<ele>18.291</ele>
<time>2017-09-12T23:28:30.195Z</time>
</trkpt>
<trkpt lat="-27.1514470" lon="152.9278902">
<ele>18.322</ele>
<time>2017-09-12T23:28:35.428Z</time>
</trkpt>
<trkpt lat="-27.1513250" lon="152.9277063">
<ele>18.482</ele>
<time>2017-09-12T23:28:37.857Z</time>
</trkpt>
<trkpt lat="-27.1512413" lon="152.9274532">
<ele>18.437</ele>
<time>2017-09-12T23:28:39.925Z</time>
</trkpt>
<trkpt lat="-27.1511628" lon="152.9270015">
<ele>18.596</ele>
<time>2017-09-12T23:28:43.081Z</time>
</trkpt>
<trkpt lat="-27.1510822" lon="152.9265165">
<ele>19.893</ele>
<time>2017-09-12T23:28:46.107Z</time>
</trkpt>
<trkpt lat="-27.1510269" lon="152.9259780">
<ele>22.768</ele>
<time>2017-09-12T23:28:49.231Z</time>
</trkpt>
<trkpt lat="-27.1509763" lon="152.9254597">
<ele>26.633</ele>
<time>2017-09-12T23:28:52.153Z</time>
</trkpt>
<trkpt lat="-27.1509324" lon="152.9250984">
<ele>30.394</ele>
<time>2017-09-12T23:28:54.134Z</time>
</trkpt>
<trkpt lat="-27.1508399" lon="152.9245607">
<ele>33.065</ele>
<time>2017-09-12T23:28:57.058Z</time>
</trkpt>
<trkpt lat="-27.1507221" lon="152.9240100">
<ele>34.271</ele>
<time>2017-09-12T23:29:00.155Z</time>
</trkpt>
<trkpt lat="-27.1505433" lon="152.9235431">
<ele>34.446</ele>
<time>2017-09-12T23:29:03.110Z</time>
</trkpt>
<trkpt lat="-27.1503748" lon="152.9232589">
<ele>34.532</ele>
<time>2017-09-12T23:29:05.092Z</time>
</trkpt>
<trkpt lat="-27.1501531" lon="152.9229963">
<ele>35.315</ele>
<time>2017-09-12T23:29:07.138Z</time>
</trkpt>
<trkpt lat="-27.1498501" lon="152.9225916">
<ele>36.918</ele>
<time>2017-09-12T23:29:10.160Z</time>
</trkpt>
<trkpt lat="-27.1496242" lon="152.9221495">
<ele>39.000</ele>
<time>2017-09-12T23:29:13.104Z</time>
</trkpt>
<trkpt lat="-27.1496235" lon="152.9217872">
<ele>41.116</ele>
<time>2017-09-12T23:29:15.097Z</time>
</trkpt>
<trkpt lat="-27.1495031" lon="152.9212344">
<ele>42.760</ele>
<time>2017-09-12T23:29:18.144Z</time>
</trkpt>
<trkpt lat="-27.1494641" lon="152.9208610">
<ele>43.662</ele>
<time>2017-09-12T23:29:20.152Z</time>
</trkpt>
<trkpt lat="-27.1494883" lon="152.9204921">
<ele>43.955</ele>
<time>2017-09-12T23:29:22.129Z</time>
</trkpt>
<trkpt lat="-27.1496094" lon="152.9201369">
<ele>43.917</ele>
<time>2017-09-12T23:29:24.163Z</time>
</trkpt>
<trkpt lat="-27.1497202" lon="152.9197840">
<ele>43.720</ele>
<time>2017-09-12T23:29:26.185Z</time>
</trkpt>
<trkpt lat="-27.1498144" lon="152.9192410">
<ele>43.388</ele>
<time>2017-09-12T23:29:29.224Z</time>
</trkpt>
<trkpt lat="-27.1499118" lon="152.9187210">
<ele>42.876</ele>
<time>2017-09-12T23:29:32.323Z</time>
</trkpt>
<trkpt lat="-27.1499439" lon="152.9184178">
<ele>42.240</ele>
<time>2017-09-12T23:29:34.330Z</time>
</trkpt>
<trkpt lat="-27.1499513" lon="152.9180284">
<ele>41.644</ele>
<time>2017-09-12T23:29:36.959Z</time>
</trkpt>
<trkpt lat="-27.1499585" lon="152.9175612">
<ele>41.218</ele>
<time>2017-09-12T23:29:39.882Z</time>
</trkpt>
<trkpt lat="-27.1499680" lon="152.9171973">
<ele>41.018</ele>
<time>2017-09-12T23:29:41.858Z</time>
</trkpt>
<trkpt lat="-27.1499811" lon="152.9166307">
<ele>41.023</ele>
<time>2017-09-12T23:29:44.886Z</time>
</trkpt>
<trkpt lat="-27.1499751" lon="152.9162616">
<ele>41.161</ele>
<time>2017-09-12T23:29:46.911Z</time>
</trkpt>
<trkpt lat="-27.1499913" lon="152.9157347">
<ele>41.443</ele>
<time>2017-09-12T23:29:49.874Z</time>
</trkpt>
<trkpt lat="-27.1499993" lon="152.9153969">
<ele>42.063</ele>
<time>2017-09-12T23:29:51.778Z</time>
</trkpt>
<trkpt lat="-27.1500120" lon="152.9148523">
<ele>43.203</ele>
<time>2017-09-12T23:29:54.773Z</time>
</trkpt>
<trkpt lat="-27.1500328" lon="152.9142902">
<ele>44.855</ele>
<time>2017-09-12T23:29:57.771Z</time>
</trkpt>
<trkpt lat="-27.1499929" lon="152.9137159">
<ele>46.879</ele>
<time>2017-09-12T23:30:00.805Z</time>
</trkpt>
<trkpt lat="-27.1499541" lon="152.9131546">
<ele>49.035</ele>
<time>2017-09-12T23:30:03.821Z</time>
</trkpt>
<trkpt lat="-27.1499947" lon="152.9128013">
<ele>51.062</ele>
<time>2017-09-12T23:30:05.892Z</time>
</trkpt>
<trkpt lat="-27.1499283" lon="152.9123277">
<ele>52.732</ele>
<time>2017-09-12T23:30:08.807Z</time>
</trkpt>
<trkpt lat="-27.1498519" lon="152.9118585">
<ele>53.781</ele>
<time>2017-09-12T23:30:11.742Z</time>
</trkpt>
<trkpt lat="-27.1498183" lon="152.9113669">
<ele>54.109</ele>
<time>2017-09-12T23:30:14.643Z</time>
</trkpt>
<trkpt lat="-27.1497348" lon="152.9108329">
<ele>53.782</ele>
<time>2017-09-12T23:30:17.677Z</time>
</trkpt>
<trkpt lat="-27.1496753" lon="152.9104696">
<ele>52.902</ele>
<time>2017-09-12T23:30:19.704Z</time>
</trkpt>
<trkpt lat="-27.1496052" lon="152.9101176">
<ele>51.719</ele>
<time>2017-09-12T23:30:21.587Z</time>
</trkpt>
<trkpt lat="-27.1495595" lon="152.9095452">
<ele>50.570</ele>
<time>2017-09-12T23:30:24.419Z</time>
</trkpt>
<trkpt lat="-27.1494856" lon="152.9090995">
<ele>49.623</ele>
<time>2017-09-12T23:30:26.445Z</time>
</trkpt>
<trkpt lat="-27.1494440" lon="152.9086229">
<ele>48.855</ele>
<time>2017-09-12T23:30:28.479Z</time>
</trkpt>
<trkpt lat="-27.1493189" lon="152.9079154">
<ele>48.130</ele>
<time>2017-09-12T23:30:31.531Z</time>
</trkpt>
<trkpt lat="-27.1492678" lon="152.9074665">
<ele>47.110</ele>
<time>2017-09-12T23:30:33.546Z</time>
</trkpt>
<trkpt lat="-27.1491968" lon="152.9070632">
<ele>45.652</ele>
<time>2017-09-12T23:30:35.474Z</time>
</trkpt>
<trkpt lat="-27.1491532" lon="152.9066615">
<ele>44.173</ele>
<time>2017-09-12T23:30:37.374Z</time>
</trkpt>
<trkpt lat="-27.1490643" lon="152.9060213">
<ele>43.171</ele>
<time>2017-09-12T23:30:40.318Z</time>
</trkpt>
<trkpt lat="-27.1489494" lon="152.9053237">
<ele>42.721</ele>
<time>2017-09-12T23:30:43.379Z</time>
</trkpt>
<trkpt lat="-27.1488907" lon="152.9048478">
<ele>42.529</ele>
<time>2017-09-12T23:30:45.440Z</time>
</trkpt>
<trkpt lat="-27.1487749" lon="152.9041872">
<ele>42.257</ele>
<time>2017-09-12T23:30:48.358Z</time>
</trkpt>
<trkpt lat="-27.1487613" lon="152.9037262">
<ele>41.884</ele>
<time>2017-09-12T23:30:50.352Z</time>
</trkpt>
<trkpt lat="-27.1486917" lon="152.9030368">
<ele>41.687</ele>
<time>2017-09-12T23:30:53.364Z</time>
</trkpt>
<trkpt lat="-27.1485744" lon="152.9023811">
<ele>41.949</ele>
<time>2017-09-12T23:30:56.340Z</time>
</trkpt>
<trkpt lat="-27.1484908" lon="152.9017360">
<ele>42.733</ele>
<time>2017-09-12T23:30:59.324Z</time>
</trkpt>
<trkpt lat="-27.1483997" lon="152.9011098">
<ele>43.838</ele>
<time>2017-09-12T23:31:02.263Z</time>
</trkpt>
<trkpt lat="-27.1483088" lon="152.9004731">
<ele>44.872</ele>
<time>2017-09-12T23:31:05.230Z</time>
</trkpt>
<trkpt lat="-27.1482488" lon="152.9000390">
<ele>45.495</ele>
<time>2017-09-12T23:31:07.235Z</time>
</trkpt>
<trkpt lat="-27.1481813" lon="152.8993900">
<ele>45.568</ele>
<time>2017-09-12T23:31:10.231Z</time>
</trkpt>
<trkpt lat="-27.1481096" lon="152.8987447">
<ele>44.993</ele>
<time>2017-09-12T23:31:13.245Z</time>
</trkpt>
<trkpt lat="-27.1480015" lon="152.8981257">
<ele>43.969</ele>
<time>2017-09-12T23:31:16.244Z</time>
</trkpt>
<trkpt lat="-27.1479341" lon="152.8977480">
<ele>43.455</ele>
<time>2017-09-12T23:31:18.186Z</time>
</trkpt>
<trkpt lat="-27.1478918" lon="152.8973706">
<ele>44.189</ele>
<time>2017-09-12T23:31:20.116Z</time>
</trkpt>
<trkpt lat="-27.1477950" lon="152.8967720">
<ele>45.767</ele>
<time>2017-09-12T23:31:23.168Z</time>
</trkpt>
<trkpt lat="-27.1477040" lon="152.8962131">
<ele>47.271</ele>
<time>2017-09-12T23:31:26.062Z</time>
</trkpt>
<trkpt lat="-27.1476705" lon="152.8958567">
<ele>48.182</ele>
<time>2017-09-12T23:31:27.955Z</time>
</trkpt>
<trkpt lat="-27.1476101" lon="152.8952759">
<ele>48.632</ele>
<time>2017-09-12T23:31:31.042Z</time>
</trkpt>
<trkpt lat="-27.1475311" lon="152.8947210">
<ele>49.537</ele>
<time>2017-09-12T23:31:33.996Z</time>
</trkpt>
<trkpt lat="-27.1474474" lon="152.8941791">
<ele>51.591</ele>
<time>2017-09-12T23:31:36.887Z</time>
</trkpt>
<trkpt lat="-27.1473535" lon="152.8936020">
<ele>54.437</ele>
<time>2017-09-12T23:31:39.953Z</time>
</trkpt>
<trkpt lat="-27.1472903" lon="152.8932416">
<ele>57.527</ele>
<time>2017-09-12T23:31:42.001Z</time>
</trkpt>
<trkpt lat="-27.1472697" lon="152.8927579">
<ele>60.679</ele>
<time>2017-09-12T23:31:44.915Z</time>
</trkpt>
<trkpt lat="-27.1473389" lon="152.8924387">
<ele>63.655</ele>
<time>2017-09-12T23:31:47.025Z</time>
</trkpt>
<trkpt lat="-27.1475367" lon="152.8922203">
<ele>66.219</ele>
<time>2017-09-12T23:31:49.052Z</time>
</trkpt>
<trkpt lat="-27.1479435" lon="152.8920332">
<ele>68.253</ele>
<time>2017-09-12T23:31:52.262Z</time>
</trkpt>
<trkpt lat="-27.1481878" lon="152.8918981">
<ele>69.971</ele>
<time>2017-09-12T23:31:54.256Z</time>
</trkpt>
<trkpt lat="-27.1483902" lon="152.8916989">
<ele>71.715</ele>
<time>2017-09-12T23:31:56.171Z</time>
</trkpt>
<trkpt lat="-27.1486495" lon="152.8912936">
<ele>73.349</ele>
<time>2017-09-12T23:31:59.229Z</time>
</trkpt>
<trkpt lat="-27.1488095" lon="152.8909987">
<ele>74.459</ele>
<time>2017-09-12T23:32:01.314Z</time>
</trkpt>
<trkpt lat="-27.1490472" lon="152.8905941">
<ele>74.624</ele>
<time>2017-09-12T23:32:04.330Z</time>
</trkpt>
<trkpt lat="-27.1493859" lon="152.8903261">
<ele>73.888</ele>
<time>2017-09-12T23:32:07.395Z</time>
</trkpt>
<trkpt lat="-27.1496531" lon="152.8902579">
<ele>73.086</ele>
<time>2017-09-12T23:32:09.389Z</time>
</trkpt>
<trkpt lat="-27.1501073" lon="152.8902944">
<ele>73.083</ele>
<time>2017-09-12T23:32:12.573Z</time>
</trkpt>
<trkpt lat="-27.1503858" lon="152.8903144">
<ele>73.906</ele>
<time>2017-09-12T23:32:14.495Z</time>
</trkpt>
<trkpt lat="-27.1506737" lon="152.8903345">
<ele>74.966</ele>
<time>2017-09-12T23:32:16.455Z</time>
</trkpt>
<trkpt lat="-27.1509719" lon="152.8903026">
<ele>75.898</ele>
<time>2017-09-12T23:32:18.449Z</time>
</trkpt>
<trkpt lat="-27.1514389" lon="152.8902327">
<ele>77.025</ele>
<time>2017-09-12T23:32:21.572Z</time>
</trkpt>
<trkpt lat="-27.1517347" lon="152.8901810">
<ele>78.787</ele>
<time>2017-09-12T23:32:23.578Z</time>
</trkpt>
<trkpt lat="-27.1520286" lon="152.8901310">
<ele>80.836</ele>
<time>2017-09-12T23:32:25.590Z</time>
</trkpt>
<trkpt lat="-27.1522937" lon="152.8900947">
<ele>82.105</ele>
<time>2017-09-12T23:32:27.438Z</time>
</trkpt>
<trkpt lat="-27.1525291" lon="152.8900560">
<ele>81.791</ele>
<time>2017-09-12T23:32:29.134Z</time>
</trkpt>
<trkpt lat="-27.1528127" lon="152.8900829">
<ele>79.882</ele>
<time>2017-09-12T23:32:31.133Z</time>
</trkpt>
<trkpt lat="-27.1532407" lon="152.8902268">
<ele>77.181</ele>
<time>2017-09-12T23:32:34.136Z</time>
</trkpt>
<trkpt lat="-27.1536883" lon="152.8903977">
<ele>74.958</ele>
<time>2017-09-12T23:32:37.234Z</time>
</trkpt>
<trkpt lat="-27.1539333" lon="152.8905027">
<ele>74.454</ele>
<time>2017-09-12T23:32:39.272Z</time>
</trkpt>
<trkpt lat="-27.1541857" lon="152.8906290">
<ele>75.978</ele>
<time>2017-09-12T23:32:42.028Z</time>
</trkpt>
<trkpt lat="-27.1542661" lon="152.8906807">
<ele>78.614</ele>
<time>2017-09-12T23:32:43.400Z</time>
</trkpt>
<trkpt lat="-27.1543899" lon="152.8906421">
<ele>81.196</ele>
<time>2017-09-12T23:32:45.814Z</time>
</trkpt>
<trkpt lat="-27.1544582" lon="152.8904407">
<ele>83.156</ele>
<time>2017-09-12T23:32:48.642Z</time>
</trkpt>
<trkpt lat="-27.1545396" lon="152.8901440">
<ele>84.397</ele>
<time>2017-09-12T23:32:51.076Z</time>
</trkpt>
<trkpt lat="-27.1547218" lon="152.8896843">
<ele>85.131</ele>
<time>2017-09-12T23:32:54.257Z</time>
</trkpt>
<trkpt lat="-27.1549284" lon="152.8892306">
<ele>85.525</ele>
<time>2017-09-12T23:32:57.290Z</time>
</trkpt>
<trkpt lat="-27.1550503" lon="152.8889379">
<ele>85.854</ele>
<time>2017-09-12T23:32:59.339Z</time>
</trkpt>
<trkpt lat="-27.1551953" lon="152.8885450">
<ele>86.434</ele>
<time>2017-09-12T23:33:02.180Z</time>
</trkpt>
<trkpt lat="-27.1552905" lon="152.8882661">
<ele>87.189</ele>
<time>2017-09-12T23:33:04.095Z</time>
</trkpt>
<trkpt lat="-27.1554661" lon="152.8877692">
<ele>87.606</ele>
<time>2017-09-12T23:33:07.262Z</time>
</trkpt>
<trkpt lat="-27.1555971" lon="152.8874722">
<ele>86.845</ele>
<time>2017-09-12T23:33:09.297Z</time>
</trkpt>
<trkpt lat="-27.1557627" lon="152.8870901">
<ele>84.527</ele>
<time>2017-09-12T23:33:12.172Z</time>
</trkpt>
<trkpt lat="-27.1559023" lon="152.8867235">
<ele>81.514</ele>
<time>2017-09-12T23:33:15.107Z</time>
</trkpt>
<trkpt lat="-27.1559878" lon="152.8864631">
<ele>78.954</ele>
<time>2017-09-12T23:33:17.142Z</time>
</trkpt>
<trkpt lat="-27.1561119" lon="152.8860762">
<ele>77.144</ele>
<time>2017-09-12T23:33:20.154Z</time>
</trkpt>
<trkpt lat="-27.1562578" lon="152.8857278">
<ele>75.669</ele>
<time>2017-09-12T23:33:23.152Z</time>
</trkpt>
<trkpt lat="-27.1563831" lon="152.8854451">
<ele>74.201</ele>
<time>2017-09-12T23:33:25.786Z</time>
</trkpt>
<trkpt lat="-27.1565083" lon="152.8850777">
<ele>73.049</ele>
<time>2017-09-12T23:33:28.912Z</time>
</trkpt>
<trkpt lat="-27.1565695" lon="152.8848112">
<ele>72.502</ele>
<time>2017-09-12T23:33:30.924Z</time>
</trkpt>
<trkpt lat="-27.1566872" lon="152.8845741">
<ele>72.319</ele>
<time>2017-09-12T23:33:32.794Z</time>
</trkpt>
<trkpt lat="-27.1569631" lon="152.8841784">
<ele>72.234</ele>
<time>2017-09-12T23:33:36.069Z</time>
</trkpt>
<trkpt lat="-27.1571072" lon="152.8839317">
<ele>72.449</ele>
<time>2017-09-12T23:33:38.016Z</time>
</trkpt>
<trkpt lat="-27.1573238" lon="152.8837336">
<ele>73.231</ele>
<time>2017-09-12T23:33:40.041Z</time>
</trkpt>
<trkpt lat="-27.1577224" lon="152.8834922">
<ele>74.299</ele>
<time>2017-09-12T23:33:43.112Z</time>
</trkpt>
<trkpt lat="-27.1580011" lon="152.8833404">
<ele>75.195</ele>
<time>2017-09-12T23:33:45.163Z</time>
</trkpt>
<trkpt lat="-27.1582520" lon="152.8832229">
<ele>75.752</ele>
<time>2017-09-12T23:33:47.084Z</time>
</trkpt>
<trkpt lat="-27.1584750" lon="152.8830970">
<ele>75.944</ele>
<time>2017-09-12T23:33:48.967Z</time>
</trkpt>
<trkpt lat="-27.1587696" lon="152.8828204">
<ele>75.829</ele>
<time>2017-09-12T23:33:52.005Z</time>
</trkpt>
<trkpt lat="-27.1589009" lon="152.8824413">
<ele>75.455</ele>
<time>2017-09-12T23:33:54.915Z</time>
</trkpt>
<trkpt lat="-27.1588379" lon="152.8821089">
<ele>74.875</ele>
<time>2017-09-12T23:33:57.109Z</time>
</trkpt>
<trkpt lat="-27.1587164" lon="152.8816048">
<ele>74.292</ele>
<time>2017-09-12T23:34:00.282Z</time>
</trkpt>
<trkpt lat="-27.1585623" lon="152.8813080">
<ele>73.900</ele>
<time>2017-09-12T23:34:02.335Z</time>
</trkpt>
<trkpt lat="-27.1583388" lon="152.8810549">
<ele>73.696</ele>
<time>2017-09-12T23:34:04.441Z</time>
</trkpt>
<trkpt lat="-27.1580268" lon="152.8807003">
<ele>73.608</ele>
<time>2017-09-12T23:34:07.386Z</time>
</trkpt>
<trkpt lat="-27.1577851" lon="152.8805122">
<ele>73.634</ele>
<time>2017-09-12T23:34:09.359Z</time>
</trkpt>
<trkpt lat="-27.1574091" lon="152.8802604">
<ele>73.765</ele>
<time>2017-09-12T23:34:12.307Z</time>
</trkpt>
<trkpt lat="-27.1571253" lon="152.8801133">
<ele>73.944</ele>
<time>2017-09-12T23:34:14.443Z</time>
</trkpt>
<trkpt lat="-27.1566950" lon="152.8799599">
<ele>74.186</ele>
<time>2017-09-12T23:34:17.596Z</time>
</trkpt>
<trkpt lat="-27.1564301" lon="152.8798744">
<ele>74.574</ele>
<time>2017-09-12T23:34:19.619Z</time>
</trkpt>
<trkpt lat="-27.1561686" lon="152.8797901">
<ele>75.093</ele>
<time>2017-09-12T23:34:21.819Z</time>
</trkpt>
<trkpt lat="-27.1558297" lon="152.8797020">
<ele>75.603</ele>
<time>2017-09-12T23:34:24.972Z</time>
</trkpt>
<trkpt lat="-27.1555370" lon="152.8796640">
<ele>75.956</ele>
<time>2017-09-12T23:34:27.720Z</time>
</trkpt>
<trkpt lat="-27.1551717" lon="152.8796158">
<ele>76.104</ele>
<time>2017-09-12T23:34:30.707Z</time>
</trkpt>
<trkpt lat="-27.1547537" lon="152.8794971">
<ele>76.163</ele>
<time>2017-09-12T23:34:33.698Z</time>
</trkpt>
<trkpt lat="-27.1544590" lon="152.8793271">
<ele>76.482</ele>
<time>2017-09-12T23:34:35.692Z</time>
</trkpt>
<trkpt lat="-27.1541552" lon="152.8790963">
<ele>77.458</ele>
<time>2017-09-12T23:34:37.791Z</time>
</trkpt>
<trkpt lat="-27.1537703" lon="152.8787037">
<ele>79.211</ele>
<time>2017-09-12T23:34:40.839Z</time>
</trkpt>
<trkpt lat="-27.1535136" lon="152.8784907">
<ele>81.680</ele>
<time>2017-09-12T23:34:42.841Z</time>
</trkpt>
<trkpt lat="-27.1531436" lon="152.8781763">
<ele>84.545</ele>
<time>2017-09-12T23:34:45.842Z</time>
</trkpt>
<trkpt lat="-27.1527770" lon="152.8779031">
<ele>87.332</ele>
<time>2017-09-12T23:34:48.739Z</time>
</trkpt>
<trkpt lat="-27.1524701" lon="152.8778023">
<ele>89.914</ele>
<time>2017-09-12T23:34:50.800Z</time>
</trkpt>
<trkpt lat="-27.1521686" lon="152.8777414">
<ele>92.374</ele>
<time>2017-09-12T23:34:52.793Z</time>
</trkpt>
<trkpt lat="-27.1517353" lon="152.8775611">
<ele>94.711</ele>
<time>2017-09-12T23:34:55.888Z</time>
</trkpt>
<trkpt lat="-27.1514084" lon="152.8772735">
<ele>97.163</ele>
<time>2017-09-12T23:34:58.717Z</time>
</trkpt>
<trkpt lat="-27.1510625" lon="152.8769691">
<ele>99.801</ele>
<time>2017-09-12T23:35:01.655Z</time>
</trkpt>
<trkpt lat="-27.1508476" lon="152.8767378">
<ele>102.185</ele>
<time>2017-09-12T23:35:03.627Z</time>
</trkpt>
<trkpt lat="-27.1505056" lon="152.8764361">
<ele>103.799</ele>
<time>2017-09-12T23:35:06.502Z</time>
</trkpt>
<trkpt lat="-27.1502504" lon="152.8762388">
<ele>104.384</ele>
<time>2017-09-12T23:35:08.507Z</time>
</trkpt>
<trkpt lat="-27.1499980" lon="152.8760145">
<ele>103.986</ele>
<time>2017-09-12T23:35:10.575Z</time>
</trkpt>
<trkpt lat="-27.1496352" lon="152.8756976">
<ele>102.940</ele>
<time>2017-09-12T23:35:13.542Z</time>
</trkpt>
<trkpt lat="-27.1493932" lon="152.8754847">
<ele>101.309</ele>
<time>2017-09-12T23:35:15.483Z</time>
</trkpt>
<trkpt lat="-27.1490531" lon="152.8750783">
<ele>98.993</ele>
<time>2017-09-12T23:35:18.518Z</time>
</trkpt>
<trkpt lat="-27.1488421" lon="152.8747730">
<ele>96.034</ele>
<time>2017-09-12T23:35:20.545Z</time>
</trkpt>
<trkpt lat="-27.1486273" lon="152.8744780">
<ele>92.881</ele>
<time>2017-09-12T23:35:22.535Z</time>
</trkpt>
<trkpt lat="-27.1483053" lon="152.8740309">
<ele>90.226</ele>
<time>2017-09-12T23:35:25.568Z</time>
</trkpt>
<trkpt lat="-27.1480114" lon="152.8735959">
<ele>87.916</ele>
<time>2017-09-12T23:35:28.519Z</time>
</trkpt>
<trkpt lat="-27.1477984" lon="152.8733253">
<ele>84.995</ele>
<time>2017-09-12T23:35:30.519Z</time>
</trkpt>
<trkpt lat="-27.1475130" lon="152.8728932">
<ele>81.393</ele>
<time>2017-09-12T23:35:33.500Z</time>
</trkpt>
<trkpt lat="-27.1472982" lon="152.8726240">
<ele>78.007</ele>
<time>2017-09-12T23:35:35.506Z</time>
</trkpt>
<trkpt lat="-27.1471069" lon="152.8723413">
<ele>75.533</ele>
<time>2017-09-12T23:35:37.502Z</time>
</trkpt>
<trkpt lat="-27.1468857" lon="152.8720894">
<ele>73.973</ele>
<time>2017-09-12T23:35:39.495Z</time>
</trkpt>
<trkpt lat="-27.1466855" lon="152.8718061">
<ele>72.981</ele>
<time>2017-09-12T23:35:41.503Z</time>
</trkpt>
<trkpt lat="-27.1464958" lon="152.8715067">
<ele>72.249</ele>
<time>2017-09-12T23:35:43.526Z</time>
</trkpt>
<trkpt lat="-27.1461526" lon="152.8711415">
<ele>71.656</ele>
<time>2017-09-12T23:35:46.647Z</time>
</trkpt>
<trkpt lat="-27.1459270" lon="152.8710719">
<ele>71.081</ele>
<time>2017-09-12T23:35:48.715Z</time>
</trkpt>
<trkpt lat="-27.1457909" lon="152.8709944">
<ele>70.337</ele>
<time>2017-09-12T23:35:51.281Z</time>
</trkpt>
<trkpt lat="-27.1457185" lon="152.8709310">
<ele>69.331</ele>
<time>2017-09-12T23:35:52.996Z</time>
</trkpt>
<trkpt lat="-27.1457185" lon="152.8709310">
<ele>68.301</ele>
<time>2017-09-12T23:35:55.997Z</time>
</trkpt>
<trkpt lat="-27.1457185" lon="152.8709310">
<ele>67.720</ele>
<time>2017-09-12T23:36:03.697Z</time>
</trkpt>
<trkpt lat="-27.1455558" lon="152.8708180">
<ele>67.736</ele>
<time>2017-09-12T23:36:08.138Z</time>
</trkpt>
<trkpt lat="-27.1452555" lon="152.8706395">
<ele>67.639</ele>
<time>2017-09-12T23:36:11.610Z</time>
</trkpt>
<trkpt lat="-27.1450527" lon="152.8704618">
<ele>66.894</ele>
<time>2017-09-12T23:36:13.647Z</time>
</trkpt>
<trkpt lat="-27.1447850" lon="152.8703402">
<ele>66.090</ele>
<time>2017-09-12T23:36:15.727Z</time>
</trkpt>
<trkpt lat="-27.1445292" lon="152.8701796">
<ele>65.944</ele>
<time>2017-09-12T23:36:17.738Z</time>
</trkpt>
<trkpt lat="-27.1441036" lon="152.8700417">
<ele>66.383</ele>
<time>2017-09-12T23:36:20.677Z</time>
</trkpt>
<trkpt lat="-27.1437877" lon="152.8699863">
<ele>67.095</ele>
<time>2017-09-12T23:36:22.670Z</time>
</trkpt>
<trkpt lat="-27.1434686" lon="152.8699540">
<ele>67.875</ele>
<time>2017-09-12T23:36:24.664Z</time>
</trkpt>
<trkpt lat="-27.1431423" lon="152.8699079">
<ele>68.635</ele>
<time>2017-09-12T23:36:26.757Z</time>
</trkpt>
<trkpt lat="-27.1426968" lon="152.8698881">
<ele>69.347</ele>
<time>2017-09-12T23:36:29.650Z</time>
</trkpt>
<trkpt lat="-27.1423987" lon="152.8698236">
<ele>69.925</ele>
<time>2017-09-12T23:36:31.643Z</time>
</trkpt>
<trkpt lat="-27.1419335" lon="152.8697703">
<ele>70.220</ele>
<time>2017-09-12T23:36:34.596Z</time>
</trkpt>
<trkpt lat="-27.1415722" lon="152.8698704">
<ele>69.986</ele>
<time>2017-09-12T23:36:36.710Z</time>
</trkpt>
<trkpt lat="-27.1410780" lon="152.8701525">
<ele>69.087</ele>
<time>2017-09-12T23:36:39.773Z</time>
</trkpt>
<trkpt lat="-27.1407741" lon="152.8703723">
<ele>67.945</ele>
<time>2017-09-12T23:36:41.819Z</time>
</trkpt>
<trkpt lat="-27.1405093" lon="152.8708602">
<ele>67.227</ele>
<time>2017-09-12T23:36:44.753Z</time>
</trkpt>
<trkpt lat="-27.1403741" lon="152.8712048">
<ele>67.540</ele>
<time>2017-09-12T23:36:46.701Z</time>
</trkpt>
<trkpt lat="-27.1402509" lon="152.8715749">
<ele>69.279</ele>
<time>2017-09-12T23:36:48.734Z</time>
</trkpt>
<trkpt lat="-27.1400578" lon="152.8721231">
<ele>71.713</ele>
<time>2017-09-12T23:36:51.748Z</time>
</trkpt>
<trkpt lat="-27.1399064" lon="152.8724810">
<ele>73.067</ele>
<time>2017-09-12T23:36:53.749Z</time>
</trkpt>
<trkpt lat="-27.1397157" lon="152.8728195">
<ele>72.677</ele>
<time>2017-09-12T23:36:55.812Z</time>
</trkpt>
<trkpt lat="-27.1394351" lon="152.8732840">
<ele>72.562</ele>
<time>2017-09-12T23:36:58.752Z</time>
</trkpt>
<trkpt lat="-27.1391096" lon="152.8737100">
<ele>74.624</ele>
<time>2017-09-12T23:37:01.709Z</time>
</trkpt>
<trkpt lat="-27.1387328" lon="152.8741197">
<ele>77.861</ele>
<time>2017-09-12T23:37:04.767Z</time>
</trkpt>
<trkpt lat="-27.1384557" lon="152.8743560">
<ele>80.513</ele>
<time>2017-09-12T23:37:06.780Z</time>
</trkpt>
<trkpt lat="-27.1380165" lon="152.8746833">
<ele>82.208</ele>
<time>2017-09-12T23:37:09.865Z</time>
</trkpt>
<trkpt lat="-27.1376774" lon="152.8747953">
<ele>83.190</ele>
<time>2017-09-12T23:37:12.023Z</time>
</trkpt>
<trkpt lat="-27.1372277" lon="152.8748131">
<ele>83.774</ele>
<time>2017-09-12T23:37:14.862Z</time>
</trkpt>
<trkpt lat="-27.1367683" lon="152.8747220">
<ele>84.265</ele>
<time>2017-09-12T23:37:17.937Z</time>
</trkpt>
<trkpt lat="-27.1363460" lon="152.8747147">
<ele>84.814</ele>
<time>2017-09-12T23:37:20.814Z</time>
</trkpt>
<trkpt lat="-27.1360506" lon="152.8747666">
<ele>85.288</ele>
<time>2017-09-12T23:37:22.793Z</time>
</trkpt>
<trkpt lat="-27.1357517" lon="152.8748812">
<ele>85.370</ele>
<time>2017-09-12T23:37:24.767Z</time>
</trkpt>
<trkpt lat="-27.1353559" lon="152.8752062">
<ele>84.782</ele>
<time>2017-09-12T23:37:27.838Z</time>
</trkpt>
<trkpt lat="-27.1349775" lon="152.8755000">
<ele>83.317</ele>
<time>2017-09-12T23:37:30.763Z</time>
</trkpt>
<trkpt lat="-27.1346695" lon="152.8756843">
<ele>80.932</ele>
<time>2017-09-12T23:37:32.869Z</time>
</trkpt>
<trkpt lat="-27.1342271" lon="152.8759192">
<ele>77.997</ele>
<time>2017-09-12T23:37:35.706Z</time>
</trkpt>
<trkpt lat="-27.1337462" lon="152.8762037">
<ele>74.964</ele>
<time>2017-09-12T23:37:38.798Z</time>
</trkpt>
<trkpt lat="-27.1334239" lon="152.8763371">
<ele>71.936</ele>
<time>2017-09-12T23:37:40.798Z</time>
</trkpt>
<trkpt lat="-27.1330058" lon="152.8766699">
<ele>69.103</ele>
<time>2017-09-12T23:37:43.823Z</time>
</trkpt>
<trkpt lat="-27.1327620" lon="152.8769298">
<ele>66.780</ele>
<time>2017-09-12T23:37:45.831Z</time>
</trkpt>
<trkpt lat="-27.1325268" lon="152.8771920">
<ele>65.038</ele>
<time>2017-09-12T23:37:47.814Z</time>
</trkpt>
<trkpt lat="-27.1323091" lon="152.8774743">
<ele>63.851</ele>
<time>2017-09-12T23:37:49.824Z</time>
</trkpt>
<trkpt lat="-27.1321007" lon="152.8777454">
<ele>63.146</ele>
<time>2017-09-12T23:37:51.763Z</time>
</trkpt>
<trkpt lat="-27.1318887" lon="152.8780357">
<ele>62.794</ele>
<time>2017-09-12T23:37:53.758Z</time>
</trkpt>
<trkpt lat="-27.1316635" lon="152.8783255">
<ele>62.759</ele>
<time>2017-09-12T23:37:55.740Z</time>
</trkpt>
<trkpt lat="-27.1314962" lon="152.8786804">
<ele>63.075</ele>
<time>2017-09-12T23:37:57.817Z</time>
</trkpt>
<trkpt lat="-27.1312950" lon="152.8791936">
<ele>63.680</ele>
<time>2017-09-12T23:38:00.781Z</time>
</trkpt>
<trkpt lat="-27.1311719" lon="152.8795263">
<ele>64.309</ele>
<time>2017-09-12T23:38:02.729Z</time>
</trkpt>
<trkpt lat="-27.1310446" lon="152.8798652">
<ele>64.663</ele>
<time>2017-09-12T23:38:04.727Z</time>
</trkpt>
<trkpt lat="-27.1308179" lon="152.8803547">
<ele>64.613</ele>
<time>2017-09-12T23:38:07.740Z</time>
</trkpt>
<trkpt lat="-27.1305037" lon="152.8807810">
<ele>64.085</ele>
<time>2017-09-12T23:38:10.813Z</time>
</trkpt>
<trkpt lat="-27.1303140" lon="152.8810365">
<ele>62.952</ele>
<time>2017-09-12T23:38:12.788Z</time>
</trkpt>
<trkpt lat="-27.1300229" lon="152.8813736">
<ele>61.306</ele>
<time>2017-09-12T23:38:15.613Z</time>
</trkpt>
<trkpt lat="-27.1297619" lon="152.8815622">
<ele>59.375</ele>
<time>2017-09-12T23:38:17.583Z</time>
</trkpt>
<trkpt lat="-27.1293017" lon="152.8817884">
<ele>57.351</ele>
<time>2017-09-12T23:38:20.602Z</time>
</trkpt>
<trkpt lat="-27.1289535" lon="152.8818645">
<ele>55.392</ele>
<time>2017-09-12T23:38:22.614Z</time>
</trkpt>
<trkpt lat="-27.1286045" lon="152.8819603">
<ele>53.581</ele>
<time>2017-09-12T23:38:24.653Z</time>
</trkpt>
<trkpt lat="-27.1282674" lon="152.8820141">
<ele>51.876</ele>
<time>2017-09-12T23:38:26.620Z</time>
</trkpt>
<trkpt lat="-27.1279338" lon="152.8820563">
<ele>50.198</ele>
<time>2017-09-12T23:38:28.670Z</time>
</trkpt>
<trkpt lat="-27.1274755" lon="152.8821061">
<ele>48.480</ele>
<time>2017-09-12T23:38:31.668Z</time>
</trkpt>
<trkpt lat="-27.1271980" lon="152.8821670">
<ele>46.740</ele>
<time>2017-09-12T23:38:33.703Z</time>
</trkpt>
<trkpt lat="-27.1269389" lon="152.8821842">
<ele>45.072</ele>
<time>2017-09-12T23:38:35.754Z</time>
</trkpt>
<trkpt lat="-27.1266108" lon="152.8822756">
<ele>43.675</ele>
<time>2017-09-12T23:38:38.877Z</time>
</trkpt>
<trkpt lat="-27.1264779" lon="152.8822823">
<ele>42.565</ele>
<time>2017-09-12T23:38:40.846Z</time>
</trkpt>
<trkpt lat="-27.1263859" lon="152.8822597">
<ele>41.508</ele>
<time>2017-09-12T23:38:42.668Z</time>
</trkpt>
<trkpt lat="-27.1262646" lon="152.8822256">
<ele>40.396</ele>
<time>2017-09-12T23:38:44.966Z</time>
</trkpt>
<trkpt lat="-27.1262310" lon="152.8820218">
<ele>39.308</ele>
<time>2017-09-12T23:38:47.142Z</time>
</trkpt>
<trkpt lat="-27.1262061" lon="152.8815466">
<ele>38.429</ele>
<time>2017-09-12T23:38:50.552Z</time>
</trkpt>
<trkpt lat="-27.1261625" lon="152.8812106">
<ele>38.054</ele>
<time>2017-09-12T23:38:52.611Z</time>
</trkpt>
<trkpt lat="-27.1261277" lon="152.8807367">
<ele>38.277</ele>
<time>2017-09-12T23:38:55.486Z</time>
</trkpt>
<trkpt lat="-27.1261315" lon="152.8804010">
<ele>38.999</ele>
<time>2017-09-12T23:38:57.481Z</time>
</trkpt>
<trkpt lat="-27.1261222" lon="152.8798954">
<ele>40.157</ele>
<time>2017-09-12T23:39:00.349Z</time>
</trkpt>
<trkpt lat="-27.1261235" lon="152.8793025">
<ele>41.677</ele>
<time>2017-09-12T23:39:03.443Z</time>
</trkpt>
<trkpt lat="-27.1261479" lon="152.8788984">
<ele>43.426</ele>
<time>2017-09-12T23:39:05.426Z</time>
</trkpt>
<trkpt lat="-27.1261435" lon="152.8784792">
<ele>45.073</ele>
<time>2017-09-12T23:39:07.450Z</time>
</trkpt>
<trkpt lat="-27.1261136" lon="152.8778636">
<ele>46.133</ele>
<time>2017-09-12T23:39:10.417Z</time>
</trkpt>
<trkpt lat="-27.1260858" lon="152.8774532">
<ele>46.369</ele>
<time>2017-09-12T23:39:12.380Z</time>
</trkpt>
<trkpt lat="-27.1260543" lon="152.8770375">
<ele>45.909</ele>
<time>2017-09-12T23:39:14.313Z</time>
</trkpt>
<trkpt lat="-27.1259593" lon="152.8763757">
<ele>45.189</ele>
<time>2017-09-12T23:39:17.336Z</time>
</trkpt>
<trkpt lat="-27.1258797" lon="152.8757030">
<ele>44.735</ele>
<time>2017-09-12T23:39:20.342Z</time>
</trkpt>
<trkpt lat="-27.1258232" lon="152.8752618">
<ele>45.000</ele>
<time>2017-09-12T23:39:22.327Z</time>
</trkpt>
<trkpt lat="-27.1258048" lon="152.8748152">
<ele>46.166</ele>
<time>2017-09-12T23:39:24.340Z</time>
</trkpt>
<trkpt lat="-27.1257017" lon="152.8741808">
<ele>47.899</ele>
<time>2017-09-12T23:39:27.282Z</time>
</trkpt>
<trkpt lat="-27.1256439" lon="152.8737617">
<ele>49.727</ele>
<time>2017-09-12T23:39:29.236Z</time>
</trkpt>
<trkpt lat="-27.1255772" lon="152.8733331">
<ele>51.346</ele>
<time>2017-09-12T23:39:31.226Z</time>
</trkpt>
<trkpt lat="-27.1254886" lon="152.8726852">
<ele>52.436</ele>
<time>2017-09-12T23:39:34.179Z</time>
</trkpt>
<trkpt lat="-27.1253385" lon="152.8720228">
<ele>52.813</ele>
<time>2017-09-12T23:39:37.187Z</time>
</trkpt>
<trkpt lat="-27.1253017" lon="152.8713393">
<ele>52.405</ele>
<time>2017-09-12T23:39:40.180Z</time>
</trkpt>
<trkpt lat="-27.1252259" lon="152.8708976">
<ele>51.271</ele>
<time>2017-09-12T23:39:42.143Z</time>
</trkpt>
<trkpt lat="-27.1251851" lon="152.8704354">
<ele>49.854</ele>
<time>2017-09-12T23:39:44.144Z</time>
</trkpt>
<trkpt lat="-27.1251102" lon="152.8697464">
<ele>48.762</ele>
<time>2017-09-12T23:39:47.124Z</time>
</trkpt>
<trkpt lat="-27.1250489" lon="152.8693003">
<ele>48.302</ele>
<time>2017-09-12T23:39:49.087Z</time>
</trkpt>
<trkpt lat="-27.1249837" lon="152.8686337">
<ele>48.456</ele>
<time>2017-09-12T23:39:52.043Z</time>
</trkpt>
<trkpt lat="-27.1249230" lon="152.8682018">
<ele>49.169</ele>
<time>2017-09-12T23:39:54.025Z</time>
</trkpt>
<trkpt lat="-27.1248618" lon="152.8675856">
<ele>50.407</ele>
<time>2017-09-12T23:39:56.908Z</time>
</trkpt>
<trkpt lat="-27.1247903" lon="152.8671713">
<ele>52.070</ele>
<time>2017-09-12T23:39:58.921Z</time>
</trkpt>
<trkpt lat="-27.1247023" lon="152.8667723">
<ele>53.908</ele>
<time>2017-09-12T23:40:00.898Z</time>
</trkpt>
<trkpt lat="-27.1246318" lon="152.8663683">
<ele>55.408</ele>
<time>2017-09-12T23:40:02.848Z</time>
</trkpt>
<trkpt lat="-27.1245666" lon="152.8659299">
<ele>56.164</ele>
<time>2017-09-12T23:40:04.864Z</time>
</trkpt>
<trkpt lat="-27.1244618" lon="152.8652426">
<ele>56.213</ele>
<time>2017-09-12T23:40:07.910Z</time>
</trkpt>
<trkpt lat="-27.1244244" lon="152.8647797">
<ele>55.610</ele>
<time>2017-09-12T23:40:09.906Z</time>
</trkpt>
<trkpt lat="-27.1243764" lon="152.8643231">
<ele>54.382</ele>
<time>2017-09-12T23:40:11.879Z</time>
</trkpt>
<trkpt lat="-27.1243168" lon="152.8638613">
<ele>52.796</ele>
<time>2017-09-12T23:40:13.861Z</time>
</trkpt>
<trkpt lat="-27.1242779" lon="152.8633779">
<ele>51.198</ele>
<time>2017-09-12T23:40:15.883Z</time>
</trkpt>
<trkpt lat="-27.1242196" lon="152.8628930">
<ele>49.859</ele>
<time>2017-09-12T23:40:17.899Z</time>
</trkpt>
<trkpt lat="-27.1241398" lon="152.8624351">
<ele>49.006</ele>
<time>2017-09-12T23:40:19.894Z</time>
</trkpt>
<trkpt lat="-27.1241082" lon="152.8618290">
<ele>48.782</ele>
<time>2017-09-12T23:40:22.704Z</time>
</trkpt>
<trkpt lat="-27.1240480" lon="152.8614883">
<ele>49.336</ele>
<time>2017-09-12T23:40:24.511Z</time>
</trkpt>
<trkpt lat="-27.1239636" lon="152.8609424">
<ele>50.679</ele>
<time>2017-09-12T23:40:27.493Z</time>
</trkpt>
<trkpt lat="-27.1239506" lon="152.8605769">
<ele>52.524</ele>
<time>2017-09-12T23:40:29.506Z</time>
</trkpt>
<trkpt lat="-27.1238577" lon="152.8601580">
<ele>54.278</ele>
<time>2017-09-12T23:40:32.123Z</time>
</trkpt>
<trkpt lat="-27.1237907" lon="152.8599227">
<ele>55.302</ele>
<time>2017-09-12T23:40:34.255Z</time>
</trkpt>
<trkpt lat="-27.1236959" lon="152.8598941">
<ele>55.258</ele>
<time>2017-09-12T23:40:35.362Z</time>
</trkpt>
<trkpt lat="-27.1233462" lon="152.8600679">
<ele>54.357</ele>
<time>2017-09-12T23:40:40.321Z</time>
</trkpt>
<trkpt lat="-27.1229250" lon="152.8601636">
<ele>53.175</ele>
<time>2017-09-12T23:40:43.577Z</time>
</trkpt>
<trkpt lat="-27.1226491" lon="152.8602094">
<ele>52.184</ele>
<time>2017-09-12T23:40:45.592Z</time>
</trkpt>
<trkpt lat="-27.1224042" lon="152.8602472">
<ele>51.425</ele>
<time>2017-09-12T23:40:47.505Z</time>
</trkpt>
<trkpt lat="-27.1221036" lon="152.8603212">
<ele>50.723</ele>
<time>2017-09-12T23:40:50.195Z</time>
</trkpt>
<trkpt lat="-27.1218563" lon="152.8602629">
<ele>49.738</ele>
<time>2017-09-12T23:40:52.867Z</time>
</trkpt>
<trkpt lat="-27.1217888" lon="152.8599099">
<ele>48.071</ele>
<time>2017-09-12T23:40:56.314Z</time>
</trkpt>
<trkpt lat="-27.1218240" lon="152.8594869">
<ele>45.565</ele>
<time>2017-09-12T23:40:59.719Z</time>
</trkpt>
<trkpt lat="-27.1218670" lon="152.8592116">
<ele>42.457</ele>
<time>2017-09-12T23:41:01.854Z</time>
</trkpt>
<trkpt lat="-27.1218936" lon="152.8589014">
<ele>39.375</ele>
<time>2017-09-12T23:41:04.503Z</time>
</trkpt>
<trkpt lat="-27.1217907" lon="152.8587719">
<ele>36.865</ele>
<time>2017-09-12T23:41:06.250Z</time>
</trkpt>
<trkpt lat="-27.1217342" lon="152.8584938">
<ele>35.003</ele>
<time>2017-09-12T23:41:09.039Z</time>
</trkpt>
<trkpt lat="-27.1216881" lon="152.8582211">
<ele>33.787</ele>
<time>2017-09-12T23:41:11.341Z</time>
</trkpt>
<trkpt lat="-27.1215711" lon="152.8579802">
<ele>33.281</ele>
<time>2017-09-12T23:41:13.472Z</time>
</trkpt>
<trkpt lat="-27.1212526" lon="152.8578501">
<ele>33.436</ele>
<time>2017-09-12T23:41:16.420Z</time>
</trkpt>
<trkpt lat="-27.1208755" lon="152.8579832">
<ele>34.376</ele>
<time>2017-09-12T23:41:19.557Z</time>
</trkpt>
<trkpt lat="-27.1203743" lon="152.8580887">
<ele>36.406</ele>
<time>2017-09-12T23:41:22.886Z</time>
</trkpt>
<trkpt lat="-27.1198666" lon="152.8581452">
<ele>39.535</ele>
<time>2017-09-12T23:41:25.974Z</time>
</trkpt>
<trkpt lat="-27.1195456" lon="152.8581618">
<ele>43.246</ele>
<time>2017-09-12T23:41:27.932Z</time>
</trkpt>
<trkpt lat="-27.1190641" lon="152.8581240">
<ele>46.782</ele>
<time>2017-09-12T23:41:30.916Z</time>
</trkpt>
<trkpt lat="-27.1186021" lon="152.8581310">
<ele>49.651</ele>
<time>2017-09-12T23:41:33.860Z</time>
</trkpt>
<trkpt lat="-27.1182914" lon="152.8581142">
<ele>51.594</ele>
<time>2017-09-12T23:41:35.875Z</time>
</trkpt>
<trkpt lat="-27.1178056" lon="152.8581216">
<ele>52.358</ele>
<time>2017-09-12T23:41:38.975Z</time>
</trkpt>
<trkpt lat="-27.1174813" lon="152.8582300">
<ele>51.842</ele>
<time>2017-09-12T23:41:41.008Z</time>
</trkpt>
<trkpt lat="-27.1169837" lon="152.8585646">
<ele>50.397</ele>
<time>2017-09-12T23:41:44.313Z</time>
</trkpt>
<trkpt lat="-27.1165221" lon="152.8587807">
<ele>48.566</ele>
<time>2017-09-12T23:41:47.126Z</time>
</trkpt>
<trkpt lat="-27.1161835" lon="152.8588731">
<ele>46.670</ele>
<time>2017-09-12T23:41:49.183Z</time>
</trkpt>
<trkpt lat="-27.1157268" lon="152.8588600">
<ele>44.942</ele>
<time>2017-09-12T23:41:52.014Z</time>
</trkpt>
<trkpt lat="-27.1153273" lon="152.8591057">
<ele>43.582</ele>
<time>2017-09-12T23:41:54.951Z</time>
</trkpt>
<trkpt lat="-27.1150007" lon="152.8594927">
<ele>42.606</ele>
<time>2017-09-12T23:41:57.962Z</time>
</trkpt>
<trkpt lat="-27.1148368" lon="152.8598221">
<ele>42.010</ele>
<time>2017-09-12T23:42:00.009Z</time>
</trkpt>
<trkpt lat="-27.1146288" lon="152.8601258">
<ele>41.757</ele>
<time>2017-09-12T23:42:02.022Z</time>
</trkpt>
<trkpt lat="-27.1143014" lon="152.8603177">
<ele>41.694</ele>
<time>2017-09-12T23:42:04.095Z</time>
</trkpt>
<trkpt lat="-27.1138054" lon="152.8606398">
<ele>41.843</ele>
<time>2017-09-12T23:42:07.211Z</time>
</trkpt>
<trkpt lat="-27.1133331" lon="152.8609444">
<ele>42.401</ele>
<time>2017-09-12T23:42:10.208Z</time>
</trkpt>
<trkpt lat="-27.1128576" lon="152.8611676">
<ele>43.408</ele>
<time>2017-09-12T23:42:13.107Z</time>
</trkpt>
<trkpt lat="-27.1123920" lon="152.8615129">
<ele>44.730</ele>
<time>2017-09-12T23:42:16.174Z</time>
</trkpt>
<trkpt lat="-27.1121417" lon="152.8618292">
<ele>46.221</ele>
<time>2017-09-12T23:42:18.177Z</time>
</trkpt>
<trkpt lat="-27.1118882" lon="152.8621326">
<ele>47.622</ele>
<time>2017-09-12T23:42:20.154Z</time>
</trkpt>
<trkpt lat="-27.1116341" lon="152.8624295">
<ele>48.661</ele>
<time>2017-09-12T23:42:22.163Z</time>
</trkpt>
<trkpt lat="-27.1112722" lon="152.8628466">
<ele>49.369</ele>
<time>2017-09-12T23:42:25.074Z</time>
</trkpt>
<trkpt lat="-27.1109381" lon="152.8629712">
<ele>49.937</ele>
<time>2017-09-12T23:42:27.041Z</time>
</trkpt>
<trkpt lat="-27.1105660" lon="152.8630957">
<ele>50.404</ele>
<time>2017-09-12T23:42:29.071Z</time>
</trkpt>
<trkpt lat="-27.1099343" lon="152.8631529">
<ele>50.815</ele>
<time>2017-09-12T23:42:32.150Z</time>
</trkpt>
<trkpt lat="-27.1094969" lon="152.8632220">
<ele>51.391</ele>
<time>2017-09-12T23:42:34.190Z</time>
</trkpt>
<trkpt lat="-27.1088579" lon="152.8632414">
<ele>52.247</ele>
<time>2017-09-12T23:42:37.174Z</time>
</trkpt>
<trkpt lat="-27.1084553" lon="152.8632645">
<ele>53.285</ele>
<time>2017-09-12T23:42:39.112Z</time>
</trkpt>
<trkpt lat="-27.1080500" lon="152.8633133">
<ele>54.428</ele>
<time>2017-09-12T23:42:41.102Z</time>
</trkpt>
<trkpt lat="-27.1076507" lon="152.8633592">
<ele>55.672</ele>
<time>2017-09-12T23:42:43.092Z</time>
</trkpt>
<trkpt lat="-27.1072597" lon="152.8633938">
<ele>56.997</ele>
<time>2017-09-12T23:42:45.090Z</time>
</trkpt>
<trkpt lat="-27.1066993" lon="152.8634036">
<ele>58.399</ele>
<time>2017-09-12T23:42:48.023Z</time>
</trkpt>
<trkpt lat="-27.1063394" lon="152.8634647">
<ele>60.195</ele>
<time>2017-09-12T23:42:49.981Z</time>
</trkpt>
<trkpt lat="-27.1059691" lon="152.8634614">
<ele>62.684</ele>
<time>2017-09-12T23:42:51.973Z</time>
</trkpt>
<trkpt lat="-27.1055956" lon="152.8635026">
<ele>65.397</ele>
<time>2017-09-12T23:42:53.992Z</time>
</trkpt>
<trkpt lat="-27.1050560" lon="152.8634566">
<ele>67.622</ele>
<time>2017-09-12T23:42:56.915Z</time>
</trkpt>
<trkpt lat="-27.1047256" lon="152.8632122">
<ele>69.292</ele>
<time>2017-09-12T23:42:59.030Z</time>
</trkpt>
<trkpt lat="-27.1042416" lon="152.8628889">
<ele>70.567</ele>
<time>2017-09-12T23:43:02.018Z</time>
</trkpt>
<trkpt lat="-27.1039005" lon="152.8627144">
<ele>71.438</ele>
<time>2017-09-12T23:43:04.018Z</time>
</trkpt>
<trkpt lat="-27.1035680" lon="152.8625057">
<ele>71.913</ele>
<time>2017-09-12T23:43:06.037Z</time>
</trkpt>
<trkpt lat="-27.1032496" lon="152.8622411">
<ele>72.158</ele>
<time>2017-09-12T23:43:08.109Z</time>
</trkpt>
<trkpt lat="-27.1027739" lon="152.8618717">
<ele>72.378</ele>
<time>2017-09-12T23:43:11.148Z</time>
</trkpt>
<trkpt lat="-27.1022983" lon="152.8615701">
<ele>72.617</ele>
<time>2017-09-12T23:43:14.051Z</time>
</trkpt>
<trkpt lat="-27.1017231" lon="152.8615593">
<ele>72.589</ele>
<time>2017-09-12T23:43:17.030Z</time>
</trkpt>
<trkpt lat="-27.1011088" lon="152.8615312">
<ele>72.126</ele>
<time>2017-09-12T23:43:20.060Z</time>
</trkpt>
<trkpt lat="-27.1006892" lon="152.8615553">
<ele>71.474</ele>
<time>2017-09-12T23:43:22.064Z</time>
</trkpt>
<trkpt lat="-27.1000559" lon="152.8616921">
<ele>70.824</ele>
<time>2017-09-12T23:43:25.110Z</time>
</trkpt>
<trkpt lat="-27.0994354" lon="152.8618641">
<ele>69.855</ele>
<time>2017-09-12T23:43:28.112Z</time>
</trkpt>
<trkpt lat="-27.0990200" lon="152.8619812">
<ele>67.909</ele>
<time>2017-09-12T23:43:30.134Z</time>
</trkpt>
<trkpt lat="-27.0986083" lon="152.8620203">
<ele>64.919</ele>
<time>2017-09-12T23:43:32.157Z</time>
</trkpt>
<trkpt lat="-27.0980850" lon="152.8617818">
<ele>61.827</ele>
<time>2017-09-12T23:43:35.004Z</time>
</trkpt>
<trkpt lat="-27.0976072" lon="152.8612890">
<ele>59.630</ele>
<time>2017-09-12T23:43:38.248Z</time>
</trkpt>
<trkpt lat="-27.0970996" lon="152.8607936">
<ele>58.611</ele>
<time>2017-09-12T23:43:41.484Z</time>
</trkpt>
<trkpt lat="-27.0967644" lon="152.8605263">
<ele>58.560</ele>
<time>2017-09-12T23:43:43.487Z</time>
</trkpt>
<trkpt lat="-27.0962453" lon="152.8601940">
<ele>59.111</ele>
<time>2017-09-12T23:43:46.543Z</time>
</trkpt>
<trkpt lat="-27.0959656" lon="152.8599871">
<ele>60.026</ele>
<time>2017-09-12T23:43:48.666Z</time>
</trkpt>
<trkpt lat="-27.0956482" lon="152.8598461">
<ele>61.213</ele>
<time>2017-09-12T23:43:51.113Z</time>
</trkpt>
<trkpt lat="-27.0952517" lon="152.8599731">
<ele>62.715</ele>
<time>2017-09-12T23:43:54.086Z</time>
</trkpt>
<trkpt lat="-27.0947748" lon="152.8602125">
<ele>64.596</ele>
<time>2017-09-12T23:43:57.166Z</time>
</trkpt>
<trkpt lat="-27.0944300" lon="152.8604320">
<ele>66.475</ele>
<time>2017-09-12T23:43:59.225Z</time>
</trkpt>
<trkpt lat="-27.0940770" lon="152.8606337">
<ele>67.529</ele>
<time>2017-09-12T23:44:01.217Z</time>
</trkpt>
<trkpt lat="-27.0936203" lon="152.8610889">
<ele>67.286</ele>
<time>2017-09-12T23:44:04.235Z</time>
</trkpt>
<trkpt lat="-27.0933933" lon="152.8614910">
<ele>65.894</ele>
<time>2017-09-12T23:44:06.331Z</time>
</trkpt>
<trkpt lat="-27.0930396" lon="152.8620144">
<ele>63.924</ele>
<time>2017-09-12T23:44:09.256Z</time>
</trkpt>
<trkpt lat="-27.0927592" lon="152.8623551">
<ele>61.913</ele>
<time>2017-09-12T23:44:11.414Z</time>
</trkpt>
<trkpt lat="-27.0923320" lon="152.8626991">
<ele>60.121</ele>
<time>2017-09-12T23:44:14.265Z</time>
</trkpt>
<trkpt lat="-27.0917901" lon="152.8627596">
<ele>58.841</ele>
<time>2017-09-12T23:44:17.297Z</time>
</trkpt>
<trkpt lat="-27.0912438" lon="152.8627640">
<ele>58.793</ele>
<time>2017-09-12T23:44:20.395Z</time>
</trkpt>
<trkpt lat="-27.0909064" lon="152.8627557">
<ele>60.426</ele>
<time>2017-09-12T23:44:22.374Z</time>
</trkpt>
<trkpt lat="-27.0905738" lon="152.8628531">
<ele>62.980</ele>
<time>2017-09-12T23:44:24.325Z</time>
</trkpt>
<trkpt lat="-27.0901895" lon="152.8633351">
<ele>65.188</ele>
<time>2017-09-12T23:44:27.418Z</time>
</trkpt>
<trkpt lat="-27.0897620" lon="152.8638552">
<ele>66.691</ele>
<time>2017-09-12T23:44:30.621Z</time>
</trkpt>
<trkpt lat="-27.0894919" lon="152.8641924">
<ele>67.659</ele>
<time>2017-09-12T23:44:32.679Z</time>
</trkpt>
<trkpt lat="-27.0891320" lon="152.8646775">
<ele>67.988</ele>
<time>2017-09-12T23:44:35.582Z</time>
</trkpt>
<trkpt lat="-27.0888873" lon="152.8649741">
<ele>67.291</ele>
<time>2017-09-12T23:44:37.453Z</time>
</trkpt>
<trkpt lat="-27.0884726" lon="152.8654643">
<ele>65.496</ele>
<time>2017-09-12T23:44:40.578Z</time>
</trkpt>
<trkpt lat="-27.0879729" lon="152.8658256">
<ele>62.814</ele>
<time>2017-09-12T23:44:43.683Z</time>
</trkpt>
<trkpt lat="-27.0875941" lon="152.8659536">
<ele>59.455</ele>
<time>2017-09-12T23:44:45.853Z</time>
</trkpt>
<trkpt lat="-27.0870699" lon="152.8659079">
<ele>56.142</ele>
<time>2017-09-12T23:44:48.862Z</time>
</trkpt>
<trkpt lat="-27.0865864" lon="152.8660606">
<ele>53.730</ele>
<time>2017-09-12T23:44:51.782Z</time>
</trkpt>
<trkpt lat="-27.0861786" lon="152.8664967">
<ele>52.324</ele>
<time>2017-09-12T23:44:54.921Z</time>
</trkpt>
<trkpt lat="-27.0860005" lon="152.8668754">
<ele>52.264</ele>
<time>2017-09-12T23:44:56.951Z</time>
</trkpt>
<trkpt lat="-27.0856837" lon="152.8673839">
<ele>53.748</ele>
<time>2017-09-12T23:44:59.861Z</time>
</trkpt>
<trkpt lat="-27.0852875" lon="152.8678670">
<ele>55.635</ele>
<time>2017-09-12T23:45:02.904Z</time>
</trkpt>
<trkpt lat="-27.0849094" lon="152.8683286">
<ele>57.122</ele>
<time>2017-09-12T23:45:05.795Z</time>
</trkpt>
<trkpt lat="-27.0846450" lon="152.8686649">
<ele>58.767</ele>
<time>2017-09-12T23:45:07.738Z</time>
</trkpt>
<trkpt lat="-27.0842516" lon="152.8692451">
<ele>60.739</ele>
<time>2017-09-12T23:45:10.774Z</time>
</trkpt>
<trkpt lat="-27.0838306" lon="152.8698108">
<ele>62.318</ele>
<time>2017-09-12T23:45:13.795Z</time>
</trkpt>
<trkpt lat="-27.0834739" lon="152.8700598">
<ele>62.941</ele>
<time>2017-09-12T23:45:15.703Z</time>
</trkpt>
<trkpt lat="-27.0828169" lon="152.8702794">
<ele>62.769</ele>
<time>2017-09-12T23:45:18.729Z</time>
</trkpt>
<trkpt lat="-27.0821518" lon="152.8705047">
<ele>62.476</ele>
<time>2017-09-12T23:45:21.719Z</time>
</trkpt>
<trkpt lat="-27.0816979" lon="152.8706232">
<ele>62.523</ele>
<time>2017-09-12T23:45:23.743Z</time>
</trkpt>
<trkpt lat="-27.0810425" lon="152.8708538">
<ele>62.645</ele>
<time>2017-09-12T23:45:26.808Z</time>
</trkpt>
<trkpt lat="-27.0804217" lon="152.8710401">
<ele>62.229</ele>
<time>2017-09-12T23:45:29.787Z</time>
</trkpt>
<trkpt lat="-27.0800232" lon="152.8711652">
<ele>60.929</ele>
<time>2017-09-12T23:45:31.763Z</time>
</trkpt>
<trkpt lat="-27.0796315" lon="152.8713043">
<ele>59.001</ele>
<time>2017-09-12T23:45:33.742Z</time>
</trkpt>
<trkpt lat="-27.0790453" lon="152.8715249">
<ele>57.060</ele>
<time>2017-09-12T23:45:36.711Z</time>
</trkpt>
<trkpt lat="-27.0786594" lon="152.8716971">
<ele>55.419</ele>
<time>2017-09-12T23:45:38.701Z</time>
</trkpt>
<trkpt lat="-27.0780569" lon="152.8718681">
<ele>53.994</ele>
<time>2017-09-12T23:45:41.695Z</time>
</trkpt>
<trkpt lat="-27.0774744" lon="152.8720375">
<ele>52.394</ele>
<time>2017-09-12T23:45:44.610Z</time>
</trkpt>
<trkpt lat="-27.0770903" lon="152.8721918">
<ele>50.063</ele>
<time>2017-09-12T23:45:46.576Z</time>
</trkpt>
<trkpt lat="-27.0766791" lon="152.8723652">
<ele>47.347</ele>
<time>2017-09-12T23:45:48.687Z</time>
</trkpt>
<trkpt lat="-27.0760643" lon="152.8724471">
<ele>45.025</ele>
<time>2017-09-12T23:45:51.634Z</time>
</trkpt>
<trkpt lat="-27.0754466" lon="152.8724554">
<ele>42.454</ele>
<time>2017-09-12T23:45:54.514Z</time>
</trkpt>
<trkpt lat="-27.0750231" lon="152.8723336">
<ele>38.957</ele>
<time>2017-09-12T23:45:56.527Z</time>
</trkpt>
<trkpt lat="-27.0746323" lon="152.8721170">
<ele>35.638</ele>
<time>2017-09-12T23:45:58.604Z</time>
</trkpt>
<trkpt lat="-27.0741040" lon="152.8717130">
<ele>33.705</ele>
<time>2017-09-12T23:46:01.799Z</time>
</trkpt>
<trkpt lat="-27.0738248" lon="152.8714450">
<ele>33.108</ele>
<time>2017-09-12T23:46:03.839Z</time>
</trkpt>
<trkpt lat="-27.0733842" lon="152.8711777">
<ele>33.353</ele>
<time>2017-09-12T23:46:06.709Z</time>
</trkpt>
<trkpt lat="-27.0730643" lon="152.8710564">
<ele>34.360</ele>
<time>2017-09-12T23:46:08.549Z</time>
</trkpt>
<trkpt lat="-27.0724487" lon="152.8709914">
<ele>36.252</ele>
<time>2017-09-12T23:46:11.738Z</time>
</trkpt>
<trkpt lat="-27.0720507" lon="152.8710002">
<ele>39.022</ele>
<time>2017-09-12T23:46:13.666Z</time>
</trkpt>
<trkpt lat="-27.0716259" lon="152.8709931">
<ele>42.259</ele>
<time>2017-09-12T23:46:15.662Z</time>
</trkpt>
<trkpt lat="-27.0709694" lon="152.8709864">
<ele>44.933</ele>
<time>2017-09-12T23:46:18.701Z</time>
</trkpt>
<trkpt lat="-27.0705530" lon="152.8709358">
<ele>46.085</ele>
<time>2017-09-12T23:46:20.645Z</time>
</trkpt>
<trkpt lat="-27.0701311" lon="152.8708847">
<ele>45.570</ele>
<time>2017-09-12T23:46:22.668Z</time>
</trkpt>
<trkpt lat="-27.0695475" lon="152.8707864">
<ele>43.726</ele>
<time>2017-09-12T23:46:25.545Z</time>
</trkpt>
<trkpt lat="-27.0689723" lon="152.8706103">
<ele>41.000</ele>
<time>2017-09-12T23:46:28.512Z</time>
</trkpt>
<trkpt lat="-27.0685992" lon="152.8704643">
<ele>38.028</ele>
<time>2017-09-12T23:46:30.482Z</time>
</trkpt>
<trkpt lat="-27.0679951" lon="152.8701721">
<ele>35.713</ele>
<time>2017-09-12T23:46:33.756Z</time>
</trkpt>
<trkpt lat="-27.0676537" lon="152.8699970">
<ele>34.816</ele>
<time>2017-09-12T23:46:35.657Z</time>
</trkpt>
<trkpt lat="-27.0673003" lon="152.8698474">
<ele>35.455</ele>
<time>2017-09-12T23:46:37.623Z</time>
</trkpt>
<trkpt lat="-27.0667777" lon="152.8696112">
<ele>37.136</ele>
<time>2017-09-12T23:46:40.597Z</time>
</trkpt>
<trkpt lat="-27.0663691" lon="152.8694662">
<ele>39.304</ele>
<time>2017-09-12T23:46:42.871Z</time>
</trkpt>
<trkpt lat="-27.0660001" lon="152.8694488">
<ele>41.500</ele>
<time>2017-09-12T23:46:44.739Z</time>
</trkpt>
<trkpt lat="-27.0653895" lon="152.8695436">
<ele>43.170</ele>
<time>2017-09-12T23:46:47.770Z</time>
</trkpt>
<trkpt lat="-27.0647933" lon="152.8696797">
<ele>44.010</ele>
<time>2017-09-12T23:46:50.727Z</time>
</trkpt>
<trkpt lat="-27.0644031" lon="152.8697637">
<ele>43.870</ele>
<time>2017-09-12T23:46:52.701Z</time>
</trkpt>
<trkpt lat="-27.0640205" lon="152.8698459">
<ele>42.581</ele>
<time>2017-09-12T23:46:54.668Z</time>
</trkpt>
<trkpt lat="-27.0634447" lon="152.8699241">
<ele>40.417</ele>
<time>2017-09-12T23:46:57.602Z</time>
</trkpt>
<trkpt lat="-27.0630553" lon="152.8700025">
<ele>37.794</ele>
<time>2017-09-12T23:46:59.591Z</time>
</trkpt>
<trkpt lat="-27.0625226" lon="152.8702916">
<ele>35.025</ele>
<time>2017-09-12T23:47:02.528Z</time>
</trkpt>
<trkpt lat="-27.0622159" lon="152.8706008">
<ele>32.577</ele>
<time>2017-09-12T23:47:04.523Z</time>
</trkpt>
<trkpt lat="-27.0619346" lon="152.8709484">
<ele>30.839</ele>
<time>2017-09-12T23:47:06.543Z</time>
</trkpt>
<trkpt lat="-27.0615992" lon="152.8712213">
<ele>29.900</ele>
<time>2017-09-12T23:47:08.558Z</time>
</trkpt>
<trkpt lat="-27.0612264" lon="152.8714323">
<ele>29.573</ele>
<time>2017-09-12T23:47:10.574Z</time>
</trkpt>
<trkpt lat="-27.0606367" lon="152.8716429">
<ele>29.458</ele>
<time>2017-09-12T23:47:13.538Z</time>
</trkpt>
<trkpt lat="-27.0600154" lon="152.8716697">
<ele>29.292</ele>
<time>2017-09-12T23:47:16.532Z</time>
</trkpt>
<trkpt lat="-27.0596110" lon="152.8716312">
<ele>29.090</ele>
<time>2017-09-12T23:47:18.565Z</time>
</trkpt>
<trkpt lat="-27.0590457" lon="152.8715394">
<ele>29.013</ele>
<time>2017-09-12T23:47:21.485Z</time>
</trkpt>
<trkpt lat="-27.0584770" lon="152.8714673">
<ele>29.274</ele>
<time>2017-09-12T23:47:24.460Z</time>
</trkpt>
<trkpt lat="-27.0581092" lon="152.8713880">
<ele>29.984</ele>
<time>2017-09-12T23:47:26.419Z</time>
</trkpt>
<trkpt lat="-27.0575356" lon="152.8713641">
<ele>30.939</ele>
<time>2017-09-12T23:47:29.406Z</time>
</trkpt>
<trkpt lat="-27.0571538" lon="152.8713107">
<ele>31.795</ele>
<time>2017-09-12T23:47:31.366Z</time>
</trkpt>
<trkpt lat="-27.0565706" lon="152.8712324">
<ele>32.410</ele>
<time>2017-09-12T23:47:34.303Z</time>
</trkpt>
<trkpt lat="-27.0559669" lon="152.8711444">
<ele>32.872</ele>
<time>2017-09-12T23:47:37.324Z</time>
</trkpt>
<trkpt lat="-27.0555922" lon="152.8710678">
<ele>33.383</ele>
<time>2017-09-12T23:47:39.290Z</time>
</trkpt>
<trkpt lat="-27.0550446" lon="152.8710260">
<ele>34.131</ele>
<time>2017-09-12T23:47:42.165Z</time>
</trkpt>
<trkpt lat="-27.0546526" lon="152.8709684">
<ele>35.423</ele>
<time>2017-09-12T23:47:44.191Z</time>
</trkpt>
<trkpt lat="-27.0540610" lon="152.8708852">
<ele>37.481</ele>
<time>2017-09-12T23:47:47.142Z</time>
</trkpt>
<trkpt lat="-27.0534136" lon="152.8708068">
<ele>39.925</ele>
<time>2017-09-12T23:47:50.218Z</time>
</trkpt>
<trkpt lat="-27.0527605" lon="152.8707105">
<ele>41.909</ele>
<time>2017-09-12T23:47:53.274Z</time>
</trkpt>
<trkpt lat="-27.0523495" lon="152.8706550">
<ele>42.918</ele>
<time>2017-09-12T23:47:55.252Z</time>
</trkpt>
<trkpt lat="-27.0517387" lon="152.8705697">
<ele>43.198</ele>
<time>2017-09-12T23:47:58.311Z</time>
</trkpt>
<trkpt lat="-27.0513710" lon="152.8705234">
<ele>43.635</ele>
<time>2017-09-12T23:48:00.242Z</time>
</trkpt>
<trkpt lat="-27.0507980" lon="152.8704420">
<ele>44.889</ele>
<time>2017-09-12T23:48:03.258Z</time>
</trkpt>
<trkpt lat="-27.0502312" lon="152.8702962">
<ele>47.029</ele>
<time>2017-09-12T23:48:06.226Z</time>
</trkpt>
<trkpt lat="-27.0498657" lon="152.8701005">
<ele>49.874</ele>
<time>2017-09-12T23:48:08.268Z</time>
</trkpt>
<trkpt lat="-27.0495313" lon="152.8698980">
<ele>52.922</ele>
<time>2017-09-12T23:48:10.231Z</time>
</trkpt>
<trkpt lat="-27.0492077" lon="152.8696911">
<ele>55.319</ele>
<time>2017-09-12T23:48:12.229Z</time>
</trkpt>
<trkpt lat="-27.0488466" lon="152.8692854">
<ele>56.605</ele>
<time>2017-09-12T23:48:15.037Z</time>
</trkpt>
<trkpt lat="-27.0486128" lon="152.8689725">
<ele>56.900</ele>
<time>2017-09-12T23:48:17.099Z</time>
</trkpt>
<trkpt lat="-27.0483430" lon="152.8684663">
<ele>56.621</ele>
<time>2017-09-12T23:48:20.252Z</time>
</trkpt>
<trkpt lat="-27.0481221" lon="152.8680322">
<ele>56.227</ele>
<time>2017-09-12T23:48:23.210Z</time>
</trkpt>
<trkpt lat="-27.0478343" lon="152.8676792">
<ele>56.034</ele>
<time>2017-09-12T23:48:26.158Z</time>
</trkpt>
<trkpt lat="-27.0475135" lon="152.8673112">
<ele>56.263</ele>
<time>2017-09-12T23:48:29.218Z</time>
</trkpt>
<trkpt lat="-27.0471423" lon="152.8669679">
<ele>57.024</ele>
<time>2017-09-12T23:48:32.321Z</time>
</trkpt>
<trkpt lat="-27.0469122" lon="152.8667353">
<ele>58.093</ele>
<time>2017-09-12T23:48:34.337Z</time>
</trkpt>
<trkpt lat="-27.0465842" lon="152.8664231">
<ele>59.087</ele>
<time>2017-09-12T23:48:37.237Z</time>
</trkpt>
<trkpt lat="-27.0463840" lon="152.8662329">
<ele>59.890</ele>
<time>2017-09-12T23:48:39.113Z</time>
</trkpt>
<trkpt lat="-27.0462143" lon="152.8659756">
<ele>60.625</ele>
<time>2017-09-12T23:48:41.118Z</time>
</trkpt>
<trkpt lat="-27.0459586" lon="152.8657490">
<ele>61.381</ele>
<time>2017-09-12T23:48:43.252Z</time>
</trkpt>
<trkpt lat="-27.0456124" lon="152.8653587">
<ele>62.115</ele>
<time>2017-09-12T23:48:46.355Z</time>
</trkpt>
<trkpt lat="-27.0452620" lon="152.8650355">
<ele>62.681</ele>
<time>2017-09-12T23:48:49.244Z</time>
</trkpt>
<trkpt lat="-27.0450750" lon="152.8647726">
<ele>62.907</ele>
<time>2017-09-12T23:48:51.219Z</time>
</trkpt>
<trkpt lat="-27.0448522" lon="152.8643343">
<ele>62.817</ele>
<time>2017-09-12T23:48:54.243Z</time>
</trkpt>
<trkpt lat="-27.0446877" lon="152.8640646">
<ele>62.652</ele>
<time>2017-09-12T23:48:56.180Z</time>
</trkpt>
<trkpt lat="-27.0444412" lon="152.8635994">
<ele>62.644</ele>
<time>2017-09-12T23:48:59.285Z</time>
</trkpt>
<trkpt lat="-27.0442523" lon="152.8633172">
<ele>62.870</ele>
<time>2017-09-12T23:49:01.246Z</time>
</trkpt>
<trkpt lat="-27.0439638" lon="152.8628792">
<ele>63.252</ele>
<time>2017-09-12T23:49:04.258Z</time>
</trkpt>
<trkpt lat="-27.0436776" lon="152.8624406">
<ele>63.678</ele>
<time>2017-09-12T23:49:07.290Z</time>
</trkpt>
<trkpt lat="-27.0433727" lon="152.8620465">
<ele>64.213</ele>
<time>2017-09-12T23:49:10.269Z</time>
</trkpt>
<trkpt lat="-27.0430108" lon="152.8617191">
<ele>64.979</ele>
<time>2017-09-12T23:49:13.400Z</time>
</trkpt>
<trkpt lat="-27.0427492" lon="152.8614036">
<ele>65.921</ele>
<time>2017-09-12T23:49:16.201Z</time>
</trkpt>
<trkpt lat="-27.0425188" lon="152.8612727">
<ele>67.069</ele>
<time>2017-09-12T23:49:18.132Z</time>
</trkpt>
<trkpt lat="-27.0420624" lon="152.8612063">
<ele>68.626</ele>
<time>2017-09-12T23:49:21.435Z</time>
</trkpt>
<trkpt lat="-27.0417869" lon="152.8611393">
<ele>70.680</ele>
<time>2017-09-12T23:49:23.410Z</time>
</trkpt>
<trkpt lat="-27.0413714" lon="152.8611472">
<ele>72.938</ele>
<time>2017-09-12T23:49:26.355Z</time>
</trkpt>
<trkpt lat="-27.0410970" lon="152.8610956">
<ele>74.772</ele>
<time>2017-09-12T23:49:28.459Z</time>
</trkpt>
<trkpt lat="-27.0407736" lon="152.8609589">
<ele>75.737</ele>
<time>2017-09-12T23:49:31.380Z</time>
</trkpt>
<trkpt lat="-27.0406553" lon="152.8608012">
<ele>75.692</ele>
<time>2017-09-12T23:49:33.353Z</time>
</trkpt>
<trkpt lat="-27.0404996" lon="152.8606024">
<ele>74.594</ele>
<time>2017-09-12T23:49:36.586Z</time>
</trkpt>
<trkpt lat="-27.0404953" lon="152.8604843">
<ele>72.580</ele>
<time>2017-09-12T23:49:38.592Z</time>
</trkpt>
<trkpt lat="-27.0404196" lon="152.8603930">
<ele>69.990</ele>
<time>2017-09-12T23:49:41.440Z</time>
</trkpt>
<trkpt lat="-27.0402555" lon="152.8603959">
<ele>67.365</ele>
<time>2017-09-12T23:49:45.311Z</time>
</trkpt>
<trkpt lat="-27.0401435" lon="152.8603754">
<ele>65.328</ele>
<time>2017-09-12T23:49:48.351Z</time>
</trkpt>
<trkpt lat="-27.0400218" lon="152.8603805">
<ele>64.088</ele>
<time>2017-09-12T23:49:52.085Z</time>
</trkpt>
<trkpt lat="-27.0399623" lon="152.8606256">
<ele>63.414</ele>
<time>2017-09-12T23:49:55.796Z</time>
</trkpt>
<trkpt lat="-27.0400258" lon="152.8610033">
<ele>63.010</ele>
<time>2017-09-12T23:49:59.194Z</time>
</trkpt>
<trkpt lat="-27.0400898" lon="152.8613830">
<ele>62.715</ele>
<time>2017-09-12T23:50:02.146Z</time>
</trkpt>
<trkpt lat="-27.0400099" lon="152.8616489">
<ele>62.431</ele>
<time>2017-09-12T23:50:04.249Z</time>
</trkpt>
<trkpt lat="-27.0399583" lon="152.8620023">
<ele>62.109</ele>
<time>2017-09-12T23:50:07.191Z</time>
</trkpt>
<trkpt lat="-27.0399336" lon="152.8622990">
<ele>61.655</ele>
<time>2017-09-12T23:50:09.946Z</time>
</trkpt>
<trkpt lat="-27.0398825" lon="152.8625953">
<ele>60.932</ele>
<time>2017-09-12T23:50:12.737Z</time>
</trkpt>
<trkpt lat="-27.0398294" lon="152.8628267">
<ele>60.016</ele>
<time>2017-09-12T23:50:14.724Z</time>
</trkpt>
<trkpt lat="-27.0398363" lon="152.8630918">
<ele>59.149</ele>
<time>2017-09-12T23:50:16.886Z</time>
</trkpt>
<trkpt lat="-27.0397654" lon="152.8633171">
<ele>58.360</ele>
<time>2017-09-12T23:50:18.908Z</time>
</trkpt>
<trkpt lat="-27.0397244" lon="152.8635354">
<ele>57.485</ele>
<time>2017-09-12T23:50:21.012Z</time>
</trkpt>
<trkpt lat="-27.0396557" lon="152.8638099">
<ele>56.445</ele>
<time>2017-09-12T23:50:24.295Z</time>
</trkpt>
<trkpt lat="-27.0395258" lon="152.8639546">
<ele>55.270</ele>
<time>2017-09-12T23:50:27.045Z</time>
</trkpt>
<trkpt lat="-27.0392742" lon="152.8637896">
<ele>53.955</ele>
<time>2017-09-12T23:50:31.248Z</time>
</trkpt>
<trkpt lat="-27.0390982" lon="152.8637587">
<ele>52.543</ele>
<time>2017-09-12T23:50:34.082Z</time>
</trkpt>
<trkpt lat="-27.0389666" lon="152.8637943">
<ele>51.234</ele>
<time>2017-09-12T23:50:36.218Z</time>
</trkpt>
<trkpt lat="-27.0388853" lon="152.8639921">
<ele>50.159</ele>
<time>2017-09-12T23:50:38.511Z</time>
</trkpt>
<trkpt lat="-27.0388948" lon="152.8643501">
<ele>49.234</ele>
<time>2017-09-12T23:50:41.584Z</time>
</trkpt>
<trkpt lat="-27.0389494" lon="152.8646060">
<ele>48.336</ele>
<time>2017-09-12T23:50:43.733Z</time>
</trkpt>
<trkpt lat="-27.0390169" lon="152.8649386">
<ele>47.451</ele>
<time>2017-09-12T23:50:46.968Z</time>
</trkpt>
<trkpt lat="-27.0390504" lon="152.8651304">
<ele>46.664</ele>
<time>2017-09-12T23:50:49.168Z</time>
</trkpt>
<trkpt lat="-27.0390957" lon="152.8652813">
<ele>46.089</ele>
<time>2017-09-12T23:50:51.034Z</time>
</trkpt>
<trkpt lat="-27.0390326" lon="152.8654986">
<ele>45.789</ele>
<time>2017-09-12T23:50:53.268Z</time>
</trkpt>
<trkpt lat="-27.0387010" lon="152.8655269">
<ele>45.814</ele>
<time>2017-09-12T23:50:56.215Z</time>
</trkpt>
<trkpt lat="-27.0384114" lon="152.8655831">
<ele>46.225</ele>
<time>2017-09-12T23:50:58.364Z</time>
</trkpt>
<trkpt lat="-27.0381467" lon="152.8656721">
<ele>46.969</ele>
<time>2017-09-12T23:51:00.213Z</time>
</trkpt>
<trkpt lat="-27.0378412" lon="152.8657186">
<ele>47.864</ele>
<time>2017-09-12T23:51:02.120Z</time>
</trkpt>
<trkpt lat="-27.0374961" lon="152.8657794">
<ele>48.768</ele>
<time>2017-09-12T23:51:04.134Z</time>
</trkpt>
<trkpt lat="-27.0369620" lon="152.8658838">
<ele>49.628</ele>
<time>2017-09-12T23:51:07.145Z</time>
</trkpt>
<trkpt lat="-27.0366003" lon="152.8659593">
<ele>50.387</ele>
<time>2017-09-12T23:51:09.142Z</time>
</trkpt>
<trkpt lat="-27.0360594" lon="152.8660144">
<ele>50.921</ele>
<time>2017-09-12T23:51:12.091Z</time>
</trkpt>
<trkpt lat="-27.0355072" lon="152.8661208">
<ele>51.006</ele>
<time>2017-09-12T23:51:15.060Z</time>
</trkpt>
<trkpt lat="-27.0351286" lon="152.8662219">
<ele>50.326</ele>
<time>2017-09-12T23:51:17.026Z</time>
</trkpt>
<trkpt lat="-27.0347322" lon="152.8663046">
<ele>48.861</ele>
<time>2017-09-12T23:51:19.045Z</time>
</trkpt>
<trkpt lat="-27.0343288" lon="152.8663392">
<ele>47.142</ele>
<time>2017-09-12T23:51:21.064Z</time>
</trkpt>
<trkpt lat="-27.0339331" lon="152.8664132">
<ele>45.831</ele>
<time>2017-09-12T23:51:23.097Z</time>
</trkpt>
<trkpt lat="-27.0333577" lon="152.8664694">
<ele>45.366</ele>
<time>2017-09-12T23:51:26.091Z</time>
</trkpt>
<trkpt lat="-27.0329997" lon="152.8666161">
<ele>46.033</ele>
<time>2017-09-12T23:51:28.129Z</time>
</trkpt>
<trkpt lat="-27.0324632" lon="152.8667928">
<ele>47.666</ele>
<time>2017-09-12T23:51:31.150Z</time>
</trkpt>
<trkpt lat="-27.0321236" lon="152.8669605">
<ele>49.523</ele>
<time>2017-09-12T23:51:33.175Z</time>
</trkpt>
<trkpt lat="-27.0316203" lon="152.8671709">
<ele>50.861</ele>
<time>2017-09-12T23:51:36.148Z</time>
</trkpt>
<trkpt lat="-27.0311153" lon="152.8673450">
<ele>51.444</ele>
<time>2017-09-12T23:51:39.061Z</time>
</trkpt>
<trkpt lat="-27.0307825" lon="152.8675240">
<ele>51.482</ele>
<time>2017-09-12T23:51:40.991Z</time>
</trkpt>
<trkpt lat="-27.0304596" lon="152.8677846">
<ele>51.331</ele>
<time>2017-09-12T23:51:42.957Z</time>
</trkpt>
<trkpt lat="-27.0301466" lon="152.8681061">
<ele>51.188</ele>
<time>2017-09-12T23:51:44.975Z</time>
</trkpt>
<trkpt lat="-27.0298162" lon="152.8683941">
<ele>50.929</ele>
<time>2017-09-12T23:51:46.919Z</time>
</trkpt>
<trkpt lat="-27.0292747" lon="152.8688332">
<ele>50.236</ele>
<time>2017-09-12T23:51:49.987Z</time>
</trkpt>
<trkpt lat="-27.0289210" lon="152.8691250">
<ele>48.903</ele>
<time>2017-09-12T23:51:52.035Z</time>
</trkpt>
<trkpt lat="-27.0285367" lon="152.8693094">
<ele>47.099</ele>
<time>2017-09-12T23:51:54.072Z</time>
</trkpt>
<trkpt lat="-27.0279565" lon="152.8694516">
<ele>45.281</ele>
<time>2017-09-12T23:51:57.056Z</time>
</trkpt>
<trkpt lat="-27.0273803" lon="152.8695312">
<ele>43.817</ele>
<time>2017-09-12T23:52:00.073Z</time>
</trkpt>
<trkpt lat="-27.0270116" lon="152.8696005">
<ele>42.857</ele>
<time>2017-09-12T23:52:02.044Z</time>
</trkpt>
<trkpt lat="-27.0264438" lon="152.8697384">
<ele>42.511</ele>
<time>2017-09-12T23:52:05.082Z</time>
</trkpt>
<trkpt lat="-27.0260563" lon="152.8697914">
<ele>42.698</ele>
<time>2017-09-12T23:52:07.055Z</time>
</trkpt>
<trkpt lat="-27.0254532" lon="152.8698974">
<ele>43.078</ele>
<time>2017-09-12T23:52:10.120Z</time>
</trkpt>
<trkpt lat="-27.0250761" lon="152.8699706">
<ele>43.305</ele>
<time>2017-09-12T23:52:12.053Z</time>
</trkpt>
<trkpt lat="-27.0244944" lon="152.8700847">
<ele>43.187</ele>
<time>2017-09-12T23:52:15.046Z</time>
</trkpt>
<trkpt lat="-27.0241179" lon="152.8701784">
<ele>42.600</ele>
<time>2017-09-12T23:52:17.012Z</time>
</trkpt>
<trkpt lat="-27.0237275" lon="152.8702440">
<ele>41.549</ele>
<time>2017-09-12T23:52:19.026Z</time>
</trkpt>
<trkpt lat="-27.0233317" lon="152.8703082">
<ele>40.330</ele>
<time>2017-09-12T23:52:21.155Z</time>
</trkpt>
<trkpt lat="-27.0228204" lon="152.8704328">
<ele>39.383</ele>
<time>2017-09-12T23:52:24.024Z</time>
</trkpt>
<trkpt lat="-27.0224946" lon="152.8706179">
<ele>39.212</ele>
<time>2017-09-12T23:52:26.018Z</time>
</trkpt>
<trkpt lat="-27.0220753" lon="152.8710266">
<ele>40.178</ele>
<time>2017-09-12T23:52:29.020Z</time>
</trkpt>
<trkpt lat="-27.0216983" lon="152.8714843">
<ele>42.022</ele>
<time>2017-09-12T23:52:32.011Z</time>
</trkpt>
<trkpt lat="-27.0214227" lon="152.8717611">
<ele>43.853</ele>
<time>2017-09-12T23:52:34.018Z</time>
</trkpt>
<trkpt lat="-27.0209963" lon="152.8721564">
<ele>44.779</ele>
<time>2017-09-12T23:52:36.982Z</time>
</trkpt>
<trkpt lat="-27.0206332" lon="152.8723043">
<ele>44.340</ele>
<time>2017-09-12T23:52:38.922Z</time>
</trkpt>
<trkpt lat="-27.0200114" lon="152.8723913">
<ele>42.829</ele>
<time>2017-09-12T23:52:42.055Z</time>
</trkpt>
<trkpt lat="-27.0196220" lon="152.8724474">
<ele>41.190</ele>
<time>2017-09-12T23:52:44.139Z</time>
</trkpt>
<trkpt lat="-27.0190909" lon="152.8725626">
<ele>40.199</ele>
<time>2017-09-12T23:52:47.040Z</time>
</trkpt>
<trkpt lat="-27.0185372" lon="152.8726205">
<ele>39.971</ele>
<time>2017-09-12T23:52:49.944Z</time>
</trkpt>
<trkpt lat="-27.0179524" lon="152.8727652">
<ele>40.478</ele>
<time>2017-09-12T23:52:52.955Z</time>
</trkpt>
<trkpt lat="-27.0173530" lon="152.8728593">
<ele>41.758</ele>
<time>2017-09-12T23:52:56.027Z</time>
</trkpt>
<trkpt lat="-27.0168025" lon="152.8729456">
<ele>43.529</ele>
<time>2017-09-12T23:52:58.999Z</time>
</trkpt>
<trkpt lat="-27.0162733" lon="152.8730639">
<ele>45.272</ele>
<time>2017-09-12T23:53:01.942Z</time>
</trkpt>
<trkpt lat="-27.0159096" lon="152.8731108">
<ele>46.631</ele>
<time>2017-09-12T23:53:03.815Z</time>
</trkpt>
<trkpt lat="-27.0153053" lon="152.8731903">
<ele>47.441</ele>
<time>2017-09-12T23:53:06.811Z</time>
</trkpt>
<trkpt lat="-27.0148939" lon="152.8733156">
<ele>47.668</ele>
<time>2017-09-12T23:53:08.835Z</time>
</trkpt>
<trkpt lat="-27.0142698" lon="152.8734396">
<ele>47.384</ele>
<time>2017-09-12T23:53:11.875Z</time>
</trkpt>
<trkpt lat="-27.0136732" lon="152.8735358">
<ele>46.660</ele>
<time>2017-09-12T23:53:14.862Z</time>
</trkpt>
<trkpt lat="-27.0131146" lon="152.8736845">
<ele>45.651</ele>
<time>2017-09-12T23:53:17.823Z</time>
</trkpt>
<trkpt lat="-27.0125666" lon="152.8738198">
<ele>44.699</ele>
<time>2017-09-12T23:53:20.788Z</time>
</trkpt>
<trkpt lat="-27.0121982" lon="152.8738980">
<ele>44.075</ele>
<time>2017-09-12T23:53:22.809Z</time>
</trkpt>
<trkpt lat="-27.0116486" lon="152.8739192">
<ele>43.745</ele>
<time>2017-09-12T23:53:25.854Z</time>
</trkpt>
<trkpt lat="-27.0111541" lon="152.8740392">
<ele>43.489</ele>
<time>2017-09-12T23:53:28.841Z</time>
</trkpt>
<trkpt lat="-27.0108620" lon="152.8740892">
<ele>43.051</ele>
<time>2017-09-12T23:53:30.770Z</time>
</trkpt>
<trkpt lat="-27.0104336" lon="152.8742128">
<ele>42.431</ele>
<time>2017-09-12T23:53:33.623Z</time>
</trkpt>
<trkpt lat="-27.0099305" lon="152.8742433">
<ele>41.917</ele>
<time>2017-09-12T23:53:36.692Z</time>
</trkpt>
<trkpt lat="-27.0094205" lon="152.8743337">
<ele>41.689</ele>
<time>2017-09-12T23:53:39.694Z</time>
</trkpt>
<trkpt lat="-27.0090773" lon="152.8744105">
<ele>41.569</ele>
<time>2017-09-12T23:53:41.709Z</time>
</trkpt>
<trkpt lat="-27.0087448" lon="152.8744622">
<ele>41.322</ele>
<time>2017-09-12T23:53:43.681Z</time>
</trkpt>
<trkpt lat="-27.0084171" lon="152.8745411">
<ele>40.977</ele>
<time>2017-09-12T23:53:45.703Z</time>
</trkpt>
<trkpt lat="-27.0079246" lon="152.8746217">
<ele>40.714</ele>
<time>2017-09-12T23:53:48.760Z</time>
</trkpt>
<trkpt lat="-27.0076373" lon="152.8746700">
<ele>40.618</ele>
<time>2017-09-12T23:53:50.632Z</time>
</trkpt>
<trkpt lat="-27.0072051" lon="152.8747064">
<ele>40.691</ele>
<time>2017-09-12T23:53:53.634Z</time>
</trkpt>
<trkpt lat="-27.0068590" lon="152.8747801">
<ele>40.892</ele>
<time>2017-09-12T23:53:56.462Z</time>
</trkpt>
<trkpt lat="-27.0065397" lon="152.8748316">
<ele>41.136</ele>
<time>2017-09-12T23:53:59.372Z</time>
</trkpt>
<trkpt lat="-27.0063176" lon="152.8748723">
<ele>41.394</ele>
<time>2017-09-12T23:54:01.380Z</time>
</trkpt>
<trkpt lat="-27.0060802" lon="152.8749445">
<ele>41.746</ele>
<time>2017-09-12T23:54:03.467Z</time>
</trkpt>
<trkpt lat="-27.0057006" lon="152.8749378">
<ele>42.261</ele>
<time>2017-09-12T23:54:06.625Z</time>
</trkpt>
<trkpt lat="-27.0054737" lon="152.8749982">
<ele>42.961</ele>
<time>2017-09-12T23:54:08.591Z</time>
</trkpt>
<trkpt lat="-27.0052564" lon="152.8750811">
<ele>43.809</ele>
<time>2017-09-12T23:54:10.541Z</time>
</trkpt>
<trkpt lat="-27.0049019" lon="152.8751113">
<ele>44.654</ele>
<time>2017-09-12T23:54:13.528Z</time>
</trkpt>
<trkpt lat="-27.0046603" lon="152.8751305">
<ele>45.471</ele>
<time>2017-09-12T23:54:15.534Z</time>
</trkpt>
<trkpt lat="-27.0043136" lon="152.8752404">
<ele>46.383</ele>
<time>2017-09-12T23:54:18.569Z</time>
</trkpt>
<trkpt lat="-27.0039760" lon="152.8752794">
<ele>47.402</ele>
<time>2017-09-12T23:54:21.526Z</time>
</trkpt>
<trkpt lat="-27.0037583" lon="152.8753430">
<ele>48.455</ele>
<time>2017-09-12T23:54:23.541Z</time>
</trkpt>
<trkpt lat="-27.0035415" lon="152.8753685">
<ele>49.453</ele>
<time>2017-09-12T23:54:25.551Z</time>
</trkpt>
<trkpt lat="-27.0032365" lon="152.8754302">
<ele>50.285</ele>
<time>2017-09-12T23:54:28.503Z</time>
</trkpt>
<trkpt lat="-27.0029413" lon="152.8754799">
<ele>50.974</ele>
<time>2017-09-12T23:54:31.520Z</time>
</trkpt>
<trkpt lat="-27.0026711" lon="152.8754961">
<ele>51.619</ele>
<time>2017-09-12T23:54:34.514Z</time>
</trkpt>
<trkpt lat="-27.0024567" lon="152.8755908">
<ele>52.196</ele>
<time>2017-09-12T23:54:37.325Z</time>
</trkpt>
<trkpt lat="-27.0022363" lon="152.8755881">
<ele>52.607</ele>
<time>2017-09-12T23:54:40.371Z</time>
</trkpt>
<trkpt lat="-27.0020899" lon="152.8756755">
<ele>52.832</ele>
<time>2017-09-12T23:54:43.531Z</time>
</trkpt>
<trkpt lat="-27.0019962" lon="152.8756584">
<ele>52.901</ele>
<time>2017-09-12T23:54:45.998Z</time>
</trkpt>
<trkpt lat="-27.0019962" lon="152.8756584">
<ele>52.876</ele>
<time>2017-09-12T23:54:47.998Z</time>
</trkpt>
<trkpt lat="-27.0019962" lon="152.8756584">
<ele>52.832</ele>
<time>2017-09-12T23:55:26.119Z</time>
</trkpt>
<trkpt lat="-27.0018242" lon="152.8757152">
<ele>52.809</ele>
<time>2017-09-12T23:55:32.879Z</time>
</trkpt>
<trkpt lat="-27.0016554" lon="152.8757346">
<ele>52.806</ele>
<time>2017-09-12T23:55:35.852Z</time>
</trkpt>
<trkpt lat="-27.0014467" lon="152.8757553">
<ele>52.839</ele>
<time>2017-09-12T23:55:39.024Z</time>
</trkpt>
<trkpt lat="-27.0013079" lon="152.8757934">
<ele>52.921</ele>
<time>2017-09-12T23:55:41.125Z</time>
</trkpt>
<trkpt lat="-27.0011701" lon="152.8758243">
<ele>53.004</ele>
<time>2017-09-12T23:55:43.004Z</time>
</trkpt>
<trkpt lat="-27.0009977" lon="152.8758532">
<ele>53.042</ele>
<time>2017-09-12T23:55:45.069Z</time>
</trkpt>
<trkpt lat="-27.0008297" lon="152.8758757">
<ele>53.021</ele>
<time>2017-09-12T23:55:46.979Z</time>
</trkpt>
<trkpt lat="-27.0006465" lon="152.8759296">
<ele>52.903</ele>
<time>2017-09-12T23:55:48.928Z</time>
</trkpt>
<trkpt lat="-27.0003378" lon="152.8759686">
<ele>52.605</ele>
<time>2017-09-12T23:55:51.968Z</time>
</trkpt>
<trkpt lat="-27.0000317" lon="152.8760225">
<ele>51.977</ele>
<time>2017-09-12T23:55:54.836Z</time>
</trkpt>
<trkpt lat="-26.9998043" lon="152.8760717">
<ele>50.846</ele>
<time>2017-09-12T23:55:56.837Z</time>
</trkpt>
<trkpt lat="-26.9994564" lon="152.8761413">
<ele>49.275</ele>
<time>2017-09-12T23:55:59.795Z</time>
</trkpt>
<trkpt lat="-26.9990894" lon="152.8762324">
<ele>47.522</ele>
<time>2017-09-12T23:56:02.791Z</time>
</trkpt>
<trkpt lat="-26.9988257" lon="152.8762785">
<ele>45.868</ele>
<time>2017-09-12T23:56:04.786Z</time>
</trkpt>
<trkpt lat="-26.9985518" lon="152.8763079">
<ele>44.664</ele>
<time>2017-09-12T23:56:06.797Z</time>
</trkpt>
<trkpt lat="-26.9981375" lon="152.8763664">
<ele>44.183</ele>
<time>2017-09-12T23:56:09.852Z</time>
</trkpt>
<trkpt lat="-26.9978705" lon="152.8764143">
<ele>44.442</ele>
<time>2017-09-12T23:56:11.799Z</time>
</trkpt>
<trkpt lat="-26.9974523" lon="152.8764890">
<ele>45.228</ele>
<time>2017-09-12T23:56:14.734Z</time>
</trkpt>
<trkpt lat="-26.9971396" lon="152.8765460">
<ele>46.093</ele>
<time>2017-09-12T23:56:16.696Z</time>
</trkpt>
<trkpt lat="-26.9966259" lon="152.8766524">
<ele>46.643</ele>
<time>2017-09-12T23:56:19.714Z</time>
</trkpt>
<trkpt lat="-26.9960749" lon="152.8767514">
<ele>46.829</ele>
<time>2017-09-12T23:56:22.758Z</time>
</trkpt>
<trkpt lat="-26.9957045" lon="152.8767915">
<ele>46.895</ele>
<time>2017-09-12T23:56:24.798Z</time>
</trkpt>
<trkpt lat="-26.9951742" lon="152.8768847">
<ele>47.178</ele>
<time>2017-09-12T23:56:27.692Z</time>
</trkpt>
<trkpt lat="-26.9947757" lon="152.8769372">
<ele>47.764</ele>
<time>2017-09-12T23:56:29.673Z</time>
</trkpt>
<trkpt lat="-26.9943410" lon="152.8770247">
<ele>48.396</ele>
<time>2017-09-12T23:56:31.751Z</time>
</trkpt>
<trkpt lat="-26.9939224" lon="152.8771117">
<ele>48.850</ele>
<time>2017-09-12T23:56:33.803Z</time>
</trkpt>
<trkpt lat="-26.9933400" lon="152.8771826">
<ele>49.104</ele>
<time>2017-09-12T23:56:36.716Z</time>
</trkpt>
<trkpt lat="-26.9927647" lon="152.8772689">
<ele>49.170</ele>
<time>2017-09-12T23:56:39.673Z</time>
</trkpt>
<trkpt lat="-26.9923840" lon="152.8773570">
<ele>49.065</ele>
<time>2017-09-12T23:56:41.694Z</time>
</trkpt>
<trkpt lat="-26.9918304" lon="152.8774608">
<ele>48.900</ele>
<time>2017-09-12T23:56:44.671Z</time>
</trkpt>
<trkpt lat="-26.9914806" lon="152.8775591">
<ele>48.995</ele>
<time>2017-09-12T23:56:46.620Z</time>
</trkpt>
<trkpt lat="-26.9909428" lon="152.8776506">
<ele>49.645</ele>
<time>2017-09-12T23:56:49.517Z</time>
</trkpt>
<trkpt lat="-26.9905578" lon="152.8777529">
<ele>50.803</ele>
<time>2017-09-12T23:56:51.561Z</time>
</trkpt>
<trkpt lat="-26.9899854" lon="152.8778495">
<ele>52.170</ele>
<time>2017-09-12T23:56:54.562Z</time>
</trkpt>
<trkpt lat="-26.9896192" lon="152.8779032">
<ele>53.518</ele>
<time>2017-09-12T23:56:56.492Z</time>
</trkpt>
<trkpt lat="-26.9890399" lon="152.8779893">
<ele>54.661</ele>
<time>2017-09-12T23:56:59.518Z</time>
</trkpt>
<trkpt lat="-26.9886620" lon="152.8781135">
<ele>55.463</ele>
<time>2017-09-12T23:57:01.558Z</time>
</trkpt>
<trkpt lat="-26.9880806" lon="152.8781983">
<ele>56.004</ele>
<time>2017-09-12T23:57:04.641Z</time>
</trkpt>
<trkpt lat="-26.9877459" lon="152.8782633">
<ele>56.718</ele>
<time>2017-09-12T23:57:06.448Z</time>
</trkpt>
<trkpt lat="-26.9873781" lon="152.8783264">
<ele>57.826</ele>
<time>2017-09-12T23:57:08.412Z</time>
</trkpt>
<trkpt lat="-26.9870028" lon="152.8784120">
<ele>58.937</ele>
<time>2017-09-12T23:57:10.417Z</time>
</trkpt>
<trkpt lat="-26.9866288" lon="152.8784801">
<ele>59.479</ele>
<time>2017-09-12T23:57:12.415Z</time>
</trkpt>
<trkpt lat="-26.9860869" lon="152.8785606">
<ele>59.170</ele>
<time>2017-09-12T23:57:15.384Z</time>
</trkpt>
<trkpt lat="-26.9855907" lon="152.8787107">
<ele>57.837</ele>
<time>2017-09-12T23:57:18.357Z</time>
</trkpt>
<trkpt lat="-26.9853230" lon="152.8788956">
<ele>55.417</ele>
<time>2017-09-12T23:57:20.304Z</time>
</trkpt>
<trkpt lat="-26.9851662" lon="152.8794092">
<ele>52.342</ele>
<time>2017-09-12T23:57:23.273Z</time>
</trkpt>
<trkpt lat="-26.9852301" lon="152.8798220">
<ele>49.306</ele>
<time>2017-09-12T23:57:25.289Z</time>
</trkpt>
<trkpt lat="-26.9852902" lon="152.8805416">
<ele>46.945</ele>
<time>2017-09-12T23:57:28.465Z</time>
</trkpt>
<trkpt lat="-26.9853654" lon="152.8809971">
<ele>45.744</ele>
<time>2017-09-12T23:57:30.481Z</time>
</trkpt>
<trkpt lat="-26.9854636" lon="152.8816420">
<ele>45.691</ele>
<time>2017-09-12T23:57:33.423Z</time>
</trkpt>
<trkpt lat="-26.9855100" lon="152.8820574">
<ele>46.265</ele>
<time>2017-09-12T23:57:35.378Z</time>
</trkpt>
<trkpt lat="-26.9855983" lon="152.8824689">
<ele>46.958</ele>
<time>2017-09-12T23:57:37.373Z</time>
</trkpt>
<trkpt lat="-26.9857054" lon="152.8830985">
<ele>47.506</ele>
<time>2017-09-12T23:57:40.383Z</time>
</trkpt>
<trkpt lat="-26.9857568" lon="152.8835206">
<ele>47.860</ele>
<time>2017-09-12T23:57:42.351Z</time>
</trkpt>
<trkpt lat="-26.9858190" lon="152.8839590">
<ele>47.995</ele>
<time>2017-09-12T23:57:44.336Z</time>
</trkpt>
<trkpt lat="-26.9858619" lon="152.8844220">
<ele>47.915</ele>
<time>2017-09-12T23:57:46.326Z</time>
</trkpt>
<trkpt lat="-26.9859401" lon="152.8848980">
<ele>47.724</ele>
<time>2017-09-12T23:57:48.324Z</time>
</trkpt>
<trkpt lat="-26.9860042" lon="152.8853881">
<ele>47.500</ele>
<time>2017-09-12T23:57:50.331Z</time>
</trkpt>
<trkpt lat="-26.9861304" lon="152.8861358">
<ele>47.202</ele>
<time>2017-09-12T23:57:53.424Z</time>
</trkpt>
<trkpt lat="-26.9861931" lon="152.8866213">
<ele>46.571</ele>
<time>2017-09-12T23:57:55.437Z</time>
</trkpt>
<trkpt lat="-26.9862850" lon="152.8873181">
<ele>45.431</ele>
<time>2017-09-12T23:57:58.342Z</time>
</trkpt>
<trkpt lat="-26.9863777" lon="152.8880205">
<ele>44.060</ele>
<time>2017-09-12T23:58:01.306Z</time>
</trkpt>
<trkpt lat="-26.9864477" lon="152.8884619">
<ele>42.848</ele>
<time>2017-09-12T23:58:03.149Z</time>
</trkpt>
<trkpt lat="-26.9865701" lon="152.8891922">
<ele>41.989</ele>
<time>2017-09-12T23:58:06.088Z</time>
</trkpt>
<trkpt lat="-26.9866292" lon="152.8897207">
<ele>41.695</ele>
<time>2017-09-12T23:58:08.121Z</time>
</trkpt>
<trkpt lat="-26.9866954" lon="152.8902165">
<ele>42.318</ele>
<time>2017-09-12T23:58:10.075Z</time>
</trkpt>
<trkpt lat="-26.9868113" lon="152.8909465">
<ele>43.960</ele>
<time>2017-09-12T23:58:13.064Z</time>
</trkpt>
<trkpt lat="-26.9868597" lon="152.8916380">
<ele>46.115</ele>
<time>2017-09-12T23:58:15.981Z</time>
</trkpt>
<trkpt lat="-26.9869385" lon="152.8920893">
<ele>48.031</ele>
<time>2017-09-12T23:58:17.933Z</time>
</trkpt>
<trkpt lat="-26.9870462" lon="152.8925718">
<ele>49.231</ele>
<time>2017-09-12T23:58:19.994Z</time>
</trkpt>
<trkpt lat="-26.9871382" lon="152.8933046">
<ele>49.643</ele>
<time>2017-09-12T23:58:22.976Z</time>
</trkpt>
<trkpt lat="-26.9872277" lon="152.8940746">
<ele>49.330</ele>
<time>2017-09-12T23:58:25.972Z</time>
</trkpt>
<trkpt lat="-26.9872746" lon="152.8946181">
<ele>48.401</ele>
<time>2017-09-12T23:58:28.006Z</time>
</trkpt>
<trkpt lat="-26.9874083" lon="152.8954008">
<ele>47.300</ele>
<time>2017-09-12T23:58:30.980Z</time>
</trkpt>
<trkpt lat="-26.9875240" lon="152.8961628">
<ele>46.493</ele>
<time>2017-09-12T23:58:33.906Z</time>
</trkpt>
<trkpt lat="-26.9876505" lon="152.8969406">
<ele>46.056</ele>
<time>2017-09-12T23:58:36.894Z</time>
</trkpt>
<trkpt lat="-26.9877392" lon="152.8974684">
<ele>45.875</ele>
<time>2017-09-12T23:58:38.872Z</time>
</trkpt>
<trkpt lat="-26.9878420" lon="152.8983142">
<ele>45.699</ele>
<time>2017-09-12T23:58:41.926Z</time>
</trkpt>
<trkpt lat="-26.9879403" lon="152.8988793">
<ele>45.202</ele>
<time>2017-09-12T23:58:43.944Z</time>
</trkpt>
<trkpt lat="-26.9880580" lon="152.8997259">
<ele>44.303</ele>
<time>2017-09-12T23:58:46.934Z</time>
</trkpt>
<trkpt lat="-26.9881267" lon="152.9002951">
<ele>43.121</ele>
<time>2017-09-12T23:58:48.922Z</time>
</trkpt>
<trkpt lat="-26.9882517" lon="152.9011514">
<ele>41.933</ele>
<time>2017-09-12T23:58:51.911Z</time>
</trkpt>
<trkpt lat="-26.9883184" lon="152.9017089">
<ele>41.150</ele>
<time>2017-09-12T23:58:53.844Z</time>
</trkpt>
<trkpt lat="-26.9884416" lon="152.9025776">
<ele>40.923</ele>
<time>2017-09-12T23:58:56.834Z</time>
</trkpt>
<trkpt lat="-26.9885245" lon="152.9031685">
<ele>41.098</ele>
<time>2017-09-12T23:58:58.820Z</time>
</trkpt>
<trkpt lat="-26.9886476" lon="152.9040624">
<ele>41.459</ele>
<time>2017-09-12T23:59:01.797Z</time>
</trkpt>
<trkpt lat="-26.9887699" lon="152.9049382">
<ele>41.708</ele>
<time>2017-09-12T23:59:04.750Z</time>
</trkpt>
<trkpt lat="-26.9888491" lon="152.9054941">
<ele>41.482</ele>
<time>2017-09-12T23:59:06.698Z</time>
</trkpt>
<trkpt lat="-26.9889665" lon="152.9063018">
<ele>40.594</ele>
<time>2017-09-12T23:59:09.620Z</time>
</trkpt>
<trkpt lat="-26.9890438" lon="152.9068267">
<ele>39.183</ele>
<time>2017-09-12T23:59:11.577Z</time>
</trkpt>
<trkpt lat="-26.9891603" lon="152.9076157">
<ele>37.612</ele>
<time>2017-09-12T23:59:14.563Z</time>
</trkpt>
<trkpt lat="-26.9892328" lon="152.9081161">
<ele>36.223</ele>
<time>2017-09-12T23:59:16.490Z</time>
</trkpt>
<trkpt lat="-26.9893051" lon="152.9086229">
<ele>35.230</ele>
<time>2017-09-12T23:59:18.464Z</time>
</trkpt>
<trkpt lat="-26.9893583" lon="152.9091388">
<ele>34.631</ele>
<time>2017-09-12T23:59:20.468Z</time>
</trkpt>
<trkpt lat="-26.9893290" lon="152.9096411">
<ele>34.219</ele>
<time>2017-09-12T23:59:22.400Z</time>
</trkpt>
<trkpt lat="-26.9892516" lon="152.9101586">
<ele>33.765</ele>
<time>2017-09-12T23:59:24.400Z</time>
</trkpt>
<trkpt lat="-26.9891178" lon="152.9109127">
<ele>33.272</ele>
<time>2017-09-12T23:59:27.357Z</time>
</trkpt>
<trkpt lat="-26.9891019" lon="152.9116702">
<ele>32.862</ele>
<time>2017-09-12T23:59:30.326Z</time>
</trkpt>
<trkpt lat="-26.9892074" lon="152.9121705">
<ele>32.593</ele>
<time>2017-09-12T23:59:32.311Z</time>
</trkpt>
<trkpt lat="-26.9895538" lon="152.9128903">
<ele>32.599</ele>
<time>2017-09-12T23:59:35.364Z</time>
</trkpt>
<trkpt lat="-26.9898407" lon="152.9133478">
<ele>33.255</ele>
<time>2017-09-12T23:59:37.389Z</time>
</trkpt>
<trkpt lat="-26.9902542" lon="152.9140331">
<ele>34.792</ele>
<time>2017-09-12T23:59:40.377Z</time>
</trkpt>
<trkpt lat="-26.9906507" lon="152.9146886">
<ele>37.033</ele>
<time>2017-09-12T23:59:43.310Z</time>
</trkpt>
<trkpt lat="-26.9909113" lon="152.9151235">
<ele>39.432</ele>
<time>2017-09-12T23:59:45.297Z</time>
</trkpt>
<trkpt lat="-26.9911766" lon="152.9155605">
<ele>41.241</ele>
<time>2017-09-12T23:59:47.305Z</time>
</trkpt>
<trkpt lat="-26.9914483" lon="152.9160034">
<ele>42.034</ele>
<time>2017-09-12T23:59:49.326Z</time>
</trkpt>
<trkpt lat="-26.9918500" lon="152.9166749">
<ele>42.071</ele>
<time>2017-09-12T23:59:52.334Z</time>
</trkpt>
<trkpt lat="-26.9922329" lon="152.9173069">
<ele>41.898</ele>
<time>2017-09-12T23:59:55.236Z</time>
</trkpt>
<trkpt lat="-26.9925019" lon="152.9177363">
<ele>41.846</ele>
<time>2017-09-12T23:59:57.266Z</time>
</trkpt>
<trkpt lat="-26.9927561" lon="152.9181625">
<ele>41.887</ele>
<time>2017-09-12T23:59:59.226Z</time>
</trkpt>
<trkpt lat="-26.9931669" lon="152.9188563">
<ele>41.904</ele>
<time>2017-09-13T00:00:02.295Z</time>
</trkpt>
<trkpt lat="-26.9934416" lon="152.9193233">
<ele>41.902</ele>
<time>2017-09-13T00:00:04.286Z</time>
</trkpt>
<trkpt lat="-26.9938422" lon="152.9200323">
<ele>41.975</ele>
<time>2017-09-13T00:00:07.276Z</time>
</trkpt>
<trkpt lat="-26.9942205" lon="152.9206997">
<ele>42.143</ele>
<time>2017-09-13T00:00:10.158Z</time>
</trkpt>
<trkpt lat="-26.9944870" lon="152.9211576">
<ele>42.262</ele>
<time>2017-09-13T00:00:12.182Z</time>
</trkpt>
<trkpt lat="-26.9947627" lon="152.9216304">
<ele>42.226</ele>
<time>2017-09-13T00:00:14.241Z</time>
</trkpt>
<trkpt lat="-26.9950267" lon="152.9220948">
<ele>42.115</ele>
<time>2017-09-13T00:00:16.235Z</time>
</trkpt>
<trkpt lat="-26.9952827" lon="152.9225421">
<ele>42.016</ele>
<time>2017-09-13T00:00:18.184Z</time>
</trkpt>
<trkpt lat="-26.9955393" lon="152.9229980">
<ele>41.926</ele>
<time>2017-09-13T00:00:20.181Z</time>
</trkpt>
<trkpt lat="-26.9958023" lon="152.9234568">
<ele>41.792</ele>
<time>2017-09-13T00:00:22.198Z</time>
</trkpt>
<trkpt lat="-26.9961730" lon="152.9241256">
<ele>41.547</ele>
<time>2017-09-13T00:00:25.148Z</time>
</trkpt>
<trkpt lat="-26.9964142" lon="152.9245485">
<ele>41.024</ele>
<time>2017-09-13T00:00:27.078Z</time>
</trkpt>
<trkpt lat="-26.9966501" lon="152.9249663">
<ele>40.153</ele>
<time>2017-09-13T00:00:29.039Z</time>
</trkpt>
<trkpt lat="-26.9969987" lon="152.9255233">
<ele>39.163</ele>
<time>2017-09-13T00:00:31.873Z</time>
</trkpt>
<trkpt lat="-26.9974593" lon="152.9260041">
<ele>38.199</ele>
<time>2017-09-13T00:00:34.879Z</time>
</trkpt>
<trkpt lat="-26.9977751" lon="152.9263208">
<ele>37.222</ele>
<time>2017-09-13T00:00:36.898Z</time>
</trkpt>
<trkpt lat="-26.9982629" lon="152.9268186">
<ele>36.378</ele>
<time>2017-09-13T00:00:39.953Z</time>
</trkpt>
<trkpt lat="-26.9986025" lon="152.9271657">
<ele>35.826</ele>
<time>2017-09-13T00:00:41.992Z</time>
</trkpt>
<trkpt lat="-26.9989488" lon="152.9275188">
<ele>35.492</ele>
<time>2017-09-13T00:00:44.016Z</time>
</trkpt>
<trkpt lat="-26.9994780" lon="152.9280513">
<ele>35.174</ele>
<time>2017-09-13T00:00:47.033Z</time>
</trkpt>
<trkpt lat="-26.9998299" lon="152.9284117">
<ele>34.667</ele>
<time>2017-09-13T00:00:49.044Z</time>
</trkpt>
<trkpt lat="-27.0003115" lon="152.9289897">
<ele>33.931</ele>
<time>2017-09-13T00:00:52.035Z</time>
</trkpt>
<trkpt lat="-27.0007416" lon="152.9295380">
<ele>33.206</ele>
<time>2017-09-13T00:00:54.901Z</time>
</trkpt>
<trkpt lat="-27.0010161" lon="152.9299000">
<ele>32.785</ele>
<time>2017-09-13T00:00:56.846Z</time>
</trkpt>
<trkpt lat="-27.0013005" lon="152.9302576">
<ele>32.734</ele>
<time>2017-09-13T00:00:58.833Z</time>
</trkpt>
<trkpt lat="-27.0015768" lon="152.9306094">
<ele>32.934</ele>
<time>2017-09-13T00:01:00.793Z</time>
</trkpt>
<trkpt lat="-27.0019898" lon="152.9311386">
<ele>33.233</ele>
<time>2017-09-13T00:01:03.746Z</time>
</trkpt>
<trkpt lat="-27.0022765" lon="152.9315089">
<ele>33.492</ele>
<time>2017-09-13T00:01:05.771Z</time>
</trkpt>
<trkpt lat="-27.0027263" lon="152.9320856">
<ele>33.629</ele>
<time>2017-09-13T00:01:08.818Z</time>
</trkpt>
<trkpt lat="-27.0030368" lon="152.9324817">
<ele>33.600</ele>
<time>2017-09-13T00:01:10.845Z</time>
</trkpt>
<trkpt lat="-27.0035099" lon="152.9330815">
<ele>33.362</ele>
<time>2017-09-13T00:01:13.858Z</time>
</trkpt>
<trkpt lat="-27.0039899" lon="152.9336918">
<ele>32.886</ele>
<time>2017-09-13T00:01:16.880Z</time>
</trkpt>
<trkpt lat="-27.0044641" lon="152.9342826">
<ele>32.178</ele>
<time>2017-09-13T00:01:19.827Z</time>
</trkpt>
<trkpt lat="-27.0049290" lon="152.9348688">
<ele>31.233</ele>
<time>2017-09-13T00:01:22.774Z</time>
</trkpt>
<trkpt lat="-27.0052162" lon="152.9352330">
<ele>30.002</ele>
<time>2017-09-13T00:01:24.679Z</time>
</trkpt>
<trkpt lat="-27.0056093" lon="152.9357330">
<ele>28.596</ele>
<time>2017-09-13T00:01:27.500Z</time>
</trkpt>
<trkpt lat="-27.0059984" lon="152.9362343">
<ele>27.258</ele>
<time>2017-09-13T00:01:30.465Z</time>
</trkpt>
<trkpt lat="-27.0062426" lon="152.9365593">
<ele>26.099</ele>
<time>2017-09-13T00:01:32.411Z</time>
</trkpt>
<trkpt lat="-27.0066474" lon="152.9369821">
<ele>25.182</ele>
<time>2017-09-13T00:01:35.327Z</time>
</trkpt>
<trkpt lat="-27.0069660" lon="152.9371964">
<ele>24.621</ele>
<time>2017-09-13T00:01:37.314Z</time>
</trkpt>
<trkpt lat="-27.0073082" lon="152.9373479">
<ele>24.424</ele>
<time>2017-09-13T00:01:39.293Z</time>
</trkpt>
<trkpt lat="-27.0076640" lon="152.9374823">
<ele>24.457</ele>
<time>2017-09-13T00:01:41.310Z</time>
</trkpt>
<trkpt lat="-27.0081614" lon="152.9377892">
<ele>24.552</ele>
<time>2017-09-13T00:01:44.350Z</time>
</trkpt>
<trkpt lat="-27.0084127" lon="152.9380502">
<ele>24.646</ele>
<time>2017-09-13T00:01:46.207Z</time>
</trkpt>
<trkpt lat="-27.0087272" lon="152.9384579">
<ele>24.811</ele>
<time>2017-09-13T00:01:48.944Z</time>
</trkpt>
<trkpt lat="-27.0089115" lon="152.9386959">
<ele>25.150</ele>
<time>2017-09-13T00:01:50.634Z</time>
</trkpt>
<trkpt lat="-27.0090929" lon="152.9389155">
<ele>25.613</ele>
<time>2017-09-13T00:01:52.374Z</time>
</trkpt>
<trkpt lat="-27.0093911" lon="152.9392849">
<ele>25.990</ele>
<time>2017-09-13T00:01:55.487Z</time>
</trkpt>
<trkpt lat="-27.0095862" lon="152.9395328">
<ele>26.120</ele>
<time>2017-09-13T00:01:57.544Z</time>
</trkpt>
<trkpt lat="-27.0097741" lon="152.9397774">
<ele>25.996</ele>
<time>2017-09-13T00:01:59.514Z</time>
</trkpt>
<trkpt lat="-27.0100480" lon="152.9401042">
<ele>25.674</ele>
<time>2017-09-13T00:02:02.343Z</time>
</trkpt>
<trkpt lat="-27.0102217" lon="152.9403161">
<ele>25.180</ele>
<time>2017-09-13T00:02:04.217Z</time>
</trkpt>
<trkpt lat="-27.0104835" lon="152.9406528">
<ele>24.541</ele>
<time>2017-09-13T00:02:07.254Z</time>
</trkpt>
<trkpt lat="-27.0106477" lon="152.9408758">
<ele>23.822</ele>
<time>2017-09-13T00:02:09.231Z</time>
</trkpt>
<trkpt lat="-27.0108202" lon="152.9411198">
<ele>23.102</ele>
<time>2017-09-13T00:02:11.326Z</time>
</trkpt>
<trkpt lat="-27.0110275" lon="152.9415262">
<ele>22.470</ele>
<time>2017-09-13T00:02:14.377Z</time>
</trkpt>
<trkpt lat="-27.0111639" lon="152.9418079">
<ele>21.939</ele>
<time>2017-09-13T00:02:16.436Z</time>
</trkpt>
<trkpt lat="-27.0113610" lon="152.9422235">
<ele>21.446</ele>
<time>2017-09-13T00:02:19.440Z</time>
</trkpt>
<trkpt lat="-27.0114722" lon="152.9424990">
<ele>20.958</ele>
<time>2017-09-13T00:02:21.385Z</time>
</trkpt>
<trkpt lat="-27.0115203" lon="152.9428917">
<ele>20.468</ele>
<time>2017-09-13T00:02:24.065Z</time>
</trkpt>
<trkpt lat="-27.0115216" lon="152.9430154">
<ele>19.916</ele>
<time>2017-09-13T00:02:24.937Z</time>
</trkpt>
<trkpt lat="-27.0115070" lon="152.9431284">
<ele>19.191</ele>
<time>2017-09-13T00:02:25.742Z</time>
</trkpt>
<trkpt lat="-27.0115011" lon="152.9432395">
<ele>18.221</ele>
<time>2017-09-13T00:02:26.703Z</time>
</trkpt>
<trkpt lat="-27.0114910" lon="152.9433637">
<ele>17.173</ele>
<time>2017-09-13T00:02:27.871Z</time>
</trkpt>
<trkpt lat="-27.0114592" lon="152.9434850">
<ele>16.376</ele>
<time>2017-09-13T00:02:30.129Z</time>
</trkpt>
<trkpt lat="-27.0111828" lon="152.9436126">
<ele>15.994</ele>
<time>2017-09-13T00:02:38.476Z</time>
</trkpt>
<trkpt lat="-27.0109118" lon="152.9436152">
<ele>15.990</ele>
<time>2017-09-13T00:02:42.975Z</time>
</trkpt>
<trkpt lat="-27.0106185" lon="152.9436108">
<ele>16.326</ele>
<time>2017-09-13T00:02:45.592Z</time>
</trkpt>
<trkpt lat="-27.0103352" lon="152.9436143">
<ele>16.902</ele>
<time>2017-09-13T00:02:47.672Z</time>
</trkpt>
<trkpt lat="-27.0100570" lon="152.9436483">
<ele>17.585</ele>
<time>2017-09-13T00:02:49.657Z</time>
</trkpt>
<trkpt lat="-27.0097876" lon="152.9437405">
<ele>18.333</ele>
<time>2017-09-13T00:02:51.672Z</time>
</trkpt>
<trkpt lat="-27.0093525" lon="152.9438853">
<ele>19.106</ele>
<time>2017-09-13T00:02:54.902Z</time>
</trkpt>
<trkpt lat="-27.0089075" lon="152.9440458">
<ele>19.813</ele>
<time>2017-09-13T00:02:58.084Z</time>
</trkpt>
<trkpt lat="-27.0086264" lon="152.9441668">
<ele>20.436</ele>
<time>2017-09-13T00:03:00.065Z</time>
</trkpt>
<trkpt lat="-27.0081972" lon="152.9443672">
<ele>20.952</ele>
<time>2017-09-13T00:03:03.059Z</time>
</trkpt>
<trkpt lat="-27.0077541" lon="152.9446222">
<ele>21.268</ele>
<time>2017-09-13T00:03:06.183Z</time>
</trkpt>
<trkpt lat="-27.0073021" lon="152.9448909">
<ele>21.348</ele>
<time>2017-09-13T00:03:09.295Z</time>
</trkpt>
<trkpt lat="-27.0069946" lon="152.9450676">
<ele>21.280</ele>
<time>2017-09-13T00:03:11.357Z</time>
</trkpt>
<trkpt lat="-27.0065379" lon="152.9453291">
<ele>21.191</ele>
<time>2017-09-13T00:03:14.383Z</time>
</trkpt>
<trkpt lat="-27.0060521" lon="152.9455943">
<ele>21.161</ele>
<time>2017-09-13T00:03:17.460Z</time>
</trkpt>
<trkpt lat="-27.0056965" lon="152.9457942">
<ele>21.210</ele>
<time>2017-09-13T00:03:19.606Z</time>
</trkpt>
<trkpt lat="-27.0051396" lon="152.9461115">
<ele>21.380</ele>
<time>2017-09-13T00:03:22.726Z</time>
</trkpt>
<trkpt lat="-27.0045498" lon="152.9464442">
<ele>21.801</ele>
<time>2017-09-13T00:03:25.815Z</time>
</trkpt>
<trkpt lat="-27.0041595" lon="152.9466313">
<ele>22.555</ele>
<time>2017-09-13T00:03:27.777Z</time>
</trkpt>
<trkpt lat="-27.0035545" lon="152.9468538">
<ele>23.503</ele>
<time>2017-09-13T00:03:30.763Z</time>
</trkpt>
<trkpt lat="-27.0029426" lon="152.9470167">
<ele>24.588</ele>
<time>2017-09-13T00:03:33.740Z</time>
</trkpt>
<trkpt lat="-27.0023544" lon="152.9470993">
<ele>26.127</ele>
<time>2017-09-13T00:03:36.628Z</time>
</trkpt>
<trkpt lat="-27.0019571" lon="152.9471238">
<ele>28.323</ele>
<time>2017-09-13T00:03:38.629Z</time>
</trkpt>
<trkpt lat="-27.0013481" lon="152.9471316">
<ele>30.752</ele>
<time>2017-09-13T00:03:41.680Z</time>
</trkpt>
<trkpt lat="-27.0009478" lon="152.9470961">
<ele>32.687</ele>
<time>2017-09-13T00:03:43.661Z</time>
</trkpt>
<trkpt lat="-27.0005571" lon="152.9470377">
<ele>33.748</ele>
<time>2017-09-13T00:03:45.601Z</time>
</trkpt>
<trkpt lat="-26.9999461" lon="152.9469166">
<ele>34.061</ele>
<time>2017-09-13T00:03:48.627Z</time>
</trkpt>
<trkpt lat="-26.9992877" lon="152.9468668">
<ele>33.810</ele>
<time>2017-09-13T00:03:51.721Z</time>
</trkpt>
<trkpt lat="-26.9988339" lon="152.9469507">
<ele>32.806</ele>
<time>2017-09-13T00:03:53.792Z</time>
</trkpt>
<trkpt lat="-26.9983770" lon="152.9470715">
<ele>31.049</ele>
<time>2017-09-13T00:03:55.844Z</time>
</trkpt>
<trkpt lat="-26.9979315" lon="152.9471848">
<ele>29.170</ele>
<time>2017-09-13T00:03:57.815Z</time>
</trkpt>
<trkpt lat="-26.9972781" lon="152.9473335">
<ele>27.832</ele>
<time>2017-09-13T00:04:00.731Z</time>
</trkpt>
<trkpt lat="-26.9968413" lon="152.9474373">
<ele>27.246</ele>
<time>2017-09-13T00:04:02.706Z</time>
</trkpt>
<trkpt lat="-26.9961669" lon="152.9475882">
<ele>27.464</ele>
<time>2017-09-13T00:04:05.723Z</time>
</trkpt>
<trkpt lat="-26.9954698" lon="152.9477454">
<ele>28.472</ele>
<time>2017-09-13T00:04:08.759Z</time>
</trkpt>
<trkpt lat="-26.9950073" lon="152.9478564">
<ele>29.940</ele>
<time>2017-09-13T00:04:10.743Z</time>
</trkpt>
<trkpt lat="-26.9943579" lon="152.9480120">
<ele>31.375</ele>
<time>2017-09-13T00:04:13.606Z</time>
</trkpt>
<trkpt lat="-26.9939318" lon="152.9481106">
<ele>32.695</ele>
<time>2017-09-13T00:04:15.554Z</time>
</trkpt>
<trkpt lat="-26.9935068" lon="152.9482065">
<ele>33.974</ele>
<time>2017-09-13T00:04:17.533Z</time>
</trkpt>
<trkpt lat="-26.9928462" lon="152.9483565">
<ele>35.012</ele>
<time>2017-09-13T00:04:20.589Z</time>
</trkpt>
<trkpt lat="-26.9921360" lon="152.9485093">
<ele>35.685</ele>
<time>2017-09-13T00:04:23.705Z</time>
</trkpt>
<trkpt lat="-26.9916487" lon="152.9485540">
<ele>36.240</ele>
<time>2017-09-13T00:04:25.717Z</time>
</trkpt>
<trkpt lat="-26.9911745" lon="152.9485810">
<ele>36.850</ele>
<time>2017-09-13T00:04:27.666Z</time>
</trkpt>
<trkpt lat="-26.9904720" lon="152.9485679">
<ele>37.360</ele>
<time>2017-09-13T00:04:30.618Z</time>
</trkpt>
<trkpt lat="-26.9900096" lon="152.9485465">
<ele>37.609</ele>
<time>2017-09-13T00:04:32.585Z</time>
</trkpt>
<trkpt lat="-26.9895349" lon="152.9485237">
<ele>37.533</ele>
<time>2017-09-13T00:04:34.590Z</time>
</trkpt>
<trkpt lat="-26.9887592" lon="152.9484941">
<ele>36.907</ele>
<time>2017-09-13T00:04:37.758Z</time>
</trkpt>
<trkpt lat="-26.9882604" lon="152.9484709">
<ele>35.328</ele>
<time>2017-09-13T00:04:39.747Z</time>
</trkpt>
<trkpt lat="-26.9875679" lon="152.9484366">
<ele>32.815</ele>
<time>2017-09-13T00:04:42.606Z</time>
</trkpt>
<trkpt lat="-26.9871457" lon="152.9484415">
<ele>29.962</ele>
<time>2017-09-13T00:04:44.450Z</time>
</trkpt>
<trkpt lat="-26.9867465" lon="152.9484853">
<ele>27.461</ele>
<time>2017-09-13T00:04:46.304Z</time>
</trkpt>
<trkpt lat="-26.9863374" lon="152.9485709">
<ele>25.757</ele>
<time>2017-09-13T00:04:48.290Z</time>
</trkpt>
<trkpt lat="-26.9857191" lon="152.9487930">
<ele>24.951</ele>
<time>2017-09-13T00:04:51.380Z</time>
</trkpt>
<trkpt lat="-26.9853241" lon="152.9489848">
<ele>24.769</ele>
<time>2017-09-13T00:04:53.398Z</time>
</trkpt>
<trkpt lat="-26.9849249" lon="152.9491955">
<ele>24.862</ele>
<time>2017-09-13T00:04:55.436Z</time>
</trkpt>
<trkpt lat="-26.9845289" lon="152.9494047">
<ele>25.083</ele>
<time>2017-09-13T00:04:57.440Z</time>
</trkpt>
<trkpt lat="-26.9839170" lon="152.9497337">
<ele>25.532</ele>
<time>2017-09-13T00:05:00.511Z</time>
</trkpt>
<trkpt lat="-26.9833154" lon="152.9500634">
<ele>26.409</ele>
<time>2017-09-13T00:05:03.510Z</time>
</trkpt>
<trkpt lat="-26.9828884" lon="152.9502412">
<ele>27.880</ele>
<time>2017-09-13T00:05:05.536Z</time>
</trkpt>
<trkpt lat="-26.9824405" lon="152.9503716">
<ele>29.791</ele>
<time>2017-09-13T00:05:07.564Z</time>
</trkpt>
<trkpt lat="-26.9820022" lon="152.9504681">
<ele>31.606</ele>
<time>2017-09-13T00:05:09.521Z</time>
</trkpt>
<trkpt lat="-26.9813822" lon="152.9505230">
<ele>32.868</ele>
<time>2017-09-13T00:05:12.375Z</time>
</trkpt>
<trkpt lat="-26.9809902" lon="152.9505239">
<ele>33.487</ele>
<time>2017-09-13T00:05:14.266Z</time>
</trkpt>
<trkpt lat="-26.9805840" lon="152.9505185">
<ele>33.537</ele>
<time>2017-09-13T00:05:16.271Z</time>
</trkpt>
<trkpt lat="-26.9801542" lon="152.9505117">
<ele>33.111</ele>
<time>2017-09-13T00:05:18.357Z</time>
</trkpt>
<trkpt lat="-26.9797238" lon="152.9505060">
<ele>32.302</ele>
<time>2017-09-13T00:05:20.384Z</time>
</trkpt>
<trkpt lat="-26.9790793" lon="152.9504939">
<ele>31.189</ele>
<time>2017-09-13T00:05:23.358Z</time>
</trkpt>
<trkpt lat="-26.9784411" lon="152.9504801">
<ele>30.067</ele>
<time>2017-09-13T00:05:26.310Z</time>
</trkpt>
<trkpt lat="-26.9780049" lon="152.9504715">
<ele>29.425</ele>
<time>2017-09-13T00:05:28.310Z</time>
</trkpt>
<trkpt lat="-26.9775330" lon="152.9504692">
<ele>29.375</ele>
<time>2017-09-13T00:05:30.413Z</time>
</trkpt>
<trkpt lat="-26.9770488" lon="152.9504719">
<ele>29.580</ele>
<time>2017-09-13T00:05:32.490Z</time>
</trkpt>
<trkpt lat="-26.9763080" lon="152.9504650">
<ele>29.615</ele>
<time>2017-09-13T00:05:35.565Z</time>
</trkpt>
<trkpt lat="-26.9758152" lon="152.9504640">
<ele>29.155</ele>
<time>2017-09-13T00:05:37.599Z</time>
</trkpt>
<trkpt lat="-26.9751060" lon="152.9504555">
<ele>28.325</ele>
<time>2017-09-13T00:05:40.575Z</time>
</trkpt>
<trkpt lat="-26.9744338" lon="152.9504542">
<ele>27.922</ele>
<time>2017-09-13T00:05:43.463Z</time>
</trkpt>
<trkpt lat="-26.9737681" lon="152.9504501">
<ele>28.710</ele>
<time>2017-09-13T00:05:46.381Z</time>
</trkpt>
<trkpt lat="-26.9733212" lon="152.9504392">
<ele>30.636</ele>
<time>2017-09-13T00:05:48.359Z</time>
</trkpt>
<trkpt lat="-26.9728677" lon="152.9504304">
<ele>32.833</ele>
<time>2017-09-13T00:05:50.364Z</time>
</trkpt>
<trkpt lat="-26.9721542" lon="152.9504292">
<ele>34.351</ele>
<time>2017-09-13T00:05:53.451Z</time>
</trkpt>
<trkpt lat="-26.9716848" lon="152.9504266">
<ele>34.662</ele>
<time>2017-09-13T00:05:55.453Z</time>
</trkpt>
<trkpt lat="-26.9710269" lon="152.9504182">
<ele>33.983</ele>
<time>2017-09-13T00:05:58.317Z</time>
</trkpt>
<trkpt lat="-26.9705809" lon="152.9504214">
<ele>33.190</ele>
<time>2017-09-13T00:06:00.294Z</time>
</trkpt>
<trkpt lat="-26.9701218" lon="152.9504268">
<ele>32.907</ele>
<time>2017-09-13T00:06:02.310Z</time>
</trkpt>
<trkpt lat="-26.9694048" lon="152.9504797">
<ele>32.900</ele>
<time>2017-09-13T00:06:05.368Z</time>
</trkpt>
<trkpt lat="-26.9689434" lon="152.9505689">
<ele>32.769</ele>
<time>2017-09-13T00:06:07.344Z</time>
</trkpt>
<trkpt lat="-26.9685035" lon="152.9506952">
<ele>32.497</ele>
<time>2017-09-13T00:06:09.275Z</time>
</trkpt>
<trkpt lat="-26.9678703" lon="152.9509592">
<ele>32.441</ele>
<time>2017-09-13T00:06:12.178Z</time>
</trkpt>
<trkpt lat="-26.9674286" lon="152.9511735">
<ele>32.786</ele>
<time>2017-09-13T00:06:14.238Z</time>
</trkpt>
<trkpt lat="-26.9669819" lon="152.9513972">
<ele>33.248</ele>
<time>2017-09-13T00:06:16.290Z</time>
</trkpt>
<trkpt lat="-26.9665304" lon="152.9516276">
<ele>33.364</ele>
<time>2017-09-13T00:06:18.324Z</time>
</trkpt>
<trkpt lat="-26.9660922" lon="152.9518535">
<ele>32.829</ele>
<time>2017-09-13T00:06:20.299Z</time>
</trkpt>
<trkpt lat="-26.9654726" lon="152.9521686">
<ele>31.626</ele>
<time>2017-09-13T00:06:23.182Z</time>
</trkpt>
<trkpt lat="-26.9650765" lon="152.9523789">
<ele>29.996</ele>
<time>2017-09-13T00:06:25.098Z</time>
</trkpt>
<trkpt lat="-26.9645013" lon="152.9526792">
<ele>28.356</ele>
<time>2017-09-13T00:06:27.983Z</time>
</trkpt>
<trkpt lat="-26.9639597" lon="152.9529488">
<ele>27.182</ele>
<time>2017-09-13T00:06:30.815Z</time>
</trkpt>
<trkpt lat="-26.9634636" lon="152.9531902">
<ele>26.648</ele>
<time>2017-09-13T00:06:33.589Z</time>
</trkpt>
<trkpt lat="-26.9631675" lon="152.9533406">
<ele>26.545</ele>
<time>2017-09-13T00:06:35.345Z</time>
</trkpt>
<trkpt lat="-26.9628796" lon="152.9534857">
<ele>26.597</ele>
<time>2017-09-13T00:06:37.162Z</time>
</trkpt>
<trkpt lat="-26.9625828" lon="152.9536168">
<ele>26.682</ele>
<time>2017-09-13T00:06:39.078Z</time>
</trkpt>
<trkpt lat="-26.9621365" lon="152.9538131">
<ele>26.911</ele>
<time>2017-09-13T00:06:42.007Z</time>
</trkpt>
<trkpt lat="-26.9618547" lon="152.9539322">
<ele>27.553</ele>
<time>2017-09-13T00:06:43.868Z</time>
</trkpt>
<trkpt lat="-26.9615989" lon="152.9540393">
<ele>28.681</ele>
<time>2017-09-13T00:06:45.610Z</time>
</trkpt>
<trkpt lat="-26.9613447" lon="152.9541708">
<ele>30.015</ele>
<time>2017-09-13T00:06:47.466Z</time>
</trkpt>
<trkpt lat="-26.9611581" lon="152.9540086">
<ele>31.192</ele>
<time>2017-09-13T00:06:49.330Z</time>
</trkpt>
<trkpt lat="-26.9611078" lon="152.9537282">
<ele>32.000</ele>
<time>2017-09-13T00:06:51.653Z</time>
</trkpt>
<trkpt lat="-26.9610465" lon="152.9533993">
<ele>32.485</ele>
<time>2017-09-13T00:06:54.869Z</time>
</trkpt>
<trkpt lat="-26.9609824" lon="152.9530353">
<ele>32.933</ele>
<time>2017-09-13T00:06:57.649Z</time>
</trkpt>
<trkpt lat="-26.9609412" lon="152.9524623">
<ele>33.589</ele>
<time>2017-09-13T00:07:00.960Z</time>
</trkpt>
<trkpt lat="-26.9609520" lon="152.9520849">
<ele>34.491</ele>
<time>2017-09-13T00:07:02.990Z</time>
</trkpt>
<trkpt lat="-26.9609906" lon="152.9514874">
<ele>35.456</ele>
<time>2017-09-13T00:07:06.125Z</time>
</trkpt>
<trkpt lat="-26.9610217" lon="152.9510776">
<ele>36.201</ele>
<time>2017-09-13T00:07:08.220Z</time>
</trkpt>
<trkpt lat="-26.9610519" lon="152.9506760">
<ele>36.574</ele>
<time>2017-09-13T00:07:10.189Z</time>
</trkpt>
<trkpt lat="-26.9610842" lon="152.9502659">
<ele>36.628</ele>
<time>2017-09-13T00:07:12.176Z</time>
</trkpt>
<trkpt lat="-26.9611304" lon="152.9496397">
<ele>36.485</ele>
<time>2017-09-13T00:07:15.194Z</time>
</trkpt>
<trkpt lat="-26.9611830" lon="152.9490230">
<ele>36.286</ele>
<time>2017-09-13T00:07:18.163Z</time>
</trkpt>
<trkpt lat="-26.9612288" lon="152.9483987">
<ele>36.070</ele>
<time>2017-09-13T00:07:21.160Z</time>
</trkpt>
<trkpt lat="-26.9612559" lon="152.9479870">
<ele>35.818</ele>
<time>2017-09-13T00:07:23.129Z</time>
</trkpt>
<trkpt lat="-26.9612771" lon="152.9475881">
<ele>35.633</ele>
<time>2017-09-13T00:07:25.033Z</time>
</trkpt>
<trkpt lat="-26.9612845" lon="152.9469895">
<ele>35.607</ele>
<time>2017-09-13T00:07:27.948Z</time>
</trkpt>
<trkpt lat="-26.9612223" lon="152.9463754">
<ele>35.760</ele>
<time>2017-09-13T00:07:30.996Z</time>
</trkpt>
<trkpt lat="-26.9611143" lon="152.9459903">
<ele>36.141</ele>
<time>2017-09-13T00:07:32.978Z</time>
</trkpt>
<trkpt lat="-26.9609705" lon="152.9456299">
<ele>36.625</ele>
<time>2017-09-13T00:07:34.902Z</time>
</trkpt>
<trkpt lat="-26.9607980" lon="152.9452889">
<ele>36.916</ele>
<time>2017-09-13T00:07:36.850Z</time>
</trkpt>
<trkpt lat="-26.9604684" lon="152.9448130">
<ele>36.876</ele>
<time>2017-09-13T00:07:39.891Z</time>
</trkpt>
<trkpt lat="-26.9602243" lon="152.9445026">
<ele>36.643</ele>
<time>2017-09-13T00:07:41.971Z</time>
</trkpt>
<trkpt lat="-26.9598391" lon="152.9440154">
<ele>36.451</ele>
<time>2017-09-13T00:07:45.147Z</time>
</trkpt>
<trkpt lat="-26.9594414" lon="152.9435381">
<ele>36.495</ele>
<time>2017-09-13T00:07:48.229Z</time>
</trkpt>
<trkpt lat="-26.9591661" lon="152.9432365">
<ele>36.858</ele>
<time>2017-09-13T00:07:50.225Z</time>
</trkpt>
<trkpt lat="-26.9586674" lon="152.9428866">
<ele>37.432</ele>
<time>2017-09-13T00:07:53.250Z</time>
</trkpt>
<trkpt lat="-26.9581622" lon="152.9425752">
<ele>38.130</ele>
<time>2017-09-13T00:07:56.218Z</time>
</trkpt>
<trkpt lat="-26.9576764" lon="152.9421953">
<ele>39.009</ele>
<time>2017-09-13T00:07:59.263Z</time>
</trkpt>
<trkpt lat="-26.9573887" lon="152.9418673">
<ele>39.913</ele>
<time>2017-09-13T00:08:01.355Z</time>
</trkpt>
<trkpt lat="-26.9571408" lon="152.9415020">
<ele>40.505</ele>
<time>2017-09-13T00:08:03.392Z</time>
</trkpt>
<trkpt lat="-26.9569542" lon="152.9410905">
<ele>40.658</ele>
<time>2017-09-13T00:08:05.388Z</time>
</trkpt>
<trkpt lat="-26.9567951" lon="152.9406340">
<ele>40.442</ele>
<time>2017-09-13T00:08:07.471Z</time>
</trkpt>
<trkpt lat="-26.9566543" lon="152.9398929">
<ele>39.951</ele>
<time>2017-09-13T00:08:10.611Z</time>
</trkpt>
<trkpt lat="-26.9565303" lon="152.9391354">
<ele>39.174</ele>
<time>2017-09-13T00:08:13.683Z</time>
</trkpt>
<trkpt lat="-26.9564503" lon="152.9386380">
<ele>38.094</ele>
<time>2017-09-13T00:08:15.659Z</time>
</trkpt>
<trkpt lat="-26.9563447" lon="152.9379270">
<ele>36.824</ele>
<time>2017-09-13T00:08:18.490Z</time>
</trkpt>
<trkpt lat="-26.9561680" lon="152.9372187">
<ele>35.470</ele>
<time>2017-09-13T00:08:21.439Z</time>
</trkpt>
<trkpt lat="-26.9558704" lon="152.9365714">
<ele>34.261</ele>
<time>2017-09-13T00:08:24.398Z</time>
</trkpt>
<trkpt lat="-26.9556901" lon="152.9361670">
<ele>33.863</ele>
<time>2017-09-13T00:08:26.249Z</time>
</trkpt>
<trkpt lat="-26.9555593" lon="152.9355110">
<ele>34.739</ele>
<time>2017-09-13T00:08:29.116Z</time>
</trkpt>
<trkpt lat="-26.9555091" lon="152.9350396">
<ele>36.563</ele>
<time>2017-09-13T00:08:31.175Z</time>
</trkpt>
<trkpt lat="-26.9554678" lon="152.9345559">
<ele>38.536</ele>
<time>2017-09-13T00:08:33.261Z</time>
</trkpt>
<trkpt lat="-26.9554059" lon="152.9338144">
<ele>39.966</ele>
<time>2017-09-13T00:08:36.358Z</time>
</trkpt>
<trkpt lat="-26.9552791" lon="152.9330780">
<ele>40.804</ele>
<time>2017-09-13T00:08:39.409Z</time>
</trkpt>
<trkpt lat="-26.9549968" lon="152.9323367">
<ele>41.682</ele>
<time>2017-09-13T00:08:42.587Z</time>
</trkpt>
<trkpt lat="-26.9547024" lon="152.9315855">
<ele>43.129</ele>
<time>2017-09-13T00:08:45.673Z</time>
</trkpt>
<trkpt lat="-26.9544052" lon="152.9308259">
<ele>45.098</ele>
<time>2017-09-13T00:08:48.699Z</time>
</trkpt>
<trkpt lat="-26.9541256" lon="152.9300786">
<ele>47.125</ele>
<time>2017-09-13T00:08:51.626Z</time>
</trkpt>
<trkpt lat="-26.9538202" lon="152.9292996">
<ele>48.713</ele>
<time>2017-09-13T00:08:54.662Z</time>
</trkpt>
<trkpt lat="-26.9535203" lon="152.9285081">
<ele>49.615</ele>
<time>2017-09-13T00:08:57.670Z</time>
</trkpt>
<trkpt lat="-26.9532409" lon="152.9277300">
<ele>49.922</ele>
<time>2017-09-13T00:09:00.596Z</time>
</trkpt>
<trkpt lat="-26.9531003" lon="152.9271967">
<ele>49.940</ele>
<time>2017-09-13T00:09:02.557Z</time>
</trkpt>
<trkpt lat="-26.9529759" lon="152.9263695">
<ele>49.939</ele>
<time>2017-09-13T00:09:05.564Z</time>
</trkpt>
<trkpt lat="-26.9529297" lon="152.9258269">
<ele>50.073</ele>
<time>2017-09-13T00:09:07.528Z</time>
</trkpt>
<trkpt lat="-26.9528768" lon="152.9252932">
<ele>50.329</ele>
<time>2017-09-13T00:09:09.473Z</time>
</trkpt>
<trkpt lat="-26.9527887" lon="152.9245029">
<ele>50.510</ele>
<time>2017-09-13T00:09:12.399Z</time>
</trkpt>
<trkpt lat="-26.9527336" lon="152.9239725">
<ele>50.398</ele>
<time>2017-09-13T00:09:14.380Z</time>
</trkpt>
<trkpt lat="-26.9526497" lon="152.9232108">
<ele>50.024</ele>
<time>2017-09-13T00:09:17.262Z</time>
</trkpt>
<trkpt lat="-26.9525950" lon="152.9227297">
<ele>49.643</ele>
<time>2017-09-13T00:09:19.095Z</time>
</trkpt>
<trkpt lat="-26.9525380" lon="152.9222674">
<ele>49.550</ele>
<time>2017-09-13T00:09:20.909Z</time>
</trkpt>
<trkpt lat="-26.9522918" lon="152.9216746">
<ele>49.990</ele>
<time>2017-09-13T00:09:23.590Z</time>
</trkpt>
<trkpt lat="-26.9518235" lon="152.9211497">
<ele>51.129</ele>
<time>2017-09-13T00:09:26.796Z</time>
</trkpt>
<trkpt lat="-26.9514502" lon="152.9208065">
<ele>52.874</ele>
<time>2017-09-13T00:09:29.117Z</time>
</trkpt>
<trkpt lat="-26.9508907" lon="152.9202965">
<ele>54.753</ele>
<time>2017-09-13T00:09:32.224Z</time>
</trkpt>
<trkpt lat="-26.9503599" lon="152.9198021">
<ele>56.218</ele>
<time>2017-09-13T00:09:35.127Z</time>
</trkpt>
<trkpt lat="-26.9500159" lon="152.9194853">
<ele>57.051</ele>
<time>2017-09-13T00:09:37.013Z</time>
</trkpt>
<trkpt lat="-26.9497144" lon="152.9191873">
<ele>57.257</ele>
<time>2017-09-13T00:09:38.761Z</time>
</trkpt>
<trkpt lat="-26.9494223" lon="152.9189060">
<ele>56.915</ele>
<time>2017-09-13T00:09:40.512Z</time>
</trkpt>
<trkpt lat="-26.9491488" lon="152.9186775">
<ele>56.161</ele>
<time>2017-09-13T00:09:42.147Z</time>
</trkpt>
<trkpt lat="-26.9487167" lon="152.9185193">
<ele>55.061</ele>
<time>2017-09-13T00:09:44.510Z</time>
</trkpt>
<trkpt lat="-26.9484064" lon="152.9184441">
<ele>53.547</ele>
<time>2017-09-13T00:09:46.395Z</time>
</trkpt>
<trkpt lat="-26.9480653" lon="152.9183298">
<ele>51.897</ele>
<time>2017-09-13T00:09:48.606Z</time>
</trkpt>
<trkpt lat="-26.9475283" lon="152.9181546">
<ele>50.758</ele>
<time>2017-09-13T00:09:51.995Z</time>
</trkpt>
<trkpt lat="-26.9469974" lon="152.9179937">
<ele>50.382</ele>
<time>2017-09-13T00:09:55.027Z</time>
</trkpt>
<trkpt lat="-26.9464188" lon="152.9178922">
<ele>50.483</ele>
<time>2017-09-13T00:09:58.208Z</time>
</trkpt>
<trkpt lat="-26.9460060" lon="152.9178675">
<ele>50.788</ele>
<time>2017-09-13T00:10:00.404Z</time>
</trkpt>
<trkpt lat="-26.9455647" lon="152.9178843">
<ele>51.234</ele>
<time>2017-09-13T00:10:02.657Z</time>
</trkpt>
<trkpt lat="-26.9451100" lon="152.9179055">
<ele>51.871</ele>
<time>2017-09-13T00:10:04.835Z</time>
</trkpt>
<trkpt lat="-26.9444249" lon="152.9179343">
<ele>52.667</ele>
<time>2017-09-13T00:10:07.930Z</time>
</trkpt>
<trkpt lat="-26.9439724" lon="152.9179528">
<ele>53.418</ele>
<time>2017-09-13T00:10:09.933Z</time>
</trkpt>
<trkpt lat="-26.9433121" lon="152.9179866">
<ele>53.897</ele>
<time>2017-09-13T00:10:12.863Z</time>
</trkpt>
<trkpt lat="-26.9426665" lon="152.9180180">
<ele>53.980</ele>
<time>2017-09-13T00:10:15.790Z</time>
</trkpt>
<trkpt lat="-26.9420546" lon="152.9180548">
<ele>53.660</ele>
<time>2017-09-13T00:10:18.648Z</time>
</trkpt>
<trkpt lat="-26.9416191" lon="152.9180876">
<ele>53.104</ele>
<time>2017-09-13T00:10:20.728Z</time>
</trkpt>
<trkpt lat="-26.9411836" lon="152.9181773">
<ele>52.563</ele>
<time>2017-09-13T00:10:22.810Z</time>
</trkpt>
<trkpt lat="-26.9405298" lon="152.9184924">
<ele>52.074</ele>
<time>2017-09-13T00:10:26.020Z</time>
</trkpt>
<trkpt lat="-26.9400905" lon="152.9187499">
<ele>51.412</ele>
<time>2017-09-13T00:10:28.171Z</time>
</trkpt>
<trkpt lat="-26.9393874" lon="152.9189681">
<ele>50.410</ele>
<time>2017-09-13T00:10:31.160Z</time>
</trkpt>
<trkpt lat="-26.9388723" lon="152.9189989">
<ele>49.119</ele>
<time>2017-09-13T00:10:33.246Z</time>
</trkpt>
<trkpt lat="-26.9380388" lon="152.9190263">
<ele>47.737</ele>
<time>2017-09-13T00:10:36.472Z</time>
</trkpt>
<trkpt lat="-26.9372318" lon="152.9190205">
<ele>46.505</ele>
<time>2017-09-13T00:10:39.458Z</time>
</trkpt>
<trkpt lat="-26.9367062" lon="152.9190121">
<ele>45.442</ele>
<time>2017-09-13T00:10:41.384Z</time>
</trkpt>
<trkpt lat="-26.9359406" lon="152.9189984">
<ele>44.421</ele>
<time>2017-09-13T00:10:44.266Z</time>
</trkpt>
<trkpt lat="-26.9354206" lon="152.9189920">
<ele>43.584</ele>
<time>2017-09-13T00:10:46.250Z</time>
</trkpt>
<trkpt lat="-26.9346577" lon="152.9189901">
<ele>43.190</ele>
<time>2017-09-13T00:10:49.199Z</time>
</trkpt>
<trkpt lat="-26.9341602" lon="152.9189840">
<ele>43.462</ele>
<time>2017-09-13T00:10:51.131Z</time>
</trkpt>
<trkpt lat="-26.9334139" lon="152.9189826">
<ele>44.589</ele>
<time>2017-09-13T00:10:54.080Z</time>
</trkpt>
<trkpt lat="-26.9326637" lon="152.9189857">
<ele>46.618</ele>
<time>2017-09-13T00:10:57.074Z</time>
</trkpt>
<trkpt lat="-26.9319292" lon="152.9189884">
<ele>49.446</ele>
<time>2017-09-13T00:11:00.022Z</time>
</trkpt>
<trkpt lat="-26.9314323" lon="152.9189942">
<ele>52.637</ele>
<time>2017-09-13T00:11:02.027Z</time>
</trkpt>
<trkpt lat="-26.9306966" lon="152.9189961">
<ele>55.267</ele>
<time>2017-09-13T00:11:05.005Z</time>
</trkpt>
<trkpt lat="-26.9302397" lon="152.9189957">
<ele>56.647</ele>
<time>2017-09-13T00:11:06.855Z</time>
</trkpt>
<trkpt lat="-26.9297876" lon="152.9190004">
<ele>56.798</ele>
<time>2017-09-13T00:11:08.743Z</time>
</trkpt>
<trkpt lat="-26.9293757" lon="152.9190003">
<ele>55.984</ele>
<time>2017-09-13T00:11:10.520Z</time>
</trkpt>
<trkpt lat="-26.9288345" lon="152.9190104">
<ele>54.381</ele>
<time>2017-09-13T00:11:12.946Z</time>
</trkpt>
<trkpt lat="-26.9278757" lon="152.9193549">
<ele>52.155</ele>
<time>2017-09-13T00:11:17.988Z</time>
</trkpt>
<trkpt lat="-26.9274945" lon="152.9196323">
<ele>49.571</ele>
<time>2017-09-13T00:11:20.278Z</time>
</trkpt>
<trkpt lat="-26.9269148" lon="152.9200376">
<ele>47.305</ele>
<time>2017-09-13T00:11:23.463Z</time>
</trkpt>
<trkpt lat="-26.9265311" lon="152.9203458">
<ele>46.198</ele>
<time>2017-09-13T00:11:25.548Z</time>
</trkpt>
<trkpt lat="-26.9259702" lon="152.9208546">
<ele>46.308</ele>
<time>2017-09-13T00:11:28.665Z</time>
</trkpt>
<trkpt lat="-26.9254494" lon="152.9213514">
<ele>46.876</ele>
<time>2017-09-13T00:11:31.566Z</time>
</trkpt>
<trkpt lat="-26.9249449" lon="152.9217607">
<ele>47.102</ele>
<time>2017-09-13T00:11:34.254Z</time>
</trkpt>
<trkpt lat="-26.9245479" lon="152.9219635">
<ele>46.619</ele>
<time>2017-09-13T00:11:36.248Z</time>
</trkpt>
<trkpt lat="-26.9239020" lon="152.9221894">
<ele>45.632</ele>
<time>2017-09-13T00:11:39.390Z</time>
</trkpt>
<trkpt lat="-26.9234914" lon="152.9223152">
<ele>44.556</ele>
<time>2017-09-13T00:11:41.334Z</time>
</trkpt>
<trkpt lat="-26.9231100" lon="152.9224175">
<ele>43.470</ele>
<time>2017-09-13T00:11:43.125Z</time>
</trkpt>
<trkpt lat="-26.9226235" lon="152.9225435">
<ele>42.285</ele>
<time>2017-09-13T00:11:45.477Z</time>
</trkpt>
<trkpt lat="-26.9219410" lon="152.9224940">
<ele>40.414</ele>
<time>2017-09-13T00:11:49.088Z</time>
</trkpt>
<trkpt lat="-26.9213814" lon="152.9223780">
<ele>40.108</ele>
<time>2017-09-13T00:11:52.343Z</time>
</trkpt>
<trkpt lat="-26.9208202" lon="152.9222623">
<ele>40.246</ele>
<time>2017-09-13T00:11:55.502Z</time>
</trkpt>
<trkpt lat="-26.9198825" lon="152.9223325">
<ele>40.592</ele>
<time>2017-09-13T00:12:00.495Z</time>
</trkpt>
<trkpt lat="-26.9192938" lon="152.9224982">
<ele>40.864</ele>
<time>2017-09-13T00:12:03.697Z</time>
</trkpt>
<trkpt lat="-26.9184744" lon="152.9226326">
<ele>40.903</ele>
<time>2017-09-13T00:12:07.896Z</time>
</trkpt>
<trkpt lat="-26.9178051" lon="152.9226419">
<ele>40.665</ele>
<time>2017-09-13T00:12:11.142Z</time>
</trkpt>
<trkpt lat="-26.9171493" lon="152.9226549">
<ele>40.348</ele>
<time>2017-09-13T00:12:14.160Z</time>
</trkpt>
<trkpt lat="-26.9167325" lon="152.9226583">
<ele>40.160</ele>
<time>2017-09-13T00:12:16.037Z</time>
</trkpt>
<trkpt lat="-26.9163413" lon="152.9226574">
<ele>40.109</ele>
<time>2017-09-13T00:12:17.833Z</time>
</trkpt>
<trkpt lat="-26.9157696" lon="152.9226594">
<ele>40.126</ele>
<time>2017-09-13T00:12:20.599Z</time>
</trkpt>
<trkpt lat="-26.9152383" lon="152.9226721">
<ele>40.312</ele>
<time>2017-09-13T00:12:23.335Z</time>
</trkpt>
<trkpt lat="-26.9147523" lon="152.9226920">
<ele>40.949</ele>
<time>2017-09-13T00:12:25.955Z</time>
</trkpt>
<trkpt lat="-26.9142435" lon="152.9227155">
<ele>42.132</ele>
<time>2017-09-13T00:12:28.847Z</time>
</trkpt>
<trkpt lat="-26.9137724" lon="152.9227998">
<ele>43.685</ele>
<time>2017-09-13T00:12:31.648Z</time>
</trkpt>
<trkpt lat="-26.9132874" lon="152.9229048">
<ele>45.205</ele>
<time>2017-09-13T00:12:34.606Z</time>
</trkpt>
<trkpt lat="-26.9129345" lon="152.9229854">
<ele>46.194</ele>
<time>2017-09-13T00:12:36.786Z</time>
</trkpt>
<trkpt lat="-26.9125854" lon="152.9230709">
<ele>46.430</ele>
<time>2017-09-13T00:12:38.954Z</time>
</trkpt>
<trkpt lat="-26.9122353" lon="152.9231637">
<ele>45.988</ele>
<time>2017-09-13T00:12:41.015Z</time>
</trkpt>
<trkpt lat="-26.9117146" lon="152.9232980">
<ele>45.066</ele>
<time>2017-09-13T00:12:43.997Z</time>
</trkpt>
<trkpt lat="-26.9112246" lon="152.9234160">
<ele>44.031</ele>
<time>2017-09-13T00:12:46.795Z</time>
</trkpt>
<trkpt lat="-26.9107843" lon="152.9235240">
<ele>43.273</ele>
<time>2017-09-13T00:12:49.363Z</time>
</trkpt>
<trkpt lat="-26.9104996" lon="152.9235967">
<ele>43.038</ele>
<time>2017-09-13T00:12:51.059Z</time>
</trkpt>
<trkpt lat="-26.9100701" lon="152.9237020">
<ele>43.332</ele>
<time>2017-09-13T00:12:53.783Z</time>
</trkpt>
<trkpt lat="-26.9097629" lon="152.9237733">
<ele>44.026</ele>
<time>2017-09-13T00:12:55.829Z</time>
</trkpt>
<trkpt lat="-26.9094414" lon="152.9238389">
<ele>44.987</ele>
<time>2017-09-13T00:12:58.012Z</time>
</trkpt>
<trkpt lat="-26.9089038" lon="152.9238987">
<ele>46.023</ele>
<time>2017-09-13T00:13:01.558Z</time>
</trkpt>
<trkpt lat="-26.9085026" lon="152.9239066">
<ele>46.840</ele>
<time>2017-09-13T00:13:03.999Z</time>
</trkpt>
<trkpt lat="-26.9080763" lon="152.9239141">
<ele>47.206</ele>
<time>2017-09-13T00:13:06.436Z</time>
</trkpt>
<trkpt lat="-26.9076430" lon="152.9239267">
<ele>47.044</ele>
<time>2017-09-13T00:13:08.669Z</time>
</trkpt>
<trkpt lat="-26.9070052" lon="152.9239197">
<ele>46.448</ele>
<time>2017-09-13T00:13:11.735Z</time>
</trkpt>
<trkpt lat="-26.9066232" lon="152.9239186">
<ele>45.709</ele>
<time>2017-09-13T00:13:13.533Z</time>
</trkpt>
<trkpt lat="-26.9062813" lon="152.9239174">
<ele>45.173</ele>
<time>2017-09-13T00:13:15.147Z</time>
</trkpt>
<trkpt lat="-26.9057649" lon="152.9239170">
<ele>44.978</ele>
<time>2017-09-13T00:13:17.740Z</time>
</trkpt>
<trkpt lat="-26.9054123" lon="152.9238938">
<ele>45.020</ele>
<time>2017-09-13T00:13:19.669Z</time>
</trkpt>
<trkpt lat="-26.9048657" lon="152.9238704">
<ele>45.055</ele>
<time>2017-09-13T00:13:22.788Z</time>
</trkpt>
<trkpt lat="-26.9045065" lon="152.9238497">
<ele>44.805</ele>
<time>2017-09-13T00:13:24.821Z</time>
</trkpt>
<trkpt lat="-26.9039728" lon="152.9238367">
<ele>44.255</ele>
<time>2017-09-13T00:13:27.774Z</time>
</trkpt>
<trkpt lat="-26.9034653" lon="152.9238209">
<ele>43.717</ele>
<time>2017-09-13T00:13:30.592Z</time>
</trkpt>
<trkpt lat="-26.9029891" lon="152.9237932">
<ele>43.602</ele>
<time>2017-09-13T00:13:33.321Z</time>
</trkpt>
<trkpt lat="-26.9025285" lon="152.9237743">
<ele>44.216</ele>
<time>2017-09-13T00:13:36.043Z</time>
</trkpt>
<trkpt lat="-26.9020621" lon="152.9237587">
<ele>45.620</ele>
<time>2017-09-13T00:13:38.885Z</time>
</trkpt>
<trkpt lat="-26.9015564" lon="152.9237439">
<ele>47.669</ele>
<time>2017-09-13T00:13:42.067Z</time>
</trkpt>
<trkpt lat="-26.9011956" lon="152.9237188">
<ele>50.159</ele>
<time>2017-09-13T00:13:44.355Z</time>
</trkpt>
<trkpt lat="-26.9006850" lon="152.9235839">
<ele>52.494</ele>
<time>2017-09-13T00:13:47.514Z</time>
</trkpt>
<trkpt lat="-26.9002431" lon="152.9231918">
<ele>53.923</ele>
<time>2017-09-13T00:13:50.744Z</time>
</trkpt>
<trkpt lat="-26.8997511" lon="152.9228276">
<ele>54.158</ele>
<time>2017-09-13T00:13:54.030Z</time>
</trkpt>
<trkpt lat="-26.8992494" lon="152.9225790">
<ele>53.262</ele>
<time>2017-09-13T00:13:56.942Z</time>
</trkpt>
<trkpt lat="-26.8987936" lon="152.9223575">
<ele>51.461</ele>
<time>2017-09-13T00:13:59.580Z</time>
</trkpt>
<trkpt lat="-26.8983781" lon="152.9221210">
<ele>49.513</ele>
<time>2017-09-13T00:14:02.158Z</time>
</trkpt>
<trkpt lat="-26.8981315" lon="152.9219318">
<ele>48.527</ele>
<time>2017-09-13T00:14:03.876Z</time>
</trkpt>
<trkpt lat="-26.8979219" lon="152.9216943">
<ele>49.070</ele>
<time>2017-09-13T00:14:05.722Z</time>
</trkpt>
<trkpt lat="-26.8977231" lon="152.9213589">
<ele>50.751</ele>
<time>2017-09-13T00:14:08.003Z</time>
</trkpt>
<trkpt lat="-26.8974093" lon="152.9208688">
<ele>52.842</ele>
<time>2017-09-13T00:14:11.566Z</time>
</trkpt>
<trkpt lat="-26.8971676" lon="152.9203524">
<ele>54.975</ele>
<time>2017-09-13T00:14:14.685Z</time>
</trkpt>
<trkpt lat="-26.8969012" lon="152.9198366">
<ele>57.045</ele>
<time>2017-09-13T00:14:17.749Z</time>
</trkpt>
<trkpt lat="-26.8965084" lon="152.9194726">
<ele>58.707</ele>
<time>2017-09-13T00:14:20.684Z</time>
</trkpt>
<trkpt lat="-26.8961990" lon="152.9193298">
<ele>59.511</ele>
<time>2017-09-13T00:14:22.608Z</time>
</trkpt>
<trkpt lat="-26.8957643" lon="152.9190779">
<ele>59.500</ele>
<time>2017-09-13T00:14:25.440Z</time>
</trkpt>
<trkpt lat="-26.8953552" lon="152.9187587">
<ele>59.164</ele>
<time>2017-09-13T00:14:28.470Z</time>
</trkpt>
<trkpt lat="-26.8950400" lon="152.9185038">
<ele>58.898</ele>
<time>2017-09-13T00:14:30.880Z</time>
</trkpt>
<trkpt lat="-26.8945868" lon="152.9181256">
<ele>58.812</ele>
<time>2017-09-13T00:14:34.252Z</time>
</trkpt>
<trkpt lat="-26.8943105" lon="152.9178992">
<ele>58.854</ele>
<time>2017-09-13T00:14:36.117Z</time>
</trkpt>
<trkpt lat="-26.8938681" lon="152.9175389">
<ele>58.927</ele>
<time>2017-09-13T00:14:39.075Z</time>
</trkpt>
<trkpt lat="-26.8935613" lon="152.9172794">
<ele>58.968</ele>
<time>2017-09-13T00:14:41.237Z</time>
</trkpt>
<trkpt lat="-26.8932563" lon="152.9170285">
<ele>58.977</ele>
<time>2017-09-13T00:14:43.366Z</time>
</trkpt>
<trkpt lat="-26.8927968" lon="152.9166976">
<ele>58.961</ele>
<time>2017-09-13T00:14:46.302Z</time>
</trkpt>
<trkpt lat="-26.8924743" lon="152.9164991">
<ele>58.820</ele>
<time>2017-09-13T00:14:48.267Z</time>
</trkpt>
<trkpt lat="-26.8920120" lon="152.9162332">
<ele>58.458</ele>
<time>2017-09-13T00:14:51.077Z</time>
</trkpt>
<trkpt lat="-26.8917002" lon="152.9160761">
<ele>57.991</ele>
<time>2017-09-13T00:14:52.980Z</time>
</trkpt>
<trkpt lat="-26.8912137" lon="152.9158385">
<ele>57.582</ele>
<time>2017-09-13T00:14:56.008Z</time>
</trkpt>
<trkpt lat="-26.8908965" lon="152.9156687">
<ele>57.106</ele>
<time>2017-09-13T00:14:58.047Z</time>
</trkpt>
<trkpt lat="-26.8904234" lon="152.9154405">
<ele>56.351</ele>
<time>2017-09-13T00:15:01.007Z</time>
</trkpt>
<trkpt lat="-26.8901132" lon="152.9152984">
<ele>55.326</ele>
<time>2017-09-13T00:15:02.924Z</time>
</trkpt>
<trkpt lat="-26.8898019" lon="152.9151466">
<ele>54.325</ele>
<time>2017-09-13T00:15:04.877Z</time>
</trkpt>
<trkpt lat="-26.8893503" lon="152.9149372">
<ele>53.692</ele>
<time>2017-09-13T00:15:07.770Z</time>
</trkpt>
<trkpt lat="-26.8889883" lon="152.9148882">
<ele>53.391</ele>
<time>2017-09-13T00:15:09.946Z</time>
</trkpt>
<trkpt lat="-26.8886200" lon="152.9149419">
<ele>53.150</ele>
<time>2017-09-13T00:15:12.165Z</time>
</trkpt>
<trkpt lat="-26.8881180" lon="152.9151694">
<ele>52.972</ele>
<time>2017-09-13T00:15:15.309Z</time>
</trkpt>
<trkpt lat="-26.8878188" lon="152.9153716">
<ele>53.126</ele>
<time>2017-09-13T00:15:17.274Z</time>
</trkpt>
<trkpt lat="-26.8873267" lon="152.9156952">
<ele>53.678</ele>
<time>2017-09-13T00:15:20.467Z</time>
</trkpt>
<trkpt lat="-26.8867944" lon="152.9159383">
<ele>54.275</ele>
<time>2017-09-13T00:15:23.609Z</time>
</trkpt>
<trkpt lat="-26.8864416" lon="152.9160592">
<ele>54.343</ele>
<time>2017-09-13T00:15:25.564Z</time>
</trkpt>
<trkpt lat="-26.8859668" lon="152.9162050">
<ele>53.573</ele>
<time>2017-09-13T00:15:28.163Z</time>
</trkpt>
<trkpt lat="-26.8854970" lon="152.9163387">
<ele>52.019</ele>
<time>2017-09-13T00:15:30.858Z</time>
</trkpt>
<trkpt lat="-26.8851806" lon="152.9164453">
<ele>49.955</ele>
<time>2017-09-13T00:15:32.792Z</time>
</trkpt>
<trkpt lat="-26.8846952" lon="152.9165859">
<ele>47.847</ele>
<time>2017-09-13T00:15:35.862Z</time>
</trkpt>
<trkpt lat="-26.8841971" lon="152.9167185">
<ele>46.156</ele>
<time>2017-09-13T00:15:39.002Z</time>
</trkpt>
<trkpt lat="-26.8836559" lon="152.9167934">
<ele>45.023</ele>
<time>2017-09-13T00:15:42.262Z</time>
</trkpt>
<trkpt lat="-26.8832853" lon="152.9168366">
<ele>44.264</ele>
<time>2017-09-13T00:15:44.398Z</time>
</trkpt>
<trkpt lat="-26.8827561" lon="152.9168649">
<ele>43.503</ele>
<time>2017-09-13T00:15:47.334Z</time>
</trkpt>
<trkpt lat="-26.8822931" lon="152.9168822">
<ele>42.683</ele>
<time>2017-09-13T00:15:49.851Z</time>
</trkpt>
<trkpt lat="-26.8819573" lon="152.9169074">
<ele>42.222</ele>
<time>2017-09-13T00:15:51.733Z</time>
</trkpt>
<trkpt lat="-26.8814098" lon="152.9169686">
<ele>42.481</ele>
<time>2017-09-13T00:15:55.000Z</time>
</trkpt>
<trkpt lat="-26.8808973" lon="152.9171291">
<ele>43.515</ele>
<time>2017-09-13T00:15:58.117Z</time>
</trkpt>
<trkpt lat="-26.8804583" lon="152.9173417">
<ele>45.181</ele>
<time>2017-09-13T00:16:00.821Z</time>
</trkpt>
<trkpt lat="-26.8801702" lon="152.9174885">
<ele>47.267</ele>
<time>2017-09-13T00:16:02.638Z</time>
</trkpt>
<trkpt lat="-26.8797203" lon="152.9177261">
<ele>49.404</ele>
<time>2017-09-13T00:16:05.637Z</time>
</trkpt>
<trkpt lat="-26.8794180" lon="152.9178876">
<ele>51.179</ele>
<time>2017-09-13T00:16:07.720Z</time>
</trkpt>
<trkpt lat="-26.8789626" lon="152.9181188">
<ele>52.360</ele>
<time>2017-09-13T00:16:10.794Z</time>
</trkpt>
<trkpt lat="-26.8784590" lon="152.9183013">
<ele>52.831</ele>
<time>2017-09-13T00:16:13.970Z</time>
</trkpt>
<trkpt lat="-26.8779305" lon="152.9184252">
<ele>52.718</ele>
<time>2017-09-13T00:16:17.114Z</time>
</trkpt>
<trkpt lat="-26.8775969" lon="152.9184931">
<ele>52.454</ele>
<time>2017-09-13T00:16:19.041Z</time>
</trkpt>
<trkpt lat="-26.8772727" lon="152.9185411">
<ele>52.401</ele>
<time>2017-09-13T00:16:20.878Z</time>
</trkpt>
<trkpt lat="-26.8769427" lon="152.9185828">
<ele>52.652</ele>
<time>2017-09-13T00:16:22.796Z</time>
</trkpt>
<trkpt lat="-26.8764378" lon="152.9186493">
<ele>53.138</ele>
<time>2017-09-13T00:16:25.844Z</time>
</trkpt>
<trkpt lat="-26.8759548" lon="152.9187520">
<ele>53.677</ele>
<time>2017-09-13T00:16:28.819Z</time>
</trkpt>
<trkpt lat="-26.8756482" lon="152.9188280">
<ele>53.922</ele>
<time>2017-09-13T00:16:30.718Z</time>
</trkpt>
<trkpt lat="-26.8753667" lon="152.9189472">
<ele>53.617</ele>
<time>2017-09-13T00:16:32.542Z</time>
</trkpt>
<trkpt lat="-26.8749718" lon="152.9191895">
<ele>52.833</ele>
<time>2017-09-13T00:16:35.379Z</time>
</trkpt>
<trkpt lat="-26.8747041" lon="152.9194167">
<ele>51.624</ele>
<time>2017-09-13T00:16:37.577Z</time>
</trkpt>
<trkpt lat="-26.8744573" lon="152.9196442">
<ele>49.963</ele>
<time>2017-09-13T00:16:39.685Z</time>
</trkpt>
<trkpt lat="-26.8741195" lon="152.9200300">
<ele>48.014</ele>
<time>2017-09-13T00:16:42.737Z</time>
</trkpt>
<trkpt lat="-26.8739195" lon="152.9202804">
<ele>45.808</ele>
<time>2017-09-13T00:16:44.587Z</time>
</trkpt>
<trkpt lat="-26.8736304" lon="152.9206466">
<ele>43.295</ele>
<time>2017-09-13T00:16:47.301Z</time>
</trkpt>
<trkpt lat="-26.8734489" lon="152.9208995">
<ele>40.755</ele>
<time>2017-09-13T00:16:49.166Z</time>
</trkpt>
<trkpt lat="-26.8731532" lon="152.9213090">
<ele>38.634</ele>
<time>2017-09-13T00:16:52.359Z</time>
</trkpt>
<trkpt lat="-26.8728597" lon="152.9217419">
<ele>37.156</ele>
<time>2017-09-13T00:16:55.660Z</time>
</trkpt>
<trkpt lat="-26.8726781" lon="152.9220126">
<ele>36.167</ele>
<time>2017-09-13T00:16:57.647Z</time>
</trkpt>
<trkpt lat="-26.8725170" lon="152.9222463">
<ele>35.344</ele>
<time>2017-09-13T00:16:59.337Z</time>
</trkpt>
<trkpt lat="-26.8723544" lon="152.9225021">
<ele>34.659</ele>
<time>2017-09-13T00:17:01.147Z</time>
</trkpt>
<trkpt lat="-26.8721254" lon="152.9228788">
<ele>34.341</ele>
<time>2017-09-13T00:17:03.851Z</time>
</trkpt>
<trkpt lat="-26.8718751" lon="152.9232582">
<ele>34.696</ele>
<time>2017-09-13T00:17:06.880Z</time>
</trkpt>
<trkpt lat="-26.8716989" lon="152.9235084">
<ele>35.973</ele>
<time>2017-09-13T00:17:08.997Z</time>
</trkpt>
<trkpt lat="-26.8713672" lon="152.9237813">
<ele>38.020</ele>
<time>2017-09-13T00:17:12.087Z</time>
</trkpt>
<trkpt lat="-26.8710789" lon="152.9238029">
<ele>40.394</ele>
<time>2017-09-13T00:17:14.211Z</time>
</trkpt>
<trkpt lat="-26.8707652" lon="152.9237424">
<ele>42.700</ele>
<time>2017-09-13T00:17:16.582Z</time>
</trkpt>
<trkpt lat="-26.8703185" lon="152.9236117">
<ele>44.443</ele>
<time>2017-09-13T00:17:19.925Z</time>
</trkpt>
<trkpt lat="-26.8699790" lon="152.9235958">
<ele>45.146</ele>
<time>2017-09-13T00:17:22.196Z</time>
</trkpt>
<trkpt lat="-26.8696562" lon="152.9236413">
<ele>44.834</ele>
<time>2017-09-13T00:17:24.298Z</time>
</trkpt>
<trkpt lat="-26.8693609" lon="152.9237028">
<ele>44.002</ele>
<time>2017-09-13T00:17:26.161Z</time>
</trkpt>
<trkpt lat="-26.8689192" lon="152.9237642">
<ele>43.249</ele>
<time>2017-09-13T00:17:28.947Z</time>
</trkpt>
<trkpt lat="-26.8684672" lon="152.9238246">
<ele>42.958</ele>
<time>2017-09-13T00:17:31.927Z</time>
</trkpt>
<trkpt lat="-26.8681641" lon="152.9238643">
<ele>43.125</ele>
<time>2017-09-13T00:17:33.954Z</time>
</trkpt>
<trkpt lat="-26.8676692" lon="152.9239462">
<ele>43.417</ele>
<time>2017-09-13T00:17:37.258Z</time>
</trkpt>
<trkpt lat="-26.8673541" lon="152.9240069">
<ele>43.380</ele>
<time>2017-09-13T00:17:39.278Z</time>
</trkpt>
<trkpt lat="-26.8670552" lon="152.9240644">
<ele>42.798</ele>
<time>2017-09-13T00:17:41.159Z</time>
</trkpt>
<trkpt lat="-26.8667625" lon="152.9240923">
<ele>41.889</ele>
<time>2017-09-13T00:17:42.962Z</time>
</trkpt>
<trkpt lat="-26.8664605" lon="152.9241302">
<ele>40.991</ele>
<time>2017-09-13T00:17:44.902Z</time>
</trkpt>
<trkpt lat="-26.8660072" lon="152.9242549">
<ele>40.196</ele>
<time>2017-09-13T00:17:47.987Z</time>
</trkpt>
<trkpt lat="-26.8655766" lon="152.9244363">
<ele>39.468</ele>
<time>2017-09-13T00:17:51.006Z</time>
</trkpt>
<trkpt lat="-26.8651760" lon="152.9245906">
<ele>38.854</ele>
<time>2017-09-13T00:17:53.772Z</time>
</trkpt>
<trkpt lat="-26.8648034" lon="152.9248246">
<ele>38.710</ele>
<time>2017-09-13T00:17:56.616Z</time>
</trkpt>
<trkpt lat="-26.8644306" lon="152.9251565">
<ele>39.402</ele>
<time>2017-09-13T00:17:59.871Z</time>
</trkpt>
<trkpt lat="-26.8642290" lon="152.9254216">
<ele>40.598</ele>
<time>2017-09-13T00:18:01.960Z</time>
</trkpt>
<trkpt lat="-26.8640479" lon="152.9257035">
<ele>41.365</ele>
<time>2017-09-13T00:18:03.984Z</time>
</trkpt>
<trkpt lat="-26.8638662" lon="152.9259871">
<ele>41.119</ele>
<time>2017-09-13T00:18:05.968Z</time>
</trkpt>
<trkpt lat="-26.8636788" lon="152.9262736">
<ele>40.046</ele>
<time>2017-09-13T00:18:08.002Z</time>
</trkpt>
<trkpt lat="-26.8635064" lon="152.9265353">
<ele>38.811</ele>
<time>2017-09-13T00:18:09.863Z</time>
</trkpt>
<trkpt lat="-26.8633257" lon="152.9268005">
<ele>38.064</ele>
<time>2017-09-13T00:18:11.775Z</time>
</trkpt>
<trkpt lat="-26.8631440" lon="152.9270598">
<ele>38.076</ele>
<time>2017-09-13T00:18:13.703Z</time>
</trkpt>
<trkpt lat="-26.8628452" lon="152.9274577">
<ele>38.624</ele>
<time>2017-09-13T00:18:16.799Z</time>
</trkpt>
<trkpt lat="-26.8626396" lon="152.9277330">
<ele>39.230</ele>
<time>2017-09-13T00:18:18.926Z</time>
</trkpt>
<trkpt lat="-26.8624432" lon="152.9280032">
<ele>39.512</ele>
<time>2017-09-13T00:18:20.971Z</time>
</trkpt>
<trkpt lat="-26.8621435" lon="152.9284146">
<ele>39.378</ele>
<time>2017-09-13T00:18:24.009Z</time>
</trkpt>
<trkpt lat="-26.8619541" lon="152.9286783">
<ele>39.004</ele>
<time>2017-09-13T00:18:25.945Z</time>
</trkpt>
<trkpt lat="-26.8616625" lon="152.9290742">
<ele>38.686</ele>
<time>2017-09-13T00:18:28.892Z</time>
</trkpt>
<trkpt lat="-26.8614781" lon="152.9293445">
<ele>38.539</ele>
<time>2017-09-13T00:18:30.867Z</time>
</trkpt>
<trkpt lat="-26.8611885" lon="152.9297832">
<ele>38.395</ele>
<time>2017-09-13T00:18:34.052Z</time>
</trkpt>
<trkpt lat="-26.8609425" lon="152.9300289">
<ele>38.009</ele>
<time>2017-09-13T00:18:36.171Z</time>
</trkpt>
<trkpt lat="-26.8605385" lon="152.9302642">
<ele>37.352</ele>
<time>2017-09-13T00:18:39.033Z</time>
</trkpt>
<trkpt lat="-26.8602936" lon="152.9303560">
<ele>36.592</ele>
<time>2017-09-13T00:18:40.663Z</time>
</trkpt>
<trkpt lat="-26.8600455" lon="152.9304580">
<ele>35.860</ele>
<time>2017-09-13T00:18:42.385Z</time>
</trkpt>
<trkpt lat="-26.8597785" lon="152.9305841">
<ele>35.248</ele>
<time>2017-09-13T00:18:44.408Z</time>
</trkpt>
<trkpt lat="-26.8595267" lon="152.9307868">
<ele>34.837</ele>
<time>2017-09-13T00:18:46.703Z</time>
</trkpt>
<trkpt lat="-26.8593374" lon="152.9310482">
<ele>34.574</ele>
<time>2017-09-13T00:18:48.890Z</time>
</trkpt>
<trkpt lat="-26.8592125" lon="152.9313734">
<ele>34.266</ele>
<time>2017-09-13T00:18:51.085Z</time>
</trkpt>
<trkpt lat="-26.8591181" lon="152.9317355">
<ele>33.738</ele>
<time>2017-09-13T00:18:53.358Z</time>
</trkpt>
<trkpt lat="-26.8589389" lon="152.9322324">
<ele>33.061</ele>
<time>2017-09-13T00:18:56.469Z</time>
</trkpt>
<trkpt lat="-26.8588253" lon="152.9325240">
<ele>32.514</ele>
<time>2017-09-13T00:18:58.235Z</time>
</trkpt>
<trkpt lat="-26.8587171" lon="152.9328285">
<ele>32.336</ele>
<time>2017-09-13T00:19:00.041Z</time>
</trkpt>
<trkpt lat="-26.8586048" lon="152.9331439">
<ele>32.598</ele>
<time>2017-09-13T00:19:01.988Z</time>
</trkpt>
<trkpt lat="-26.8584136" lon="152.9336016">
<ele>33.189</ele>
<time>2017-09-13T00:19:05.048Z</time>
</trkpt>
<trkpt lat="-26.8582115" lon="152.9340826">
<ele>33.808</ele>
<time>2017-09-13T00:19:08.254Z</time>
</trkpt>
<trkpt lat="-26.8581213" lon="152.9344128">
<ele>34.108</ele>
<time>2017-09-13T00:19:10.313Z</time>
</trkpt>
<trkpt lat="-26.8580293" lon="152.9347562">
<ele>33.905</ele>
<time>2017-09-13T00:19:12.429Z</time>
</trkpt>
<trkpt lat="-26.8579364" lon="152.9350903">
<ele>33.300</ele>
<time>2017-09-13T00:19:14.462Z</time>
</trkpt>
<trkpt lat="-26.8578046" lon="152.9355708">
<ele>32.542</ele>
<time>2017-09-13T00:19:17.403Z</time>
</trkpt>
<trkpt lat="-26.8577322" lon="152.9358747">
<ele>31.799</ele>
<time>2017-09-13T00:19:19.280Z</time>
</trkpt>
<trkpt lat="-26.8576616" lon="152.9363756">
<ele>31.158</ele>
<time>2017-09-13T00:19:22.375Z</time>
</trkpt>
<trkpt lat="-26.8576128" lon="152.9369047">
<ele>30.671</ele>
<time>2017-09-13T00:19:25.616Z</time>
</trkpt>
<trkpt lat="-26.8575968" lon="152.9372397">
<ele>30.279</ele>
<time>2017-09-13T00:19:27.573Z</time>
</trkpt>
<trkpt lat="-26.8575702" lon="152.9377355">
<ele>29.886</ele>
<time>2017-09-13T00:19:30.436Z</time>
</trkpt>
<trkpt lat="-26.8574987" lon="152.9380443">
<ele>29.482</ele>
<time>2017-09-13T00:19:32.302Z</time>
</trkpt>
<trkpt lat="-26.8572377" lon="152.9384976">
<ele>29.060</ele>
<time>2017-09-13T00:19:35.495Z</time>
</trkpt>
<trkpt lat="-26.8570207" lon="152.9386839">
<ele>28.504</ele>
<time>2017-09-13T00:19:37.318Z</time>
</trkpt>
<trkpt lat="-26.8568273" lon="152.9388362">
<ele>27.732</ele>
<time>2017-09-13T00:19:38.893Z</time>
</trkpt>
<trkpt lat="-26.8566956" lon="152.9389206">
<ele>26.829</ele>
<time>2017-09-13T00:19:39.943Z</time>
</trkpt>
<trkpt lat="-26.8565975" lon="152.9389518">
<ele>25.861</ele>
<time>2017-09-13T00:19:40.651Z</time>
</trkpt>
<trkpt lat="-26.8565068" lon="152.9389856">
<ele>24.749</ele>
<time>2017-09-13T00:19:41.346Z</time>
</trkpt>
<trkpt lat="-26.8562903" lon="152.9390816">
<ele>23.650</ele>
<time>2017-09-13T00:19:43.152Z</time>
</trkpt>
<trkpt lat="-26.8559410" lon="152.9392886">
<ele>22.996</ele>
<time>2017-09-13T00:19:48.485Z</time>
</trkpt>
<trkpt lat="-26.8556983" lon="152.9394322">
<ele>23.009</ele>
<time>2017-09-13T00:19:52.202Z</time>
</trkpt>
<trkpt lat="-26.8554671" lon="152.9395458">
<ele>23.663</ele>
<time>2017-09-13T00:19:54.330Z</time>
</trkpt>
<trkpt lat="-26.8550979" lon="152.9396691">
<ele>24.979</ele>
<time>2017-09-13T00:19:57.322Z</time>
</trkpt>
<trkpt lat="-26.8547001" lon="152.9396970">
<ele>27.024</ele>
<time>2017-09-13T00:20:00.473Z</time>
</trkpt>
<trkpt lat="-26.8544278" lon="152.9396496">
<ele>29.663</ele>
<time>2017-09-13T00:20:02.706Z</time>
</trkpt>
<trkpt lat="-26.8539979" lon="152.9395930">
<ele>32.260</ele>
<time>2017-09-13T00:20:06.139Z</time>
</trkpt>
<trkpt lat="-26.8537499" lon="152.9395487">
<ele>34.011</ele>
<time>2017-09-13T00:20:08.037Z</time>
</trkpt>
<trkpt lat="-26.8534002" lon="152.9394538">
<ele>34.679</ele>
<time>2017-09-13T00:20:10.720Z</time>
</trkpt>
<trkpt lat="-26.8529835" lon="152.9392811">
<ele>34.643</ele>
<time>2017-09-13T00:20:14.251Z</time>
</trkpt>
<trkpt lat="-26.8527205" lon="152.9391599">
<ele>34.462</ele>
<time>2017-09-13T00:20:16.495Z</time>
</trkpt>
<trkpt lat="-26.8524465" lon="152.9390479">
<ele>34.476</ele>
<time>2017-09-13T00:20:18.701Z</time>
</trkpt>
<trkpt lat="-26.8520049" lon="152.9389920">
<ele>34.692</ele>
<time>2017-09-13T00:20:21.894Z</time>
</trkpt>
<trkpt lat="-26.8516880" lon="152.9390100">
<ele>35.088</ele>
<time>2017-09-13T00:20:24.094Z</time>
</trkpt>
<trkpt lat="-26.8512123" lon="152.9390413">
<ele>35.814</ele>
<time>2017-09-13T00:20:27.264Z</time>
</trkpt>
<trkpt lat="-26.8507659" lon="152.9390168">
<ele>37.066</ele>
<time>2017-09-13T00:20:30.143Z</time>
</trkpt>
<trkpt lat="-26.8504759" lon="152.9389848">
<ele>38.805</ele>
<time>2017-09-13T00:20:32.065Z</time>
</trkpt>
<trkpt lat="-26.8500432" lon="152.9389250">
<ele>40.515</ele>
<time>2017-09-13T00:20:35.006Z</time>
</trkpt>
<trkpt lat="-26.8497377" lon="152.9388741">
<ele>41.590</ele>
<time>2017-09-13T00:20:37.097Z</time>
</trkpt>
<trkpt lat="-26.8493257" lon="152.9388010">
<ele>41.830</ele>
<time>2017-09-13T00:20:39.879Z</time>
</trkpt>
<trkpt lat="-26.8489110" lon="152.9387271">
<ele>41.323</ele>
<time>2017-09-13T00:20:42.781Z</time>
</trkpt>
<trkpt lat="-26.8486025" lon="152.9386766">
<ele>40.389</ele>
<time>2017-09-13T00:20:44.988Z</time>
</trkpt>
<trkpt lat="-26.8481453" lon="152.9385923">
<ele>39.554</ele>
<time>2017-09-13T00:20:48.153Z</time>
</trkpt>
<trkpt lat="-26.8477011" lon="152.9385240">
<ele>39.171</ele>
<time>2017-09-13T00:20:51.074Z</time>
</trkpt>
<trkpt lat="-26.8472614" lon="152.9384874">
<ele>39.273</ele>
<time>2017-09-13T00:20:53.986Z</time>
</trkpt>
<trkpt lat="-26.8469618" lon="152.9384728">
<ele>39.760</ele>
<time>2017-09-13T00:20:56.011Z</time>
</trkpt>
<trkpt lat="-26.8465094" lon="152.9384854">
<ele>40.463</ele>
<time>2017-09-13T00:20:59.062Z</time>
</trkpt>
<trkpt lat="-26.8462139" lon="152.9385086">
<ele>41.123</ele>
<time>2017-09-13T00:21:01.038Z</time>
</trkpt>
<trkpt lat="-26.8459138" lon="152.9385366">
<ele>41.542</ele>
<time>2017-09-13T00:21:03.050Z</time>
</trkpt>
<trkpt lat="-26.8456106" lon="152.9385628">
<ele>41.711</ele>
<time>2017-09-13T00:21:05.087Z</time>
</trkpt>
<trkpt lat="-26.8451399" lon="152.9386137">
<ele>41.729</ele>
<time>2017-09-13T00:21:08.225Z</time>
</trkpt>
<trkpt lat="-26.8446764" lon="152.9386640">
<ele>41.692</ele>
<time>2017-09-13T00:21:11.244Z</time>
</trkpt>
<trkpt lat="-26.8443569" lon="152.9386836">
<ele>41.547</ele>
<time>2017-09-13T00:21:13.305Z</time>
</trkpt>
<trkpt lat="-26.8438831" lon="152.9387060">
<ele>41.121</ele>
<time>2017-09-13T00:21:16.343Z</time>
</trkpt>
<trkpt lat="-26.8434215" lon="152.9387104">
<ele>40.291</ele>
<time>2017-09-13T00:21:19.274Z</time>
</trkpt>
<trkpt lat="-26.8431146" lon="152.9386835">
<ele>39.183</ele>
<time>2017-09-13T00:21:21.264Z</time>
</trkpt>
<trkpt lat="-26.8428065" lon="152.9386404">
<ele>38.156</ele>
<time>2017-09-13T00:21:23.291Z</time>
</trkpt>
<trkpt lat="-26.8424903" lon="152.9385793">
<ele>37.466</ele>
<time>2017-09-13T00:21:25.385Z</time>
</trkpt>
<trkpt lat="-26.8420387" lon="152.9384855">
<ele>37.104</ele>
<time>2017-09-13T00:21:28.324Z</time>
</trkpt>
<trkpt lat="-26.8417370" lon="152.9384305">
<ele>36.977</ele>
<time>2017-09-13T00:21:30.273Z</time>
</trkpt>
<trkpt lat="-26.8412928" lon="152.9383760">
<ele>36.996</ele>
<time>2017-09-13T00:21:33.162Z</time>
</trkpt>
<trkpt lat="-26.8409925" lon="152.9383797">
<ele>37.100</ele>
<time>2017-09-13T00:21:35.145Z</time>
</trkpt>
<trkpt lat="-26.8406956" lon="152.9384143">
<ele>37.289</ele>
<time>2017-09-13T00:21:37.140Z</time>
</trkpt>
<trkpt lat="-26.8402544" lon="152.9384990">
<ele>37.583</ele>
<time>2017-09-13T00:21:40.170Z</time>
</trkpt>
<trkpt lat="-26.8399416" lon="152.9385564">
<ele>38.043</ele>
<time>2017-09-13T00:21:42.290Z</time>
</trkpt>
<trkpt lat="-26.8394704" lon="152.9386494">
<ele>38.725</ele>
<time>2017-09-13T00:21:45.431Z</time>
</trkpt>
<trkpt lat="-26.8391692" lon="152.9387171">
<ele>39.697</ele>
<time>2017-09-13T00:21:47.407Z</time>
</trkpt>
<trkpt lat="-26.8388530" lon="152.9387728">
<ele>40.985</ele>
<time>2017-09-13T00:21:49.470Z</time>
</trkpt>
<trkpt lat="-26.8383924" lon="152.9387898">
<ele>42.428</ele>
<time>2017-09-13T00:21:52.448Z</time>
</trkpt>
<trkpt lat="-26.8380733" lon="152.9387785">
<ele>43.839</ele>
<time>2017-09-13T00:21:54.493Z</time>
</trkpt>
<trkpt lat="-26.8375976" lon="152.9388444">
<ele>45.108</ele>
<time>2017-09-13T00:21:57.538Z</time>
</trkpt>
<trkpt lat="-26.8372771" lon="152.9389124">
<ele>46.037</ele>
<time>2017-09-13T00:21:59.586Z</time>
</trkpt>
<trkpt lat="-26.8367878" lon="152.9390068">
<ele>46.500</ele>
<time>2017-09-13T00:22:02.660Z</time>
</trkpt>
<trkpt lat="-26.8363208" lon="152.9390971">
<ele>46.637</ele>
<time>2017-09-13T00:22:05.553Z</time>
</trkpt>
<trkpt lat="-26.8358545" lon="152.9391975">
<ele>46.734</ele>
<time>2017-09-13T00:22:08.482Z</time>
</trkpt>
<trkpt lat="-26.8355386" lon="152.9393000">
<ele>47.058</ele>
<time>2017-09-13T00:22:10.554Z</time>
</trkpt>
<trkpt lat="-26.8352326" lon="152.9394722">
<ele>47.705</ele>
<time>2017-09-13T00:22:12.690Z</time>
</trkpt>
<trkpt lat="-26.8348766" lon="152.9398200">
<ele>48.557</ele>
<time>2017-09-13T00:22:15.575Z</time>
</trkpt>
<trkpt lat="-26.8345835" lon="152.9402253">
<ele>49.473</ele>
<time>2017-09-13T00:22:18.462Z</time>
</trkpt>
<trkpt lat="-26.8343130" lon="152.9406440">
<ele>50.441</ele>
<time>2017-09-13T00:22:21.396Z</time>
</trkpt>
<trkpt lat="-26.8341309" lon="152.9409097">
<ele>51.521</ele>
<time>2017-09-13T00:22:23.323Z</time>
</trkpt>
<trkpt lat="-26.8338679" lon="152.9413109">
<ele>52.631</ele>
<time>2017-09-13T00:22:26.254Z</time>
</trkpt>
<trkpt lat="-26.8336838" lon="152.9416167">
<ele>53.474</ele>
<time>2017-09-13T00:22:28.466Z</time>
</trkpt>
<trkpt lat="-26.8334174" lon="152.9420376">
<ele>53.752</ele>
<time>2017-09-13T00:22:31.474Z</time>
</trkpt>
<trkpt lat="-26.8331925" lon="152.9424681">
<ele>53.090</ele>
<time>2017-09-13T00:22:34.347Z</time>
</trkpt>
<trkpt lat="-26.8331244" lon="152.9427632">
<ele>51.230</ele>
<time>2017-09-13T00:22:36.201Z</time>
</trkpt>
<trkpt lat="-26.8330199" lon="152.9432598">
<ele>48.732</ele>
<time>2017-09-13T00:22:39.530Z</time>
</trkpt>
<trkpt lat="-26.8326926" lon="152.9436507">
<ele>46.726</ele>
<time>2017-09-13T00:22:43.049Z</time>
</trkpt>
<trkpt lat="-26.8324526" lon="152.9438839">
<ele>45.767</ele>
<time>2017-09-13T00:22:45.275Z</time>
</trkpt>
<trkpt lat="-26.8321095" lon="152.9442167">
<ele>45.583</ele>
<time>2017-09-13T00:22:48.349Z</time>
</trkpt>
<trkpt lat="-26.8318766" lon="152.9444305">
<ele>45.641</ele>
<time>2017-09-13T00:22:50.382Z</time>
</trkpt>
<trkpt lat="-26.8316091" lon="152.9446251">
<ele>45.627</ele>
<time>2017-09-13T00:22:52.561Z</time>
</trkpt>
<trkpt lat="-26.8311602" lon="152.9447499">
<ele>45.566</ele>
<time>2017-09-13T00:22:55.703Z</time>
</trkpt>
<trkpt lat="-26.8307063" lon="152.9448521">
<ele>45.689</ele>
<time>2017-09-13T00:22:58.802Z</time>
</trkpt>
<trkpt lat="-26.8303973" lon="152.9449612">
<ele>46.195</ele>
<time>2017-09-13T00:23:00.935Z</time>
</trkpt>
<trkpt lat="-26.8301320" lon="152.9451536">
<ele>47.051</ele>
<time>2017-09-13T00:23:02.967Z</time>
</trkpt>
<trkpt lat="-26.8298125" lon="152.9455122">
<ele>47.946</ele>
<time>2017-09-13T00:23:05.869Z</time>
</trkpt>
<trkpt lat="-26.8294798" lon="152.9458647">
<ele>48.561</ele>
<time>2017-09-13T00:23:08.895Z</time>
</trkpt>
<trkpt lat="-26.8292583" lon="152.9467709">
<ele>48.640</ele>
<time>2017-09-13T00:23:14.374Z</time>
</trkpt>
<trkpt lat="-26.8292061" lon="152.9473191">
<ele>48.361</ele>
<time>2017-09-13T00:23:17.489Z</time>
</trkpt>
<trkpt lat="-26.8288899" lon="152.9479106">
<ele>48.259</ele>
<time>2017-09-13T00:23:21.436Z</time>
</trkpt>
<trkpt lat="-26.8283472" lon="152.9484973">
<ele>48.462</ele>
<time>2017-09-13T00:23:26.427Z</time>
</trkpt>
<trkpt lat="-26.8277299" lon="152.9486411">
<ele>48.859</ele>
<time>2017-09-13T00:23:30.563Z</time>
</trkpt>
<trkpt lat="-26.8272257" lon="152.9486137">
<ele>48.970</ele>
<time>2017-09-13T00:23:33.678Z</time>
</trkpt>
<trkpt lat="-26.8264642" lon="152.9485817">
<ele>48.248</ele>
<time>2017-09-13T00:23:38.468Z</time>
</trkpt>
<trkpt lat="-26.8257290" lon="152.9485399">
<ele>46.540</ele>
<time>2017-09-13T00:23:43.290Z</time>
</trkpt>
<trkpt lat="-26.8249840" lon="152.9485265">
<ele>44.399</ele>
<time>2017-09-13T00:23:48.216Z</time>
</trkpt>
<trkpt lat="-26.8245817" lon="152.9487235">
<ele>42.952</ele>
<time>2017-09-13T00:23:51.169Z</time>
</trkpt>
<trkpt lat="-26.8242060" lon="152.9491430">
<ele>42.859</ele>
<time>2017-09-13T00:23:54.544Z</time>
</trkpt>
<trkpt lat="-26.8237079" lon="152.9495254">
<ele>43.656</ele>
<time>2017-09-13T00:23:58.232Z</time>
</trkpt>
<trkpt lat="-26.8230244" lon="152.9500922">
<ele>44.645</ele>
<time>2017-09-13T00:24:03.529Z</time>
</trkpt>
<trkpt lat="-26.8226441" lon="152.9504171">
<ele>45.452</ele>
<time>2017-09-13T00:24:06.496Z</time>
</trkpt>
<trkpt lat="-26.8222793" lon="152.9507689">
<ele>45.764</ele>
<time>2017-09-13T00:24:09.524Z</time>
</trkpt>
<trkpt lat="-26.8219401" lon="152.9511308">
<ele>45.187</ele>
<time>2017-09-13T00:24:12.498Z</time>
</trkpt>
<trkpt lat="-26.8212285" lon="152.9514460">
<ele>43.582</ele>
<time>2017-09-13T00:24:17.439Z</time>
</trkpt>
<trkpt lat="-26.8206066" lon="152.9513214">
<ele>41.068</ele>
<time>2017-09-13T00:24:21.479Z</time>
</trkpt>
<trkpt lat="-26.8198957" lon="152.9509650">
<ele>38.375</ele>
<time>2017-09-13T00:24:26.405Z</time>
</trkpt>
<trkpt lat="-26.8192944" lon="152.9507396">
<ele>36.829</ele>
<time>2017-09-13T00:24:30.470Z</time>
</trkpt>
<trkpt lat="-26.8185929" lon="152.9505363">
<ele>37.195</ele>
<time>2017-09-13T00:24:35.224Z</time>
</trkpt>
<trkpt lat="-26.8180997" lon="152.9505972">
<ele>39.109</ele>
<time>2017-09-13T00:24:38.413Z</time>
</trkpt>
<trkpt lat="-26.8173321" lon="152.9509004">
<ele>41.696</ele>
<time>2017-09-13T00:24:43.426Z</time>
</trkpt>
<trkpt lat="-26.8169391" lon="152.9511748">
<ele>44.086</ele>
<time>2017-09-13T00:24:46.318Z</time>
</trkpt>
<trkpt lat="-26.8162700" lon="152.9515005">
<ele>45.689</ele>
<time>2017-09-13T00:24:51.113Z</time>
</trkpt>
<trkpt lat="-26.8157490" lon="152.9521396">
<ele>46.027</ele>
<time>2017-09-13T00:24:56.199Z</time>
</trkpt>
<trkpt lat="-26.8154089" lon="152.9529432">
<ele>45.049</ele>
<time>2017-09-13T00:25:01.222Z</time>
</trkpt>
<trkpt lat="-26.8150809" lon="152.9535616">
<ele>43.556</ele>
<time>2017-09-13T00:25:05.204Z</time>
</trkpt>
<trkpt lat="-26.8147546" lon="152.9541774">
<ele>42.360</ele>
<time>2017-09-13T00:25:09.189Z</time>
</trkpt>
<trkpt lat="-26.8144427" lon="152.9545974">
<ele>41.465</ele>
<time>2017-09-13T00:25:12.266Z</time>
</trkpt>
<trkpt lat="-26.8141607" lon="152.9550119">
<ele>40.654</ele>
<time>2017-09-13T00:25:15.201Z</time>
</trkpt>
<trkpt lat="-26.8138658" lon="152.9554168">
<ele>39.977</ele>
<time>2017-09-13T00:25:18.184Z</time>
</trkpt>
<trkpt lat="-26.8136759" lon="152.9556756">
<ele>39.450</ele>
<time>2017-09-13T00:25:20.130Z</time>
</trkpt>
<trkpt lat="-26.8133269" lon="152.9560523">
<ele>38.858</ele>
<time>2017-09-13T00:25:23.297Z</time>
</trkpt>
<trkpt lat="-26.8129553" lon="152.9563556">
<ele>37.978</ele>
<time>2017-09-13T00:25:26.317Z</time>
</trkpt>
<trkpt lat="-26.8122172" lon="152.9568976">
<ele>36.927</ele>
<time>2017-09-13T00:25:32.202Z</time>
</trkpt>
<trkpt lat="-26.8119516" lon="152.9570944">
<ele>36.618</ele>
<time>2017-09-13T00:25:34.297Z</time>
</trkpt>
<trkpt lat="-26.8115583" lon="152.9573890">
<ele>37.747</ele>
<time>2017-09-13T00:25:37.332Z</time>
</trkpt>
<trkpt lat="-26.8111530" lon="152.9576802">
<ele>39.668</ele>
<time>2017-09-13T00:25:40.357Z</time>
</trkpt>
<trkpt lat="-26.8107161" lon="152.9579311">
<ele>41.250</ele>
<time>2017-09-13T00:25:43.387Z</time>
</trkpt>
<trkpt lat="-26.8102977" lon="152.9581066">
<ele>41.873</ele>
<time>2017-09-13T00:25:46.227Z</time>
</trkpt>
<trkpt lat="-26.8100191" lon="152.9582230">
<ele>41.430</ele>
<time>2017-09-13T00:25:48.199Z</time>
</trkpt>
<trkpt lat="-26.8097544" lon="152.9583280">
<ele>40.393</ele>
<time>2017-09-13T00:25:50.132Z</time>
</trkpt>
<trkpt lat="-26.8094077" lon="152.9584643">
<ele>39.408</ele>
<time>2017-09-13T00:25:52.837Z</time>
</trkpt>
<trkpt lat="-26.8092333" lon="152.9585283">
<ele>38.724</ele>
<time>2017-09-13T00:25:54.269Z</time>
</trkpt>
<trkpt lat="-26.8090596" lon="152.9583964">
<ele>38.230</ele>
<time>2017-09-13T00:25:56.211Z</time>
</trkpt>
<trkpt lat="-26.8089304" lon="152.9581205">
<ele>37.863</ele>
<time>2017-09-13T00:25:59.445Z</time>
</trkpt>
<trkpt lat="-26.8088314" lon="152.9579195">
<ele>37.749</ele>
<time>2017-09-13T00:26:01.860Z</time>
</trkpt>
<trkpt lat="-26.8087094" lon="152.9576358">
<ele>38.075</ele>
<time>2017-09-13T00:26:04.796Z</time>
</trkpt>
<trkpt lat="-26.8085976" lon="152.9573346">
<ele>38.917</ele>
<time>2017-09-13T00:26:07.863Z</time>
</trkpt>
<trkpt lat="-26.8084927" lon="152.9570276">
<ele>40.114</ele>
<time>2017-09-13T00:26:10.984Z</time>
</trkpt>
<trkpt lat="-26.8084311" lon="152.9568264">
<ele>41.351</ele>
<time>2017-09-13T00:26:12.978Z</time>
</trkpt>
<trkpt lat="-26.8083944" lon="152.9566182">
<ele>42.413</ele>
<time>2017-09-13T00:26:14.969Z</time>
</trkpt>
<trkpt lat="-26.8084069" lon="152.9564006">
<ele>43.325</ele>
<time>2017-09-13T00:26:17.024Z</time>
</trkpt>
<trkpt lat="-26.8084920" lon="152.9560947">
<ele>44.272</ele>
<time>2017-09-13T00:26:20.052Z</time>
</trkpt>
<trkpt lat="-26.8085875" lon="152.9558653">
<ele>45.484</ele>
<time>2017-09-13T00:26:22.414Z</time>
</trkpt>
<trkpt lat="-26.8087077" lon="152.9556353">
<ele>47.020</ele>
<time>2017-09-13T00:26:24.663Z</time>
</trkpt>
<trkpt lat="-26.8088276" lon="152.9554123">
<ele>48.625</ele>
<time>2017-09-13T00:26:26.679Z</time>
</trkpt>
<trkpt lat="-26.8090262" lon="152.9550941">
<ele>49.962</ele>
<time>2017-09-13T00:26:29.674Z</time>
</trkpt>
<trkpt lat="-26.8092043" lon="152.9547958">
<ele>50.933</ele>
<time>2017-09-13T00:26:32.534Z</time>
</trkpt>
<trkpt lat="-26.8093265" lon="152.9545950">
<ele>51.611</ele>
<time>2017-09-13T00:26:34.526Z</time>
</trkpt>
<trkpt lat="-26.8094353" lon="152.9544103">
<ele>52.058</ele>
<time>2017-09-13T00:26:36.387Z</time>
</trkpt>
<trkpt lat="-26.8096157" lon="152.9541087">
<ele>52.311</ele>
<time>2017-09-13T00:26:39.441Z</time>
</trkpt>
<trkpt lat="-26.8098282" lon="152.9538219">
<ele>52.451</ele>
<time>2017-09-13T00:26:42.472Z</time>
</trkpt>
<trkpt lat="-26.8100428" lon="152.9535409">
<ele>52.572</ele>
<time>2017-09-13T00:26:45.405Z</time>
</trkpt>
<trkpt lat="-26.8101962" lon="152.9533316">
<ele>52.777</ele>
<time>2017-09-13T00:26:47.534Z</time>
</trkpt>
<trkpt lat="-26.8103631" lon="152.9530935">
<ele>53.242</ele>
<time>2017-09-13T00:26:49.800Z</time>
</trkpt>
<trkpt lat="-26.8106122" lon="152.9527002">
<ele>54.191</ele>
<time>2017-09-13T00:26:53.029Z</time>
</trkpt>
<trkpt lat="-26.8107143" lon="152.9523842">
<ele>55.721</ele>
<time>2017-09-13T00:26:55.144Z</time>
</trkpt>
<trkpt lat="-26.8108412" lon="152.9518802">
<ele>57.568</ele>
<time>2017-09-13T00:26:58.237Z</time>
</trkpt>
<trkpt lat="-26.8109231" lon="152.9515788">
<ele>59.325</ele>
<time>2017-09-13T00:27:00.089Z</time>
</trkpt>
<trkpt lat="-26.8110665" lon="152.9512870">
<ele>60.769</ele>
<time>2017-09-13T00:27:02.116Z</time>
</trkpt>
<trkpt lat="-26.8114719" lon="152.9509169">
<ele>61.847</ele>
<time>2017-09-13T00:27:05.542Z</time>
</trkpt>
<trkpt lat="-26.8118384" lon="152.9504955">
<ele>62.653</ele>
<time>2017-09-13T00:27:08.665Z</time>
</trkpt>
<trkpt lat="-26.8119897" lon="152.9501915">
<ele>63.380</ele>
<time>2017-09-13T00:27:10.538Z</time>
</trkpt>
<trkpt lat="-26.8122371" lon="152.9497870">
<ele>64.155</ele>
<time>2017-09-13T00:27:13.333Z</time>
</trkpt>
<trkpt lat="-26.8125010" lon="152.9493940">
<ele>65.133</ele>
<time>2017-09-13T00:27:16.245Z</time>
</trkpt>
<trkpt lat="-26.8126646" lon="152.9491458">
<ele>66.462</ele>
<time>2017-09-13T00:27:18.126Z</time>
</trkpt>
<trkpt lat="-26.8127755" lon="152.9486708">
<ele>67.962</ele>
<time>2017-09-13T00:27:21.218Z</time>
</trkpt>
<trkpt lat="-26.8126305" lon="152.9481496">
<ele>69.250</ele>
<time>2017-09-13T00:27:24.534Z</time>
</trkpt>
<trkpt lat="-26.8124686" lon="152.9478201">
<ele>70.263</ele>
<time>2017-09-13T00:27:26.675Z</time>
</trkpt>
<trkpt lat="-26.8123186" lon="152.9475123">
<ele>71.371</ele>
<time>2017-09-13T00:27:28.656Z</time>
</trkpt>
<trkpt lat="-26.8120893" lon="152.9470410">
<ele>72.949</ele>
<time>2017-09-13T00:27:31.739Z</time>
</trkpt>
<trkpt lat="-26.8119655" lon="152.9467497">
<ele>75.196</ele>
<time>2017-09-13T00:27:33.645Z</time>
</trkpt>
<trkpt lat="-26.8119562" lon="152.9465095">
<ele>77.909</ele>
<time>2017-09-13T00:27:35.189Z</time>
</trkpt>
<trkpt lat="-26.8121406" lon="152.9461426">
<ele>80.540</ele>
<time>2017-09-13T00:27:38.073Z</time>
</trkpt>
<trkpt lat="-26.8122604" lon="152.9458713">
<ele>82.973</ele>
<time>2017-09-13T00:27:40.145Z</time>
</trkpt>
<trkpt lat="-26.8124655" lon="152.9454473">
<ele>85.570</ele>
<time>2017-09-13T00:27:43.280Z</time>
</trkpt>
<trkpt lat="-26.8126456" lon="152.9451779">
<ele>88.652</ele>
<time>2017-09-13T00:27:45.358Z</time>
</trkpt>
<trkpt lat="-26.8128560" lon="152.9447039">
<ele>91.802</ele>
<time>2017-09-13T00:27:48.452Z</time>
</trkpt>
<trkpt lat="-26.8129030" lon="152.9443585">
<ele>93.796</ele>
<time>2017-09-13T00:27:50.448Z</time>
</trkpt>
<trkpt lat="-26.8128475" lon="152.9440270">
<ele>94.140</ele>
<time>2017-09-13T00:27:52.395Z</time>
</trkpt>
<trkpt lat="-26.8127002" lon="152.9436983">
<ele>93.762</ele>
<time>2017-09-13T00:27:54.502Z</time>
</trkpt>
<trkpt lat="-26.8124913" lon="152.9431900">
<ele>95.507</ele>
<time>2017-09-13T00:27:57.571Z</time>
</trkpt>
<trkpt lat="-26.8123836" lon="152.9428387">
<ele>100.936</ele>
<time>2017-09-13T00:27:59.590Z</time>
</trkpt>
<trkpt lat="-26.8122876" lon="152.9423220">
<ele>107.056</ele>
<time>2017-09-13T00:28:02.524Z</time>
</trkpt>
<trkpt lat="-26.8122962" lon="152.9419762">
<ele>110.636</ele>
<time>2017-09-13T00:28:04.472Z</time>
</trkpt>
<trkpt lat="-26.8123971" lon="152.9414348">
<ele>111.998</ele>
<time>2017-09-13T00:28:07.545Z</time>
</trkpt>
<trkpt lat="-26.8125510" lon="152.9409114">
<ele>112.714</ele>
<time>2017-09-13T00:28:10.499Z</time>
</trkpt>
<trkpt lat="-26.8126333" lon="152.9405925">
<ele>114.209</ele>
<time>2017-09-13T00:28:12.298Z</time>
</trkpt>
<trkpt lat="-26.8127006" lon="152.9402930">
<ele>116.822</ele>
<time>2017-09-13T00:28:14.078Z</time>
</trkpt>
<trkpt lat="-26.8129028" lon="152.9398305">
<ele>119.865</ele>
<time>2017-09-13T00:28:17.169Z</time>
</trkpt>
<trkpt lat="-26.8131517" lon="152.9393714">
<ele>122.808</ele>
<time>2017-09-13T00:28:20.260Z</time>
</trkpt>
<trkpt lat="-26.8134562" lon="152.9389687">
<ele>125.764</ele>
<time>2017-09-13T00:28:23.211Z</time>
</trkpt>
<trkpt lat="-26.8137769" lon="152.9385650">
<ele>129.085</ele>
<time>2017-09-13T00:28:26.212Z</time>
</trkpt>
<trkpt lat="-26.8139863" lon="152.9382944">
<ele>132.822</ele>
<time>2017-09-13T00:28:28.204Z</time>
</trkpt>
<trkpt lat="-26.8141468" lon="152.9380153">
<ele>136.425</ele>
<time>2017-09-13T00:28:30.086Z</time>
</trkpt>
<trkpt lat="-26.8142703" lon="152.9374832">
<ele>139.017</ele>
<time>2017-09-13T00:28:33.256Z</time>
</trkpt>
<trkpt lat="-26.8144934" lon="152.9365975">
<ele>139.993</ele>
<time>2017-09-13T00:28:38.434Z</time>
</trkpt>
<trkpt lat="-26.8146143" lon="152.9362883">
<ele>139.611</ele>
<time>2017-09-13T00:28:40.371Z</time>
</trkpt>
<trkpt lat="-26.8148664" lon="152.9357657">
<ele>138.525</ele>
<time>2017-09-13T00:28:44.054Z</time>
</trkpt>
<trkpt lat="-26.8151163" lon="152.9352986">
<ele>139.287</ele>
<time>2017-09-13T00:28:47.406Z</time>
</trkpt>
<trkpt lat="-26.8153781" lon="152.9348266">
<ele>143.120</ele>
<time>2017-09-13T00:28:50.547Z</time>
</trkpt>
<trkpt lat="-26.8155429" lon="152.9345148">
<ele>150.216</ele>
<time>2017-09-13T00:28:52.527Z</time>
</trkpt>
<trkpt lat="-26.8157689" lon="152.9340501">
<ele>156.668</ele>
<time>2017-09-13T00:28:55.458Z</time>
</trkpt>
<trkpt lat="-26.8158459" lon="152.9335039">
<ele>161.041</ele>
<time>2017-09-13T00:28:58.548Z</time>
</trkpt>
<trkpt lat="-26.8160835" lon="152.9327381">
<ele>168.607</ele>
<time>2017-09-13T00:29:03.281Z</time>
</trkpt>
<trkpt lat="-26.8164167" lon="152.9323869">
<ele>173.532</ele>
<time>2017-09-13T00:29:06.436Z</time>
</trkpt>
<trkpt lat="-26.8168994" lon="152.9322494">
<ele>183.015</ele>
<time>2017-09-13T00:29:09.882Z</time>
</trkpt>
<trkpt lat="-26.8174180" lon="152.9321207">
<ele>198.627</ele>
<time>2017-09-13T00:29:13.815Z</time>
</trkpt>
<trkpt lat="-26.8178305" lon="152.9317147">
<ele>203.312</ele>
<time>2017-09-13T00:29:18.054Z</time>
</trkpt>
<trkpt lat="-26.8182219" lon="152.9310904">
<ele>207.416</ele>
<time>2017-09-13T00:29:23.113Z</time>
</trkpt>
<trkpt lat="-26.8179789" lon="152.9301891">
<ele>212.241</ele>
<time>2017-09-13T00:29:29.163Z</time>
</trkpt>
<trkpt lat="-26.8175278" lon="152.9295085">
<ele>219.540</ele>
<time>2017-09-13T00:29:34.266Z</time>
</trkpt>
<trkpt lat="-26.8172668" lon="152.9290966">
<ele>227.849</ele>
<time>2017-09-13T00:29:37.248Z</time>
</trkpt>
<trkpt lat="-26.8169436" lon="152.9287552">
<ele>234.418</ele>
<time>2017-09-13T00:29:40.263Z</time>
</trkpt>
<trkpt lat="-26.8166790" lon="152.9286160">
<ele>238.133</ele>
<time>2017-09-13T00:29:42.317Z</time>
</trkpt>
<trkpt lat="-26.8163659" lon="152.9285694">
<ele>239.648</ele>
<time>2017-09-13T00:29:44.487Z</time>
</trkpt>
<trkpt lat="-26.8159049" lon="152.9285336">
<ele>240.195</ele>
<time>2017-09-13T00:29:47.563Z</time>
</trkpt>
<trkpt lat="-26.8156073" lon="152.9285218">
<ele>240.543</ele>
<time>2017-09-13T00:29:49.567Z</time>
</trkpt>
<trkpt lat="-26.8153204" lon="152.9284779">
<ele>240.840</ele>
<time>2017-09-13T00:29:51.535Z</time>
</trkpt>
<trkpt lat="-26.8148833" lon="152.9283577">
<ele>240.900</ele>
<time>2017-09-13T00:29:54.559Z</time>
</trkpt>
<trkpt lat="-26.8144313" lon="152.9282127">
<ele>240.411</ele>
<time>2017-09-13T00:29:57.641Z</time>
</trkpt>
<trkpt lat="-26.8139564" lon="152.9281288">
<ele>239.137</ele>
<time>2017-09-13T00:30:00.696Z</time>
</trkpt>
<trkpt lat="-26.8134603" lon="152.9280985">
<ele>237.127</ele>
<time>2017-09-13T00:30:03.737Z</time>
</trkpt>
<trkpt lat="-26.8131230" lon="152.9281006">
<ele>234.665</ele>
<time>2017-09-13T00:30:05.778Z</time>
</trkpt>
<trkpt lat="-26.8126479" lon="152.9281333">
<ele>232.118</ele>
<time>2017-09-13T00:30:08.753Z</time>
</trkpt>
<trkpt lat="-26.8121957" lon="152.9281428">
<ele>229.780</ele>
<time>2017-09-13T00:30:11.715Z</time>
</trkpt>
<trkpt lat="-26.8117521" lon="152.9280564">
<ele>227.975</ele>
<time>2017-09-13T00:30:14.693Z</time>
</trkpt>
<trkpt lat="-26.8113045" lon="152.9279330">
<ele>227.063</ele>
<time>2017-09-13T00:30:17.694Z</time>
</trkpt>
<trkpt lat="-26.8108355" lon="152.9280555">
<ele>227.088</ele>
<time>2017-09-13T00:30:20.740Z</time>
</trkpt>
<trkpt lat="-26.8105410" lon="152.9282056">
<ele>227.637</ele>
<time>2017-09-13T00:30:22.740Z</time>
</trkpt>
<trkpt lat="-26.8102583" lon="152.9283732">
<ele>228.198</ele>
<time>2017-09-13T00:30:24.734Z</time>
</trkpt>
<trkpt lat="-26.8098476" lon="152.9285877">
<ele>228.452</ele>
<time>2017-09-13T00:30:27.625Z</time>
</trkpt>
<trkpt lat="-26.8095743" lon="152.9287210">
<ele>228.327</ele>
<time>2017-09-13T00:30:29.582Z</time>
</trkpt>
<trkpt lat="-26.8092915" lon="152.9288425">
<ele>227.868</ele>
<time>2017-09-13T00:30:31.597Z</time>
</trkpt>
<trkpt lat="-26.8088424" lon="152.9289443">
<ele>227.218</ele>
<time>2017-09-13T00:30:34.701Z</time>
</trkpt>
<trkpt lat="-26.8084058" lon="152.9289540">
<ele>226.616</ele>
<time>2017-09-13T00:30:37.699Z</time>
</trkpt>
<trkpt lat="-26.8079340" lon="152.9288753">
<ele>226.210</ele>
<time>2017-09-13T00:30:40.874Z</time>
</trkpt>
<trkpt lat="-26.8075042" lon="152.9286905">
<ele>225.768</ele>
<time>2017-09-13T00:30:43.931Z</time>
</trkpt>
<trkpt lat="-26.8072271" lon="152.9286079">
<ele>224.894</ele>
<time>2017-09-13T00:30:45.934Z</time>
</trkpt>
<trkpt lat="-26.8069351" lon="152.9286506">
<ele>223.749</ele>
<time>2017-09-13T00:30:47.988Z</time>
</trkpt>
<trkpt lat="-26.8066397" lon="152.9287511">
<ele>223.008</ele>
<time>2017-09-13T00:30:50.053Z</time>
</trkpt>
<trkpt lat="-26.8063494" lon="152.9288829">
<ele>223.092</ele>
<time>2017-09-13T00:30:52.135Z</time>
</trkpt>
<trkpt lat="-26.8059449" lon="152.9290198">
<ele>223.871</ele>
<time>2017-09-13T00:30:55.007Z</time>
</trkpt>
<trkpt lat="-26.8056527" lon="152.9289766">
<ele>225.184</ele>
<time>2017-09-13T00:30:57.024Z</time>
</trkpt>
<trkpt lat="-26.8053524" lon="152.9288592">
<ele>227.057</ele>
<time>2017-09-13T00:30:59.178Z</time>
</trkpt>
<trkpt lat="-26.8049522" lon="152.9287210">
<ele>229.399</ele>
<time>2017-09-13T00:31:02.098Z</time>
</trkpt>
<trkpt lat="-26.8045522" lon="152.9286652">
<ele>232.174</ele>
<time>2017-09-13T00:31:05.181Z</time>
</trkpt>
<trkpt lat="-26.8043182" lon="152.9284220">
<ele>235.675</ele>
<time>2017-09-13T00:31:07.859Z</time>
</trkpt>
<trkpt lat="-26.8042543" lon="152.9280137">
<ele>239.990</ele>
<time>2017-09-13T00:31:11.047Z</time>
</trkpt>
<trkpt lat="-26.8042089" lon="152.9277607">
<ele>244.629</ele>
<time>2017-09-13T00:31:13.162Z</time>
</trkpt>
<trkpt lat="-26.8039608" lon="152.9275714">
<ele>248.787</ele>
<time>2017-09-13T00:31:16.130Z</time>
</trkpt>
<trkpt lat="-26.8037398" lon="152.9276305">
<ele>251.894</ele>
<time>2017-09-13T00:31:18.247Z</time>
</trkpt>
<trkpt lat="-26.8034074" lon="152.9278227">
<ele>253.923</ele>
<time>2017-09-13T00:31:21.449Z</time>
</trkpt>
<trkpt lat="-26.8031807" lon="152.9279106">
<ele>255.344</ele>
<time>2017-09-13T00:31:23.460Z</time>
</trkpt>
<trkpt lat="-26.8028333" lon="152.9279882">
<ele>256.649</ele>
<time>2017-09-13T00:31:26.354Z</time>
</trkpt>
<trkpt lat="-26.8024344" lon="152.9278824">
<ele>258.061</ele>
<time>2017-09-13T00:31:29.490Z</time>
</trkpt>
<trkpt lat="-26.8021757" lon="152.9278056">
<ele>259.720</ele>
<time>2017-09-13T00:31:31.446Z</time>
</trkpt>
<trkpt lat="-26.8017758" lon="152.9278217">
<ele>261.611</ele>
<time>2017-09-13T00:31:34.320Z</time>
</trkpt>
<trkpt lat="-26.8015012" lon="152.9279502">
<ele>263.505</ele>
<time>2017-09-13T00:31:36.388Z</time>
</trkpt>
<trkpt lat="-26.8011143" lon="152.9281711">
<ele>265.318</ele>
<time>2017-09-13T00:31:39.387Z</time>
</trkpt>
<trkpt lat="-26.8008728" lon="152.9283257">
<ele>267.181</ele>
<time>2017-09-13T00:31:41.369Z</time>
</trkpt>
<trkpt lat="-26.8005301" lon="152.9285831">
<ele>269.130</ele>
<time>2017-09-13T00:31:44.308Z</time>
</trkpt>
<trkpt lat="-26.8001016" lon="152.9286573">
<ele>271.053</ele>
<time>2017-09-13T00:31:47.267Z</time>
</trkpt>
<trkpt lat="-26.7997852" lon="152.9286377">
<ele>272.969</ele>
<time>2017-09-13T00:31:49.356Z</time>
</trkpt>
<trkpt lat="-26.7993454" lon="152.9286366">
<ele>274.975</ele>
<time>2017-09-13T00:31:52.348Z</time>
</trkpt>
<trkpt lat="-26.7989452" lon="152.9286095">
<ele>277.055</ele>
<time>2017-09-13T00:31:55.266Z</time>
</trkpt>
<trkpt lat="-26.7986935" lon="152.9285302">
<ele>279.207</ele>
<time>2017-09-13T00:31:57.240Z</time>
</trkpt>
<trkpt lat="-26.7984235" lon="152.9284842">
<ele>281.276</ele>
<time>2017-09-13T00:31:59.253Z</time>
</trkpt>
<trkpt lat="-26.7980021" lon="152.9285951">
<ele>283.043</ele>
<time>2017-09-13T00:32:02.436Z</time>
</trkpt>
<trkpt lat="-26.7977578" lon="152.9286081">
<ele>284.674</ele>
<time>2017-09-13T00:32:04.253Z</time>
</trkpt>
<trkpt lat="-26.7975093" lon="152.9284685">
<ele>286.361</ele>
<time>2017-09-13T00:32:06.252Z</time>
</trkpt>
<trkpt lat="-26.7971292" lon="152.9282485">
<ele>288.001</ele>
<time>2017-09-13T00:32:09.302Z</time>
</trkpt>
<trkpt lat="-26.7967945" lon="152.9280193">
<ele>289.660</ele>
<time>2017-09-13T00:32:12.134Z</time>
</trkpt>
<trkpt lat="-26.7965982" lon="152.9277792">
<ele>291.596</ele>
<time>2017-09-13T00:32:14.192Z</time>
</trkpt>
<trkpt lat="-26.7963132" lon="152.9274136">
<ele>293.717</ele>
<time>2017-09-13T00:32:17.191Z</time>
</trkpt>
<trkpt lat="-26.7960949" lon="152.9271555">
<ele>295.808</ele>
<time>2017-09-13T00:32:19.350Z</time>
</trkpt>
<trkpt lat="-26.7957357" lon="152.9268568">
<ele>297.792</ele>
<time>2017-09-13T00:32:22.556Z</time>
</trkpt>
<trkpt lat="-26.7954102" lon="152.9266665">
<ele>299.689</ele>
<time>2017-09-13T00:32:26.110Z</time>
</trkpt>
<trkpt lat="-26.7952804" lon="152.9266113">
<ele>301.340</ele>
<time>2017-09-13T00:32:28.809Z</time>
</trkpt>
<trkpt lat="-26.7951741" lon="152.9265686">
<ele>302.337</ele>
<time>2017-09-13T00:32:32.000Z</time>
</trkpt>
<trkpt lat="-26.7951741" lon="152.9265686">
<ele>302.545</ele>
<time>2017-09-13T00:32:37.000Z</time>
</trkpt>
<trkpt lat="-26.7951741" lon="152.9265686">
<ele>302.338</ele>
<time>2017-09-13T00:32:41.208Z</time>
</trkpt>
<trkpt lat="-26.7949656" lon="152.9265268">
<ele>302.093</ele>
<time>2017-09-13T00:32:47.669Z</time>
</trkpt>
<trkpt lat="-26.7948116" lon="152.9263901">
<ele>301.960</ele>
<time>2017-09-13T00:32:49.462Z</time>
</trkpt>
<trkpt lat="-26.7944365" lon="152.9259379">
<ele>301.915</ele>
<time>2017-09-13T00:32:53.159Z</time>
</trkpt>
<trkpt lat="-26.7939927" lon="152.9255588">
<ele>302.523</ele>
<time>2017-09-13T00:32:56.309Z</time>
</trkpt>
<trkpt lat="-26.7935467" lon="152.9252385">
<ele>304.612</ele>
<time>2017-09-13T00:32:59.296Z</time>
</trkpt>
<trkpt lat="-26.7931470" lon="152.9248842">
<ele>307.969</ele>
<time>2017-09-13T00:33:02.213Z</time>
</trkpt>
<trkpt lat="-26.7927850" lon="152.9244599">
<ele>311.663</ele>
<time>2017-09-13T00:33:05.256Z</time>
</trkpt>
<trkpt lat="-26.7925587" lon="152.9241788">
<ele>315.240</ele>
<time>2017-09-13T00:33:07.245Z</time>
</trkpt>
<trkpt lat="-26.7923201" lon="152.9239140">
<ele>318.505</ele>
<time>2017-09-13T00:33:09.157Z</time>
</trkpt>
<trkpt lat="-26.7918937" lon="152.9235383">
<ele>321.345</ele>
<time>2017-09-13T00:33:12.203Z</time>
</trkpt>
<trkpt lat="-26.7916068" lon="152.9233092">
<ele>324.593</ele>
<time>2017-09-13T00:33:14.228Z</time>
</trkpt>
<trkpt lat="-26.7913239" lon="152.9230984">
<ele>329.257</ele>
<time>2017-09-13T00:33:16.212Z</time>
</trkpt>
<trkpt lat="-26.7908892" lon="152.9227970">
<ele>334.810</ele>
<time>2017-09-13T00:33:19.222Z</time>
</trkpt>
<trkpt lat="-26.7905762" lon="152.9226604">
<ele>340.237</ele>
<time>2017-09-13T00:33:21.212Z</time>
</trkpt>
<trkpt lat="-26.7901181" lon="152.9224177">
<ele>345.170</ele>
<time>2017-09-13T00:33:24.139Z</time>
</trkpt>
<trkpt lat="-26.7898192" lon="152.9221882">
<ele>349.492</ele>
<time>2017-09-13T00:33:26.141Z</time>
</trkpt>
<trkpt lat="-26.7895430" lon="152.9219278">
<ele>353.262</ele>
<time>2017-09-13T00:33:28.158Z</time>
</trkpt>
<trkpt lat="-26.7892670" lon="152.9216962">
<ele>356.530</ele>
<time>2017-09-13T00:33:30.126Z</time>
</trkpt>
<trkpt lat="-26.7888059" lon="152.9214203">
<ele>359.301</ele>
<time>2017-09-13T00:33:33.066Z</time>
</trkpt>
<trkpt lat="-26.7884672" lon="152.9212691">
<ele>361.900</ele>
<time>2017-09-13T00:33:35.026Z</time>
</trkpt>
<trkpt lat="-26.7881103" lon="152.9211198">
<ele>364.566</ele>
<time>2017-09-13T00:33:36.973Z</time>
</trkpt>
<trkpt lat="-26.7875432" lon="152.9208834">
<ele>367.140</ele>
<time>2017-09-13T00:33:39.953Z</time>
</trkpt>
<trkpt lat="-26.7869340" lon="152.9206801">
<ele>369.511</ele>
<time>2017-09-13T00:33:42.970Z</time>
</trkpt>
<trkpt lat="-26.7865163" lon="152.9205832">
<ele>371.932</ele>
<time>2017-09-13T00:33:44.956Z</time>
</trkpt>
<trkpt lat="-26.7858784" lon="152.9204392">
<ele>374.483</ele>
<time>2017-09-13T00:33:48.015Z</time>
</trkpt>
<trkpt lat="-26.7854701" lon="152.9203629">
<ele>377.098</ele>
<time>2017-09-13T00:33:50.020Z</time>
</trkpt>
<trkpt lat="-26.7848562" lon="152.9203744">
<ele>379.701</ele>
<time>2017-09-13T00:33:53.009Z</time>
</trkpt>
<trkpt lat="-26.7844453" lon="152.9204184">
<ele>382.127</ele>
<time>2017-09-13T00:33:55.014Z</time>
</trkpt>
<trkpt lat="-26.7838299" lon="152.9203210">
<ele>384.186</ele>
<time>2017-09-13T00:33:57.991Z</time>
</trkpt>
<trkpt lat="-26.7834197" lon="152.9201827">
<ele>385.898</ele>
<time>2017-09-13T00:33:59.995Z</time>
</trkpt>
<trkpt lat="-26.7828119" lon="152.9199512">
<ele>387.374</ele>
<time>2017-09-13T00:34:03.040Z</time>
</trkpt>
<trkpt lat="-26.7822596" lon="152.9196601">
<ele>388.673</ele>
<time>2017-09-13T00:34:06.086Z</time>
</trkpt>
<trkpt lat="-26.7819362" lon="152.9194652">
<ele>389.687</ele>
<time>2017-09-13T00:34:08.072Z</time>
</trkpt>
<trkpt lat="-26.7816650" lon="152.9192132">
<ele>390.282</ele>
<time>2017-09-13T00:34:10.023Z</time>
</trkpt>
<trkpt lat="-26.7812880" lon="152.9187740">
<ele>390.425</ele>
<time>2017-09-13T00:34:13.047Z</time>
</trkpt>
<trkpt lat="-26.7810521" lon="152.9184710">
<ele>390.287</ele>
<time>2017-09-13T00:34:15.065Z</time>
</trkpt>
<trkpt lat="-26.7807490" lon="152.9179798">
<ele>390.096</ele>
<time>2017-09-13T00:34:18.051Z</time>
</trkpt>
<trkpt lat="-26.7805826" lon="152.9176126">
<ele>390.014</ele>
<time>2017-09-13T00:34:20.063Z</time>
</trkpt>
<trkpt lat="-26.7804771" lon="152.9172116">
<ele>390.149</ele>
<time>2017-09-13T00:34:22.011Z</time>
</trkpt>
<trkpt lat="-26.7803720" lon="152.9165515">
<ele>390.584</ele>
<time>2017-09-13T00:34:25.041Z</time>
</trkpt>
<trkpt lat="-26.7802374" lon="152.9158854">
<ele>391.380</ele>
<time>2017-09-13T00:34:28.079Z</time>
</trkpt>
<trkpt lat="-26.7801556" lon="152.9154517">
<ele>392.482</ele>
<time>2017-09-13T00:34:30.096Z</time>
</trkpt>
<trkpt lat="-26.7800771" lon="152.9150387">
<ele>393.610</ele>
<time>2017-09-13T00:34:32.078Z</time>
</trkpt>
<trkpt lat="-26.7799465" lon="152.9144217">
<ele>394.463</ele>
<time>2017-09-13T00:34:35.030Z</time>
</trkpt>
<trkpt lat="-26.7797768" lon="152.9137918">
<ele>394.957</ele>
<time>2017-09-13T00:34:38.050Z</time>
</trkpt>
<trkpt lat="-26.7796896" lon="152.9133730">
<ele>395.159</ele>
<time>2017-09-13T00:34:40.061Z</time>
</trkpt>
<trkpt lat="-26.7795245" lon="152.9127776">
<ele>395.195</ele>
<time>2017-09-13T00:34:43.027Z</time>
</trkpt>
<trkpt lat="-26.7793550" lon="152.9121777">
<ele>395.201</ele>
<time>2017-09-13T00:34:46.065Z</time>
</trkpt>
<trkpt lat="-26.7791722" lon="152.9116017">
<ele>395.236</ele>
<time>2017-09-13T00:34:49.071Z</time>
</trkpt>
<trkpt lat="-26.7790073" lon="152.9110400">
<ele>395.301</ele>
<time>2017-09-13T00:34:52.011Z</time>
</trkpt>
<trkpt lat="-26.7789729" lon="152.9106346">
<ele>395.494</ele>
<time>2017-09-13T00:34:53.970Z</time>
</trkpt>
<trkpt lat="-26.7789259" lon="152.9099967">
<ele>395.981</ele>
<time>2017-09-13T00:34:57.034Z</time>
</trkpt>
<trkpt lat="-26.7788959" lon="152.9095994">
<ele>396.910</ele>
<time>2017-09-13T00:34:58.956Z</time>
</trkpt>
<trkpt lat="-26.7788242" lon="152.9089953">
<ele>398.206</ele>
<time>2017-09-13T00:35:01.831Z</time>
</trkpt>
<trkpt lat="-26.7785353" lon="152.9079688">
<ele>399.408</ele>
<time>2017-09-13T00:35:06.776Z</time>
</trkpt>
<trkpt lat="-26.7783505" lon="152.9073283">
<ele>400.069</ele>
<time>2017-09-13T00:35:09.778Z</time>
</trkpt>
<trkpt lat="-26.7781300" lon="152.9062635">
<ele>400.227</ele>
<time>2017-09-13T00:35:14.637Z</time>
</trkpt>
<trkpt lat="-26.7780539" lon="152.9058199">
<ele>400.406</ele>
<time>2017-09-13T00:35:16.624Z</time>
</trkpt>
<trkpt lat="-26.7779337" lon="152.9051512">
<ele>401.281</ele>
<time>2017-09-13T00:35:19.622Z</time>
</trkpt>
<trkpt lat="-26.7778547" lon="152.9047124">
<ele>403.249</ele>
<time>2017-09-13T00:35:21.613Z</time>
</trkpt>
<trkpt lat="-26.7777758" lon="152.9042803">
<ele>406.080</ele>
<time>2017-09-13T00:35:23.620Z</time>
</trkpt>
<trkpt lat="-26.7776602" lon="152.9036529">
<ele>409.057</ele>
<time>2017-09-13T00:35:26.605Z</time>
</trkpt>
<trkpt lat="-26.7775134" lon="152.9030555">
<ele>411.666</ele>
<time>2017-09-13T00:35:29.575Z</time>
</trkpt>
<trkpt lat="-26.7773928" lon="152.9026751">
<ele>413.792</ele>
<time>2017-09-13T00:35:31.528Z</time>
</trkpt>
<trkpt lat="-26.7771996" lon="152.9020923">
<ele>415.240</ele>
<time>2017-09-13T00:35:34.542Z</time>
</trkpt>
<trkpt lat="-26.7770719" lon="152.9017106">
<ele>415.944</ele>
<time>2017-09-13T00:35:36.574Z</time>
</trkpt>
<trkpt lat="-26.7769447" lon="152.9013519">
<ele>416.166</ele>
<time>2017-09-13T00:35:38.628Z</time>
</trkpt>
<trkpt lat="-26.7766585" lon="152.9009323">
<ele>416.159</ele>
<time>2017-09-13T00:35:41.612Z</time>
</trkpt>
<trkpt lat="-26.7764281" lon="152.9007259">
<ele>415.945</ele>
<time>2017-09-13T00:35:43.563Z</time>
</trkpt>
<trkpt lat="-26.7760348" lon="152.9004541">
<ele>415.430</ele>
<time>2017-09-13T00:35:46.582Z</time>
</trkpt>
<trkpt lat="-26.7756457" lon="152.9001697">
<ele>414.753</ele>
<time>2017-09-13T00:35:49.535Z</time>
</trkpt>
<trkpt lat="-26.7753385" lon="152.8997656">
<ele>414.343</ele>
<time>2017-09-13T00:35:52.451Z</time>
</trkpt>
<trkpt lat="-26.7752133" lon="152.8994147">
<ele>414.693</ele>
<time>2017-09-13T00:35:54.420Z</time>
</trkpt>
<trkpt lat="-26.7751364" lon="152.8988183">
<ele>415.953</ele>
<time>2017-09-13T00:35:57.441Z</time>
</trkpt>
<trkpt lat="-26.7751661" lon="152.8983909">
<ele>417.795</ele>
<time>2017-09-13T00:35:59.502Z</time>
</trkpt>
<trkpt lat="-26.7752339" lon="152.8979734">
<ele>419.725</ele>
<time>2017-09-13T00:36:01.547Z</time>
</trkpt>
<trkpt lat="-26.7753289" lon="152.8973664">
<ele>421.332</ele>
<time>2017-09-13T00:36:04.566Z</time>
</trkpt>
<trkpt lat="-26.7753599" lon="152.8967790">
<ele>422.473</ele>
<time>2017-09-13T00:36:07.498Z</time>
</trkpt>
<trkpt lat="-26.7752968" lon="152.8963775">
<ele>423.365</ele>
<time>2017-09-13T00:36:09.527Z</time>
</trkpt>
<trkpt lat="-26.7751715" lon="152.8957976">
<ele>424.285</ele>
<time>2017-09-13T00:36:12.505Z</time>
</trkpt>
<trkpt lat="-26.7751310" lon="152.8954020">
<ele>425.485</ele>
<time>2017-09-13T00:36:14.555Z</time>
</trkpt>
<trkpt lat="-26.7752107" lon="152.8948375">
<ele>426.864</ele>
<time>2017-09-13T00:36:17.596Z</time>
</trkpt>
<trkpt lat="-26.7753385" lon="152.8945144">
<ele>427.883</ele>
<time>2017-09-13T00:36:19.607Z</time>
</trkpt>
<trkpt lat="-26.7756935" lon="152.8941796">
<ele>428.170</ele>
<time>2017-09-13T00:36:22.726Z</time>
</trkpt>
<trkpt lat="-26.7758799" lon="152.8939674">
<ele>427.654</ele>
<time>2017-09-13T00:36:24.719Z</time>
</trkpt>
<trkpt lat="-26.7759909" lon="152.8937271">
<ele>426.480</ele>
<time>2017-09-13T00:36:26.719Z</time>
</trkpt>
<trkpt lat="-26.7760291" lon="152.8933525">
<ele>425.100</ele>
<time>2017-09-13T00:36:29.761Z</time>
</trkpt>
<trkpt lat="-26.7760268" lon="152.8931471">
<ele>423.887</ele>
<time>2017-09-13T00:36:31.799Z</time>
</trkpt>
<trkpt lat="-26.7759799" lon="152.8929747">
<ele>422.940</ele>
<time>2017-09-13T00:36:33.714Z</time>
</trkpt>
<trkpt lat="-26.7761347" lon="152.8927266">
<ele>422.282</ele>
<time>2017-09-13T00:36:36.650Z</time>
</trkpt>
<trkpt lat="-26.7762701" lon="152.8925304">
<ele>421.918</ele>
<time>2017-09-13T00:36:38.699Z</time>
</trkpt>
<trkpt lat="-26.7763880" lon="152.8923226">
<ele>421.824</ele>
<time>2017-09-13T00:36:40.715Z</time>
</trkpt>
<trkpt lat="-26.7765786" lon="152.8920269">
<ele>421.914</ele>
<time>2017-09-13T00:36:43.810Z</time>
</trkpt>
<trkpt lat="-26.7766970" lon="152.8918549">
<ele>421.993</ele>
<time>2017-09-13T00:36:45.760Z</time>
</trkpt>
<trkpt lat="-26.7768638" lon="152.8917495">
<ele>421.855</ele>
<time>2017-09-13T00:36:47.614Z</time>
</trkpt>
<trkpt lat="-26.7771780" lon="152.8916500">
<ele>421.389</ele>
<time>2017-09-13T00:36:50.619Z</time>
</trkpt>
<trkpt lat="-26.7774037" lon="152.8915770">
<ele>420.448</ele>
<time>2017-09-13T00:36:52.610Z</time>
</trkpt>
<trkpt lat="-26.7776389" lon="152.8915007">
<ele>419.017</ele>
<time>2017-09-13T00:36:54.632Z</time>
</trkpt>
<trkpt lat="-26.7779874" lon="152.8913899">
<ele>417.409</ele>
<time>2017-09-13T00:36:57.606Z</time>
</trkpt>
<trkpt lat="-26.7782156" lon="152.8912916">
<ele>415.868</ele>
<time>2017-09-13T00:36:59.574Z</time>
</trkpt>
<trkpt lat="-26.7784230" lon="152.8911112">
<ele>414.449</ele>
<time>2017-09-13T00:37:01.603Z</time>
</trkpt>
<trkpt lat="-26.7787086" lon="152.8907909">
<ele>413.296</ele>
<time>2017-09-13T00:37:04.631Z</time>
</trkpt>
<trkpt lat="-26.7789082" lon="152.8905639">
<ele>412.459</ele>
<time>2017-09-13T00:37:06.684Z</time>
</trkpt>
<trkpt lat="-26.7792054" lon="152.8902212">
<ele>411.830</ele>
<time>2017-09-13T00:37:09.709Z</time>
</trkpt>
<trkpt lat="-26.7794047" lon="152.8899871">
<ele>411.382</ele>
<time>2017-09-13T00:37:11.697Z</time>
</trkpt>
<trkpt lat="-26.7796711" lon="152.8895976">
<ele>411.145</ele>
<time>2017-09-13T00:37:14.678Z</time>
</trkpt>
<trkpt lat="-26.7798271" lon="152.8893159">
<ele>411.154</ele>
<time>2017-09-13T00:37:16.663Z</time>
</trkpt>
<trkpt lat="-26.7800504" lon="152.8888721">
<ele>411.415</ele>
<time>2017-09-13T00:37:19.721Z</time>
</trkpt>
<trkpt lat="-26.7802741" lon="152.8884512">
<ele>411.807</ele>
<time>2017-09-13T00:37:22.711Z</time>
</trkpt>
<trkpt lat="-26.7804181" lon="152.8881822">
<ele>412.233</ele>
<time>2017-09-13T00:37:24.672Z</time>
</trkpt>
<trkpt lat="-26.7806243" lon="152.8877682">
<ele>412.691</ele>
<time>2017-09-13T00:37:27.624Z</time>
</trkpt>
<trkpt lat="-26.7807179" lon="152.8874652">
<ele>413.161</ele>
<time>2017-09-13T00:37:29.568Z</time>
</trkpt>
<trkpt lat="-26.7808134" lon="152.8869706">
<ele>413.581</ele>
<time>2017-09-13T00:37:32.575Z</time>
</trkpt>
<trkpt lat="-26.7808672" lon="152.8866285">
<ele>413.874</ele>
<time>2017-09-13T00:37:34.580Z</time>
</trkpt>
<trkpt lat="-26.7809194" lon="152.8862853">
<ele>414.015</ele>
<time>2017-09-13T00:37:36.532Z</time>
</trkpt>
<trkpt lat="-26.7810083" lon="152.8857446">
<ele>414.022</ele>
<time>2017-09-13T00:37:39.547Z</time>
</trkpt>
<trkpt lat="-26.7810709" lon="152.8853847">
<ele>413.921</ele>
<time>2017-09-13T00:37:41.542Z</time>
</trkpt>
<trkpt lat="-26.7811616" lon="152.8848599">
<ele>413.833</ele>
<time>2017-09-13T00:37:44.461Z</time>
</trkpt>
<trkpt lat="-26.7812207" lon="152.8844976">
<ele>413.890</ele>
<time>2017-09-13T00:37:46.481Z</time>
</trkpt>
<trkpt lat="-26.7813077" lon="152.8839765">
<ele>414.161</ele>
<time>2017-09-13T00:37:49.423Z</time>
</trkpt>
<trkpt lat="-26.7813693" lon="152.8836337">
<ele>414.637</ele>
<time>2017-09-13T00:37:51.407Z</time>
</trkpt>
<trkpt lat="-26.7814256" lon="152.8832968">
<ele>415.226</ele>
<time>2017-09-13T00:37:53.475Z</time>
</trkpt>
<trkpt lat="-26.7814937" lon="152.8828607">
<ele>415.837</ele>
<time>2017-09-13T00:37:56.368Z</time>
</trkpt>
<trkpt lat="-26.7815607" lon="152.8824699">
<ele>416.469</ele>
<time>2017-09-13T00:37:59.242Z</time>
</trkpt>
<trkpt lat="-26.7816167" lon="152.8822360">
<ele>417.135</ele>
<time>2017-09-13T00:38:01.207Z</time>
</trkpt>
<trkpt lat="-26.7816771" lon="152.8819230">
<ele>417.764</ele>
<time>2017-09-13T00:38:04.248Z</time>
</trkpt>
<trkpt lat="-26.7816931" lon="152.8818051">
<ele>418.233</ele>
<time>2017-09-13T00:38:05.991Z</time>
</trkpt>
<trkpt lat="-26.7816824" lon="152.8816827">
<ele>418.481</ele>
<time>2017-09-13T00:38:08.476Z</time>
</trkpt>
<trkpt lat="-26.7816030" lon="152.8816177">
<ele>418.549</ele>
<time>2017-09-13T00:38:12.000Z</time>
</trkpt>
<trkpt lat="-26.7816030" lon="152.8816177">
<ele>418.487</ele>
<time>2017-09-13T00:38:14.000Z</time>
</trkpt>
<trkpt lat="-26.7816030" lon="152.8816177">
<ele>418.327</ele>
<time>2017-09-13T00:38:29.211Z</time>
</trkpt>
<trkpt lat="-26.7815684" lon="152.8817744">
<ele>418.157</ele>
<time>2017-09-13T00:38:35.104Z</time>
</trkpt>
<trkpt lat="-26.7815676" lon="152.8819011">
<ele>418.072</ele>
<time>2017-09-13T00:38:37.676Z</time>
</trkpt>
<trkpt lat="-26.7815401" lon="152.8820129">
<ele>418.077</ele>
<time>2017-09-13T00:38:40.000Z</time>
</trkpt>
<trkpt lat="-26.7815401" lon="152.8820129">
<ele>418.059</ele>
<time>2017-09-13T00:38:44.000Z</time>
</trkpt>
<trkpt lat="-26.7815401" lon="152.8820129">
<ele>417.920</ele>
<time>2017-09-13T01:04:59.045Z</time>
</trkpt>
<trkpt lat="-26.7814992" lon="152.8821918">
<ele>417.728</ele>
<time>2017-09-13T01:05:09.163Z</time>
</trkpt>
<trkpt lat="-26.7814709" lon="152.8823200">
<ele>418.054</ele>
<time>2017-09-13T01:05:12.987Z</time>
</trkpt>
<trkpt lat="-26.7814487" lon="152.8824376">
<ele>419.191</ele>
<time>2017-09-13T01:05:16.807Z</time>
</trkpt>
<trkpt lat="-26.7814107" lon="152.8825400">
<ele>420.371</ele>
<time>2017-09-13T01:05:20.999Z</time>
</trkpt>
<trkpt lat="-26.7814107" lon="152.8825400">
<ele>420.819</ele>
<time>2017-09-13T01:05:34.999Z</time>
</trkpt>
<trkpt lat="-26.7814107" lon="152.8825400">
<ele>420.681</ele>
<time>2017-09-13T01:20:39.031Z</time>
</trkpt>
<trkpt lat="-26.7814777" lon="152.8831486">
<ele>420.226</ele>
<time>2017-09-13T01:20:48.470Z</time>
</trkpt>
<trkpt lat="-26.7813560" lon="152.8837901">
<ele>420.711</ele>
<time>2017-09-13T01:20:53.714Z</time>
</trkpt>
<trkpt lat="-26.7812673" lon="152.8844122">
<ele>422.053</ele>
<time>2017-09-13T01:20:57.983Z</time>
</trkpt>
<trkpt lat="-26.7811220" lon="152.8851481">
<ele>423.406</ele>
<time>2017-09-13T01:21:02.797Z</time>
</trkpt>
<trkpt lat="-26.7809460" lon="152.8860161">
<ele>423.849</ele>
<time>2017-09-13T01:21:08.158Z</time>
</trkpt>
<trkpt lat="-26.7808595" lon="152.8865125">
<ele>423.458</ele>
<time>2017-09-13T01:21:11.287Z</time>
</trkpt>
<trkpt lat="-26.7807390" lon="152.8872579">
<ele>422.836</ele>
<time>2017-09-13T01:21:16.183Z</time>
</trkpt>
<trkpt lat="-26.7805955" lon="152.8878318">
<ele>422.452</ele>
<time>2017-09-13T01:21:20.123Z</time>
</trkpt>
<trkpt lat="-26.7802689" lon="152.8884896">
<ele>422.377</ele>
<time>2017-09-13T01:21:25.013Z</time>
</trkpt>
<trkpt lat="-26.7798909" lon="152.8891621">
<ele>422.518</ele>
<time>2017-09-13T01:21:30.073Z</time>
</trkpt>
<trkpt lat="-26.7796096" lon="152.8896681">
<ele>422.587</ele>
<time>2017-09-13T01:21:33.822Z</time>
</trkpt>
<trkpt lat="-26.7790208" lon="152.8904167">
<ele>422.364</ele>
<time>2017-09-13T01:21:39.898Z</time>
</trkpt>
<trkpt lat="-26.7784857" lon="152.8909921">
<ele>421.926</ele>
<time>2017-09-13T01:21:44.852Z</time>
</trkpt>
<trkpt lat="-26.7777689" lon="152.8914957">
<ele>421.546</ele>
<time>2017-09-13T01:21:50.765Z</time>
</trkpt>
<trkpt lat="-26.7771071" lon="152.8917224">
<ele>421.426</ele>
<time>2017-09-13T01:21:56.057Z</time>
</trkpt>
<trkpt lat="-26.7767926" lon="152.8918218">
<ele>421.685</ele>
<time>2017-09-13T01:21:58.994Z</time>
</trkpt>
<trkpt lat="-26.7766166" lon="152.8919326">
<ele>422.347</ele>
<time>2017-09-13T01:22:01.009Z</time>
</trkpt>
<trkpt lat="-26.7764339" lon="152.8921901">
<ele>423.337</ele>
<time>2017-09-13T01:22:04.003Z</time>
</trkpt>
<trkpt lat="-26.7763242" lon="152.8923560">
<ele>424.639</ele>
<time>2017-09-13T01:22:05.924Z</time>
</trkpt>
<trkpt lat="-26.7762124" lon="152.8925262">
<ele>426.187</ele>
<time>2017-09-13T01:22:08.081Z</time>
</trkpt>
<trkpt lat="-26.7760701" lon="152.8927308">
<ele>427.573</ele>
<time>2017-09-13T01:22:11.139Z</time>
</trkpt>
<trkpt lat="-26.7759055" lon="152.8928150">
<ele>428.438</ele>
<time>2017-09-13T01:22:13.855Z</time>
</trkpt>
<trkpt lat="-26.7758136" lon="152.8928838">
<ele>428.795</ele>
<time>2017-09-13T01:22:15.333Z</time>
</trkpt>
<trkpt lat="-26.7757802" lon="152.8931074">
<ele>428.868</ele>
<time>2017-09-13T01:22:17.380Z</time>
</trkpt>
<trkpt lat="-26.7757749" lon="152.8934199">
<ele>428.895</ele>
<time>2017-09-13T01:22:19.439Z</time>
</trkpt>
<trkpt lat="-26.7756793" lon="152.8937889">
<ele>429.129</ele>
<time>2017-09-13T01:22:21.478Z</time>
</trkpt>
<trkpt lat="-26.7754044" lon="152.8943821">
<ele>429.864</ele>
<time>2017-09-13T01:22:24.723Z</time>
</trkpt>
<trkpt lat="-26.7752264" lon="152.8947607">
<ele>431.319</ele>
<time>2017-09-13T01:22:26.811Z</time>
</trkpt>
<trkpt lat="-26.7750867" lon="152.8953189">
<ele>433.249</ele>
<time>2017-09-13T01:22:29.749Z</time>
</trkpt>
<trkpt lat="-26.7751119" lon="152.8958874">
<ele>435.044</ele>
<time>2017-09-13T01:22:32.746Z</time>
</trkpt>
<trkpt lat="-26.7751714" lon="152.8962488">
<ele>436.432</ele>
<time>2017-09-13T01:22:34.731Z</time>
</trkpt>
<trkpt lat="-26.7752797" lon="152.8967918">
<ele>437.491</ele>
<time>2017-09-13T01:22:37.771Z</time>
</trkpt>
<trkpt lat="-26.7753092" lon="152.8973306">
<ele>438.175</ele>
<time>2017-09-13T01:22:40.760Z</time>
</trkpt>
<trkpt lat="-26.7752623" lon="152.8976895">
<ele>438.228</ele>
<time>2017-09-13T01:22:42.782Z</time>
</trkpt>
<trkpt lat="-26.7751808" lon="152.8982125">
<ele>437.443</ele>
<time>2017-09-13T01:22:45.784Z</time>
</trkpt>
<trkpt lat="-26.7751085" lon="152.8987106">
<ele>435.997</ele>
<time>2017-09-13T01:22:48.750Z</time>
</trkpt>
<trkpt lat="-26.7751071" lon="152.8991973">
<ele>434.332</ele>
<time>2017-09-13T01:22:51.762Z</time>
</trkpt>
<trkpt lat="-26.7752048" lon="152.8996553">
<ele>432.731</ele>
<time>2017-09-13T01:22:54.788Z</time>
</trkpt>
<trkpt lat="-26.7753248" lon="152.8999403">
<ele>431.243</ele>
<time>2017-09-13T01:22:56.877Z</time>
</trkpt>
<trkpt lat="-26.7754846" lon="152.9001757">
<ele>429.848</ele>
<time>2017-09-13T01:22:58.883Z</time>
</trkpt>
<trkpt lat="-26.7756613" lon="152.9003832">
<ele>428.513</ele>
<time>2017-09-13T01:23:00.811Z</time>
</trkpt>
<trkpt lat="-26.7760014" lon="152.9006423">
<ele>427.191</ele>
<time>2017-09-13T01:23:03.845Z</time>
</trkpt>
<trkpt lat="-26.7763797" lon="152.9008826">
<ele>425.877</ele>
<time>2017-09-13T01:23:06.994Z</time>
</trkpt>
<trkpt lat="-26.7766079" lon="152.9010552">
<ele>424.542</ele>
<time>2017-09-13T01:23:08.908Z</time>
</trkpt>
<trkpt lat="-26.7768115" lon="152.9013012">
<ele>423.247</ele>
<time>2017-09-13T01:23:10.865Z</time>
</trkpt>
<trkpt lat="-26.7769754" lon="152.9016019">
<ele>422.292</ele>
<time>2017-09-13T01:23:12.740Z</time>
</trkpt>
<trkpt lat="-26.7771694" lon="152.9021680">
<ele>421.963</ele>
<time>2017-09-13T01:23:15.789Z</time>
</trkpt>
<trkpt lat="-26.7773536" lon="152.9027639">
<ele>422.455</ele>
<time>2017-09-13T01:23:18.796Z</time>
</trkpt>
<trkpt lat="-26.7774863" lon="152.9031696">
<ele>423.766</ele>
<time>2017-09-13T01:23:20.793Z</time>
</trkpt>
<trkpt lat="-26.7775976" lon="152.9035817">
<ele>425.451</ele>
<time>2017-09-13T01:23:22.767Z</time>
</trkpt>
<trkpt lat="-26.7776966" lon="152.9040078">
<ele>426.933</ele>
<time>2017-09-13T01:23:24.773Z</time>
</trkpt>
<trkpt lat="-26.7778108" lon="152.9046518">
<ele>427.952</ele>
<time>2017-09-13T01:23:27.719Z</time>
</trkpt>
<trkpt lat="-26.7779322" lon="152.9053135">
<ele>428.492</ele>
<time>2017-09-13T01:23:30.701Z</time>
</trkpt>
<trkpt lat="-26.7780077" lon="152.9057454">
<ele>428.514</ele>
<time>2017-09-13T01:23:32.642Z</time>
</trkpt>
<trkpt lat="-26.7780888" lon="152.9061901">
<ele>427.962</ele>
<time>2017-09-13T01:23:34.641Z</time>
</trkpt>
<trkpt lat="-26.7781689" lon="152.9066298">
<ele>426.902</ele>
<time>2017-09-13T01:23:36.620Z</time>
</trkpt>
<trkpt lat="-26.7782487" lon="152.9070725">
<ele>425.489</ele>
<time>2017-09-13T01:23:38.612Z</time>
</trkpt>
<trkpt lat="-26.7783891" lon="152.9077327">
<ele>423.758</ele>
<time>2017-09-13T01:23:41.596Z</time>
</trkpt>
<trkpt lat="-26.7785040" lon="152.9081613">
<ele>421.382</ele>
<time>2017-09-13T01:23:43.562Z</time>
</trkpt>
<trkpt lat="-26.7786342" lon="152.9085787">
<ele>418.318</ele>
<time>2017-09-13T01:23:45.511Z</time>
</trkpt>
<trkpt lat="-26.7788271" lon="152.9092062">
<ele>415.455</ele>
<time>2017-09-13T01:23:48.437Z</time>
</trkpt>
<trkpt lat="-26.7789389" lon="152.9098805">
<ele>413.718</ele>
<time>2017-09-13T01:23:51.478Z</time>
</trkpt>
<trkpt lat="-26.7789868" lon="152.9103093">
<ele>413.182</ele>
<time>2017-09-13T01:23:53.436Z</time>
</trkpt>
<trkpt lat="-26.7790489" lon="152.9107274">
<ele>413.363</ele>
<time>2017-09-13T01:23:55.384Z</time>
</trkpt>
<trkpt lat="-26.7791015" lon="152.9111407">
<ele>413.602</ele>
<time>2017-09-13T01:23:57.291Z</time>
</trkpt>
<trkpt lat="-26.7792543" lon="152.9117658">
<ele>413.416</ele>
<time>2017-09-13T01:24:00.190Z</time>
</trkpt>
<trkpt lat="-26.7794128" lon="152.9121789">
<ele>412.679</ele>
<time>2017-09-13T01:24:02.138Z</time>
</trkpt>
<trkpt lat="-26.7796147" lon="152.9127602">
<ele>411.645</ele>
<time>2017-09-13T01:24:04.823Z</time>
</trkpt>
<trkpt lat="-26.7798068" lon="152.9134091">
<ele>410.659</ele>
<time>2017-09-13T01:24:07.749Z</time>
</trkpt>
<trkpt lat="-26.7799381" lon="152.9138691">
<ele>409.833</ele>
<time>2017-09-13T01:24:09.781Z</time>
</trkpt>
<trkpt lat="-26.7801118" lon="152.9145280">
<ele>409.169</ele>
<time>2017-09-13T01:24:12.659Z</time>
</trkpt>
<trkpt lat="-26.7803782" lon="152.9156305">
<ele>408.545</ele>
<time>2017-09-13T01:24:17.483Z</time>
</trkpt>
<trkpt lat="-26.7805812" lon="152.9165185">
<ele>408.406</ele>
<time>2017-09-13T01:24:21.398Z</time>
</trkpt>
<trkpt lat="-26.7807942" lon="152.9175783">
<ele>408.265</ele>
<time>2017-09-13T01:24:26.130Z</time>
</trkpt>
<trkpt lat="-26.7811957" lon="152.9185039">
<ele>408.074</ele>
<time>2017-09-13T01:24:30.732Z</time>
</trkpt>
<trkpt lat="-26.7817085" lon="152.9191465">
<ele>407.540</ele>
<time>2017-09-13T01:24:34.575Z</time>
</trkpt>
<trkpt lat="-26.7821179" lon="152.9195860">
<ele>406.394</ele>
<time>2017-09-13T01:24:37.464Z</time>
</trkpt>
<trkpt lat="-26.7827978" lon="152.9200173">
<ele>404.901</ele>
<time>2017-09-13T01:24:41.700Z</time>
</trkpt>
<trkpt lat="-26.7834298" lon="152.9202935">
<ele>403.398</ele>
<time>2017-09-13T01:24:45.503Z</time>
</trkpt>
<trkpt lat="-26.7839428" lon="152.9204698">
<ele>401.949</ele>
<time>2017-09-13T01:24:48.540Z</time>
</trkpt>
<trkpt lat="-26.7844923" lon="152.9205890">
<ele>400.727</ele>
<time>2017-09-13T01:24:51.638Z</time>
</trkpt>
<trkpt lat="-26.7853888" lon="152.9205212">
<ele>399.919</ele>
<time>2017-09-13T01:24:56.474Z</time>
</trkpt>
<trkpt lat="-26.7859500" lon="152.9205822">
<ele>399.031</ele>
<time>2017-09-13T01:24:59.499Z</time>
</trkpt>
<trkpt lat="-26.7868517" lon="152.9207890">
<ele>397.415</ele>
<time>2017-09-13T01:25:04.497Z</time>
</trkpt>
<trkpt lat="-26.7873647" lon="152.9209025">
<ele>395.075</ele>
<time>2017-09-13T01:25:07.394Z</time>
</trkpt>
<trkpt lat="-26.7880304" lon="152.9211628">
<ele>392.345</ele>
<time>2017-09-13T01:25:11.392Z</time>
</trkpt>
<trkpt lat="-26.7885335" lon="152.9213762">
<ele>389.417</ele>
<time>2017-09-13T01:25:14.435Z</time>
</trkpt>
<trkpt lat="-26.7888647" lon="152.9215205">
<ele>386.620</ele>
<time>2017-09-13T01:25:16.433Z</time>
</trkpt>
<trkpt lat="-26.7893311" lon="152.9217797">
<ele>384.358</ele>
<time>2017-09-13T01:25:19.421Z</time>
</trkpt>
<trkpt lat="-26.7895575" lon="152.9219613">
<ele>382.683</ele>
<time>2017-09-13T01:25:21.060Z</time>
</trkpt>
<trkpt lat="-26.7897365" lon="152.9221356">
<ele>381.093</ele>
<time>2017-09-13T01:25:22.585Z</time>
</trkpt>
<trkpt lat="-26.7898989" lon="152.9222929">
<ele>379.077</ele>
<time>2017-09-13T01:25:24.097Z</time>
</trkpt>
<trkpt lat="-26.7901047" lon="152.9224708">
<ele>376.553</ele>
<time>2017-09-13T01:25:26.145Z</time>
</trkpt>
<trkpt lat="-26.7902710" lon="152.9223637">
<ele>373.685</ele>
<time>2017-09-13T01:25:27.908Z</time>
</trkpt>
<trkpt lat="-26.7902930" lon="152.9220483">
<ele>370.718</ele>
<time>2017-09-13T01:25:31.020Z</time>
</trkpt>
<trkpt lat="-26.7903055" lon="152.9217854">
<ele>368.230</ele>
<time>2017-09-13T01:25:34.181Z</time>
</trkpt>
<trkpt lat="-26.7903495" lon="152.9213654">
<ele>366.971</ele>
<time>2017-09-13T01:25:38.288Z</time>
</trkpt>
<trkpt lat="-26.7904042" lon="152.9210470">
<ele>367.310</ele>
<time>2017-09-13T01:25:40.700Z</time>
</trkpt>
<trkpt lat="-26.7905038" lon="152.9205513">
<ele>369.049</ele>
<time>2017-09-13T01:25:44.053Z</time>
</trkpt>
<trkpt lat="-26.7905814" lon="152.9202583">
<ele>371.786</ele>
<time>2017-09-13T01:25:45.956Z</time>
</trkpt>
<trkpt lat="-26.7908573" lon="152.9199252">
<ele>375.123</ele>
<time>2017-09-13T01:25:48.758Z</time>
</trkpt>
<trkpt lat="-26.7911176" lon="152.9197113">
<ele>378.722</ele>
<time>2017-09-13T01:25:51.036Z</time>
</trkpt>
<trkpt lat="-26.7914383" lon="152.9193864">
<ele>382.189</ele>
<time>2017-09-13T01:25:53.947Z</time>
</trkpt>
<trkpt lat="-26.7915637" lon="152.9191176">
<ele>385.048</ele>
<time>2017-09-13T01:25:55.749Z</time>
</trkpt>
<trkpt lat="-26.7916016" lon="152.9186287">
<ele>386.864</ele>
<time>2017-09-13T01:25:58.779Z</time>
</trkpt>
<trkpt lat="-26.7914721" lon="152.9181136">
<ele>387.684</ele>
<time>2017-09-13T01:26:01.987Z</time>
</trkpt>
<trkpt lat="-26.7913358" lon="152.9177657">
<ele>387.928</ele>
<time>2017-09-13T01:26:04.155Z</time>
</trkpt>
<trkpt lat="-26.7912142" lon="152.9174106">
<ele>387.911</ele>
<time>2017-09-13T01:26:06.222Z</time>
</trkpt>
<trkpt lat="-26.7910819" lon="152.9168559">
<ele>387.623</ele>
<time>2017-09-13T01:26:09.244Z</time>
</trkpt>
<trkpt lat="-26.7910218" lon="152.9164598">
<ele>386.999</ele>
<time>2017-09-13T01:26:11.322Z</time>
</trkpt>
<trkpt lat="-26.7909820" lon="152.9160712">
<ele>386.228</ele>
<time>2017-09-13T01:26:13.298Z</time>
</trkpt>
<trkpt lat="-26.7909480" lon="152.9154885">
<ele>385.653</ele>
<time>2017-09-13T01:26:16.263Z</time>
</trkpt>
<trkpt lat="-26.7909066" lon="152.9151001">
<ele>385.296</ele>
<time>2017-09-13T01:26:18.266Z</time>
</trkpt>
<trkpt lat="-26.7907697" lon="152.9145087">
<ele>384.832</ele>
<time>2017-09-13T01:26:21.355Z</time>
</trkpt>
<trkpt lat="-26.7907047" lon="152.9138910">
<ele>383.982</ele>
<time>2017-09-13T01:26:24.418Z</time>
</trkpt>
<trkpt lat="-26.7907307" lon="152.9134656">
<ele>382.603</ele>
<time>2017-09-13T01:26:26.481Z</time>
</trkpt>
<trkpt lat="-26.7907614" lon="152.9130647">
<ele>380.735</ele>
<time>2017-09-13T01:26:28.405Z</time>
</trkpt>
<trkpt lat="-26.7907945" lon="152.9126538">
<ele>378.582</ele>
<time>2017-09-13T01:26:30.389Z</time>
</trkpt>
<trkpt lat="-26.7908447" lon="152.9120346">
<ele>376.266</ele>
<time>2017-09-13T01:26:33.380Z</time>
</trkpt>
<trkpt lat="-26.7909124" lon="152.9116189">
<ele>373.810</ele>
<time>2017-09-13T01:26:35.398Z</time>
</trkpt>
<trkpt lat="-26.7910538" lon="152.9112181">
<ele>371.469</ele>
<time>2017-09-13T01:26:37.443Z</time>
</trkpt>
<trkpt lat="-26.7912632" lon="152.9108677">
<ele>369.580</ele>
<time>2017-09-13T01:26:39.439Z</time>
</trkpt>
<trkpt lat="-26.7915332" lon="152.9103815">
<ele>368.081</ele>
<time>2017-09-13T01:26:42.232Z</time>
</trkpt>
<trkpt lat="-26.7915558" lon="152.9098765">
<ele>366.481</ele>
<time>2017-09-13T01:26:44.874Z</time>
</trkpt>
<trkpt lat="-26.7914832" lon="152.9095200">
<ele>364.420</ele>
<time>2017-09-13T01:26:46.921Z</time>
</trkpt>
<trkpt lat="-26.7914588" lon="152.9091437">
<ele>362.074</ele>
<time>2017-09-13T01:26:49.084Z</time>
</trkpt>
<trkpt lat="-26.7915278" lon="152.9087643">
<ele>359.869</ele>
<time>2017-09-13T01:26:51.218Z</time>
</trkpt>
<trkpt lat="-26.7916228" lon="152.9084041">
<ele>357.914</ele>
<time>2017-09-13T01:26:53.195Z</time>
</trkpt>
<trkpt lat="-26.7917741" lon="152.9078883">
<ele>355.974</ele>
<time>2017-09-13T01:26:56.063Z</time>
</trkpt>
<trkpt lat="-26.7919072" lon="152.9073961">
<ele>353.642</ele>
<time>2017-09-13T01:26:58.885Z</time>
</trkpt>
<trkpt lat="-26.7920017" lon="152.9070544">
<ele>350.874</ele>
<time>2017-09-13T01:27:00.904Z</time>
</trkpt>
<trkpt lat="-26.7921347" lon="152.9067360">
<ele>348.436</ele>
<time>2017-09-13T01:27:02.904Z</time>
</trkpt>
<trkpt lat="-26.7924323" lon="152.9063436">
<ele>347.085</ele>
<time>2017-09-13T01:27:05.832Z</time>
</trkpt>
<trkpt lat="-26.7927015" lon="152.9059854">
<ele>346.638</ele>
<time>2017-09-13T01:27:08.560Z</time>
</trkpt>
<trkpt lat="-26.7929028" lon="152.9057707">
<ele>346.437</ele>
<time>2017-09-13T01:27:10.463Z</time>
</trkpt>
<trkpt lat="-26.7931414" lon="152.9055684">
<ele>346.184</ele>
<time>2017-09-13T01:27:12.561Z</time>
</trkpt>
<trkpt lat="-26.7934933" lon="152.9053178">
<ele>346.033</ele>
<time>2017-09-13T01:27:15.472Z</time>
</trkpt>
<trkpt lat="-26.7937253" lon="152.9052216">
<ele>346.095</ele>
<time>2017-09-13T01:27:17.211Z</time>
</trkpt>
<trkpt lat="-26.7939698" lon="152.9052134">
<ele>346.237</ele>
<time>2017-09-13T01:27:18.991Z</time>
</trkpt>
<trkpt lat="-26.7943301" lon="152.9053771">
<ele>346.321</ele>
<time>2017-09-13T01:27:22.076Z</time>
</trkpt>
<trkpt lat="-26.7945553" lon="152.9054990">
<ele>346.365</ele>
<time>2017-09-13T01:27:24.124Z</time>
</trkpt>
<trkpt lat="-26.7948561" lon="152.9056964">
<ele>346.423</ele>
<time>2017-09-13T01:27:26.958Z</time>
</trkpt>
<trkpt lat="-26.7950699" lon="152.9060336">
<ele>346.472</ele>
<time>2017-09-13T01:27:30.100Z</time>
</trkpt>
<trkpt lat="-26.7951239" lon="152.9063294">
<ele>346.333</ele>
<time>2017-09-13T01:27:32.422Z</time>
</trkpt>
<trkpt lat="-26.7950874" lon="152.9066443">
<ele>345.769</ele>
<time>2017-09-13T01:27:34.760Z</time>
</trkpt>
<trkpt lat="-26.7950186" lon="152.9069546">
<ele>344.790</ele>
<time>2017-09-13T01:27:36.941Z</time>
</trkpt>
<trkpt lat="-26.7950589" lon="152.9073770">
<ele>343.611</ele>
<time>2017-09-13T01:27:39.775Z</time>
</trkpt>
<trkpt lat="-26.7953739" lon="152.9077091">
<ele>342.163</ele>
<time>2017-09-13T01:27:43.067Z</time>
</trkpt>
<trkpt lat="-26.7958168" lon="152.9080247">
<ele>340.073</ele>
<time>2017-09-13T01:27:46.676Z</time>
</trkpt>
<trkpt lat="-26.7962388" lon="152.9083505">
<ele>337.182</ele>
<time>2017-09-13T01:27:49.743Z</time>
</trkpt>
<trkpt lat="-26.7965294" lon="152.9085550">
<ele>334.079</ele>
<time>2017-09-13T01:27:51.708Z</time>
</trkpt>
<trkpt lat="-26.7968337" lon="152.9087696">
<ele>331.712</ele>
<time>2017-09-13T01:27:53.745Z</time>
</trkpt>
<trkpt lat="-26.7973534" lon="152.9089748">
<ele>330.311</ele>
<time>2017-09-13T01:27:56.854Z</time>
</trkpt>
<trkpt lat="-26.7978803" lon="152.9090542">
<ele>329.070</ele>
<time>2017-09-13T01:27:59.864Z</time>
</trkpt>
<trkpt lat="-26.7984229" lon="152.9091714">
<ele>327.099</ele>
<time>2017-09-13T01:28:02.970Z</time>
</trkpt>
<trkpt lat="-26.7987505" lon="152.9091870">
<ele>324.612</ele>
<time>2017-09-13T01:28:04.829Z</time>
</trkpt>
<trkpt lat="-26.7990547" lon="152.9090834">
<ele>322.527</ele>
<time>2017-09-13T01:28:06.708Z</time>
</trkpt>
<trkpt lat="-26.7993416" lon="152.9089242">
<ele>320.982</ele>
<time>2017-09-13T01:28:08.693Z</time>
</trkpt>
<trkpt lat="-26.7996231" lon="152.9087782">
<ele>319.402</ele>
<time>2017-09-13T01:28:10.652Z</time>
</trkpt>
<trkpt lat="-26.7998908" lon="152.9086395">
<ele>317.527</ele>
<time>2017-09-13T01:28:12.542Z</time>
</trkpt>
<trkpt lat="-26.8002524" lon="152.9083415">
<ele>315.426</ele>
<time>2017-09-13T01:28:15.526Z</time>
</trkpt>
<trkpt lat="-26.8004548" lon="152.9078943">
<ele>313.113</ele>
<time>2017-09-13T01:28:18.603Z</time>
</trkpt>
<trkpt lat="-26.8004942" lon="152.9076384">
<ele>310.586</ele>
<time>2017-09-13T01:28:20.249Z</time>
</trkpt>
<trkpt lat="-26.8004889" lon="152.9074637">
<ele>308.102</ele>
<time>2017-09-13T01:28:21.466Z</time>
</trkpt>
<trkpt lat="-26.8004260" lon="152.9072646">
<ele>306.019</ele>
<time>2017-09-13T01:28:23.207Z</time>
</trkpt>
<trkpt lat="-26.8003814" lon="152.9071257">
<ele>304.465</ele>
<time>2017-09-13T01:28:24.726Z</time>
</trkpt>
<trkpt lat="-26.8003103" lon="152.9068956">
<ele>303.467</ele>
<time>2017-09-13T01:28:27.790Z</time>
</trkpt>
<trkpt lat="-26.8002791" lon="152.9067207">
<ele>303.194</ele>
<time>2017-09-13T01:28:30.177Z</time>
</trkpt>
<trkpt lat="-26.8002571" lon="152.9064438">
<ele>303.753</ele>
<time>2017-09-13T01:28:33.669Z</time>
</trkpt>
<trkpt lat="-26.8002518" lon="152.9062401">
<ele>304.966</ele>
<time>2017-09-13T01:28:35.932Z</time>
</trkpt>
<trkpt lat="-26.8002681" lon="152.9058921">
<ele>306.423</ele>
<time>2017-09-13T01:28:39.496Z</time>
</trkpt>
<trkpt lat="-26.8003360" lon="152.9056645">
<ele>307.680</ele>
<time>2017-09-13T01:28:41.697Z</time>
</trkpt>
<trkpt lat="-26.8005362" lon="152.9053130">
<ele>308.473</ele>
<time>2017-09-13T01:28:45.109Z</time>
</trkpt>
<trkpt lat="-26.8007325" lon="152.9050594">
<ele>308.878</ele>
<time>2017-09-13T01:28:47.548Z</time>
</trkpt>
<trkpt lat="-26.8009715" lon="152.9048626">
<ele>309.137</ele>
<time>2017-09-13T01:28:49.668Z</time>
</trkpt>
<trkpt lat="-26.8014043" lon="152.9046538">
<ele>309.449</ele>
<time>2017-09-13T01:28:52.821Z</time>
</trkpt>
<trkpt lat="-26.8017605" lon="152.9044739">
<ele>310.096</ele>
<time>2017-09-13T01:28:55.487Z</time>
</trkpt>
<trkpt lat="-26.8019316" lon="152.9043033">
<ele>311.225</ele>
<time>2017-09-13T01:28:57.112Z</time>
</trkpt>
<trkpt lat="-26.8020216" lon="152.9039696">
<ele>312.389</ele>
<time>2017-09-13T01:28:59.732Z</time>
</trkpt>
<trkpt lat="-26.8019700" lon="152.9036839">
<ele>313.055</ele>
<time>2017-09-13T01:29:02.012Z</time>
</trkpt>
<trkpt lat="-26.8018851" lon="152.9032690">
<ele>313.209</ele>
<time>2017-09-13T01:29:05.127Z</time>
</trkpt>
<trkpt lat="-26.8020387" lon="152.9028467">
<ele>312.966</ele>
<time>2017-09-13T01:29:08.304Z</time>
</trkpt>
<trkpt lat="-26.8023015" lon="152.9026089">
<ele>312.101</ele>
<time>2017-09-13T01:29:10.754Z</time>
</trkpt>
<trkpt lat="-26.8026667" lon="152.9024357">
<ele>310.636</ele>
<time>2017-09-13T01:29:13.219Z</time>
</trkpt>
<trkpt lat="-26.8031719" lon="152.9020376">
<ele>309.194</ele>
<time>2017-09-13T01:29:16.451Z</time>
</trkpt>
<trkpt lat="-26.8034443" lon="152.9017147">
<ele>308.078</ele>
<time>2017-09-13T01:29:18.432Z</time>
</trkpt>
<trkpt lat="-26.8037973" lon="152.9012702">
<ele>306.975</ele>
<time>2017-09-13T01:29:21.191Z</time>
</trkpt>
<trkpt lat="-26.8040522" lon="152.9010156">
<ele>305.534</ele>
<time>2017-09-13T01:29:23.047Z</time>
</trkpt>
<trkpt lat="-26.8043265" lon="152.9007915">
<ele>303.816</ele>
<time>2017-09-13T01:29:24.961Z</time>
</trkpt>
<trkpt lat="-26.8045885" lon="152.9005720">
<ele>302.241</ele>
<time>2017-09-13T01:29:26.854Z</time>
</trkpt>
<trkpt lat="-26.8049180" lon="152.9002535">
<ele>300.874</ele>
<time>2017-09-13T01:29:29.534Z</time>
</trkpt>
<trkpt lat="-26.8051867" lon="152.8998466">
<ele>299.073</ele>
<time>2017-09-13T01:29:32.447Z</time>
</trkpt>
<trkpt lat="-26.8053819" lon="152.8995475">
<ele>296.251</ele>
<time>2017-09-13T01:29:34.579Z</time>
</trkpt>
<trkpt lat="-26.8055312" lon="152.8991298">
<ele>292.734</ele>
<time>2017-09-13T01:29:37.039Z</time>
</trkpt>
<trkpt lat="-26.8056295" lon="152.8987775">
<ele>289.546</ele>
<time>2017-09-13T01:29:38.994Z</time>
</trkpt>
<trkpt lat="-26.8059429" lon="152.8983301">
<ele>287.223</ele>
<time>2017-09-13T01:29:41.991Z</time>
</trkpt>
<trkpt lat="-26.8062747" lon="152.8981384">
<ele>285.393</ele>
<time>2017-09-13T01:29:44.162Z</time>
</trkpt>
<trkpt lat="-26.8067391" lon="152.8978399">
<ele>283.804</ele>
<time>2017-09-13T01:29:47.199Z</time>
</trkpt>
<trkpt lat="-26.8070215" lon="152.8975871">
<ele>282.772</ele>
<time>2017-09-13T01:29:49.246Z</time>
</trkpt>
<trkpt lat="-26.8073840" lon="152.8972696">
<ele>282.437</ele>
<time>2017-09-13T01:29:51.980Z</time>
</trkpt>
<trkpt lat="-26.8075038" lon="152.8970892">
<ele>282.248</ele>
<time>2017-09-13T01:29:53.242Z</time>
</trkpt>
<trkpt lat="-26.8073892" lon="152.8968229">
<ele>281.505</ele>
<time>2017-09-13T01:29:55.269Z</time>
</trkpt>
<trkpt lat="-26.8072393" lon="152.8964116">
<ele>280.018</ele>
<time>2017-09-13T01:29:58.697Z</time>
</trkpt>
<trkpt lat="-26.8074910" lon="152.8960089">
<ele>277.871</ele>
<time>2017-09-13T01:30:02.146Z</time>
</trkpt>
<trkpt lat="-26.8076226" lon="152.8956642">
<ele>275.120</ele>
<time>2017-09-13T01:30:04.460Z</time>
</trkpt>
<trkpt lat="-26.8077297" lon="152.8953264">
<ele>272.253</ele>
<time>2017-09-13T01:30:06.515Z</time>
</trkpt>
<trkpt lat="-26.8077705" lon="152.8949499">
<ele>269.862</ele>
<time>2017-09-13T01:30:08.627Z</time>
</trkpt>
<trkpt lat="-26.8078265" lon="152.8943556">
<ele>267.967</ele>
<time>2017-09-13T01:30:11.794Z</time>
</trkpt>
<trkpt lat="-26.8080875" lon="152.8938630">
<ele>266.026</ele>
<time>2017-09-13T01:30:14.756Z</time>
</trkpt>
<trkpt lat="-26.8083561" lon="152.8933945">
<ele>263.568</ele>
<time>2017-09-13T01:30:17.693Z</time>
</trkpt>
<trkpt lat="-26.8084511" lon="152.8929975">
<ele>260.702</ele>
<time>2017-09-13T01:30:19.858Z</time>
</trkpt>
<trkpt lat="-26.8085637" lon="152.8926094">
<ele>257.953</ele>
<time>2017-09-13T01:30:21.957Z</time>
</trkpt>
<trkpt lat="-26.8087034" lon="152.8922840">
<ele>255.666</ele>
<time>2017-09-13T01:30:23.890Z</time>
</trkpt>
<trkpt lat="-26.8088067" lon="152.8919052">
<ele>253.770</ele>
<time>2017-09-13T01:30:26.370Z</time>
</trkpt>
<trkpt lat="-26.8087115" lon="152.8916070">
<ele>251.790</ele>
<time>2017-09-13T01:30:28.490Z</time>
</trkpt>
<trkpt lat="-26.8085147" lon="152.8911727">
<ele>249.591</ele>
<time>2017-09-13T01:30:31.707Z</time>
</trkpt>
<trkpt lat="-26.8085639" lon="152.8908022">
<ele>247.484</ele>
<time>2017-09-13T01:30:34.028Z</time>
</trkpt>
<trkpt lat="-26.8085044" lon="152.8902621">
<ele>245.582</ele>
<time>2017-09-13T01:30:37.211Z</time>
</trkpt>
<trkpt lat="-26.8082220" lon="152.8899023">
<ele>243.554</ele>
<time>2017-09-13T01:30:40.346Z</time>
</trkpt>
<trkpt lat="-26.8082884" lon="152.8895135">
<ele>241.110</ele>
<time>2017-09-13T01:30:43.185Z</time>
</trkpt>
<trkpt lat="-26.8086626" lon="152.8891741">
<ele>238.385</ele>
<time>2017-09-13T01:30:46.516Z</time>
</trkpt>
<trkpt lat="-26.8089584" lon="152.8890042">
<ele>235.873</ele>
<time>2017-09-13T01:30:48.529Z</time>
</trkpt>
<trkpt lat="-26.8093481" lon="152.8886553">
<ele>233.845</ele>
<time>2017-09-13T01:30:51.550Z</time>
</trkpt>
<trkpt lat="-26.8095396" lon="152.8881493">
<ele>232.041</ele>
<time>2017-09-13T01:30:54.722Z</time>
</trkpt>
<trkpt lat="-26.8096797" lon="152.8878730">
<ele>230.146</ele>
<time>2017-09-13T01:30:56.592Z</time>
</trkpt>
<trkpt lat="-26.8098761" lon="152.8875914">
<ele>228.375</ele>
<time>2017-09-13T01:30:58.645Z</time>
</trkpt>
<trkpt lat="-26.8100603" lon="152.8871255">
<ele>226.987</ele>
<time>2017-09-13T01:31:01.585Z</time>
</trkpt>
<trkpt lat="-26.8100043" lon="152.8865916">
<ele>225.688</ele>
<time>2017-09-13T01:31:04.680Z</time>
</trkpt>
<trkpt lat="-26.8102279" lon="152.8860473">
<ele>224.376</ele>
<time>2017-09-13T01:31:07.809Z</time>
</trkpt>
<trkpt lat="-26.8104944" lon="152.8855334">
<ele>223.511</ele>
<time>2017-09-13T01:31:10.768Z</time>
</trkpt>
<trkpt lat="-26.8107430" lon="152.8853120">
<ele>223.309</ele>
<time>2017-09-13T01:31:12.601Z</time>
</trkpt>
<trkpt lat="-26.8113002" lon="152.8851575">
<ele>223.443</ele>
<time>2017-09-13T01:31:15.848Z</time>
</trkpt>
<trkpt lat="-26.8116424" lon="152.8850352">
<ele>223.999</ele>
<time>2017-09-13T01:31:17.858Z</time>
</trkpt>
<trkpt lat="-26.8119689" lon="152.8845849">
<ele>225.501</ele>
<time>2017-09-13T01:31:20.743Z</time>
</trkpt>
<trkpt lat="-26.8123194" lon="152.8839915">
<ele>227.587</ele>
<time>2017-09-13T01:31:23.941Z</time>
</trkpt>
<trkpt lat="-26.8126181" lon="152.8836207">
<ele>228.488</ele>
<time>2017-09-13T01:31:26.004Z</time>
</trkpt>
<trkpt lat="-26.8128802" lon="152.8832442">
<ele>227.408</ele>
<time>2017-09-13T01:31:27.988Z</time>
</trkpt>
<trkpt lat="-26.8130242" lon="152.8827860">
<ele>226.066</ele>
<time>2017-09-13T01:31:29.998Z</time>
</trkpt>
<trkpt lat="-26.8132154" lon="152.8823292">
<ele>226.022</ele>
<time>2017-09-13T01:31:32.015Z</time>
</trkpt>
<trkpt lat="-26.8136189" lon="152.8816968">
<ele>226.130</ele>
<time>2017-09-13T01:31:35.066Z</time>
</trkpt>
<trkpt lat="-26.8139113" lon="152.8813289">
<ele>224.853</ele>
<time>2017-09-13T01:31:37.057Z</time>
</trkpt>
<trkpt lat="-26.8142843" lon="152.8810742">
<ele>222.775</ele>
<time>2017-09-13T01:31:39.092Z</time>
</trkpt>
<trkpt lat="-26.8146974" lon="152.8809024">
<ele>221.424</ele>
<time>2017-09-13T01:31:41.136Z</time>
</trkpt>
<trkpt lat="-26.8153722" lon="152.8808860">
<ele>221.214</ele>
<time>2017-09-13T01:31:44.214Z</time>
</trkpt>
<trkpt lat="-26.8158114" lon="152.8810130">
<ele>221.558</ele>
<time>2017-09-13T01:31:46.245Z</time>
</trkpt>
<trkpt lat="-26.8162009" lon="152.8812636">
<ele>221.776</ele>
<time>2017-09-13T01:31:48.216Z</time>
</trkpt>
<trkpt lat="-26.8166643" lon="152.8818678">
<ele>221.480</ele>
<time>2017-09-13T01:31:51.277Z</time>
</trkpt>
<trkpt lat="-26.8170526" lon="152.8825167">
<ele>220.291</ele>
<time>2017-09-13T01:31:54.303Z</time>
</trkpt>
<trkpt lat="-26.8173451" lon="152.8828593">
<ele>218.158</ele>
<time>2017-09-13T01:31:56.209Z</time>
</trkpt>
<trkpt lat="-26.8179654" lon="152.8831510">
<ele>215.871</ele>
<time>2017-09-13T01:31:59.191Z</time>
</trkpt>
<trkpt lat="-26.8184711" lon="152.8832383">
<ele>213.009</ele>
<time>2017-09-13T01:32:01.326Z</time>
</trkpt>
<trkpt lat="-26.8192186" lon="152.8833691">
<ele>208.887</ele>
<time>2017-09-13T01:32:04.451Z</time>
</trkpt>
<trkpt lat="-26.8196836" lon="152.8833920">
<ele>205.425</ele>
<time>2017-09-13T01:32:06.471Z</time>
</trkpt>
<trkpt lat="-26.8203297" lon="152.8832799">
<ele>204.389</ele>
<time>2017-09-13T01:32:09.455Z</time>
</trkpt>
<trkpt lat="-26.8207301" lon="152.8831436">
<ele>204.815</ele>
<time>2017-09-13T01:32:11.409Z</time>
</trkpt>
<trkpt lat="-26.8210897" lon="152.8828195">
<ele>202.002</ele>
<time>2017-09-13T01:32:13.514Z</time>
</trkpt>
<trkpt lat="-26.8216331" lon="152.8824293">
<ele>193.339</ele>
<time>2017-09-13T01:32:16.415Z</time>
</trkpt>
<trkpt lat="-26.8223160" lon="152.8823850">
<ele>183.498</ele>
<time>2017-09-13T01:32:19.358Z</time>
</trkpt>
<trkpt lat="-26.8230997" lon="152.8825314">
<ele>176.921</ele>
<time>2017-09-13T01:32:22.655Z</time>
</trkpt>
<trkpt lat="-26.8237536" lon="152.8827316">
<ele>172.822</ele>
<time>2017-09-13T01:32:25.627Z</time>
</trkpt>
<trkpt lat="-26.8241370" lon="152.8828573">
<ele>170.158</ele>
<time>2017-09-13T01:32:27.564Z</time>
</trkpt>
<trkpt lat="-26.8245111" lon="152.8829762">
<ele>168.418</ele>
<time>2017-09-13T01:32:29.557Z</time>
</trkpt>
<trkpt lat="-26.8248771" lon="152.8830822">
<ele>167.125</ele>
<time>2017-09-13T01:32:31.526Z</time>
</trkpt>
<trkpt lat="-26.8252645" lon="152.8831785">
<ele>165.843</ele>
<time>2017-09-13T01:32:33.607Z</time>
</trkpt>
<trkpt lat="-26.8258060" lon="152.8830875">
<ele>164.388</ele>
<time>2017-09-13T01:32:36.436Z</time>
</trkpt>
<trkpt lat="-26.8263338" lon="152.8826867">
<ele>162.449</ele>
<time>2017-09-13T01:32:39.579Z</time>
</trkpt>
<trkpt lat="-26.8266784" lon="152.8823716">
<ele>159.896</ele>
<time>2017-09-13T01:32:41.714Z</time>
</trkpt>
<trkpt lat="-26.8271594" lon="152.8819227">
<ele>157.320</ele>
<time>2017-09-13T01:32:44.728Z</time>
</trkpt>
<trkpt lat="-26.8274776" lon="152.8816151">
<ele>155.411</ele>
<time>2017-09-13T01:32:46.733Z</time>
</trkpt>
<trkpt lat="-26.8279623" lon="152.8811333">
<ele>154.196</ele>
<time>2017-09-13T01:32:49.794Z</time>
</trkpt>
<trkpt lat="-26.8283457" lon="152.8805705">
<ele>153.207</ele>
<time>2017-09-13T01:32:52.754Z</time>
</trkpt>
<trkpt lat="-26.8285741" lon="152.8801647">
<ele>152.021</ele>
<time>2017-09-13T01:32:54.764Z</time>
</trkpt>
<trkpt lat="-26.8289259" lon="152.8795729">
<ele>150.657</ele>
<time>2017-09-13T01:32:57.803Z</time>
</trkpt>
<trkpt lat="-26.8293743" lon="152.8791308">
<ele>149.183</ele>
<time>2017-09-13T01:33:00.718Z</time>
</trkpt>
<trkpt lat="-26.8299541" lon="152.8789083">
<ele>147.394</ele>
<time>2017-09-13T01:33:03.660Z</time>
</trkpt>
<trkpt lat="-26.8303815" lon="152.8787801">
<ele>145.390</ele>
<time>2017-09-13T01:33:05.746Z</time>
</trkpt>
<trkpt lat="-26.8309814" lon="152.8785864">
<ele>143.687</ele>
<time>2017-09-13T01:33:08.748Z</time>
</trkpt>
<trkpt lat="-26.8313631" lon="152.8784399">
<ele>142.436</ele>
<time>2017-09-13T01:33:10.825Z</time>
</trkpt>
<trkpt lat="-26.8317021" lon="152.8783216">
<ele>141.434</ele>
<time>2017-09-13T01:33:12.656Z</time>
</trkpt>
<trkpt lat="-26.8322895" lon="152.8784695">
<ele>140.720</ele>
<time>2017-09-13T01:33:15.669Z</time>
</trkpt>
<trkpt lat="-26.8328494" lon="152.8787654">
<ele>140.820</ele>
<time>2017-09-13T01:33:18.717Z</time>
</trkpt>
<trkpt lat="-26.8332047" lon="152.8789512">
<ele>142.113</ele>
<time>2017-09-13T01:33:20.698Z</time>
</trkpt>
<trkpt lat="-26.8335670" lon="152.8791448">
<ele>144.089</ele>
<time>2017-09-13T01:33:22.747Z</time>
</trkpt>
<trkpt lat="-26.8340931" lon="152.8794216">
<ele>145.938</ele>
<time>2017-09-13T01:33:25.733Z</time>
</trkpt>
<trkpt lat="-26.8344384" lon="152.8796019">
<ele>147.607</ele>
<time>2017-09-13T01:33:27.773Z</time>
</trkpt>
<trkpt lat="-26.8349229" lon="152.8798518">
<ele>149.242</ele>
<time>2017-09-13T01:33:30.700Z</time>
</trkpt>
<trkpt lat="-26.8353948" lon="152.8801055">
<ele>150.618</ele>
<time>2017-09-13T01:33:33.567Z</time>
</trkpt>
<trkpt lat="-26.8357467" lon="152.8802795">
<ele>151.636</ele>
<time>2017-09-13T01:33:35.595Z</time>
</trkpt>
<trkpt lat="-26.8362717" lon="152.8805257">
<ele>152.509</ele>
<time>2017-09-13T01:33:38.566Z</time>
</trkpt>
<trkpt lat="-26.8366131" lon="152.8807113">
<ele>153.241</ele>
<time>2017-09-13T01:33:40.525Z</time>
</trkpt>
<trkpt lat="-26.8371431" lon="152.8809593">
<ele>153.622</ele>
<time>2017-09-13T01:33:43.455Z</time>
</trkpt>
<trkpt lat="-26.8375326" lon="152.8810569">
<ele>153.590</ele>
<time>2017-09-13T01:33:45.453Z</time>
</trkpt>
<trkpt lat="-26.8379243" lon="152.8811400">
<ele>153.330</ele>
<time>2017-09-13T01:33:47.442Z</time>
</trkpt>
<trkpt lat="-26.8383172" lon="152.8812182">
<ele>153.091</ele>
<time>2017-09-13T01:33:49.473Z</time>
</trkpt>
<trkpt lat="-26.8388949" lon="152.8812606">
<ele>152.971</ele>
<time>2017-09-13T01:33:52.534Z</time>
</trkpt>
<trkpt lat="-26.8392398" lon="152.8812459">
<ele>152.869</ele>
<time>2017-09-13T01:33:54.551Z</time>
</trkpt>
<trkpt lat="-26.8397146" lon="152.8812181">
<ele>152.632</ele>
<time>2017-09-13T01:33:57.537Z</time>
</trkpt>
<trkpt lat="-26.8399890" lon="152.8812140">
<ele>152.068</ele>
<time>2017-09-13T01:33:59.713Z</time>
</trkpt>
<trkpt lat="-26.8402555" lon="152.8812109">
<ele>150.999</ele>
<time>2017-09-13T01:34:02.419Z</time>
</trkpt>
<trkpt lat="-26.8403672" lon="152.8812176">
<ele>149.237</ele>
<time>2017-09-13T01:34:04.136Z</time>
</trkpt>
<trkpt lat="-26.8404614" lon="152.8812238">
<ele>146.887</ele>
<time>2017-09-13T01:34:06.265Z</time>
</trkpt>
<trkpt lat="-26.8405570" lon="152.8812337">
<ele>144.570</ele>
<time>2017-09-13T01:34:09.000Z</time>
</trkpt>
<trkpt lat="-26.8405570" lon="152.8812337">
<ele>142.961</ele>
<time>2017-09-13T01:34:12.000Z</time>
</trkpt>
<trkpt lat="-26.8405570" lon="152.8812337">
<ele>142.289</ele>
<time>2017-09-13T01:34:42.417Z</time>
</trkpt>
<trkpt lat="-26.8407039" lon="152.8811278">
<ele>142.324</ele>
<time>2017-09-13T01:34:49.984Z</time>
</trkpt>
<trkpt lat="-26.8408120" lon="152.8810337">
<ele>142.190</ele>
<time>2017-09-13T01:34:51.725Z</time>
</trkpt>
<trkpt lat="-26.8410360" lon="152.8810384">
<ele>141.345</ele>
<time>2017-09-13T01:34:53.622Z</time>
</trkpt>
<trkpt lat="-26.8414983" lon="152.8811290">
<ele>140.499</ele>
<time>2017-09-13T01:34:56.835Z</time>
</trkpt>
<trkpt lat="-26.8420357" lon="152.8812053">
<ele>140.868</ele>
<time>2017-09-13T01:35:00.009Z</time>
</trkpt>
<trkpt lat="-26.8423900" lon="152.8812573">
<ele>142.985</ele>
<time>2017-09-13T01:35:02.076Z</time>
</trkpt>
<trkpt lat="-26.8428724" lon="152.8813978">
<ele>146.182</ele>
<time>2017-09-13T01:35:04.958Z</time>
</trkpt>
<trkpt lat="-26.8431933" lon="152.8815643">
<ele>149.172</ele>
<time>2017-09-13T01:35:06.957Z</time>
</trkpt>
<trkpt lat="-26.8434873" lon="152.8818121">
<ele>151.311</ele>
<time>2017-09-13T01:35:08.893Z</time>
</trkpt>
<trkpt lat="-26.8438999" lon="152.8823181">
<ele>152.729</ele>
<time>2017-09-13T01:35:11.882Z</time>
</trkpt>
<trkpt lat="-26.8443499" lon="152.8829080">
<ele>153.898</ele>
<time>2017-09-13T01:35:15.003Z</time>
</trkpt>
<trkpt lat="-26.8448109" lon="152.8834877">
<ele>155.572</ele>
<time>2017-09-13T01:35:18.095Z</time>
</trkpt>
<trkpt lat="-26.8450763" lon="152.8838562">
<ele>158.254</ele>
<time>2017-09-13T01:35:20.190Z</time>
</trkpt>
<trkpt lat="-26.8454038" lon="152.8843641">
<ele>161.275</ele>
<time>2017-09-13T01:35:23.156Z</time>
</trkpt>
<trkpt lat="-26.8456039" lon="152.8849055">
<ele>163.331</ele>
<time>2017-09-13T01:35:25.962Z</time>
</trkpt>
<trkpt lat="-26.8456837" lon="152.8853195">
<ele>163.898</ele>
<time>2017-09-13T01:35:27.884Z</time>
</trkpt>
<trkpt lat="-26.8457172" lon="152.8857545">
<ele>163.348</ele>
<time>2017-09-13T01:35:29.788Z</time>
</trkpt>
<trkpt lat="-26.8456181" lon="152.8864545">
<ele>162.364</ele>
<time>2017-09-13T01:35:32.864Z</time>
</trkpt>
<trkpt lat="-26.8454551" lon="152.8868667">
<ele>161.542</ele>
<time>2017-09-13T01:35:34.873Z</time>
</trkpt>
<trkpt lat="-26.8452667" lon="152.8872625">
<ele>160.885</ele>
<time>2017-09-13T01:35:36.848Z</time>
</trkpt>
<trkpt lat="-26.8450374" lon="152.8878939">
<ele>160.177</ele>
<time>2017-09-13T01:35:39.732Z</time>
</trkpt>
<trkpt lat="-26.8449695" lon="152.8884006">
<ele>159.565</ele>
<time>2017-09-13T01:35:41.836Z</time>
</trkpt>
<trkpt lat="-26.8448654" lon="152.8891038">
<ele>159.272</ele>
<time>2017-09-13T01:35:44.929Z</time>
</trkpt>
<trkpt lat="-26.8446124" lon="152.8896942">
<ele>159.078</ele>
<time>2017-09-13T01:35:48.101Z</time>
</trkpt>
<trkpt lat="-26.8444839" lon="152.8902219">
<ele>158.457</ele>
<time>2017-09-13T01:35:50.950Z</time>
</trkpt>
<trkpt lat="-26.8445265" lon="152.8906058">
<ele>157.223</ele>
<time>2017-09-13T01:35:52.926Z</time>
</trkpt>
<trkpt lat="-26.8446014" lon="152.8909956">
<ele>155.877</ele>
<time>2017-09-13T01:35:54.873Z</time>
</trkpt>
<trkpt lat="-26.8445761" lon="152.8916319">
<ele>154.948</ele>
<time>2017-09-13T01:35:57.968Z</time>
</trkpt>
<trkpt lat="-26.8445163" lon="152.8920181">
<ele>154.370</ele>
<time>2017-09-13T01:36:00.091Z</time>
</trkpt>
<trkpt lat="-26.8443436" lon="152.8924988">
<ele>153.744</ele>
<time>2017-09-13T01:36:03.239Z</time>
</trkpt>
<trkpt lat="-26.8443607" lon="152.8927563">
<ele>152.525</ele>
<time>2017-09-13T01:36:04.925Z</time>
</trkpt>
<trkpt lat="-26.8442596" lon="152.8932444">
<ele>150.421</ele>
<time>2017-09-13T01:36:08.205Z</time>
</trkpt>
<trkpt lat="-26.8440508" lon="152.8936711">
<ele>147.752</ele>
<time>2017-09-13T01:36:11.403Z</time>
</trkpt>
<trkpt lat="-26.8437374" lon="152.8937962">
<ele>144.998</ele>
<time>2017-09-13T01:36:13.880Z</time>
</trkpt>
<trkpt lat="-26.8433383" lon="152.8938794">
<ele>142.555</ele>
<time>2017-09-13T01:36:17.217Z</time>
</trkpt>
<trkpt lat="-26.8431759" lon="152.8940643">
<ele>140.566</ele>
<time>2017-09-13T01:36:19.041Z</time>
</trkpt>
<trkpt lat="-26.8430756" lon="152.8943241">
<ele>138.735</ele>
<time>2017-09-13T01:36:20.955Z</time>
</trkpt>
<trkpt lat="-26.8428258" lon="152.8946955">
<ele>136.891</ele>
<time>2017-09-13T01:36:24.001Z</time>
</trkpt>
<trkpt lat="-26.8425023" lon="152.8950067">
<ele>135.143</ele>
<time>2017-09-13T01:36:27.309Z</time>
</trkpt>
<trkpt lat="-26.8424770" lon="152.8952789">
<ele>133.417</ele>
<time>2017-09-13T01:36:29.228Z</time>
</trkpt>
<trkpt lat="-26.8426429" lon="152.8956478">
<ele>131.656</ele>
<time>2017-09-13T01:36:32.089Z</time>
</trkpt>
<trkpt lat="-26.8426928" lon="152.8959282">
<ele>129.905</ele>
<time>2017-09-13T01:36:33.890Z</time>
</trkpt>
<trkpt lat="-26.8425685" lon="152.8962905">
<ele>128.223</ele>
<time>2017-09-13T01:36:36.204Z</time>
</trkpt>
<trkpt lat="-26.8422185" lon="152.8967102">
<ele>126.800</ele>
<time>2017-09-13T01:36:39.739Z</time>
</trkpt>
<trkpt lat="-26.8418528" lon="152.8969523">
<ele>125.664</ele>
<time>2017-09-13T01:36:42.785Z</time>
</trkpt>
<trkpt lat="-26.8416410" lon="152.8973437">
<ele>124.401</ele>
<time>2017-09-13T01:36:45.496Z</time>
</trkpt>
<trkpt lat="-26.8415422" lon="152.8976794">
<ele>122.821</ele>
<time>2017-09-13T01:36:47.620Z</time>
</trkpt>
<trkpt lat="-26.8414996" lon="152.8980187">
<ele>121.351</ele>
<time>2017-09-13T01:36:49.775Z</time>
</trkpt>
<trkpt lat="-26.8417248" lon="152.8983903">
<ele>120.340</ele>
<time>2017-09-13T01:36:52.827Z</time>
</trkpt>
<trkpt lat="-26.8418995" lon="152.8985629">
<ele>119.445</ele>
<time>2017-09-13T01:36:54.608Z</time>
</trkpt>
<trkpt lat="-26.8419084" lon="152.8990237">
<ele>118.154</ele>
<time>2017-09-13T01:36:57.706Z</time>
</trkpt>
<trkpt lat="-26.8418653" lon="152.8994793">
<ele>116.410</ele>
<time>2017-09-13T01:37:01.007Z</time>
</trkpt>
<trkpt lat="-26.8418793" lon="152.8997801">
<ele>114.533</ele>
<time>2017-09-13T01:37:03.322Z</time>
</trkpt>
<trkpt lat="-26.8418696" lon="152.9001321">
<ele>112.902</ele>
<time>2017-09-13T01:37:05.730Z</time>
</trkpt>
<trkpt lat="-26.8420954" lon="152.9002939">
<ele>111.621</ele>
<time>2017-09-13T01:37:07.691Z</time>
</trkpt>
<trkpt lat="-26.8429258" lon="152.9003657">
<ele>110.093</ele>
<time>2017-09-13T01:37:13.506Z</time>
</trkpt>
<trkpt lat="-26.8434965" lon="152.9007022">
<ele>109.804</ele>
<time>2017-09-13T01:37:17.959Z</time>
</trkpt>
<trkpt lat="-26.8435118" lon="152.9015030">
<ele>109.167</ele>
<time>2017-09-13T01:37:22.986Z</time>
</trkpt>
<trkpt lat="-26.8435494" lon="152.9022991">
<ele>107.546</ele>
<time>2017-09-13T01:37:27.813Z</time>
</trkpt>
<trkpt lat="-26.8433632" lon="152.9028184">
<ele>104.939</ele>
<time>2017-09-13T01:37:30.874Z</time>
</trkpt>
<trkpt lat="-26.8430885" lon="152.9032969">
<ele>102.093</ele>
<time>2017-09-13T01:37:33.990Z</time>
</trkpt>
<trkpt lat="-26.8429451" lon="152.9038141">
<ele>99.657</ele>
<time>2017-09-13T01:37:37.187Z</time>
</trkpt>
<trkpt lat="-26.8429400" lon="152.9043155">
<ele>97.405</ele>
<time>2017-09-13T01:37:40.381Z</time>
</trkpt>
<trkpt lat="-26.8427561" lon="152.9046036">
<ele>94.680</ele>
<time>2017-09-13T01:37:42.589Z</time>
</trkpt>
<trkpt lat="-26.8425079" lon="152.9047603">
<ele>91.579</ele>
<time>2017-09-13T01:37:44.431Z</time>
</trkpt>
<trkpt lat="-26.8423184" lon="152.9050484">
<ele>88.810</ele>
<time>2017-09-13T01:37:46.422Z</time>
</trkpt>
<trkpt lat="-26.8422103" lon="152.9056560">
<ele>86.666</ele>
<time>2017-09-13T01:37:49.664Z</time>
</trkpt>
<trkpt lat="-26.8419367" lon="152.9061688">
<ele>84.882</ele>
<time>2017-09-13T01:37:52.862Z</time>
</trkpt>
<trkpt lat="-26.8417714" lon="152.9067038">
<ele>83.205</ele>
<time>2017-09-13T01:37:55.946Z</time>
</trkpt>
<trkpt lat="-26.8415449" lon="152.9069774">
<ele>81.367</ele>
<time>2017-09-13T01:37:57.958Z</time>
</trkpt>
<trkpt lat="-26.8411881" lon="152.9073670">
<ele>79.268</ele>
<time>2017-09-13T01:38:00.845Z</time>
</trkpt>
<trkpt lat="-26.8410674" lon="152.9077164">
<ele>77.011</ele>
<time>2017-09-13T01:38:02.625Z</time>
</trkpt>
<trkpt lat="-26.8410343" lon="152.9081348">
<ele>74.709</ele>
<time>2017-09-13T01:38:04.587Z</time>
</trkpt>
<trkpt lat="-26.8411408" lon="152.9087893">
<ele>72.633</ele>
<time>2017-09-13T01:38:07.607Z</time>
</trkpt>
<trkpt lat="-26.8412411" lon="152.9092320">
<ele>71.212</ele>
<time>2017-09-13T01:38:09.606Z</time>
</trkpt>
<trkpt lat="-26.8414239" lon="152.9096680">
<ele>70.543</ele>
<time>2017-09-13T01:38:11.691Z</time>
</trkpt>
<trkpt lat="-26.8418137" lon="152.9102657">
<ele>70.452</ele>
<time>2017-09-13T01:38:14.881Z</time>
</trkpt>
<trkpt lat="-26.8422346" lon="152.9107529">
<ele>70.658</ele>
<time>2017-09-13T01:38:17.801Z</time>
</trkpt>
<trkpt lat="-26.8424577" lon="152.9111474">
<ele>70.759</ele>
<time>2017-09-13T01:38:19.782Z</time>
</trkpt>
<trkpt lat="-26.8426750" lon="152.9118006">
<ele>70.516</ele>
<time>2017-09-13T01:38:22.735Z</time>
</trkpt>
<trkpt lat="-26.8427336" lon="152.9122886">
<ele>69.984</ele>
<time>2017-09-13T01:38:24.873Z</time>
</trkpt>
<trkpt lat="-26.8427952" lon="152.9129464">
<ele>69.198</ele>
<time>2017-09-13T01:38:27.778Z</time>
</trkpt>
<trkpt lat="-26.8429161" lon="152.9133723">
<ele>68.010</ele>
<time>2017-09-13T01:38:29.625Z</time>
</trkpt>
<trkpt lat="-26.8431203" lon="152.9137931">
<ele>66.556</ele>
<time>2017-09-13T01:38:31.566Z</time>
</trkpt>
<trkpt lat="-26.8435695" lon="152.9143436">
<ele>65.342</ele>
<time>2017-09-13T01:38:34.508Z</time>
</trkpt>
<trkpt lat="-26.8439502" lon="152.9146265">
<ele>64.454</ele>
<time>2017-09-13T01:38:36.542Z</time>
</trkpt>
<trkpt lat="-26.8445060" lon="152.9150657">
<ele>63.500</ele>
<time>2017-09-13T01:38:39.651Z</time>
</trkpt>
<trkpt lat="-26.8447731" lon="152.9154575">
<ele>62.406</ele>
<time>2017-09-13T01:38:41.666Z</time>
</trkpt>
<trkpt lat="-26.8450167" lon="152.9161320">
<ele>61.317</ele>
<time>2017-09-13T01:38:44.566Z</time>
</trkpt>
<trkpt lat="-26.8451685" lon="152.9166034">
<ele>60.228</ele>
<time>2017-09-13T01:38:46.519Z</time>
</trkpt>
<trkpt lat="-26.8453237" lon="152.9170754">
<ele>59.202</ele>
<time>2017-09-13T01:38:48.455Z</time>
</trkpt>
<trkpt lat="-26.8454887" lon="152.9175435">
<ele>58.401</ele>
<time>2017-09-13T01:38:50.398Z</time>
</trkpt>
<trkpt lat="-26.8457175" lon="152.9180039">
<ele>57.854</ele>
<time>2017-09-13T01:38:52.444Z</time>
</trkpt>
<trkpt lat="-26.8461654" lon="152.9185829">
<ele>57.491</ele>
<time>2017-09-13T01:38:55.463Z</time>
</trkpt>
<trkpt lat="-26.8467225" lon="152.9190294">
<ele>57.269</ele>
<time>2017-09-13T01:38:58.560Z</time>
</trkpt>
<trkpt lat="-26.8470978" lon="152.9192827">
<ele>57.084</ele>
<time>2017-09-13T01:39:00.557Z</time>
</trkpt>
<trkpt lat="-26.8474668" lon="152.9195406">
<ele>56.853</ele>
<time>2017-09-13T01:39:02.521Z</time>
</trkpt>
<trkpt lat="-26.8478409" lon="152.9197999">
<ele>56.501</ele>
<time>2017-09-13T01:39:04.488Z</time>
</trkpt>
<trkpt lat="-26.8482561" lon="152.9200329">
<ele>55.903</ele>
<time>2017-09-13T01:39:06.556Z</time>
</trkpt>
<trkpt lat="-26.8489137" lon="152.9202784">
<ele>55.072</ele>
<time>2017-09-13T01:39:09.652Z</time>
</trkpt>
<trkpt lat="-26.8493583" lon="152.9203581">
<ele>54.093</ele>
<time>2017-09-13T01:39:11.727Z</time>
</trkpt>
<trkpt lat="-26.8497894" lon="152.9204168">
<ele>53.006</ele>
<time>2017-09-13T01:39:13.792Z</time>
</trkpt>
<trkpt lat="-26.8502153" lon="152.9204632">
<ele>51.984</ele>
<time>2017-09-13T01:39:15.858Z</time>
</trkpt>
<trkpt lat="-26.8508298" lon="152.9205493">
<ele>51.191</ele>
<time>2017-09-13T01:39:18.949Z</time>
</trkpt>
<trkpt lat="-26.8512164" lon="152.9206996">
<ele>50.598</ele>
<time>2017-09-13T01:39:21.031Z</time>
</trkpt>
<trkpt lat="-26.8517071" lon="152.9210509">
<ele>50.174</ele>
<time>2017-09-13T01:39:23.971Z</time>
</trkpt>
<trkpt lat="-26.8519800" lon="152.9213771">
<ele>49.949</ele>
<time>2017-09-13T01:39:25.997Z</time>
</trkpt>
<trkpt lat="-26.8523334" lon="152.9219127">
<ele>49.937</ele>
<time>2017-09-13T01:39:29.120Z</time>
</trkpt>
<trkpt lat="-26.8526620" lon="152.9223990">
<ele>50.074</ele>
<time>2017-09-13T01:39:32.243Z</time>
</trkpt>
<trkpt lat="-26.8528699" lon="152.9227105">
<ele>50.219</ele>
<time>2017-09-13T01:39:34.350Z</time>
</trkpt>
<trkpt lat="-26.8531333" lon="152.9231752">
<ele>50.168</ele>
<time>2017-09-13T01:39:37.342Z</time>
</trkpt>
<trkpt lat="-26.8533209" lon="152.9236734">
<ele>49.782</ele>
<time>2017-09-13T01:39:40.099Z</time>
</trkpt>
<trkpt lat="-26.8534285" lon="152.9240523">
<ele>49.197</ele>
<time>2017-09-13T01:39:42.072Z</time>
</trkpt>
<trkpt lat="-26.8535930" lon="152.9246199">
<ele>48.703</ele>
<time>2017-09-13T01:39:45.000Z</time>
</trkpt>
<trkpt lat="-26.8536952" lon="152.9250089">
<ele>48.387</ele>
<time>2017-09-13T01:39:47.008Z</time>
</trkpt>
<trkpt lat="-26.8538358" lon="152.9255902">
<ele>48.073</ele>
<time>2017-09-13T01:39:50.038Z</time>
</trkpt>
<trkpt lat="-26.8539279" lon="152.9261828">
<ele>47.518</ele>
<time>2017-09-13T01:39:53.084Z</time>
</trkpt>
<trkpt lat="-26.8540240" lon="152.9267506">
<ele>46.620</ele>
<time>2017-09-13T01:39:55.999Z</time>
</trkpt>
<trkpt lat="-26.8540900" lon="152.9271574">
<ele>45.376</ele>
<time>2017-09-13T01:39:58.129Z</time>
</trkpt>
<trkpt lat="-26.8541424" lon="152.9277259">
<ele>43.935</ele>
<time>2017-09-13T01:40:01.154Z</time>
</trkpt>
<trkpt lat="-26.8541501" lon="152.9281105">
<ele>42.588</ele>
<time>2017-09-13T01:40:03.200Z</time>
</trkpt>
<trkpt lat="-26.8541503" lon="152.9286547">
<ele>41.408</ele>
<time>2017-09-13T01:40:06.075Z</time>
</trkpt>
<trkpt lat="-26.8541263" lon="152.9292120">
<ele>40.247</ele>
<time>2017-09-13T01:40:08.973Z</time>
</trkpt>
<trkpt lat="-26.8540808" lon="152.9297875">
<ele>39.168</ele>
<time>2017-09-13T01:40:11.911Z</time>
</trkpt>
<trkpt lat="-26.8540489" lon="152.9301719">
<ele>38.383</ele>
<time>2017-09-13T01:40:13.825Z</time>
</trkpt>
<trkpt lat="-26.8540224" lon="152.9305640">
<ele>37.947</ele>
<time>2017-09-13T01:40:15.737Z</time>
</trkpt>
<trkpt lat="-26.8540119" lon="152.9309612">
<ele>37.758</ele>
<time>2017-09-13T01:40:17.635Z</time>
</trkpt>
<trkpt lat="-26.8540161" lon="152.9313730">
<ele>37.735</ele>
<time>2017-09-13T01:40:19.579Z</time>
</trkpt>
<trkpt lat="-26.8540686" lon="152.9320035">
<ele>37.849</ele>
<time>2017-09-13T01:40:22.454Z</time>
</trkpt>
<trkpt lat="-26.8541339" lon="152.9324323">
<ele>38.075</ele>
<time>2017-09-13T01:40:24.407Z</time>
</trkpt>
<trkpt lat="-26.8542233" lon="152.9328702">
<ele>38.434</ele>
<time>2017-09-13T01:40:26.442Z</time>
</trkpt>
<trkpt lat="-26.8543578" lon="152.9334991">
<ele>38.873</ele>
<time>2017-09-13T01:40:29.481Z</time>
</trkpt>
<trkpt lat="-26.8544522" lon="152.9339087">
<ele>39.185</ele>
<time>2017-09-13T01:40:31.557Z</time>
</trkpt>
<trkpt lat="-26.8545346" lon="152.9343042">
<ele>39.214</ele>
<time>2017-09-13T01:40:33.588Z</time>
</trkpt>
<trkpt lat="-26.8546121" lon="152.9346767">
<ele>38.934</ele>
<time>2017-09-13T01:40:35.507Z</time>
</trkpt>
<trkpt lat="-26.8547307" lon="152.9352581">
<ele>38.356</ele>
<time>2017-09-13T01:40:38.546Z</time>
</trkpt>
<trkpt lat="-26.8548096" lon="152.9356363">
<ele>37.515</ele>
<time>2017-09-13T01:40:40.562Z</time>
</trkpt>
<trkpt lat="-26.8549225" lon="152.9361677">
<ele>36.466</ele>
<time>2017-09-13T01:40:43.441Z</time>
</trkpt>
<trkpt lat="-26.8550492" lon="152.9367072">
<ele>35.243</ele>
<time>2017-09-13T01:40:46.360Z</time>
</trkpt>
<trkpt lat="-26.8551625" lon="152.9370540">
<ele>33.999</ele>
<time>2017-09-13T01:40:48.324Z</time>
</trkpt>
<trkpt lat="-26.8553255" lon="152.9374059">
<ele>33.055</ele>
<time>2017-09-13T01:40:50.471Z</time>
</trkpt>
<trkpt lat="-26.8556011" lon="152.9378426">
<ele>32.569</ele>
<time>2017-09-13T01:40:53.571Z</time>
</trkpt>
<trkpt lat="-26.8557937" lon="152.9381132">
<ele>32.308</ele>
<time>2017-09-13T01:40:55.874Z</time>
</trkpt>
<trkpt lat="-26.8559529" lon="152.9383393">
<ele>31.945</ele>
<time>2017-09-13T01:40:58.021Z</time>
</trkpt>
<trkpt lat="-26.8561729" lon="152.9386413">
<ele>31.368</ele>
<time>2017-09-13T01:41:01.580Z</time>
</trkpt>
<trkpt lat="-26.8563564" lon="152.9388945">
<ele>30.643</ele>
<time>2017-09-13T01:41:05.238Z</time>
</trkpt>
<trkpt lat="-26.8564652" lon="152.9390080">
<ele>29.821</ele>
<time>2017-09-13T01:41:06.927Z</time>
</trkpt>
<trkpt lat="-26.8566849" lon="152.9389825">
<ele>28.948</ele>
<time>2017-09-13T01:41:08.963Z</time>
</trkpt>
<trkpt lat="-26.8568686" lon="152.9388679">
<ele>28.214</ele>
<time>2017-09-13T01:41:10.613Z</time>
</trkpt>
<trkpt lat="-26.8570889" lon="152.9387232">
<ele>27.920</ele>
<time>2017-09-13T01:41:12.500Z</time>
</trkpt>
<trkpt lat="-26.8573020" lon="152.9385141">
<ele>28.206</ele>
<time>2017-09-13T01:41:14.385Z</time>
</trkpt>
<trkpt lat="-26.8574881" lon="152.9382367">
<ele>28.945</ele>
<time>2017-09-13T01:41:16.221Z</time>
</trkpt>
<trkpt lat="-26.8576460" lon="152.9378740">
<ele>29.915</ele>
<time>2017-09-13T01:41:18.222Z</time>
</trkpt>
<trkpt lat="-26.8577237" lon="152.9374401">
<ele>31.003</ele>
<time>2017-09-13T01:41:20.386Z</time>
</trkpt>
<trkpt lat="-26.8577463" lon="152.9368291">
<ele>32.246</ele>
<time>2017-09-13T01:41:23.405Z</time>
</trkpt>
<trkpt lat="-26.8577786" lon="152.9362342">
<ele>33.643</ele>
<time>2017-09-13T01:41:26.360Z</time>
</trkpt>
<trkpt lat="-26.8578150" lon="152.9358437">
<ele>34.966</ele>
<time>2017-09-13T01:41:28.272Z</time>
</trkpt>
<trkpt lat="-26.8579509" lon="152.9352404">
<ele>35.943</ele>
<time>2017-09-13T01:41:31.228Z</time>
</trkpt>
<trkpt lat="-26.8580562" lon="152.9348378">
<ele>36.579</ele>
<time>2017-09-13T01:41:33.244Z</time>
</trkpt>
<trkpt lat="-26.8582010" lon="152.9342489">
<ele>37.138</ele>
<time>2017-09-13T01:41:36.375Z</time>
</trkpt>
<trkpt lat="-26.8582959" lon="152.9338963">
<ele>37.829</ele>
<time>2017-09-13T01:41:38.328Z</time>
</trkpt>
<trkpt lat="-26.8584945" lon="152.9333892">
<ele>38.536</ele>
<time>2017-09-13T01:41:41.322Z</time>
</trkpt>
<trkpt lat="-26.8586408" lon="152.9330623">
<ele>39.011</ele>
<time>2017-09-13T01:41:43.294Z</time>
</trkpt>
<trkpt lat="-26.8588324" lon="152.9325760">
<ele>39.203</ele>
<time>2017-09-13T01:41:46.133Z</time>
</trkpt>
<trkpt lat="-26.8589716" lon="152.9322330">
<ele>39.320</ele>
<time>2017-09-13T01:41:48.146Z</time>
</trkpt>
<trkpt lat="-26.8591780" lon="152.9317209">
<ele>39.514</ele>
<time>2017-09-13T01:41:51.173Z</time>
</trkpt>
<trkpt lat="-26.8593397" lon="152.9312101">
<ele>39.590</ele>
<time>2017-09-13T01:41:54.053Z</time>
</trkpt>
<trkpt lat="-26.8596096" lon="152.9307276">
<ele>39.314</ele>
<time>2017-09-13T01:41:56.828Z</time>
</trkpt>
<trkpt lat="-26.8599256" lon="152.9304702">
<ele>38.872</ele>
<time>2017-09-13T01:41:58.837Z</time>
</trkpt>
<trkpt lat="-26.8604928" lon="152.9302305">
<ele>38.793</ele>
<time>2017-09-13T01:42:01.973Z</time>
</trkpt>
<trkpt lat="-26.8610131" lon="152.9300323">
<ele>39.581</ele>
<time>2017-09-13T01:42:04.985Z</time>
</trkpt>
<trkpt lat="-26.8612984" lon="152.9298053">
<ele>40.990</ele>
<time>2017-09-13T01:42:06.883Z</time>
</trkpt>
<trkpt lat="-26.8616569" lon="152.9293036">
<ele>42.124</ele>
<time>2017-09-13T01:42:09.878Z</time>
</trkpt>
<trkpt lat="-26.8618780" lon="152.9289426">
<ele>42.559</ele>
<time>2017-09-13T01:42:11.976Z</time>
</trkpt>
<trkpt lat="-26.8621026" lon="152.9286380">
<ele>42.674</ele>
<time>2017-09-13T01:42:13.911Z</time>
</trkpt>
<trkpt lat="-26.8624418" lon="152.9281831">
<ele>42.889</ele>
<time>2017-09-13T01:42:16.853Z</time>
</trkpt>
<trkpt lat="-26.8626705" lon="152.9278714">
<ele>43.199</ele>
<time>2017-09-13T01:42:18.868Z</time>
</trkpt>
<trkpt lat="-26.8630218" lon="152.9274254">
<ele>43.405</ele>
<time>2017-09-13T01:42:21.899Z</time>
</trkpt>
<trkpt lat="-26.8632488" lon="152.9271379">
<ele>43.501</ele>
<time>2017-09-13T01:42:23.899Z</time>
</trkpt>
<trkpt lat="-26.8634588" lon="152.9268557">
<ele>43.625</ele>
<time>2017-09-13T01:42:25.794Z</time>
</trkpt>
<trkpt lat="-26.8636686" lon="152.9265606">
<ele>43.827</ele>
<time>2017-09-13T01:42:27.695Z</time>
</trkpt>
<trkpt lat="-26.8639866" lon="152.9260538">
<ele>43.995</ele>
<time>2017-09-13T01:42:30.680Z</time>
</trkpt>
<trkpt lat="-26.8643128" lon="152.9255251">
<ele>43.973</ele>
<time>2017-09-13T01:42:33.788Z</time>
</trkpt>
<trkpt lat="-26.8645360" lon="152.9252097">
<ele>43.754</ele>
<time>2017-09-13T01:42:35.790Z</time>
</trkpt>
<trkpt lat="-26.8648015" lon="152.9249434">
<ele>43.586</ele>
<time>2017-09-13T01:42:37.793Z</time>
</trkpt>
<trkpt lat="-26.8652502" lon="152.9246380">
<ele>43.784</ele>
<time>2017-09-13T01:42:40.730Z</time>
</trkpt>
<trkpt lat="-26.8655689" lon="152.9244635">
<ele>44.554</ele>
<time>2017-09-13T01:42:42.684Z</time>
</trkpt>
<trkpt lat="-26.8660839" lon="152.9242506">
<ele>45.685</ele>
<time>2017-09-13T01:42:45.584Z</time>
</trkpt>
<trkpt lat="-26.8664567" lon="152.9241215">
<ele>46.420</ele>
<time>2017-09-13T01:42:47.601Z</time>
</trkpt>
<trkpt lat="-26.8668541" lon="152.9240503">
<ele>46.270</ele>
<time>2017-09-13T01:42:49.713Z</time>
</trkpt>
<trkpt lat="-26.8674111" lon="152.9239850">
<ele>45.593</ele>
<time>2017-09-13T01:42:52.767Z</time>
</trkpt>
<trkpt lat="-26.8677582" lon="152.9239132">
<ele>44.981</ele>
<time>2017-09-13T01:42:54.710Z</time>
</trkpt>
<trkpt lat="-26.8681138" lon="152.9238595">
<ele>44.729</ele>
<time>2017-09-13T01:42:56.707Z</time>
</trkpt>
<trkpt lat="-26.8684728" lon="152.9238305">
<ele>44.861</ele>
<time>2017-09-13T01:42:58.801Z</time>
</trkpt>
<trkpt lat="-26.8688054" lon="152.9237878">
<ele>45.306</ele>
<time>2017-09-13T01:43:00.834Z</time>
</trkpt>
<trkpt lat="-26.8692577" lon="152.9237169">
<ele>45.961</ele>
<time>2017-09-13T01:43:03.712Z</time>
</trkpt>
<trkpt lat="-26.8697179" lon="152.9236500">
<ele>46.620</ele>
<time>2017-09-13T01:43:06.567Z</time>
</trkpt>
<trkpt lat="-26.8700360" lon="152.9235994">
<ele>47.048</ele>
<time>2017-09-13T01:43:08.489Z</time>
</trkpt>
<trkpt lat="-26.8705315" lon="152.9236539">
<ele>47.148</ele>
<time>2017-09-13T01:43:11.526Z</time>
</trkpt>
<trkpt lat="-26.8708635" lon="152.9237565">
<ele>47.013</ele>
<time>2017-09-13T01:43:13.774Z</time>
</trkpt>
<trkpt lat="-26.8711655" lon="152.9238228">
<ele>46.877</ele>
<time>2017-09-13T01:43:15.871Z</time>
</trkpt>
<trkpt lat="-26.8715936" lon="152.9237876">
<ele>47.063</ele>
<time>2017-09-13T01:43:18.853Z</time>
</trkpt>
<trkpt lat="-26.8718266" lon="152.9235909">
<ele>47.835</ele>
<time>2017-09-13T01:43:20.802Z</time>
</trkpt>
<trkpt lat="-26.8721085" lon="152.9231652">
<ele>48.966</ele>
<time>2017-09-13T01:43:23.748Z</time>
</trkpt>
<trkpt lat="-26.8723879" lon="152.9227095">
<ele>49.821</ele>
<time>2017-09-13T01:43:26.648Z</time>
</trkpt>
<trkpt lat="-26.8726776" lon="152.9222356">
<ele>49.803</ele>
<time>2017-09-13T01:43:29.504Z</time>
</trkpt>
<trkpt lat="-26.8729867" lon="152.9217137">
<ele>48.595</ele>
<time>2017-09-13T01:43:32.489Z</time>
</trkpt>
<trkpt lat="-26.8733407" lon="152.9212103">
<ele>46.342</ele>
<time>2017-09-13T01:43:35.525Z</time>
</trkpt>
<trkpt lat="-26.8735822" lon="152.9208862">
<ele>43.867</ele>
<time>2017-09-13T01:43:37.581Z</time>
</trkpt>
<trkpt lat="-26.8739273" lon="152.9204362">
<ele>42.138</ele>
<time>2017-09-13T01:43:40.571Z</time>
</trkpt>
<trkpt lat="-26.8741816" lon="152.9201532">
<ele>41.519</ele>
<time>2017-09-13T01:43:42.708Z</time>
</trkpt>
<trkpt lat="-26.8744024" lon="152.9198877">
<ele>41.665</ele>
<time>2017-09-13T01:43:44.733Z</time>
</trkpt>
<trkpt lat="-26.8747257" lon="152.9195396">
<ele>42.112</ele>
<time>2017-09-13T01:43:47.692Z</time>
</trkpt>
<trkpt lat="-26.8749560" lon="152.9193285">
<ele>42.636</ele>
<time>2017-09-13T01:43:49.695Z</time>
</trkpt>
<trkpt lat="-26.8753306" lon="152.9190602">
<ele>43.301</ele>
<time>2017-09-13T01:43:52.817Z</time>
</trkpt>
<trkpt lat="-26.8755855" lon="152.9189378">
<ele>44.433</ele>
<time>2017-09-13T01:43:54.827Z</time>
</trkpt>
<trkpt lat="-26.8758439" lon="152.9188467">
<ele>46.202</ele>
<time>2017-09-13T01:43:56.773Z</time>
</trkpt>
<trkpt lat="-26.8761210" lon="152.9187770">
<ele>48.238</ele>
<time>2017-09-13T01:43:58.710Z</time>
</trkpt>
<trkpt lat="-26.8764071" lon="152.9187223">
<ele>50.035</ele>
<time>2017-09-13T01:44:00.569Z</time>
</trkpt>
<trkpt lat="-26.8768795" lon="152.9186236">
<ele>51.443</ele>
<time>2017-09-13T01:44:03.435Z</time>
</trkpt>
<trkpt lat="-26.8772144" lon="152.9185795">
<ele>52.751</ele>
<time>2017-09-13T01:44:05.436Z</time>
</trkpt>
<trkpt lat="-26.8775370" lon="152.9185602">
<ele>54.296</ele>
<time>2017-09-13T01:44:07.332Z</time>
</trkpt>
<trkpt lat="-26.8780336" lon="152.9184696">
<ele>55.889</ele>
<time>2017-09-13T01:44:10.142Z</time>
</trkpt>
<trkpt lat="-26.8783988" lon="152.9183901">
<ele>57.146</ele>
<time>2017-09-13T01:44:12.125Z</time>
</trkpt>
<trkpt lat="-26.8789372" lon="152.9182433">
<ele>57.986</ele>
<time>2017-09-13T01:44:15.060Z</time>
</trkpt>
<trkpt lat="-26.8794470" lon="152.9179937">
<ele>58.455</ele>
<time>2017-09-13T01:44:18.074Z</time>
</trkpt>
<trkpt lat="-26.8799215" lon="152.9177503">
<ele>58.635</ele>
<time>2017-09-13T01:44:21.018Z</time>
</trkpt>
<trkpt lat="-26.8803858" lon="152.9175065">
<ele>58.706</ele>
<time>2017-09-13T01:44:23.960Z</time>
</trkpt>
<trkpt lat="-26.8808552" lon="152.9172587">
<ele>58.921</ele>
<time>2017-09-13T01:44:26.904Z</time>
</trkpt>
<trkpt lat="-26.8811937" lon="152.9171095">
<ele>59.331</ele>
<time>2017-09-13T01:44:28.883Z</time>
</trkpt>
<trkpt lat="-26.8815675" lon="152.9169776">
<ele>59.579</ele>
<time>2017-09-13T01:44:30.943Z</time>
</trkpt>
<trkpt lat="-26.8821523" lon="152.9169002">
<ele>59.206</ele>
<time>2017-09-13T01:44:34.027Z</time>
</trkpt>
<trkpt lat="-26.8827160" lon="152.9168714">
<ele>58.133</ele>
<time>2017-09-13T01:44:37.015Z</time>
</trkpt>
<trkpt lat="-26.8832670" lon="152.9168486">
<ele>56.640</ele>
<time>2017-09-13T01:44:39.957Z</time>
</trkpt>
<trkpt lat="-26.8836401" lon="152.9168294">
<ele>54.771</ele>
<time>2017-09-13T01:44:41.920Z</time>
</trkpt>
<trkpt lat="-26.8842165" lon="152.9167460">
<ele>52.390</ele>
<time>2017-09-13T01:44:44.945Z</time>
</trkpt>
<trkpt lat="-26.8847942" lon="152.9166259">
<ele>50.069</ele>
<time>2017-09-13T01:44:47.917Z</time>
</trkpt>
<trkpt lat="-26.8852037" lon="152.9165205">
<ele>48.730</ele>
<time>2017-09-13T01:44:49.979Z</time>
</trkpt>
<trkpt lat="-26.8855772" lon="152.9164252">
<ele>48.554</ele>
<time>2017-09-13T01:44:51.978Z</time>
</trkpt>
<trkpt lat="-26.8860936" lon="152.9162930">
<ele>49.058</ele>
<time>2017-09-13T01:44:54.873Z</time>
</trkpt>
<trkpt lat="-26.8864178" lon="152.9162022">
<ele>49.695</ele>
<time>2017-09-13T01:44:56.807Z</time>
</trkpt>
<trkpt lat="-26.8867470" lon="152.9161056">
<ele>50.176</ele>
<time>2017-09-13T01:44:58.804Z</time>
</trkpt>
<trkpt lat="-26.8872374" lon="152.9159699">
<ele>50.535</ele>
<time>2017-09-13T01:45:01.764Z</time>
</trkpt>
<trkpt lat="-26.8877118" lon="152.9157541">
<ele>51.099</ele>
<time>2017-09-13T01:45:04.740Z</time>
</trkpt>
<trkpt lat="-26.8880203" lon="152.9155687">
<ele>52.357</ele>
<time>2017-09-13T01:45:06.774Z</time>
</trkpt>
<trkpt lat="-26.8883178" lon="152.9153864">
<ele>54.365</ele>
<time>2017-09-13T01:45:08.801Z</time>
</trkpt>
<trkpt lat="-26.8887413" lon="152.9151310">
<ele>56.489</ele>
<time>2017-09-13T01:45:11.696Z</time>
</trkpt>
<trkpt lat="-26.8890690" lon="152.9150691">
<ele>58.034</ele>
<time>2017-09-13T01:45:13.660Z</time>
</trkpt>
<trkpt lat="-26.8894124" lon="152.9150778">
<ele>58.787</ele>
<time>2017-09-13T01:45:15.606Z</time>
</trkpt>
<trkpt lat="-26.8899257" lon="152.9152978">
<ele>58.924</ele>
<time>2017-09-13T01:45:18.630Z</time>
</trkpt>
<trkpt lat="-26.8904205" lon="152.9155540">
<ele>58.773</ele>
<time>2017-09-13T01:45:21.545Z</time>
</trkpt>
<trkpt lat="-26.8909427" lon="152.9158107">
<ele>58.650</ele>
<time>2017-09-13T01:45:24.530Z</time>
</trkpt>
<trkpt lat="-26.8914596" lon="152.9160783">
<ele>58.738</ele>
<time>2017-09-13T01:45:27.468Z</time>
</trkpt>
<trkpt lat="-26.8918148" lon="152.9162618">
<ele>58.976</ele>
<time>2017-09-13T01:45:29.477Z</time>
</trkpt>
<trkpt lat="-26.8923397" lon="152.9165299">
<ele>59.303</ele>
<time>2017-09-13T01:45:32.444Z</time>
</trkpt>
<trkpt lat="-26.8926799" lon="152.9167256">
<ele>59.891</ele>
<time>2017-09-13T01:45:34.398Z</time>
</trkpt>
<trkpt lat="-26.8930282" lon="152.9169381">
<ele>60.795</ele>
<time>2017-09-13T01:45:36.393Z</time>
</trkpt>
<trkpt lat="-26.8935265" lon="152.9173174">
<ele>61.721</ele>
<time>2017-09-13T01:45:39.405Z</time>
</trkpt>
<trkpt lat="-26.8940016" lon="152.9177199">
<ele>62.483</ele>
<time>2017-09-13T01:45:42.392Z</time>
</trkpt>
<trkpt lat="-26.8943250" lon="152.9179638">
<ele>63.239</ele>
<time>2017-09-13T01:45:44.367Z</time>
</trkpt>
<trkpt lat="-26.8947967" lon="152.9183535">
<ele>64.087</ele>
<time>2017-09-13T01:45:47.334Z</time>
</trkpt>
<trkpt lat="-26.8952769" lon="152.9187503">
<ele>64.889</ele>
<time>2017-09-13T01:45:50.331Z</time>
</trkpt>
<trkpt lat="-26.8957544" lon="152.9191334">
<ele>65.504</ele>
<time>2017-09-13T01:45:53.281Z</time>
</trkpt>
<trkpt lat="-26.8962624" lon="152.9194618">
<ele>65.922</ele>
<time>2017-09-13T01:45:56.244Z</time>
</trkpt>
<trkpt lat="-26.8968099" lon="152.9197665">
<ele>66.184</ele>
<time>2017-09-13T01:45:59.320Z</time>
</trkpt>
<trkpt lat="-26.8971892" lon="152.9202668">
<ele>66.310</ele>
<time>2017-09-13T01:46:02.257Z</time>
</trkpt>
<trkpt lat="-26.8973421" lon="152.9206576">
<ele>66.476</ele>
<time>2017-09-13T01:46:04.199Z</time>
</trkpt>
<trkpt lat="-26.8975155" lon="152.9210424">
<ele>66.938</ele>
<time>2017-09-13T01:46:06.194Z</time>
</trkpt>
<trkpt lat="-26.8977477" lon="152.9214135">
<ele>67.576</ele>
<time>2017-09-13T01:46:08.313Z</time>
</trkpt>
<trkpt lat="-26.8980859" lon="152.9218966">
<ele>67.983</ele>
<time>2017-09-13T01:46:11.210Z</time>
</trkpt>
<trkpt lat="-26.8985211" lon="152.9222805">
<ele>67.808</ele>
<time>2017-09-13T01:46:14.144Z</time>
</trkpt>
<trkpt lat="-26.8990565" lon="152.9225642">
<ele>66.799</ele>
<time>2017-09-13T01:46:17.189Z</time>
</trkpt>
<trkpt lat="-26.8996299" lon="152.9228226">
<ele>64.841</ele>
<time>2017-09-13T01:46:20.270Z</time>
</trkpt>
<trkpt lat="-26.8999826" lon="152.9230195">
<ele>62.132</ele>
<time>2017-09-13T01:46:22.226Z</time>
</trkpt>
<trkpt lat="-26.9003143" lon="152.9232749">
<ele>59.348</ele>
<time>2017-09-13T01:46:24.271Z</time>
</trkpt>
<trkpt lat="-26.9006009" lon="152.9235409">
<ele>57.294</ele>
<time>2017-09-13T01:46:26.280Z</time>
</trkpt>
<trkpt lat="-26.9009022" lon="152.9237387">
<ele>56.261</ele>
<time>2017-09-13T01:46:28.355Z</time>
</trkpt>
<trkpt lat="-26.9013716" lon="152.9238387">
<ele>56.025</ele>
<time>2017-09-13T01:46:31.420Z</time>
</trkpt>
<trkpt lat="-26.9016534" lon="152.9238558">
<ele>56.263</ele>
<time>2017-09-13T01:46:33.368Z</time>
</trkpt>
<trkpt lat="-26.9019363" lon="152.9238759">
<ele>56.753</ele>
<time>2017-09-13T01:46:35.294Z</time>
</trkpt>
<trkpt lat="-26.9022428" lon="152.9238822">
<ele>57.349</ele>
<time>2017-09-13T01:46:37.228Z</time>
</trkpt>
<trkpt lat="-26.9027654" lon="152.9238808">
<ele>57.892</ele>
<time>2017-09-13T01:46:40.304Z</time>
</trkpt>
<trkpt lat="-26.9033000" lon="152.9238928">
<ele>58.234</ele>
<time>2017-09-13T01:46:43.271Z</time>
</trkpt>
<trkpt lat="-26.9036614" lon="152.9239020">
<ele>58.195</ele>
<time>2017-09-13T01:46:45.223Z</time>
</trkpt>
<trkpt lat="-26.9040501" lon="152.9239099">
<ele>57.629</ele>
<time>2017-09-13T01:46:47.271Z</time>
</trkpt>
<trkpt lat="-26.9046397" lon="152.9239197">
<ele>56.547</ele>
<time>2017-09-13T01:46:50.302Z</time>
</trkpt>
<trkpt lat="-26.9052312" lon="152.9239283">
<ele>55.016</ele>
<time>2017-09-13T01:46:53.280Z</time>
</trkpt>
<trkpt lat="-26.9058247" lon="152.9239561">
<ele>53.242</ele>
<time>2017-09-13T01:46:56.250Z</time>
</trkpt>
<trkpt lat="-26.9062161" lon="152.9239799">
<ele>51.750</ele>
<time>2017-09-13T01:46:58.214Z</time>
</trkpt>
<trkpt lat="-26.9066100" lon="152.9239860">
<ele>50.946</ele>
<time>2017-09-13T01:47:00.206Z</time>
</trkpt>
<trkpt lat="-26.9071961" lon="152.9239686">
<ele>50.766</ele>
<time>2017-09-13T01:47:03.187Z</time>
</trkpt>
<trkpt lat="-26.9075915" lon="152.9239646">
<ele>50.902</ele>
<time>2017-09-13T01:47:05.192Z</time>
</trkpt>
<trkpt lat="-26.9081818" lon="152.9239638">
<ele>51.035</ele>
<time>2017-09-13T01:47:08.182Z</time>
</trkpt>
<trkpt lat="-26.9087741" lon="152.9239691">
<ele>50.951</ele>
<time>2017-09-13T01:47:11.188Z</time>
</trkpt>
<trkpt lat="-26.9091667" lon="152.9239492">
<ele>50.690</ele>
<time>2017-09-13T01:47:13.206Z</time>
</trkpt>
<trkpt lat="-26.9095403" lon="152.9239211">
<ele>50.566</ele>
<time>2017-09-13T01:47:15.168Z</time>
</trkpt>
<trkpt lat="-26.9100714" lon="152.9238286">
<ele>50.860</ele>
<time>2017-09-13T01:47:18.012Z</time>
</trkpt>
<trkpt lat="-26.9104470" lon="152.9237432">
<ele>51.615</ele>
<time>2017-09-13T01:47:20.019Z</time>
</trkpt>
<trkpt lat="-26.9110185" lon="152.9235829">
<ele>52.632</ele>
<time>2017-09-13T01:47:23.050Z</time>
</trkpt>
<trkpt lat="-26.9115908" lon="152.9234357">
<ele>53.512</ele>
<time>2017-09-13T01:47:26.016Z</time>
</trkpt>
<trkpt lat="-26.9119710" lon="152.9233304">
<ele>53.844</ele>
<time>2017-09-13T01:47:27.968Z</time>
</trkpt>
<trkpt lat="-26.9125604" lon="152.9231718">
<ele>53.525</ele>
<time>2017-09-13T01:47:30.980Z</time>
</trkpt>
<trkpt lat="-26.9131355" lon="152.9230228">
<ele>52.834</ele>
<time>2017-09-13T01:47:33.934Z</time>
</trkpt>
<trkpt lat="-26.9137062" lon="152.9228652">
<ele>52.213</ele>
<time>2017-09-13T01:47:36.919Z</time>
</trkpt>
<trkpt lat="-26.9142716" lon="152.9227538">
<ele>52.081</ele>
<time>2017-09-13T01:47:39.880Z</time>
</trkpt>
<trkpt lat="-26.9148300" lon="152.9227118">
<ele>52.685</ele>
<time>2017-09-13T01:47:42.834Z</time>
</trkpt>
<trkpt lat="-26.9153721" lon="152.9226926">
<ele>53.692</ele>
<time>2017-09-13T01:47:45.745Z</time>
</trkpt>
<trkpt lat="-26.9159496" lon="152.9226926">
<ele>54.381</ele>
<time>2017-09-13T01:47:48.772Z</time>
</trkpt>
<trkpt lat="-26.9163469" lon="152.9226891">
<ele>54.375</ele>
<time>2017-09-13T01:47:50.763Z</time>
</trkpt>
<trkpt lat="-26.9169678" lon="152.9226916">
<ele>53.728</ele>
<time>2017-09-13T01:47:53.773Z</time>
</trkpt>
<trkpt lat="-26.9176287" lon="152.9226803">
<ele>52.491</ele>
<time>2017-09-13T01:47:56.845Z</time>
</trkpt>
<trkpt lat="-26.9180684" lon="152.9226747">
<ele>50.954</ele>
<time>2017-09-13T01:47:58.850Z</time>
</trkpt>
<trkpt lat="-26.9185040" lon="152.9226599">
<ele>49.690</ele>
<time>2017-09-13T01:48:00.837Z</time>
</trkpt>
<trkpt lat="-26.9189341" lon="152.9226458">
<ele>48.873</ele>
<time>2017-09-13T01:48:02.815Z</time>
</trkpt>
<trkpt lat="-26.9195674" lon="152.9225227">
<ele>48.206</ele>
<time>2017-09-13T01:48:05.799Z</time>
</trkpt>
<trkpt lat="-26.9201990" lon="152.9223459">
<ele>47.469</ele>
<time>2017-09-13T01:48:08.855Z</time>
</trkpt>
<trkpt lat="-26.9208140" lon="152.9222460">
<ele>46.748</ele>
<time>2017-09-13T01:48:11.808Z</time>
</trkpt>
<trkpt lat="-26.9214541" lon="152.9223811">
<ele>46.312</ele>
<time>2017-09-13T01:48:14.879Z</time>
</trkpt>
<trkpt lat="-26.9220518" lon="152.9225023">
<ele>46.424</ele>
<time>2017-09-13T01:48:17.788Z</time>
</trkpt>
<trkpt lat="-26.9224269" lon="152.9225566">
<ele>47.022</ele>
<time>2017-09-13T01:48:19.685Z</time>
</trkpt>
<trkpt lat="-26.9230317" lon="152.9225018">
<ele>47.589</ele>
<time>2017-09-13T01:48:22.730Z</time>
</trkpt>
<trkpt lat="-26.9236211" lon="152.9223058">
<ele>47.613</ele>
<time>2017-09-13T01:48:25.748Z</time>
</trkpt>
<trkpt lat="-26.9240084" lon="152.9221958">
<ele>47.155</ele>
<time>2017-09-13T01:48:27.712Z</time>
</trkpt>
<trkpt lat="-26.9243795" lon="152.9220878">
<ele>46.656</ele>
<time>2017-09-13T01:48:29.639Z</time>
</trkpt>
<trkpt lat="-26.9249353" lon="152.9218838">
<ele>46.394</ele>
<time>2017-09-13T01:48:32.629Z</time>
</trkpt>
<trkpt lat="-26.9252711" lon="152.9216986">
<ele>46.318</ele>
<time>2017-09-13T01:48:34.572Z</time>
</trkpt>
<trkpt lat="-26.9257322" lon="152.9213176">
<ele>46.432</ele>
<time>2017-09-13T01:48:37.563Z</time>
</trkpt>
<trkpt lat="-26.9261742" lon="152.9209217">
<ele>46.863</ele>
<time>2017-09-13T01:48:40.528Z</time>
</trkpt>
<trkpt lat="-26.9264596" lon="152.9206456">
<ele>47.557</ele>
<time>2017-09-13T01:48:42.535Z</time>
</trkpt>
<trkpt lat="-26.9267315" lon="152.9203875">
<ele>48.243</ele>
<time>2017-09-13T01:48:44.500Z</time>
</trkpt>
<trkpt lat="-26.9269905" lon="152.9201530">
<ele>48.727</ele>
<time>2017-09-13T01:48:46.441Z</time>
</trkpt>
<trkpt lat="-26.9273860" lon="152.9198741">
<ele>48.980</ele>
<time>2017-09-13T01:48:49.300Z</time>
</trkpt>
<trkpt lat="-26.9276224" lon="152.9197251">
<ele>49.028</ele>
<time>2017-09-13T01:48:51.055Z</time>
</trkpt>
<trkpt lat="-26.9279238" lon="152.9195253">
<ele>48.885</ele>
<time>2017-09-13T01:48:53.520Z</time>
</trkpt>
<trkpt lat="-26.9280779" lon="152.9194244">
<ele>48.418</ele>
<time>2017-09-13T01:48:54.926Z</time>
</trkpt>
<trkpt lat="-26.9282073" lon="152.9192223">
<ele>47.438</ele>
<time>2017-09-13T01:48:57.111Z</time>
</trkpt>
<trkpt lat="-26.9281493" lon="152.9190224">
<ele>45.968</ele>
<time>2017-09-13T01:48:59.384Z</time>
</trkpt>
<trkpt lat="-26.9280163" lon="152.9188050">
<ele>44.460</ele>
<time>2017-09-13T01:49:02.263Z</time>
</trkpt>
<trkpt lat="-26.9277952" lon="152.9183673">
<ele>43.523</ele>
<time>2017-09-13T01:49:05.881Z</time>
</trkpt>
<trkpt lat="-26.9276106" lon="152.9177656">
<ele>43.554</ele>
<time>2017-09-13T01:49:09.319Z</time>
</trkpt>
<trkpt lat="-26.9274386" lon="152.9171343">
<ele>44.839</ele>
<time>2017-09-13T01:49:12.473Z</time>
</trkpt>
<trkpt lat="-26.9273580" lon="152.9166934">
<ele>46.983</ele>
<time>2017-09-13T01:49:14.519Z</time>
</trkpt>
<trkpt lat="-26.9272946" lon="152.9159646">
<ele>48.981</ele>
<time>2017-09-13T01:49:17.686Z</time>
</trkpt>
<trkpt lat="-26.9272019" lon="152.9152722">
<ele>51.516</ele>
<time>2017-09-13T01:49:20.663Z</time>
</trkpt>
<trkpt lat="-26.9270763" lon="152.9146382">
<ele>55.406</ele>
<time>2017-09-13T01:49:23.537Z</time>
</trkpt>
<trkpt lat="-26.9270213" lon="152.9141933">
<ele>58.990</ele>
<time>2017-09-13T01:49:25.571Z</time>
</trkpt>
<trkpt lat="-26.9269834" lon="152.9134880">
<ele>60.698</ele>
<time>2017-09-13T01:49:28.676Z</time>
</trkpt>
<trkpt lat="-26.9269781" lon="152.9130066">
<ele>60.987</ele>
<time>2017-09-13T01:49:30.745Z</time>
</trkpt>
<trkpt lat="-26.9269576" lon="152.9123296">
<ele>60.616</ele>
<time>2017-09-13T01:49:33.726Z</time>
</trkpt>
<trkpt lat="-26.9268731" lon="152.9116877">
<ele>59.783</ele>
<time>2017-09-13T01:49:36.694Z</time>
</trkpt>
<trkpt lat="-26.9267581" lon="152.9112843">
<ele>58.450</ele>
<time>2017-09-13T01:49:38.631Z</time>
</trkpt>
<trkpt lat="-26.9264756" lon="152.9106842">
<ele>56.984</ele>
<time>2017-09-13T01:49:41.678Z</time>
</trkpt>
<trkpt lat="-26.9262413" lon="152.9103042">
<ele>55.955</ele>
<time>2017-09-13T01:49:43.717Z</time>
</trkpt>
<trkpt lat="-26.9258886" lon="152.9097537">
<ele>55.682</ele>
<time>2017-09-13T01:49:46.716Z</time>
</trkpt>
<trkpt lat="-26.9256773" lon="152.9094103">
<ele>56.410</ele>
<time>2017-09-13T01:49:48.598Z</time>
</trkpt>
<trkpt lat="-26.9254581" lon="152.9090645">
<ele>58.314</ele>
<time>2017-09-13T01:49:50.571Z</time>
</trkpt>
<trkpt lat="-26.9252728" lon="152.9087195">
<ele>61.091</ele>
<time>2017-09-13T01:49:52.541Z</time>
</trkpt>
<trkpt lat="-26.9252749" lon="152.9081334">
<ele>64.108</ele>
<time>2017-09-13T01:49:55.537Z</time>
</trkpt>
<trkpt lat="-26.9254786" lon="152.9075996">
<ele>67.011</ele>
<time>2017-09-13T01:49:58.554Z</time>
</trkpt>
<trkpt lat="-26.9257241" lon="152.9070764">
<ele>69.801</ele>
<time>2017-09-13T01:50:01.572Z</time>
</trkpt>
<trkpt lat="-26.9259688" lon="152.9067561">
<ele>72.320</ele>
<time>2017-09-13T01:50:03.631Z</time>
</trkpt>
<trkpt lat="-26.9263973" lon="152.9063201">
<ele>74.185</ele>
<time>2017-09-13T01:50:06.715Z</time>
</trkpt>
<trkpt lat="-26.9267822" lon="152.9058788">
<ele>75.394</ele>
<time>2017-09-13T01:50:09.659Z</time>
</trkpt>
<trkpt lat="-26.9269528" lon="152.9052936">
<ele>76.343</ele>
<time>2017-09-13T01:50:12.599Z</time>
</trkpt>
<trkpt lat="-26.9269477" lon="152.9046377">
<ele>77.332</ele>
<time>2017-09-13T01:50:15.646Z</time>
</trkpt>
<trkpt lat="-26.9268713" lon="152.9039839">
<ele>78.388</ele>
<time>2017-09-13T01:50:18.669Z</time>
</trkpt>
<trkpt lat="-26.9269731" lon="152.9033625">
<ele>79.453</ele>
<time>2017-09-13T01:50:21.644Z</time>
</trkpt>
<trkpt lat="-26.9270660" lon="152.9029660">
<ele>80.659</ele>
<time>2017-09-13T01:50:23.617Z</time>
</trkpt>
<trkpt lat="-26.9272184" lon="152.9023394">
<ele>82.157</ele>
<time>2017-09-13T01:50:26.682Z</time>
</trkpt>
<trkpt lat="-26.9273897" lon="152.9019391">
<ele>83.949</ele>
<time>2017-09-13T01:50:28.730Z</time>
</trkpt>
<trkpt lat="-26.9276206" lon="152.9013476">
<ele>85.926</ele>
<time>2017-09-13T01:50:31.753Z</time>
</trkpt>
<trkpt lat="-26.9277057" lon="152.9007807">
<ele>88.055</ele>
<time>2017-09-13T01:50:34.600Z</time>
</trkpt>
<trkpt lat="-26.9278372" lon="152.9004511">
<ele>90.412</ele>
<time>2017-09-13T01:50:36.539Z</time>
</trkpt>
<trkpt lat="-26.9282053" lon="152.9001536">
<ele>92.725</ele>
<time>2017-09-13T01:50:39.449Z</time>
</trkpt>
<trkpt lat="-26.9284753" lon="152.9000319">
<ele>94.493</ele>
<time>2017-09-13T01:50:41.436Z</time>
</trkpt>
<trkpt lat="-26.9287983" lon="152.8997872">
<ele>95.691</ele>
<time>2017-09-13T01:50:44.240Z</time>
</trkpt>
<trkpt lat="-26.9289335" lon="152.8994882">
<ele>96.800</ele>
<time>2017-09-13T01:50:46.389Z</time>
</trkpt>
<trkpt lat="-26.9290954" lon="152.8991413">
<ele>98.434</ele>
<time>2017-09-13T01:50:48.602Z</time>
</trkpt>
<trkpt lat="-26.9294583" lon="152.8987254">
<ele>100.713</ele>
<time>2017-09-13T01:50:51.647Z</time>
</trkpt>
<trkpt lat="-26.9298641" lon="152.8984309">
<ele>103.002</ele>
<time>2017-09-13T01:50:54.583Z</time>
</trkpt>
<trkpt lat="-26.9300249" lon="152.8982032">
<ele>105.448</ele>
<time>2017-09-13T01:50:56.373Z</time>
</trkpt>
<trkpt lat="-26.9300497" lon="152.8978935">
<ele>108.741</ele>
<time>2017-09-13T01:50:58.408Z</time>
</trkpt>
<trkpt lat="-26.9302183" lon="152.8974666">
<ele>112.120</ele>
<time>2017-09-13T01:51:01.376Z</time>
</trkpt>
<trkpt lat="-26.9304512" lon="152.8972474">
<ele>114.609</ele>
<time>2017-09-13T01:51:03.424Z</time>
</trkpt>
<trkpt lat="-26.9308572" lon="152.8969044">
<ele>116.377</ele>
<time>2017-09-13T01:51:06.621Z</time>
</trkpt>
<trkpt lat="-26.9310788" lon="152.8966479">
<ele>117.689</ele>
<time>2017-09-13T01:51:08.632Z</time>
</trkpt>
<trkpt lat="-26.9313725" lon="152.8963153">
<ele>118.914</ele>
<time>2017-09-13T01:51:11.485Z</time>
</trkpt>
<trkpt lat="-26.9315718" lon="152.8959616">
<ele>120.734</ele>
<time>2017-09-13T01:51:14.365Z</time>
</trkpt>
<trkpt lat="-26.9315772" lon="152.8956749">
<ele>123.554</ele>
<time>2017-09-13T01:51:16.417Z</time>
</trkpt>
<trkpt lat="-26.9314716" lon="152.8952535">
<ele>127.146</ele>
<time>2017-09-13T01:51:19.530Z</time>
</trkpt>
<trkpt lat="-26.9313484" lon="152.8951021">
<ele>131.102</ele>
<time>2017-09-13T01:51:21.247Z</time>
</trkpt>
<trkpt lat="-26.9311759" lon="152.8949867">
<ele>135.321</ele>
<time>2017-09-13T01:51:23.866Z</time>
</trkpt>
<trkpt lat="-26.9311200" lon="152.8948923">
<ele>139.474</ele>
<time>2017-09-13T01:51:26.078Z</time>
</trkpt>
<trkpt lat="-26.9312174" lon="152.8948778">
<ele>142.849</ele>
<time>2017-09-13T01:51:29.290Z</time>
</trkpt>
<trkpt lat="-26.9313162" lon="152.8949279">
<ele>145.102</ele>
<time>2017-09-13T01:51:33.087Z</time>
</trkpt>
<trkpt lat="-26.9314103" lon="152.8949132">
<ele>146.485</ele>
<time>2017-09-13T01:51:35.991Z</time>
</trkpt>
<trkpt lat="-26.9314103" lon="152.8949132">
<ele>147.336</ele>
<time>2017-09-13T01:51:41.991Z</time>
</trkpt>
<trkpt lat="-26.9314103" lon="152.8949132">
<ele>147.666</ele>
<time>2017-09-13T01:56:53.389Z</time>
</trkpt>
<trkpt lat="-26.9317218" lon="152.8947747">
<ele>147.556</ele>
<time>2017-09-13T02:01:11.000Z</time>
</trkpt>
<trkpt lat="-26.9317218" lon="152.8947747">
<ele>147.347</ele>
<time>2017-09-13T02:01:15.000Z</time>
</trkpt>
<trkpt lat="-26.9317218" lon="152.8947747">
<ele>147.278</ele>
<time>2017-09-13T02:01:55.980Z</time>
</trkpt>
<trkpt lat="-26.9315646" lon="152.8946542">
<ele>147.316</ele>
<time>2017-09-13T02:02:08.675Z</time>
</trkpt>
<trkpt lat="-26.9314685" lon="152.8945871">
<ele>147.852</ele>
<time>2017-09-13T02:02:12.533Z</time>
</trkpt>
<trkpt lat="-26.9313690" lon="152.8945859">
<ele>149.149</ele>
<time>2017-09-13T02:02:15.991Z</time>
</trkpt>
<trkpt lat="-26.9312583" lon="152.8945931">
<ele>150.404</ele>
<time>2017-09-13T02:02:20.377Z</time>
</trkpt>
<trkpt lat="-26.9311812" lon="152.8945346">
<ele>150.724</ele>
<time>2017-09-13T02:02:24.154Z</time>
</trkpt>
<trkpt lat="-26.9311233" lon="152.8946604">
<ele>150.169</ele>
<time>2017-09-13T02:02:26.495Z</time>
</trkpt>
<trkpt lat="-26.9312066" lon="152.8947778">
<ele>149.253</ele>
<time>2017-09-13T02:02:28.414Z</time>
</trkpt>
<trkpt lat="-26.9313807" lon="152.8949898">
<ele>148.506</ele>
<time>2017-09-13T02:02:31.294Z</time>
</trkpt>
<trkpt lat="-26.9314273" lon="152.8951965">
<ele>148.146</ele>
<time>2017-09-13T02:02:33.267Z</time>
</trkpt>
<trkpt lat="-26.9314487" lon="152.8955379">
<ele>148.063</ele>
<time>2017-09-13T02:02:36.097Z</time>
</trkpt>
<trkpt lat="-26.9314624" lon="152.8957887">
<ele>147.866</ele>
<time>2017-09-13T02:02:38.093Z</time>
</trkpt>
<trkpt lat="-26.9313082" lon="152.8961380">
<ele>147.130</ele>
<time>2017-09-13T02:02:40.923Z</time>
</trkpt>
<trkpt lat="-26.9311331" lon="152.8963462">
<ele>145.544</ele>
<time>2017-09-13T02:02:42.882Z</time>
</trkpt>
<trkpt lat="-26.9308318" lon="152.8966623">
<ele>143.102</ele>
<time>2017-09-13T02:02:45.876Z</time>
</trkpt>
<trkpt lat="-26.9306384" lon="152.8968913">
<ele>140.581</ele>
<time>2017-09-13T02:02:47.886Z</time>
</trkpt>
<trkpt lat="-26.9304298" lon="152.8971046">
<ele>139.275</ele>
<time>2017-09-13T02:02:49.921Z</time>
</trkpt>
<trkpt lat="-26.9302092" lon="152.8973002">
<ele>140.006</ele>
<time>2017-09-13T02:02:52.031Z</time>
</trkpt>
<trkpt lat="-26.9299745" lon="152.8974631">
<ele>142.445</ele>
<time>2017-09-13T02:02:54.259Z</time>
</trkpt>
<trkpt lat="-26.9297931" lon="152.8976784">
<ele>145.283</ele>
<time>2017-09-13T02:02:56.487Z</time>
</trkpt>
<trkpt lat="-26.9297113" lon="152.8980549">
<ele>147.305</ele>
<time>2017-09-13T02:02:59.468Z</time>
</trkpt>
<trkpt lat="-26.9295257" lon="152.8983859">
<ele>148.202</ele>
<time>2017-09-13T02:03:02.220Z</time>
</trkpt>
<trkpt lat="-26.9292302" lon="152.8986902">
<ele>148.197</ele>
<time>2017-09-13T02:03:05.028Z</time>
</trkpt>
<trkpt lat="-26.9290174" lon="152.8989144">
<ele>147.520</ele>
<time>2017-09-13T02:03:07.032Z</time>
</trkpt>
<trkpt lat="-26.9287928" lon="152.8993212">
<ele>140.903</ele>
<time>2017-09-13T02:03:09.972Z</time>
</trkpt>
<trkpt lat="-26.9286716" lon="152.8996269">
<ele>125.009</ele>
<time>2017-09-13T02:03:12.104Z</time>
</trkpt>
<trkpt lat="-26.9284062" lon="152.8999817">
<ele>108.419</ele>
<time>2017-09-13T02:03:15.157Z</time>
</trkpt>
<trkpt lat="-26.9281571" lon="152.9001110">
<ele>101.479</ele>
<time>2017-09-13T02:03:17.119Z</time>
</trkpt>
<trkpt lat="-26.9278899" lon="152.9002429">
<ele>104.971</ele>
<time>2017-09-13T02:03:19.195Z</time>
</trkpt>
<trkpt lat="-26.9276032" lon="152.9005804">
<ele>113.343</ele>
<time>2017-09-13T02:03:22.096Z</time>
</trkpt>
<trkpt lat="-26.9274557" lon="152.9010594">
<ele>115.138</ele>
<time>2017-09-13T02:03:24.963Z</time>
</trkpt>
<trkpt lat="-26.9273786" lon="152.9015007">
<ele>105.138</ele>
<time>2017-09-13T02:03:27.452Z</time>
</trkpt>
<trkpt lat="-26.9272558" lon="152.9020591">
<ele>91.899</ele>
<time>2017-09-13T02:03:30.701Z</time>
</trkpt>
<trkpt lat="-26.9270596" lon="152.9025573">
<ele>84.037</ele>
<time>2017-09-13T02:03:34.459Z</time>
</trkpt>
<trkpt lat="-26.9269833" lon="152.9028556">
<ele>80.756</ele>
<time>2017-09-13T02:03:37.698Z</time>
</trkpt>
<trkpt lat="-26.9269826" lon="152.9030588">
<ele>79.156</ele>
<time>2017-09-13T02:03:39.488Z</time>
</trkpt>
<trkpt lat="-26.9269493" lon="152.9032479">
<ele>77.572</ele>
<time>2017-09-13T02:03:40.786Z</time>
</trkpt>
<trkpt lat="-26.9268413" lon="152.9036894">
<ele>75.545</ele>
<time>2017-09-13T02:03:43.336Z</time>
</trkpt>
<trkpt lat="-26.9267540" lon="152.9040742">
<ele>73.475</ele>
<time>2017-09-13T02:03:45.458Z</time>
</trkpt>
<trkpt lat="-26.9268093" lon="152.9046165">
<ele>72.005</ele>
<time>2017-09-13T02:03:48.372Z</time>
</trkpt>
<trkpt lat="-26.9269210" lon="152.9051618">
<ele>71.104</ele>
<time>2017-09-13T02:03:51.375Z</time>
</trkpt>
<trkpt lat="-26.9268706" lon="152.9057198">
<ele>70.315</ele>
<time>2017-09-13T02:03:54.373Z</time>
</trkpt>
<trkpt lat="-26.9266263" lon="152.9061973">
<ele>69.538</ele>
<time>2017-09-13T02:03:57.261Z</time>
</trkpt>
<trkpt lat="-26.9263628" lon="152.9064505">
<ele>68.931</ele>
<time>2017-09-13T02:03:59.276Z</time>
</trkpt>
<trkpt lat="-26.9260652" lon="152.9066527">
<ele>68.488</ele>
<time>2017-09-13T02:04:01.304Z</time>
</trkpt>
<trkpt lat="-26.9257148" lon="152.9070566">
<ele>68.033</ele>
<time>2017-09-13T02:04:04.326Z</time>
</trkpt>
<trkpt lat="-26.9255332" lon="152.9073678">
<ele>67.546</ele>
<time>2017-09-13T02:04:06.381Z</time>
</trkpt>
<trkpt lat="-26.9253667" lon="152.9078746">
<ele>67.128</ele>
<time>2017-09-13T02:04:09.514Z</time>
</trkpt>
<trkpt lat="-26.9252438" lon="152.9083638">
<ele>66.695</ele>
<time>2017-09-13T02:04:12.601Z</time>
</trkpt>
<trkpt lat="-26.9252730" lon="152.9086767">
<ele>66.022</ele>
<time>2017-09-13T02:04:14.371Z</time>
</trkpt>
<trkpt lat="-26.9253841" lon="152.9089896">
<ele>65.026</ele>
<time>2017-09-13T02:04:16.114Z</time>
</trkpt>
<trkpt lat="-26.9255775" lon="152.9093182">
<ele>63.926</ele>
<time>2017-09-13T02:04:18.081Z</time>
</trkpt>
<trkpt lat="-26.9258990" lon="152.9097646">
<ele>63.052</ele>
<time>2017-09-13T02:04:20.817Z</time>
</trkpt>
<trkpt lat="-26.9261141" lon="152.9101047">
<ele>62.134</ele>
<time>2017-09-13T02:04:22.770Z</time>
</trkpt>
<trkpt lat="-26.9264844" lon="152.9107060">
<ele>60.605</ele>
<time>2017-09-13T02:04:26.102Z</time>
</trkpt>
<trkpt lat="-26.9267634" lon="152.9113445">
<ele>58.684</ele>
<time>2017-09-13T02:04:29.316Z</time>
</trkpt>
<trkpt lat="-26.9269000" lon="152.9117738">
<ele>56.044</ele>
<time>2017-09-13T02:04:31.382Z</time>
</trkpt>
<trkpt lat="-26.9270115" lon="152.9124167">
<ele>52.169</ele>
<time>2017-09-13T02:04:34.364Z</time>
</trkpt>
<trkpt lat="-26.9270168" lon="152.9128574">
<ele>48.363</ele>
<time>2017-09-13T02:04:36.395Z</time>
</trkpt>
<trkpt lat="-26.9270216" lon="152.9134892">
<ele>46.067</ele>
<time>2017-09-13T02:04:39.357Z</time>
</trkpt>
<trkpt lat="-26.9270183" lon="152.9139186">
<ele>45.035</ele>
<time>2017-09-13T02:04:41.364Z</time>
</trkpt>
<trkpt lat="-26.9270572" lon="152.9145619">
<ele>44.663</ele>
<time>2017-09-13T02:04:44.338Z</time>
</trkpt>
<trkpt lat="-26.9271520" lon="152.9149961">
<ele>44.795</ele>
<time>2017-09-13T02:04:46.395Z</time>
</trkpt>
<trkpt lat="-26.9273123" lon="152.9156229">
<ele>45.534</ele>
<time>2017-09-13T02:04:49.435Z</time>
</trkpt>
<trkpt lat="-26.9273787" lon="152.9162573">
<ele>46.588</ele>
<time>2017-09-13T02:04:52.632Z</time>
</trkpt>
<trkpt lat="-26.9274368" lon="152.9168194">
<ele>47.383</ele>
<time>2017-09-13T02:04:56.065Z</time>
</trkpt>
<trkpt lat="-26.9274685" lon="152.9171376">
<ele>47.705</ele>
<time>2017-09-13T02:04:58.193Z</time>
</trkpt>
<trkpt lat="-26.9275520" lon="152.9175339">
<ele>47.670</ele>
<time>2017-09-13T02:05:00.841Z</time>
</trkpt>
<trkpt lat="-26.9276354" lon="152.9178212">
<ele>47.259</ele>
<time>2017-09-13T02:05:02.777Z</time>
</trkpt>
<trkpt lat="-26.9277742" lon="152.9182772">
<ele>46.340</ele>
<time>2017-09-13T02:05:06.004Z</time>
</trkpt>
<trkpt lat="-26.9278888" lon="152.9185341">
<ele>44.737</ele>
<time>2017-09-13T02:05:08.069Z</time>
</trkpt>
<trkpt lat="-26.9280831" lon="152.9188996">
<ele>42.480</ele>
<time>2017-09-13T02:05:12.459Z</time>
</trkpt>
<trkpt lat="-26.9281860" lon="152.9190980">
<ele>39.912</ele>
<time>2017-09-13T02:05:15.197Z</time>
</trkpt>
<trkpt lat="-26.9282336" lon="152.9192220">
<ele>37.369</ele>
<time>2017-09-13T02:05:16.352Z</time>
</trkpt>
<trkpt lat="-26.9284145" lon="152.9191835">
<ele>35.052</ele>
<time>2017-09-13T02:05:17.697Z</time>
</trkpt>
<trkpt lat="-26.9286525" lon="152.9190824">
<ele>33.323</ele>
<time>2017-09-13T02:05:19.187Z</time>
</trkpt>
<trkpt lat="-26.9289755" lon="152.9190435">
<ele>32.447</ele>
<time>2017-09-13T02:05:20.999Z</time>
</trkpt>
<trkpt lat="-26.9295688" lon="152.9189989">
<ele>32.466</ele>
<time>2017-09-13T02:05:23.776Z</time>
</trkpt>
<trkpt lat="-26.9302765" lon="152.9190097">
<ele>33.519</ele>
<time>2017-09-13T02:05:26.859Z</time>
</trkpt>
<trkpt lat="-26.9307299" lon="152.9190230">
<ele>35.878</ele>
<time>2017-09-13T02:05:28.808Z</time>
</trkpt>
<trkpt lat="-26.9313971" lon="152.9190371">
<ele>39.187</ele>
<time>2017-09-13T02:05:31.686Z</time>
</trkpt>
<trkpt lat="-26.9320862" lon="152.9190307">
<ele>42.734</ele>
<time>2017-09-13T02:05:34.645Z</time>
</trkpt>
<trkpt lat="-26.9325499" lon="152.9190490">
<ele>46.128</ele>
<time>2017-09-13T02:05:36.585Z</time>
</trkpt>
<trkpt lat="-26.9332743" lon="152.9190708">
<ele>49.144</ele>
<time>2017-09-13T02:05:39.499Z</time>
</trkpt>
<trkpt lat="-26.9337838" lon="152.9190399">
<ele>51.663</ele>
<time>2017-09-13T02:05:41.531Z</time>
</trkpt>
<trkpt lat="-26.9342758" lon="152.9189779">
<ele>53.573</ele>
<time>2017-09-13T02:05:43.511Z</time>
</trkpt>
<trkpt lat="-26.9347682" lon="152.9189619">
<ele>54.544</ele>
<time>2017-09-13T02:05:45.465Z</time>
</trkpt>
<trkpt lat="-26.9355289" lon="152.9189543">
<ele>54.425</ele>
<time>2017-09-13T02:05:48.431Z</time>
</trkpt>
<trkpt lat="-26.9360595" lon="152.9189452">
<ele>53.203</ele>
<time>2017-09-13T02:05:50.493Z</time>
</trkpt>
<trkpt lat="-26.9368122" lon="152.9189546">
<ele>51.005</ele>
<time>2017-09-13T02:05:53.441Z</time>
</trkpt>
<trkpt lat="-26.9375705" lon="152.9189996">
<ele>48.203</ele>
<time>2017-09-13T02:05:56.427Z</time>
</trkpt>
<trkpt lat="-26.9380767" lon="152.9189988">
<ele>45.088</ele>
<time>2017-09-13T02:05:58.439Z</time>
</trkpt>
<trkpt lat="-26.9388150" lon="152.9190044">
<ele>42.171</ele>
<time>2017-09-13T02:06:01.466Z</time>
</trkpt>
<trkpt lat="-26.9395079" lon="152.9189822">
<ele>40.234</ele>
<time>2017-09-13T02:06:04.391Z</time>
</trkpt>
<trkpt lat="-26.9399722" lon="152.9189116">
<ele>39.469</ele>
<time>2017-09-13T02:06:06.377Z</time>
</trkpt>
<trkpt lat="-26.9406016" lon="152.9185671">
<ele>39.603</ele>
<time>2017-09-13T02:06:09.363Z</time>
</trkpt>
<trkpt lat="-26.9412457" lon="152.9182482">
<ele>40.523</ele>
<time>2017-09-13T02:06:12.400Z</time>
</trkpt>
<trkpt lat="-26.9416859" lon="152.9181333">
<ele>42.020</ele>
<time>2017-09-13T02:06:14.306Z</time>
</trkpt>
<trkpt lat="-26.9424175" lon="152.9181140">
<ele>43.575</ele>
<time>2017-09-13T02:06:17.299Z</time>
</trkpt>
<trkpt lat="-26.9429033" lon="152.9181289">
<ele>44.986</ele>
<time>2017-09-13T02:06:19.262Z</time>
</trkpt>
<trkpt lat="-26.9433907" lon="152.9180749">
<ele>46.395</ele>
<time>2017-09-13T02:06:21.236Z</time>
</trkpt>
<trkpt lat="-26.9438845" lon="152.9180390">
<ele>47.746</ele>
<time>2017-09-13T02:06:23.232Z</time>
</trkpt>
<trkpt lat="-26.9443766" lon="152.9180307">
<ele>48.892</ele>
<time>2017-09-13T02:06:25.214Z</time>
</trkpt>
<trkpt lat="-26.9449207" lon="152.9179844">
<ele>49.848</ele>
<time>2017-09-13T02:06:27.409Z</time>
</trkpt>
<trkpt lat="-26.9456450" lon="152.9179881">
<ele>50.665</ele>
<time>2017-09-13T02:06:30.326Z</time>
</trkpt>
<trkpt lat="-26.9461277" lon="152.9179189">
<ele>51.466</ele>
<time>2017-09-13T02:06:32.293Z</time>
</trkpt>
<trkpt lat="-26.9466199" lon="152.9179574">
<ele>52.307</ele>
<time>2017-09-13T02:06:34.305Z</time>
</trkpt>
<trkpt lat="-26.9470725" lon="152.9180398">
<ele>52.992</ele>
<time>2017-09-13T02:06:36.232Z</time>
</trkpt>
<trkpt lat="-26.9477430" lon="152.9182249">
<ele>53.271</ele>
<time>2017-09-13T02:06:39.409Z</time>
</trkpt>
<trkpt lat="-26.9481137" lon="152.9183948">
<ele>52.967</ele>
<time>2017-09-13T02:06:41.645Z</time>
</trkpt>
<trkpt lat="-26.9485502" lon="152.9185632">
<ele>51.985</ele>
<time>2017-09-13T02:06:45.191Z</time>
</trkpt>
<trkpt lat="-26.9487438" lon="152.9186592">
<ele>50.324</ele>
<time>2017-09-13T02:06:47.223Z</time>
</trkpt>
<trkpt lat="-26.9489935" lon="152.9186895">
<ele>48.156</ele>
<time>2017-09-13T02:06:49.607Z</time>
</trkpt>
<trkpt lat="-26.9491963" lon="152.9188363">
<ele>45.851</ele>
<time>2017-09-13T02:06:51.464Z</time>
</trkpt>
<trkpt lat="-26.9495918" lon="152.9191454">
<ele>43.965</ele>
<time>2017-09-13T02:06:54.315Z</time>
</trkpt>
<trkpt lat="-26.9500261" lon="152.9196043">
<ele>43.189</ele>
<time>2017-09-13T02:06:57.322Z</time>
</trkpt>
<trkpt lat="-26.9505156" lon="152.9200481">
<ele>43.909</ele>
<time>2017-09-13T02:07:00.343Z</time>
</trkpt>
<trkpt lat="-26.9508421" lon="152.9203355">
<ele>45.741</ele>
<time>2017-09-13T02:07:02.316Z</time>
</trkpt>
<trkpt lat="-26.9511551" lon="152.9206358">
<ele>47.809</ele>
<time>2017-09-13T02:07:04.273Z</time>
</trkpt>
<trkpt lat="-26.9516286" lon="152.9211023">
<ele>49.386</ele>
<time>2017-09-13T02:07:07.304Z</time>
</trkpt>
<trkpt lat="-26.9519537" lon="152.9213819">
<ele>50.383</ele>
<time>2017-09-13T02:07:09.361Z</time>
</trkpt>
<trkpt lat="-26.9522190" lon="152.9216955">
<ele>51.050</ele>
<time>2017-09-13T02:07:11.376Z</time>
</trkpt>
<trkpt lat="-26.9524541" lon="152.9220081">
<ele>51.467</ele>
<time>2017-09-13T02:07:13.241Z</time>
</trkpt>
<trkpt lat="-26.9525926" lon="152.9224132">
<ele>51.666</ele>
<time>2017-09-13T02:07:15.066Z</time>
</trkpt>
<trkpt lat="-26.9526421" lon="152.9231668">
<ele>51.808</ele>
<time>2017-09-13T02:07:18.090Z</time>
</trkpt>
<trkpt lat="-26.9527077" lon="152.9236828">
<ele>51.984</ele>
<time>2017-09-13T02:07:20.087Z</time>
</trkpt>
<trkpt lat="-26.9527622" lon="152.9241947">
<ele>51.976</ele>
<time>2017-09-13T02:07:22.090Z</time>
</trkpt>
<trkpt lat="-26.9528385" lon="152.9249378">
<ele>51.365</ele>
<time>2017-09-13T02:07:25.015Z</time>
</trkpt>
<trkpt lat="-26.9528985" lon="152.9257099">
<ele>49.890</ele>
<time>2017-09-13T02:07:28.026Z</time>
</trkpt>
<trkpt lat="-26.9529383" lon="152.9262279">
<ele>48.011</ele>
<time>2017-09-13T02:07:30.025Z</time>
</trkpt>
<trkpt lat="-26.9530118" lon="152.9267414">
<ele>46.672</ele>
<time>2017-09-13T02:07:32.018Z</time>
</trkpt>
<trkpt lat="-26.9531414" lon="152.9275078">
<ele>46.288</ele>
<time>2017-09-13T02:07:34.977Z</time>
</trkpt>
<trkpt lat="-26.9532949" lon="152.9280150">
<ele>46.557</ele>
<time>2017-09-13T02:07:36.960Z</time>
</trkpt>
<trkpt lat="-26.9534561" lon="152.9285290">
<ele>47.048</ele>
<time>2017-09-13T02:07:38.937Z</time>
</trkpt>
<trkpt lat="-26.9537556" lon="152.9292886">
<ele>47.433</ele>
<time>2017-09-13T02:07:41.929Z</time>
</trkpt>
<trkpt lat="-26.9540464" lon="152.9300478">
<ele>47.614</ele>
<time>2017-09-13T02:07:44.919Z</time>
</trkpt>
<trkpt lat="-26.9543195" lon="152.9307926">
<ele>47.656</ele>
<time>2017-09-13T02:07:47.873Z</time>
</trkpt>
<trkpt lat="-26.9545118" lon="152.9312797">
<ele>47.697</ele>
<time>2017-09-13T02:07:49.830Z</time>
</trkpt>
<trkpt lat="-26.9547078" lon="152.9318296">
<ele>47.899</ele>
<time>2017-09-13T02:07:52.007Z</time>
</trkpt>
<trkpt lat="-26.9550075" lon="152.9325356">
<ele>48.248</ele>
<time>2017-09-13T02:07:54.875Z</time>
</trkpt>
<trkpt lat="-26.9552896" lon="152.9332897">
<ele>48.481</ele>
<time>2017-09-13T02:07:57.857Z</time>
</trkpt>
<trkpt lat="-26.9554313" lon="152.9338087">
<ele>48.377</ele>
<time>2017-09-13T02:07:59.874Z</time>
</trkpt>
<trkpt lat="-26.9554775" lon="152.9343184">
<ele>47.928</ele>
<time>2017-09-13T02:08:01.840Z</time>
</trkpt>
<trkpt lat="-26.9555063" lon="152.9350842">
<ele>47.223</ele>
<time>2017-09-13T02:08:04.835Z</time>
</trkpt>
<trkpt lat="-26.9555762" lon="152.9355696">
<ele>46.249</ele>
<time>2017-09-13T02:08:06.902Z</time>
</trkpt>
<trkpt lat="-26.9556678" lon="152.9362217">
<ele>44.871</ele>
<time>2017-09-13T02:08:09.812Z</time>
</trkpt>
<trkpt lat="-26.9557857" lon="152.9366106">
<ele>42.950</ele>
<time>2017-09-13T02:08:11.661Z</time>
</trkpt>
<trkpt lat="-26.9561023" lon="152.9371853">
<ele>40.713</ele>
<time>2017-09-13T02:08:14.685Z</time>
</trkpt>
<trkpt lat="-26.9562840" lon="152.9375721">
<ele>38.520</ele>
<time>2017-09-13T02:08:16.674Z</time>
</trkpt>
<trkpt lat="-26.9564221" lon="152.9381830">
<ele>36.310</ele>
<time>2017-09-13T02:08:19.559Z</time>
</trkpt>
<trkpt lat="-26.9564907" lon="152.9386172">
<ele>33.602</ele>
<time>2017-09-13T02:08:21.511Z</time>
</trkpt>
<trkpt lat="-26.9566158" lon="152.9393084">
<ele>30.486</ele>
<time>2017-09-13T02:08:24.533Z</time>
</trkpt>
<trkpt lat="-26.9566710" lon="152.9400284">
<ele>27.950</ele>
<time>2017-09-13T02:08:27.563Z</time>
</trkpt>
<trkpt lat="-26.9567683" lon="152.9404718">
<ele>26.945</ele>
<time>2017-09-13T02:08:29.515Z</time>
</trkpt>
<trkpt lat="-26.9568823" lon="152.9409115">
<ele>27.414</ele>
<time>2017-09-13T02:08:31.499Z</time>
</trkpt>
<trkpt lat="-26.9570332" lon="152.9413330">
<ele>28.604</ele>
<time>2017-09-13T02:08:33.483Z</time>
</trkpt>
<trkpt lat="-26.9572192" lon="152.9417409">
<ele>29.788</ele>
<time>2017-09-13T02:08:35.485Z</time>
</trkpt>
<trkpt lat="-26.9574699" lon="152.9421089">
<ele>30.742</ele>
<time>2017-09-13T02:08:37.474Z</time>
</trkpt>
<trkpt lat="-26.9579594" lon="152.9425649">
<ele>31.599</ele>
<time>2017-09-13T02:08:40.475Z</time>
</trkpt>
<trkpt lat="-26.9583096" lon="152.9428416">
<ele>32.651</ele>
<time>2017-09-13T02:08:42.437Z</time>
</trkpt>
<trkpt lat="-26.9586925" lon="152.9430764">
<ele>34.026</ele>
<time>2017-09-13T02:08:44.414Z</time>
</trkpt>
<trkpt lat="-26.9592655" lon="152.9434362">
<ele>35.476</ele>
<time>2017-09-13T02:08:47.358Z</time>
</trkpt>
<trkpt lat="-26.9597763" lon="152.9439440">
<ele>36.596</ele>
<time>2017-09-13T02:08:50.361Z</time>
</trkpt>
<trkpt lat="-26.9600246" lon="152.9443809">
<ele>37.183</ele>
<time>2017-09-13T02:08:52.392Z</time>
</trkpt>
<trkpt lat="-26.9603128" lon="152.9447457">
<ele>37.331</ele>
<time>2017-09-13T02:08:54.353Z</time>
</trkpt>
<trkpt lat="-26.9607477" lon="152.9452783">
<ele>37.200</ele>
<time>2017-09-13T02:08:57.303Z</time>
</trkpt>
<trkpt lat="-26.9609808" lon="152.9456819">
<ele>36.832</ele>
<time>2017-09-13T02:08:59.304Z</time>
</trkpt>
<trkpt lat="-26.9611883" lon="152.9463885">
<ele>36.365</ele>
<time>2017-09-13T02:09:02.457Z</time>
</trkpt>
<trkpt lat="-26.9612692" lon="152.9470535">
<ele>35.926</ele>
<time>2017-09-13T02:09:05.367Z</time>
</trkpt>
<trkpt lat="-26.9612722" lon="152.9475087">
<ele>35.522</ele>
<time>2017-09-13T02:09:07.393Z</time>
</trkpt>
<trkpt lat="-26.9612482" lon="152.9479296">
<ele>35.237</ele>
<time>2017-09-13T02:09:09.381Z</time>
</trkpt>
<trkpt lat="-26.9612125" lon="152.9485077">
<ele>35.099</ele>
<time>2017-09-13T02:09:12.271Z</time>
</trkpt>
<trkpt lat="-26.9611895" lon="152.9488747">
<ele>34.795</ele>
<time>2017-09-13T02:09:14.279Z</time>
</trkpt>
<trkpt lat="-26.9611489" lon="152.9492024">
<ele>34.024</ele>
<time>2017-09-13T02:09:16.182Z</time>
</trkpt>
<trkpt lat="-26.9610888" lon="152.9497028">
<ele>32.898</ele>
<time>2017-09-13T02:09:19.143Z</time>
</trkpt>
<trkpt lat="-26.9610731" lon="152.9500411">
<ele>31.703</ele>
<time>2017-09-13T02:09:21.128Z</time>
</trkpt>
<trkpt lat="-26.9610425" lon="152.9505543">
<ele>30.611</ele>
<time>2017-09-13T02:09:24.128Z</time>
</trkpt>
<trkpt lat="-26.9610030" lon="152.9508906">
<ele>29.792</ele>
<time>2017-09-13T02:09:26.110Z</time>
</trkpt>
<trkpt lat="-26.9609952" lon="152.9512268">
<ele>29.320</ele>
<time>2017-09-13T02:09:28.078Z</time>
</trkpt>
<trkpt lat="-26.9609559" lon="152.9517348">
<ele>29.105</ele>
<time>2017-09-13T02:09:31.055Z</time>
</trkpt>
<trkpt lat="-26.9609304" lon="152.9520742">
<ele>29.026</ele>
<time>2017-09-13T02:09:33.038Z</time>
</trkpt>
<trkpt lat="-26.9609099" lon="152.9525841">
<ele>29.012</ele>
<time>2017-09-13T02:09:36.010Z</time>
</trkpt>
<trkpt lat="-26.9609556" lon="152.9529263">
<ele>29.077</ele>
<time>2017-09-13T02:09:38.034Z</time>
</trkpt>
<trkpt lat="-26.9609935" lon="152.9534287">
<ele>29.280</ele>
<time>2017-09-13T02:09:41.087Z</time>
</trkpt>
<trkpt lat="-26.9611183" lon="152.9538357">
<ele>29.555</ele>
<time>2017-09-13T02:09:43.968Z</time>
</trkpt>
<trkpt lat="-26.9611881" lon="152.9540560">
<ele>29.687</ele>
<time>2017-09-13T02:09:45.853Z</time>
</trkpt>
<trkpt lat="-26.9612190" lon="152.9542212">
<ele>29.503</ele>
<time>2017-09-13T02:09:47.545Z</time>
</trkpt>
<trkpt lat="-26.9612829" lon="152.9543112">
<ele>28.978</ele>
<time>2017-09-13T02:09:49.010Z</time>
</trkpt>
<trkpt lat="-26.9612829" lon="152.9543112">
<ele>28.313</ele>
<time>2017-09-13T02:09:53.010Z</time>
</trkpt>
<trkpt lat="-26.9612829" lon="152.9543112">
<ele>27.905</ele>
<time>2017-09-13T02:09:55.685Z</time>
</trkpt>
<trkpt lat="-26.9611210" lon="152.9545211">
<ele>27.919</ele>
<time>2017-09-13T02:10:00.118Z</time>
</trkpt>
<trkpt lat="-26.9607254" lon="152.9546830">
<ele>28.115</ele>
<time>2017-09-13T02:10:03.465Z</time>
</trkpt>
<trkpt lat="-26.9604636" lon="152.9548786">
<ele>28.358</ele>
<time>2017-09-13T02:10:05.496Z</time>
</trkpt>
<trkpt lat="-26.9600629" lon="152.9551547">
<ele>28.880</ele>
<time>2017-09-13T02:10:08.483Z</time>
</trkpt>
<trkpt lat="-26.9598076" lon="152.9553307">
<ele>29.886</ele>
<time>2017-09-13T02:10:10.398Z</time>
</trkpt>
<trkpt lat="-26.9595323" lon="152.9554868">
<ele>31.118</ele>
<time>2017-09-13T02:10:12.365Z</time>
</trkpt>
<trkpt lat="-26.9592692" lon="152.9556601">
<ele>32.128</ele>
<time>2017-09-13T02:10:14.305Z</time>
</trkpt>
<trkpt lat="-26.9589876" lon="152.9558061">
<ele>32.794</ele>
<time>2017-09-13T02:10:16.271Z</time>
</trkpt>
<trkpt lat="-26.9586011" lon="152.9560991">
<ele>33.266</ele>
<time>2017-09-13T02:10:19.218Z</time>
</trkpt>
<trkpt lat="-26.9583451" lon="152.9562836">
<ele>33.752</ele>
<time>2017-09-13T02:10:21.141Z</time>
</trkpt>
<trkpt lat="-26.9579478" lon="152.9565544">
<ele>34.355</ele>
<time>2017-09-13T02:10:24.098Z</time>
</trkpt>
<trkpt lat="-26.9577161" lon="152.9567712">
<ele>34.903</ele>
<time>2017-09-13T02:10:26.035Z</time>
</trkpt>
<trkpt lat="-26.9574671" lon="152.9569880">
<ele>35.110</ele>
<time>2017-09-13T02:10:28.047Z</time>
</trkpt>
<trkpt lat="-26.9571452" lon="152.9573659">
<ele>34.894</ele>
<time>2017-09-13T02:10:30.992Z</time>
</trkpt>
<trkpt lat="-26.9568672" lon="152.9577963">
<ele>34.399</ele>
<time>2017-09-13T02:10:33.970Z</time>
</trkpt>
<trkpt lat="-26.9567282" lon="152.9581062">
<ele>33.852</ele>
<time>2017-09-13T02:10:35.932Z</time>
</trkpt>
<trkpt lat="-26.9565314" lon="152.9585699">
<ele>33.437</ele>
<time>2017-09-13T02:10:38.868Z</time>
</trkpt>
<trkpt lat="-26.9564049" lon="152.9588803">
<ele>33.262</ele>
<time>2017-09-13T02:10:40.877Z</time>
</trkpt>
<trkpt lat="-26.9562603" lon="152.9593319">
<ele>33.285</ele>
<time>2017-09-13T02:10:43.844Z</time>
</trkpt>
<trkpt lat="-26.9560621" lon="152.9595243">
<ele>33.332</ele>
<time>2017-09-13T02:10:45.751Z</time>
</trkpt>
<trkpt lat="-26.9557769" lon="152.9596246">
<ele>33.249</ele>
<time>2017-09-13T02:10:47.851Z</time>
</trkpt>
<trkpt lat="-26.9553242" lon="152.9596256">
<ele>33.064</ele>
<time>2017-09-13T02:10:50.897Z</time>
</trkpt>
<trkpt lat="-26.9550097" lon="152.9596279">
<ele>32.776</ele>
<time>2017-09-13T02:10:53.047Z</time>
</trkpt>
<trkpt lat="-26.9546341" lon="152.9596426">
<ele>32.166</ele>
<time>2017-09-13T02:10:55.799Z</time>
</trkpt>
<trkpt lat="-26.9544438" lon="152.9597058">
<ele>30.959</ele>
<time>2017-09-13T02:10:57.505Z</time>
</trkpt>
<trkpt lat="-26.9543245" lon="152.9598504">
<ele>29.173</ele>
<time>2017-09-13T02:10:59.342Z</time>
</trkpt>
<trkpt lat="-26.9542667" lon="152.9599791">
<ele>27.205</ele>
<time>2017-09-13T02:11:01.010Z</time>
</trkpt>
<trkpt lat="-26.9542667" lon="152.9599791">
<ele>25.641</ele>
<time>2017-09-13T02:11:05.010Z</time>
</trkpt>
<trkpt lat="-26.9542667" lon="152.9599791">
<ele>24.926</ele>
<time>2017-09-13T02:11:10.475Z</time>
</trkpt>
<trkpt lat="-26.9544124" lon="152.9602334">
<ele>24.998</ele>
<time>2017-09-13T02:11:22.027Z</time>
</trkpt>
<trkpt lat="-26.9547081" lon="152.9602624">
<ele>24.905</ele>
<time>2017-09-13T02:11:24.862Z</time>
</trkpt>
<trkpt lat="-26.9550196" lon="152.9602108">
<ele>23.997</ele>
<time>2017-09-13T02:11:26.735Z</time>
</trkpt>
<trkpt lat="-26.9557206" lon="152.9601774">
<ele>23.162</ele>
<time>2017-09-13T02:11:30.310Z</time>
</trkpt>
<trkpt lat="-26.9561405" lon="152.9601149">
<ele>23.768</ele>
<time>2017-09-13T02:11:32.199Z</time>
</trkpt>
<trkpt lat="-26.9565976" lon="152.9600877">
<ele>26.020</ele>
<time>2017-09-13T02:11:34.193Z</time>
</trkpt>
<trkpt lat="-26.9572752" lon="152.9600801">
<ele>29.038</ele>
<time>2017-09-13T02:11:37.194Z</time>
</trkpt>
<trkpt lat="-26.9577087" lon="152.9600594">
<ele>31.852</ele>
<time>2017-09-13T02:11:39.235Z</time>
</trkpt>
<trkpt lat="-26.9583121" lon="152.9600937">
<ele>33.885</ele>
<time>2017-09-13T02:11:42.201Z</time>
</trkpt>
<trkpt lat="-26.9587022" lon="152.9600935">
<ele>34.779</ele>
<time>2017-09-13T02:11:44.179Z</time>
</trkpt>
<trkpt lat="-26.9590896" lon="152.9601267">
<ele>34.574</ele>
<time>2017-09-13T02:11:46.143Z</time>
</trkpt>
<trkpt lat="-26.9594879" lon="152.9601305">
<ele>33.696</ele>
<time>2017-09-13T02:11:48.132Z</time>
</trkpt>
<trkpt lat="-26.9598914" lon="152.9600908">
<ele>32.622</ele>
<time>2017-09-13T02:11:50.144Z</time>
</trkpt>
<trkpt lat="-26.9604884" lon="152.9601480">
<ele>31.781</ele>
<time>2017-09-13T02:11:53.120Z</time>
</trkpt>
<trkpt lat="-26.9608892" lon="152.9601796">
<ele>31.246</ele>
<time>2017-09-13T02:11:55.120Z</time>
</trkpt>
<trkpt lat="-26.9612856" lon="152.9602157">
<ele>30.655</ele>
<time>2017-09-13T02:11:57.110Z</time>
</trkpt>
<trkpt lat="-26.9618867" lon="152.9602805">
<ele>29.703</ele>
<time>2017-09-13T02:12:00.165Z</time>
</trkpt>
<trkpt lat="-26.9622887" lon="152.9603337">
<ele>28.460</ele>
<time>2017-09-13T02:12:02.251Z</time>
</trkpt>
<trkpt lat="-26.9628403" lon="152.9603718">
<ele>27.146</ele>
<time>2017-09-13T02:12:05.048Z</time>
</trkpt>
<trkpt lat="-26.9632669" lon="152.9603913">
<ele>25.975</ele>
<time>2017-09-13T02:12:07.028Z</time>
</trkpt>
<trkpt lat="-26.9639595" lon="152.9604063">
<ele>25.165</ele>
<time>2017-09-13T02:12:10.105Z</time>
</trkpt>
<trkpt lat="-26.9646532" lon="152.9604439">
<ele>24.937</ele>
<time>2017-09-13T02:12:13.104Z</time>
</trkpt>
<trkpt lat="-26.9651192" lon="152.9604846">
<ele>25.243</ele>
<time>2017-09-13T02:12:15.107Z</time>
</trkpt>
<trkpt lat="-26.9655841" lon="152.9605643">
<ele>25.703</ele>
<time>2017-09-13T02:12:17.090Z</time>
</trkpt>
<trkpt lat="-26.9660661" lon="152.9606141">
<ele>25.989</ele>
<time>2017-09-13T02:12:19.098Z</time>
</trkpt>
<trkpt lat="-26.9667908" lon="152.9606364">
<ele>26.073</ele>
<time>2017-09-13T02:12:22.112Z</time>
</trkpt>
<trkpt lat="-26.9672681" lon="152.9606563">
<ele>26.016</ele>
<time>2017-09-13T02:12:24.106Z</time>
</trkpt>
<trkpt lat="-26.9677418" lon="152.9606958">
<ele>25.881</ele>
<time>2017-09-13T02:12:26.094Z</time>
</trkpt>
<trkpt lat="-26.9682243" lon="152.9607205">
<ele>25.782</ele>
<time>2017-09-13T02:12:28.118Z</time>
</trkpt>
<trkpt lat="-26.9689285" lon="152.9608127">
<ele>25.890</ele>
<time>2017-09-13T02:12:31.116Z</time>
</trkpt>
<trkpt lat="-26.9693890" lon="152.9608518">
<ele>26.486</ele>
<time>2017-09-13T02:12:33.100Z</time>
</trkpt>
<trkpt lat="-26.9698478" lon="152.9609169">
<ele>27.652</ele>
<time>2017-09-13T02:12:35.092Z</time>
</trkpt>
<trkpt lat="-26.9705284" lon="152.9610372">
<ele>28.921</ele>
<time>2017-09-13T02:12:38.052Z</time>
</trkpt>
<trkpt lat="-26.9709735" lon="152.9611668">
<ele>29.806</ele>
<time>2017-09-13T02:12:40.006Z</time>
</trkpt>
<trkpt lat="-26.9716790" lon="152.9612868">
<ele>30.357</ele>
<time>2017-09-13T02:12:43.051Z</time>
</trkpt>
<trkpt lat="-26.9723353" lon="152.9615265">
<ele>30.834</ele>
<time>2017-09-13T02:12:46.033Z</time>
</trkpt>
<trkpt lat="-26.9729829" lon="152.9617671">
<ele>31.266</ele>
<time>2017-09-13T02:12:49.025Z</time>
</trkpt>
<trkpt lat="-26.9735796" lon="152.9621030">
<ele>31.483</ele>
<time>2017-09-13T02:12:51.981Z</time>
</trkpt>
<trkpt lat="-26.9739932" lon="152.9623047">
<ele>31.292</ele>
<time>2017-09-13T02:12:53.960Z</time>
</trkpt>
<trkpt lat="-26.9745934" lon="152.9626734">
<ele>30.701</ele>
<time>2017-09-13T02:12:56.913Z</time>
</trkpt>
<trkpt lat="-26.9751932" lon="152.9631019">
<ele>30.050</ele>
<time>2017-09-13T02:12:59.912Z</time>
</trkpt>
<trkpt lat="-26.9758073" lon="152.9635330">
<ele>29.690</ele>
<time>2017-09-13T02:13:02.910Z</time>
</trkpt>
<trkpt lat="-26.9763959" lon="152.9640361">
<ele>29.674</ele>
<time>2017-09-13T02:13:05.946Z</time>
</trkpt>
<trkpt lat="-26.9769673" lon="152.9645409">
<ele>29.843</ele>
<time>2017-09-13T02:13:08.941Z</time>
</trkpt>
<trkpt lat="-26.9774777" lon="152.9651028">
<ele>29.972</ele>
<time>2017-09-13T02:13:11.885Z</time>
</trkpt>
<trkpt lat="-26.9780111" lon="152.9656711">
<ele>29.924</ele>
<time>2017-09-13T02:13:14.902Z</time>
</trkpt>
<trkpt lat="-26.9785261" lon="152.9662384">
<ele>29.747</ele>
<time>2017-09-13T02:13:17.861Z</time>
</trkpt>
<trkpt lat="-26.9788675" lon="152.9666250">
<ele>29.581</ele>
<time>2017-09-13T02:13:19.845Z</time>
</trkpt>
<trkpt lat="-26.9794007" lon="152.9672174">
<ele>29.439</ele>
<time>2017-09-13T02:13:22.907Z</time>
</trkpt>
<trkpt lat="-26.9797974" lon="152.9675524">
<ele>29.168</ele>
<time>2017-09-13T02:13:24.935Z</time>
</trkpt>
<trkpt lat="-26.9801141" lon="152.9679542">
<ele>28.698</ele>
<time>2017-09-13T02:13:26.888Z</time>
</trkpt>
<trkpt lat="-26.9804758" lon="152.9683359">
<ele>28.090</ele>
<time>2017-09-13T02:13:28.923Z</time>
</trkpt>
<trkpt lat="-26.9810132" lon="152.9688734">
<ele>27.483</ele>
<time>2017-09-13T02:13:31.895Z</time>
</trkpt>
<trkpt lat="-26.9813439" lon="152.9692574">
<ele>27.033</ele>
<time>2017-09-13T02:13:33.887Z</time>
</trkpt>
<trkpt lat="-26.9818710" lon="152.9697969">
<ele>26.750</ele>
<time>2017-09-13T02:13:36.872Z</time>
</trkpt>
<trkpt lat="-26.9821831" lon="152.9702083">
<ele>26.362</ele>
<time>2017-09-13T02:13:38.882Z</time>
</trkpt>
<trkpt lat="-26.9827174" lon="152.9707431">
<ele>25.661</ele>
<time>2017-09-13T02:13:41.873Z</time>
</trkpt>
<trkpt lat="-26.9830812" lon="152.9710864">
<ele>24.710</ele>
<time>2017-09-13T02:13:43.856Z</time>
</trkpt>
<trkpt lat="-26.9834006" lon="152.9714881">
<ele>23.685</ele>
<time>2017-09-13T02:13:45.860Z</time>
</trkpt>
<trkpt lat="-26.9837226" lon="152.9718709">
<ele>22.738</ele>
<time>2017-09-13T02:13:47.858Z</time>
</trkpt>
<trkpt lat="-26.9840445" lon="152.9722246">
<ele>21.939</ele>
<time>2017-09-13T02:13:49.889Z</time>
</trkpt>
<trkpt lat="-26.9844796" lon="152.9727306">
<ele>21.121</ele>
<time>2017-09-13T02:13:52.822Z</time>
</trkpt>
<trkpt lat="-26.9849311" lon="152.9731997">
<ele>20.034</ele>
<time>2017-09-13T02:13:55.788Z</time>
</trkpt>
<trkpt lat="-26.9852951" lon="152.9737622">
<ele>18.654</ele>
<time>2017-09-13T02:13:58.790Z</time>
</trkpt>
<trkpt lat="-26.9856305" lon="152.9743465">
<ele>17.307</ele>
<time>2017-09-13T02:14:01.811Z</time>
</trkpt>
<trkpt lat="-26.9858006" lon="152.9747517">
<ele>16.397</ele>
<time>2017-09-13T02:14:03.796Z</time>
</trkpt>
<trkpt lat="-26.9859607" lon="152.9751635">
<ele>16.182</ele>
<time>2017-09-13T02:14:05.795Z</time>
</trkpt>
<trkpt lat="-26.9861429" lon="152.9758027">
<ele>16.713</ele>
<time>2017-09-13T02:14:08.770Z</time>
</trkpt>
<trkpt lat="-26.9862424" lon="152.9762491">
<ele>17.969</ele>
<time>2017-09-13T02:14:10.805Z</time>
</trkpt>
<trkpt lat="-26.9863785" lon="152.9769048">
<ele>19.794</ele>
<time>2017-09-13T02:14:13.785Z</time>
</trkpt>
<trkpt lat="-26.9865060" lon="152.9773340">
<ele>21.813</ele>
<time>2017-09-13T02:14:15.804Z</time>
</trkpt>
<trkpt lat="-26.9866819" lon="152.9779687">
<ele>23.506</ele>
<time>2017-09-13T02:14:18.855Z</time>
</trkpt>
<trkpt lat="-26.9867980" lon="152.9783430">
<ele>24.498</ele>
<time>2017-09-13T02:14:20.845Z</time>
</trkpt>
<trkpt lat="-26.9869373" lon="152.9788752">
<ele>24.659</ele>
<time>2017-09-13T02:14:23.786Z</time>
</trkpt>
<trkpt lat="-26.9871169" lon="152.9793639">
<ele>23.919</ele>
<time>2017-09-13T02:14:26.794Z</time>
</trkpt>
<trkpt lat="-26.9874229" lon="152.9797025">
<ele>22.175</ele>
<time>2017-09-13T02:14:29.638Z</time>
</trkpt>
<trkpt lat="-26.9878295" lon="152.9799331">
<ele>19.827</ele>
<time>2017-09-13T02:14:32.626Z</time>
</trkpt>
<trkpt lat="-26.9881480" lon="152.9799575">
<ele>17.716</ele>
<time>2017-09-13T02:14:34.600Z</time>
</trkpt>
<trkpt lat="-26.9884799" lon="152.9798940">
<ele>16.362</ele>
<time>2017-09-13T02:14:36.553Z</time>
</trkpt>
<trkpt lat="-26.9888064" lon="152.9796937">
<ele>15.730</ele>
<time>2017-09-13T02:14:38.514Z</time>
</trkpt>
<trkpt lat="-26.9891726" lon="152.9794489">
<ele>15.584</ele>
<time>2017-09-13T02:14:40.492Z</time>
</trkpt>
<trkpt lat="-26.9896038" lon="152.9792086">
<ele>15.792</ele>
<time>2017-09-13T02:14:42.506Z</time>
</trkpt>
<trkpt lat="-26.9902807" lon="152.9788121">
<ele>16.457</ele>
<time>2017-09-13T02:14:45.592Z</time>
</trkpt>
<trkpt lat="-26.9907394" lon="152.9786202">
<ele>17.552</ele>
<time>2017-09-13T02:14:47.612Z</time>
</trkpt>
<trkpt lat="-26.9913849" lon="152.9783401">
<ele>18.611</ele>
<time>2017-09-13T02:14:50.558Z</time>
</trkpt>
<trkpt lat="-26.9920527" lon="152.9781298">
<ele>19.065</ele>
<time>2017-09-13T02:14:53.590Z</time>
</trkpt>
<trkpt lat="-26.9925041" lon="152.9780668">
<ele>18.696</ele>
<time>2017-09-13T02:14:55.598Z</time>
</trkpt>
<trkpt lat="-26.9931816" lon="152.9780078">
<ele>17.719</ele>
<time>2017-09-13T02:14:58.514Z</time>
</trkpt>
<trkpt lat="-26.9939323" lon="152.9779173">
<ele>16.355</ele>
<time>2017-09-13T02:15:01.503Z</time>
</trkpt>
<trkpt lat="-26.9945048" lon="152.9779058">
<ele>14.884</ele>
<time>2017-09-13T02:15:03.561Z</time>
</trkpt>
<trkpt lat="-26.9953585" lon="152.9778387">
<ele>13.981</ele>
<time>2017-09-13T02:15:06.578Z</time>
</trkpt>
<trkpt lat="-26.9962013" lon="152.9778186">
<ele>14.088</ele>
<time>2017-09-13T02:15:09.537Z</time>
</trkpt>
<trkpt lat="-26.9970567" lon="152.9777466">
<ele>14.820</ele>
<time>2017-09-13T02:15:12.544Z</time>
</trkpt>
<trkpt lat="-26.9979190" lon="152.9777346">
<ele>15.490</ele>
<time>2017-09-13T02:15:15.549Z</time>
</trkpt>
<trkpt lat="-26.9984924" lon="152.9776998">
<ele>15.741</ele>
<time>2017-09-13T02:15:17.546Z</time>
</trkpt>
<trkpt lat="-26.9990616" lon="152.9776999">
<ele>15.610</ele>
<time>2017-09-13T02:15:19.534Z</time>
</trkpt>
<trkpt lat="-26.9999218" lon="152.9776104">
<ele>15.238</ele>
<time>2017-09-13T02:15:22.544Z</time>
</trkpt>
<trkpt lat="-27.0007867" lon="152.9775907">
<ele>14.810</ele>
<time>2017-09-13T02:15:25.544Z</time>
</trkpt>
<trkpt lat="-27.0013624" lon="152.9775812">
<ele>14.620</ele>
<time>2017-09-13T02:15:27.541Z</time>
</trkpt>
<trkpt lat="-27.0019348" lon="152.9775674">
<ele>14.897</ele>
<time>2017-09-13T02:15:29.525Z</time>
</trkpt>
<trkpt lat="-27.0025174" lon="152.9775722">
<ele>15.661</ele>
<time>2017-09-13T02:15:31.539Z</time>
</trkpt>
<trkpt lat="-27.0030973" lon="152.9775093">
<ele>16.808</ele>
<time>2017-09-13T02:15:33.553Z</time>
</trkpt>
<trkpt lat="-27.0036719" lon="152.9774847">
<ele>18.017</ele>
<time>2017-09-13T02:15:35.538Z</time>
</trkpt>
<trkpt lat="-27.0045432" lon="152.9774241">
<ele>18.836</ele>
<time>2017-09-13T02:15:38.550Z</time>
</trkpt>
<trkpt lat="-27.0054053" lon="152.9774086">
<ele>19.112</ele>
<time>2017-09-13T02:15:41.530Z</time>
</trkpt>
<trkpt lat="-27.0059892" lon="152.9773741">
<ele>18.964</ele>
<time>2017-09-13T02:15:43.554Z</time>
</trkpt>
<trkpt lat="-27.0065631" lon="152.9773536">
<ele>18.319</ele>
<time>2017-09-13T02:15:45.552Z</time>
</trkpt>
<trkpt lat="-27.0071294" lon="152.9773456">
<ele>17.295</ele>
<time>2017-09-13T02:15:47.540Z</time>
</trkpt>
<trkpt lat="-27.0079901" lon="152.9773130">
<ele>16.480</ele>
<time>2017-09-13T02:15:50.573Z</time>
</trkpt>
<trkpt lat="-27.0085594" lon="152.9772658">
<ele>16.393</ele>
<time>2017-09-13T02:15:52.581Z</time>
</trkpt>
<trkpt lat="-27.0094222" lon="152.9772191">
<ele>17.081</ele>
<time>2017-09-13T02:15:55.613Z</time>
</trkpt>
<trkpt lat="-27.0099812" lon="152.9772256">
<ele>18.133</ele>
<time>2017-09-13T02:15:57.573Z</time>
</trkpt>
<trkpt lat="-27.0105502" lon="152.9771710">
<ele>18.943</ele>
<time>2017-09-13T02:15:59.574Z</time>
</trkpt>
<trkpt lat="-27.0114063" lon="152.9771752">
<ele>19.290</ele>
<time>2017-09-13T02:16:02.575Z</time>
</trkpt>
<trkpt lat="-27.0122623" lon="152.9771251">
<ele>19.388</ele>
<time>2017-09-13T02:16:05.584Z</time>
</trkpt>
<trkpt lat="-27.0128272" lon="152.9770910">
<ele>19.460</ele>
<time>2017-09-13T02:16:07.563Z</time>
</trkpt>
<trkpt lat="-27.0137179" lon="152.9770924">
<ele>19.469</ele>
<time>2017-09-13T02:16:10.665Z</time>
</trkpt>
<trkpt lat="-27.0142728" lon="152.9770800">
<ele>19.297</ele>
<time>2017-09-13T02:16:12.597Z</time>
</trkpt>
<trkpt lat="-27.0151175" lon="152.9771564">
<ele>19.015</ele>
<time>2017-09-13T02:16:15.560Z</time>
</trkpt>
<trkpt lat="-27.0159815" lon="152.9772071">
<ele>18.801</ele>
<time>2017-09-13T02:16:18.596Z</time>
</trkpt>
<trkpt lat="-27.0165531" lon="152.9772073">
<ele>18.751</ele>
<time>2017-09-13T02:16:20.600Z</time>
</trkpt>
<trkpt lat="-27.0174073" lon="152.9772969">
<ele>18.953</ele>
<time>2017-09-13T02:16:23.614Z</time>
</trkpt>
<trkpt lat="-27.0182506" lon="152.9773281">
<ele>19.510</ele>
<time>2017-09-13T02:16:26.631Z</time>
</trkpt>
<trkpt lat="-27.0190480" lon="152.9773889">
<ele>20.358</ele>
<time>2017-09-13T02:16:29.577Z</time>
</trkpt>
<trkpt lat="-27.0198461" lon="152.9774127">
<ele>21.331</ele>
<time>2017-09-13T02:16:32.537Z</time>
</trkpt>
<trkpt lat="-27.0203966" lon="152.9774747">
<ele>22.518</ele>
<time>2017-09-13T02:16:34.517Z</time>
</trkpt>
<trkpt lat="-27.0209737" lon="152.9775181">
<ele>24.148</ele>
<time>2017-09-13T02:16:36.538Z</time>
</trkpt>
<trkpt lat="-27.0215530" lon="152.9774915">
<ele>26.109</ele>
<time>2017-09-13T02:16:38.558Z</time>
</trkpt>
<trkpt lat="-27.0223991" lon="152.9775315">
<ele>27.994</ele>
<time>2017-09-13T02:16:41.522Z</time>
</trkpt>
<trkpt lat="-27.0229673" lon="152.9775693">
<ele>29.388</ele>
<time>2017-09-13T02:16:43.521Z</time>
</trkpt>
<trkpt lat="-27.0238184" lon="152.9775883">
<ele>30.044</ele>
<time>2017-09-13T02:16:46.512Z</time>
</trkpt>
<trkpt lat="-27.0243836" lon="152.9776135">
<ele>30.072</ele>
<time>2017-09-13T02:16:48.502Z</time>
</trkpt>
<trkpt lat="-27.0252306" lon="152.9777187">
<ele>29.816</ele>
<time>2017-09-13T02:16:51.505Z</time>
</trkpt>
<trkpt lat="-27.0257963" lon="152.9777516">
<ele>29.546</ele>
<time>2017-09-13T02:16:53.501Z</time>
</trkpt>
<trkpt lat="-27.0263609" lon="152.9778144">
<ele>29.380</ele>
<time>2017-09-13T02:16:55.498Z</time>
</trkpt>
<trkpt lat="-27.0272195" lon="152.9778105">
<ele>29.340</ele>
<time>2017-09-13T02:16:58.519Z</time>
</trkpt>
<trkpt lat="-27.0280661" lon="152.9778593">
<ele>29.442</ele>
<time>2017-09-13T02:17:01.506Z</time>
</trkpt>
<trkpt lat="-27.0286358" lon="152.9779093">
<ele>29.818</ele>
<time>2017-09-13T02:17:03.519Z</time>
</trkpt>
<trkpt lat="-27.0292035" lon="152.9779651">
<ele>30.557</ele>
<time>2017-09-13T02:17:05.522Z</time>
</trkpt>
<trkpt lat="-27.0300578" lon="152.9780137">
<ele>31.537</ele>
<time>2017-09-13T02:17:08.521Z</time>
</trkpt>
<trkpt lat="-27.0309151" lon="152.9780671">
<ele>32.624</ele>
<time>2017-09-13T02:17:11.526Z</time>
</trkpt>
<trkpt lat="-27.0314836" lon="152.9780735">
<ele>33.844</ele>
<time>2017-09-13T02:17:13.523Z</time>
</trkpt>
<trkpt lat="-27.0323352" lon="152.9781317">
<ele>35.211</ele>
<time>2017-09-13T02:17:16.517Z</time>
</trkpt>
<trkpt lat="-27.0329088" lon="152.9781500">
<ele>36.455</ele>
<time>2017-09-13T02:17:18.521Z</time>
</trkpt>
<trkpt lat="-27.0337614" lon="152.9781633">
<ele>37.108</ele>
<time>2017-09-13T02:17:21.499Z</time>
</trkpt>
<trkpt lat="-27.0343236" lon="152.9781235">
<ele>36.999</ele>
<time>2017-09-13T02:17:23.473Z</time>
</trkpt>
<trkpt lat="-27.0351799" lon="152.9780638">
<ele>36.418</ele>
<time>2017-09-13T02:17:26.486Z</time>
</trkpt>
<trkpt lat="-27.0357493" lon="152.9780553">
<ele>35.696</ele>
<time>2017-09-13T02:17:28.497Z</time>
</trkpt>
<trkpt lat="-27.0363102" lon="152.9780346">
<ele>34.953</ele>
<time>2017-09-13T02:17:30.480Z</time>
</trkpt>
<trkpt lat="-27.0368872" lon="152.9780266">
<ele>34.305</ele>
<time>2017-09-13T02:17:32.511Z</time>
</trkpt>
<trkpt lat="-27.0377387" lon="152.9780552">
<ele>33.914</ele>
<time>2017-09-13T02:17:35.534Z</time>
</trkpt>
<trkpt lat="-27.0385617" lon="152.9780162">
<ele>33.789</ele>
<time>2017-09-13T02:17:38.509Z</time>
</trkpt>
<trkpt lat="-27.0391058" lon="152.9779777">
<ele>33.868</ele>
<time>2017-09-13T02:17:40.475Z</time>
</trkpt>
<trkpt lat="-27.0399592" lon="152.9779791">
<ele>34.072</ele>
<time>2017-09-13T02:17:43.526Z</time>
</trkpt>
<trkpt lat="-27.0405287" lon="152.9779132">
<ele>34.187</ele>
<time>2017-09-13T02:17:45.579Z</time>
</trkpt>
<trkpt lat="-27.0413559" lon="152.9779389">
<ele>33.993</ele>
<time>2017-09-13T02:17:48.567Z</time>
</trkpt>
<trkpt lat="-27.0421769" lon="152.9778841">
<ele>33.390</ele>
<time>2017-09-13T02:17:51.549Z</time>
</trkpt>
<trkpt lat="-27.0427256" lon="152.9778174">
<ele>32.244</ele>
<time>2017-09-13T02:17:53.548Z</time>
</trkpt>
<trkpt lat="-27.0435470" lon="152.9777838">
<ele>30.613</ele>
<time>2017-09-13T02:17:56.516Z</time>
</trkpt>
<trkpt lat="-27.0441111" lon="152.9777991">
<ele>28.755</ele>
<time>2017-09-13T02:17:58.539Z</time>
</trkpt>
<trkpt lat="-27.0446633" lon="152.9776583">
<ele>26.877</ele>
<time>2017-09-13T02:18:00.567Z</time>
</trkpt>
<trkpt lat="-27.0452208" lon="152.9776491">
<ele>25.282</ele>
<time>2017-09-13T02:18:02.568Z</time>
</trkpt>
<trkpt lat="-27.0457746" lon="152.9776051">
<ele>24.303</ele>
<time>2017-09-13T02:18:04.574Z</time>
</trkpt>
<trkpt lat="-27.0465829" lon="152.9774274">
<ele>23.855</ele>
<time>2017-09-13T02:18:07.574Z</time>
</trkpt>
<trkpt lat="-27.0471242" lon="152.9773701">
<ele>23.378</ele>
<time>2017-09-13T02:18:09.563Z</time>
</trkpt>
<trkpt lat="-27.0476648" lon="152.9772829">
<ele>22.439</ele>
<time>2017-09-13T02:18:11.539Z</time>
</trkpt>
<trkpt lat="-27.0485831" lon="152.9772757">
<ele>21.078</ele>
<time>2017-09-13T02:18:14.847Z</time>
</trkpt>
<trkpt lat="-27.0491107" lon="152.9771776">
<ele>19.282</ele>
<time>2017-09-13T02:18:16.813Z</time>
</trkpt>
<trkpt lat="-27.0498950" lon="152.9770549">
<ele>17.072</ele>
<time>2017-09-13T02:18:19.757Z</time>
</trkpt>
<trkpt lat="-27.0504221" lon="152.9770274">
<ele>14.974</ele>
<time>2017-09-13T02:18:21.714Z</time>
</trkpt>
<trkpt lat="-27.0512401" lon="152.9769567">
<ele>13.499</ele>
<time>2017-09-13T02:18:24.722Z</time>
</trkpt>
<trkpt lat="-27.0520560" lon="152.9768453">
<ele>12.619</ele>
<time>2017-09-13T02:18:27.691Z</time>
</trkpt>
<trkpt lat="-27.0526149" lon="152.9768901">
<ele>12.011</ele>
<time>2017-09-13T02:18:29.701Z</time>
</trkpt>
<trkpt lat="-27.0531631" lon="152.9768465">
<ele>11.504</ele>
<time>2017-09-13T02:18:31.684Z</time>
</trkpt>
<trkpt lat="-27.0537079" lon="152.9769007">
<ele>11.118</ele>
<time>2017-09-13T02:18:33.661Z</time>
</trkpt>
<trkpt lat="-27.0542554" lon="152.9769014">
<ele>10.779</ele>
<time>2017-09-13T02:18:35.631Z</time>
</trkpt>
<trkpt lat="-27.0548139" lon="152.9769199">
<ele>10.275</ele>
<time>2017-09-13T02:18:37.632Z</time>
</trkpt>
<trkpt lat="-27.0556590" lon="152.9769809">
<ele>9.516</ele>
<time>2017-09-13T02:18:40.673Z</time>
</trkpt>
<trkpt lat="-27.0564799" lon="152.9770912">
<ele>8.730</ele>
<time>2017-09-13T02:18:43.656Z</time>
</trkpt>
<trkpt lat="-27.0573203" lon="152.9771664">
<ele>8.252</ele>
<time>2017-09-13T02:18:46.657Z</time>
</trkpt>
<trkpt lat="-27.0579098" lon="152.9772041">
<ele>8.291</ele>
<time>2017-09-13T02:18:48.702Z</time>
</trkpt>
<trkpt lat="-27.0584803" lon="152.9772185">
<ele>8.837</ele>
<time>2017-09-13T02:18:50.726Z</time>
</trkpt>
<trkpt lat="-27.0592995" lon="152.9772418">
<ele>9.552</ele>
<time>2017-09-13T02:18:53.725Z</time>
</trkpt>
<trkpt lat="-27.0598167" lon="152.9773015">
<ele>9.746</ele>
<time>2017-09-13T02:18:55.682Z</time>
</trkpt>
<trkpt lat="-27.0606085" lon="152.9773215">
<ele>9.156</ele>
<time>2017-09-13T02:18:58.660Z</time>
</trkpt>
<trkpt lat="-27.0611382" lon="152.9774004">
<ele>8.334</ele>
<time>2017-09-13T02:19:00.691Z</time>
</trkpt>
<trkpt lat="-27.0619173" lon="152.9773713">
<ele>7.837</ele>
<time>2017-09-13T02:19:03.719Z</time>
</trkpt>
<trkpt lat="-27.0626571" lon="152.9774685">
<ele>7.640</ele>
<time>2017-09-13T02:19:06.666Z</time>
</trkpt>
<trkpt lat="-27.0631661" lon="152.9775046">
<ele>7.572</ele>
<time>2017-09-13T02:19:08.664Z</time>
</trkpt>
<trkpt lat="-27.0639382" lon="152.9775679">
<ele>7.513</ele>
<time>2017-09-13T02:19:11.678Z</time>
</trkpt>
<trkpt lat="-27.0644516" lon="152.9776140">
<ele>7.407</ele>
<time>2017-09-13T02:19:13.676Z</time>
</trkpt>
<trkpt lat="-27.0652220" lon="152.9776540">
<ele>7.284</ele>
<time>2017-09-13T02:19:16.665Z</time>
</trkpt>
<trkpt lat="-27.0657416" lon="152.9777131">
<ele>7.175</ele>
<time>2017-09-13T02:19:18.678Z</time>
</trkpt>
<trkpt lat="-27.0662654" lon="152.9777102">
<ele>7.058</ele>
<time>2017-09-13T02:19:20.690Z</time>
</trkpt>
<trkpt lat="-27.0670469" lon="152.9777118">
<ele>6.960</ele>
<time>2017-09-13T02:19:23.696Z</time>
</trkpt>
<trkpt lat="-27.0678232" lon="152.9776809">
<ele>6.919</ele>
<time>2017-09-13T02:19:26.695Z</time>
</trkpt>
<trkpt lat="-27.0683278" lon="152.9776293">
<ele>6.936</ele>
<time>2017-09-13T02:19:28.687Z</time>
</trkpt>
<trkpt lat="-27.0688247" lon="152.9776171">
<ele>7.008</ele>
<time>2017-09-13T02:19:30.668Z</time>
</trkpt>
<trkpt lat="-27.0695726" lon="152.9775851">
<ele>7.156</ele>
<time>2017-09-13T02:19:33.648Z</time>
</trkpt>
<trkpt lat="-27.0700779" lon="152.9775319">
<ele>7.373</ele>
<time>2017-09-13T02:19:35.642Z</time>
</trkpt>
<trkpt lat="-27.0705883" lon="152.9774450">
<ele>7.706</ele>
<time>2017-09-13T02:19:37.660Z</time>
</trkpt>
<trkpt lat="-27.0713421" lon="152.9772993">
<ele>8.227</ele>
<time>2017-09-13T02:19:40.659Z</time>
</trkpt>
<trkpt lat="-27.0718422" lon="152.9772464">
<ele>8.817</ele>
<time>2017-09-13T02:19:42.651Z</time>
</trkpt>
<trkpt lat="-27.0725864" lon="152.9771516">
<ele>9.369</ele>
<time>2017-09-13T02:19:45.638Z</time>
</trkpt>
<trkpt lat="-27.0730750" lon="152.9770284">
<ele>9.910</ele>
<time>2017-09-13T02:19:47.631Z</time>
</trkpt>
<trkpt lat="-27.0738321" lon="152.9769504">
<ele>10.343</ele>
<time>2017-09-13T02:19:50.631Z</time>
</trkpt>
<trkpt lat="-27.0743385" lon="152.9768568">
<ele>10.569</ele>
<time>2017-09-13T02:19:52.626Z</time>
</trkpt>
<trkpt lat="-27.0748464" lon="152.9767442">
<ele>10.541</ele>
<time>2017-09-13T02:19:54.603Z</time>
</trkpt>
<trkpt lat="-27.0756702" lon="152.9766333">
<ele>10.280</ele>
<time>2017-09-13T02:19:57.733Z</time>
</trkpt>
<trkpt lat="-27.0762023" lon="152.9765474">
<ele>10.163</ele>
<time>2017-09-13T02:19:59.772Z</time>
</trkpt>
<trkpt lat="-27.0767264" lon="152.9764550">
<ele>10.475</ele>
<time>2017-09-13T02:20:01.838Z</time>
</trkpt>
<trkpt lat="-27.0772203" lon="152.9763400">
<ele>10.942</ele>
<time>2017-09-13T02:20:03.848Z</time>
</trkpt>
<trkpt lat="-27.0779475" lon="152.9762576">
<ele>11.216</ele>
<time>2017-09-13T02:20:06.779Z</time>
</trkpt>
<trkpt lat="-27.0786795" lon="152.9761337">
<ele>11.230</ele>
<time>2017-09-13T02:20:09.768Z</time>
</trkpt>
<trkpt lat="-27.0791637" lon="152.9760840">
<ele>10.938</ele>
<time>2017-09-13T02:20:11.751Z</time>
</trkpt>
<trkpt lat="-27.0798924" lon="152.9759764">
<ele>10.279</ele>
<time>2017-09-13T02:20:14.737Z</time>
</trkpt>
<trkpt lat="-27.0806251" lon="152.9758309">
<ele>9.461</ele>
<time>2017-09-13T02:20:17.738Z</time>
</trkpt>
<trkpt lat="-27.0811099" lon="152.9757356">
<ele>8.917</ele>
<time>2017-09-13T02:20:19.725Z</time>
</trkpt>
<trkpt lat="-27.0818363" lon="152.9755965">
<ele>8.874</ele>
<time>2017-09-13T02:20:22.703Z</time>
</trkpt>
<trkpt lat="-27.0825638" lon="152.9754798">
<ele>9.203</ele>
<time>2017-09-13T02:20:25.651Z</time>
</trkpt>
<trkpt lat="-27.0833198" lon="152.9754258">
<ele>9.628</ele>
<time>2017-09-13T02:20:28.659Z</time>
</trkpt>
<trkpt lat="-27.0838238" lon="152.9754228">
<ele>9.956</ele>
<time>2017-09-13T02:20:30.657Z</time>
</trkpt>
<trkpt lat="-27.0843254" lon="152.9753627">
<ele>10.149</ele>
<time>2017-09-13T02:20:32.643Z</time>
</trkpt>
<trkpt lat="-27.0850930" lon="152.9753838">
<ele>10.237</ele>
<time>2017-09-13T02:20:35.655Z</time>
</trkpt>
<trkpt lat="-27.0858531" lon="152.9753876">
<ele>10.098</ele>
<time>2017-09-13T02:20:38.636Z</time>
</trkpt>
<trkpt lat="-27.0863556" lon="152.9754290">
<ele>9.584</ele>
<time>2017-09-13T02:20:40.606Z</time>
</trkpt>
<trkpt lat="-27.0871239" lon="152.9754665">
<ele>8.924</ele>
<time>2017-09-13T02:20:43.602Z</time>
</trkpt>
<trkpt lat="-27.0876342" lon="152.9754674">
<ele>8.494</ele>
<time>2017-09-13T02:20:45.598Z</time>
</trkpt>
<trkpt lat="-27.0881433" lon="152.9754956">
<ele>8.326</ele>
<time>2017-09-13T02:20:47.605Z</time>
</trkpt>
<trkpt lat="-27.0886553" lon="152.9755508">
<ele>8.213</ele>
<time>2017-09-13T02:20:49.645Z</time>
</trkpt>
<trkpt lat="-27.0894064" lon="152.9755535">
<ele>8.025</ele>
<time>2017-09-13T02:20:52.628Z</time>
</trkpt>
<trkpt lat="-27.0901543" lon="152.9755889">
<ele>7.769</ele>
<time>2017-09-13T02:20:55.592Z</time>
</trkpt>
<trkpt lat="-27.0906517" lon="152.9756451">
<ele>7.523</ele>
<time>2017-09-13T02:20:57.567Z</time>
</trkpt>
<trkpt lat="-27.0911576" lon="152.9756706">
<ele>7.405</ele>
<time>2017-09-13T02:20:59.576Z</time>
</trkpt>
<trkpt lat="-27.0916695" lon="152.9757241">
<ele>7.582</ele>
<time>2017-09-13T02:21:01.632Z</time>
</trkpt>
<trkpt lat="-27.0921618" lon="152.9757466">
<ele>8.089</ele>
<time>2017-09-13T02:21:03.612Z</time>
</trkpt>
<trkpt lat="-27.0926539" lon="152.9757463">
<ele>8.673</ele>
<time>2017-09-13T02:21:05.589Z</time>
</trkpt>
<trkpt lat="-27.0934102" lon="152.9757621">
<ele>9.098</ele>
<time>2017-09-13T02:21:08.617Z</time>
</trkpt>
<trkpt lat="-27.0941666" lon="152.9758049">
<ele>9.432</ele>
<time>2017-09-13T02:21:11.563Z</time>
</trkpt>
<trkpt lat="-27.0947117" lon="152.9758539">
<ele>9.789</ele>
<time>2017-09-13T02:21:13.558Z</time>
</trkpt>
<trkpt lat="-27.0952746" lon="152.9758572">
<ele>10.215</ele>
<time>2017-09-13T02:21:15.589Z</time>
</trkpt>
<trkpt lat="-27.0960937" lon="152.9759184">
<ele>10.763</ele>
<time>2017-09-13T02:21:18.568Z</time>
</trkpt>
<trkpt lat="-27.0969202" lon="152.9760023">
<ele>11.340</ele>
<time>2017-09-13T02:21:21.578Z</time>
</trkpt>
<trkpt lat="-27.0975076" lon="152.9760292">
<ele>11.866</ele>
<time>2017-09-13T02:21:23.699Z</time>
</trkpt>
<trkpt lat="-27.0980599" lon="152.9760621">
<ele>12.424</ele>
<time>2017-09-13T02:21:25.706Z</time>
</trkpt>
<trkpt lat="-27.0986252" lon="152.9761128">
<ele>13.031</ele>
<time>2017-09-13T02:21:27.764Z</time>
</trkpt>
<trkpt lat="-27.0991710" lon="152.9761328">
<ele>13.662</ele>
<time>2017-09-13T02:21:29.727Z</time>
</trkpt>
<trkpt lat="-27.0997351" lon="152.9761474">
<ele>14.338</ele>
<time>2017-09-13T02:21:31.733Z</time>
</trkpt>
<trkpt lat="-27.1005705" lon="152.9761860">
<ele>14.947</ele>
<time>2017-09-13T02:21:34.703Z</time>
</trkpt>
<trkpt lat="-27.1011239" lon="152.9761993">
<ele>15.339</ele>
<time>2017-09-13T02:21:36.697Z</time>
</trkpt>
<trkpt lat="-27.1019366" lon="152.9762702">
<ele>15.604</ele>
<time>2017-09-13T02:21:39.706Z</time>
</trkpt>
<trkpt lat="-27.1024522" lon="152.9762323">
<ele>15.921</ele>
<time>2017-09-13T02:21:41.698Z</time>
</trkpt>
<trkpt lat="-27.1032197" lon="152.9763051">
<ele>16.226</ele>
<time>2017-09-13T02:21:44.640Z</time>
</trkpt>
<trkpt lat="-27.1037727" lon="152.9763601">
<ele>16.351</ele>
<time>2017-09-13T02:21:46.659Z</time>
</trkpt>
<trkpt lat="-27.1043374" lon="152.9763908">
<ele>16.302</ele>
<time>2017-09-13T02:21:48.666Z</time>
</trkpt>
<trkpt lat="-27.1051814" lon="152.9764271">
<ele>16.198</ele>
<time>2017-09-13T02:21:51.635Z</time>
</trkpt>
<trkpt lat="-27.1057582" lon="152.9764734">
<ele>16.109</ele>
<time>2017-09-13T02:21:53.609Z</time>
</trkpt>
<trkpt lat="-27.1064138" lon="152.9765013">
<ele>16.024</ele>
<time>2017-09-13T02:21:55.739Z</time>
</trkpt>
<trkpt lat="-27.1070531" lon="152.9764725">
<ele>16.165</ele>
<time>2017-09-13T02:21:57.751Z</time>
</trkpt>
<trkpt lat="-27.1079927" lon="152.9765597">
<ele>16.672</ele>
<time>2017-09-13T02:22:00.776Z</time>
</trkpt>
<trkpt lat="-27.1085668" lon="152.9765412">
<ele>17.109</ele>
<time>2017-09-13T02:22:02.801Z</time>
</trkpt>
<trkpt lat="-27.1093516" lon="152.9766090">
<ele>16.876</ele>
<time>2017-09-13T02:22:05.728Z</time>
</trkpt>
<trkpt lat="-27.1098577" lon="152.9766039">
<ele>15.748</ele>
<time>2017-09-13T02:22:07.700Z</time>
</trkpt>
<trkpt lat="-27.1106188" lon="152.9766492">
<ele>14.163</ele>
<time>2017-09-13T02:22:10.663Z</time>
</trkpt>
<trkpt lat="-27.1111402" lon="152.9766349">
<ele>13.023</ele>
<time>2017-09-13T02:22:12.654Z</time>
</trkpt>
<trkpt lat="-27.1119372" lon="152.9767226">
<ele>12.782</ele>
<time>2017-09-13T02:22:15.696Z</time>
</trkpt>
<trkpt lat="-27.1127225" lon="152.9767799">
<ele>13.196</ele>
<time>2017-09-13T02:22:18.696Z</time>
</trkpt>
<trkpt lat="-27.1132336" lon="152.9768415">
<ele>13.886</ele>
<time>2017-09-13T02:22:20.671Z</time>
</trkpt>
<trkpt lat="-27.1137511" lon="152.9768701">
<ele>14.595</ele>
<time>2017-09-13T02:22:22.665Z</time>
</trkpt>
<trkpt lat="-27.1145280" lon="152.9768673">
<ele>15.157</ele>
<time>2017-09-13T02:22:25.651Z</time>
</trkpt>
<trkpt lat="-27.1150518" lon="152.9768648">
<ele>15.386</ele>
<time>2017-09-13T02:22:27.660Z</time>
</trkpt>
<trkpt lat="-27.1158310" lon="152.9769235">
<ele>15.269</ele>
<time>2017-09-13T02:22:30.657Z</time>
</trkpt>
<trkpt lat="-27.1163538" lon="152.9769428">
<ele>15.022</ele>
<time>2017-09-13T02:22:32.661Z</time>
</trkpt>
<trkpt lat="-27.1171383" lon="152.9769829">
<ele>14.831</ele>
<time>2017-09-13T02:22:35.667Z</time>
</trkpt>
<trkpt lat="-27.1176596" lon="152.9770199">
<ele>14.751</ele>
<time>2017-09-13T02:22:37.667Z</time>
</trkpt>
<trkpt lat="-27.1181791" lon="152.9770258">
<ele>14.801</ele>
<time>2017-09-13T02:22:39.653Z</time>
</trkpt>
<trkpt lat="-27.1187028" lon="152.9770497">
<ele>14.951</ele>
<time>2017-09-13T02:22:41.660Z</time>
</trkpt>
<trkpt lat="-27.1194851" lon="152.9770863">
<ele>15.044</ele>
<time>2017-09-13T02:22:44.667Z</time>
</trkpt>
<trkpt lat="-27.1200018" lon="152.9771041">
<ele>14.740</ele>
<time>2017-09-13T02:22:46.657Z</time>
</trkpt>
<trkpt lat="-27.1207799" lon="152.9771710">
<ele>13.941</ele>
<time>2017-09-13T02:22:49.656Z</time>
</trkpt>
<trkpt lat="-27.1213002" lon="152.9772204">
<ele>13.031</ele>
<time>2017-09-13T02:22:51.657Z</time>
</trkpt>
<trkpt lat="-27.1218217" lon="152.9772360">
<ele>12.418</ele>
<time>2017-09-13T02:22:53.650Z</time>
</trkpt>
<trkpt lat="-27.1226093" lon="152.9772652">
<ele>12.156</ele>
<time>2017-09-13T02:22:56.656Z</time>
</trkpt>
<trkpt lat="-27.1231299" lon="152.9773131">
<ele>12.055</ele>
<time>2017-09-13T02:22:58.649Z</time>
</trkpt>
<trkpt lat="-27.1236532" lon="152.9773020">
<ele>11.922</ele>
<time>2017-09-13T02:23:00.649Z</time>
</trkpt>
<trkpt lat="-27.1241706" lon="152.9773336">
<ele>11.759</ele>
<time>2017-09-13T02:23:02.634Z</time>
</trkpt>
<trkpt lat="-27.1246929" lon="152.9773974">
<ele>11.639</ele>
<time>2017-09-13T02:23:04.646Z</time>
</trkpt>
<trkpt lat="-27.1254803" lon="152.9773863">
<ele>11.578</ele>
<time>2017-09-13T02:23:07.655Z</time>
</trkpt>
<trkpt lat="-27.1260027" lon="152.9774115">
<ele>11.568</ele>
<time>2017-09-13T02:23:09.633Z</time>
</trkpt>
<trkpt lat="-27.1268011" lon="152.9774743">
<ele>11.569</ele>
<time>2017-09-13T02:23:12.648Z</time>
</trkpt>
<trkpt lat="-27.1273298" lon="152.9774887">
<ele>11.531</ele>
<time>2017-09-13T02:23:14.644Z</time>
</trkpt>
<trkpt lat="-27.1281164" lon="152.9775833">
<ele>11.440</ele>
<time>2017-09-13T02:23:17.638Z</time>
</trkpt>
<trkpt lat="-27.1289077" lon="152.9776175">
<ele>11.341</ele>
<time>2017-09-13T02:23:20.638Z</time>
</trkpt>
<trkpt lat="-27.1296955" lon="152.9776522">
<ele>11.536</ele>
<time>2017-09-13T02:23:23.640Z</time>
</trkpt>
<trkpt lat="-27.1304680" lon="152.9777136">
<ele>12.247</ele>
<time>2017-09-13T02:23:26.616Z</time>
</trkpt>
<trkpt lat="-27.1309825" lon="152.9777439">
<ele>13.109</ele>
<time>2017-09-13T02:23:28.606Z</time>
</trkpt>
<trkpt lat="-27.1317597" lon="152.9778027">
<ele>13.639</ele>
<time>2017-09-13T02:23:31.606Z</time>
</trkpt>
<trkpt lat="-27.1322800" lon="152.9778256">
<ele>13.844</ele>
<time>2017-09-13T02:23:33.598Z</time>
</trkpt>
<trkpt lat="-27.1328020" lon="152.9778047">
<ele>13.991</ele>
<time>2017-09-13T02:23:35.594Z</time>
</trkpt>
<trkpt lat="-27.1335830" lon="152.9778596">
<ele>14.263</ele>
<time>2017-09-13T02:23:38.591Z</time>
</trkpt>
<trkpt lat="-27.1340975" lon="152.9779031">
<ele>14.580</ele>
<time>2017-09-13T02:23:40.574Z</time>
</trkpt>
<trkpt lat="-27.1346204" lon="152.9778928">
<ele>14.791</ele>
<time>2017-09-13T02:23:42.582Z</time>
</trkpt>
<trkpt lat="-27.1353947" lon="152.9780205">
<ele>14.901</ele>
<time>2017-09-13T02:23:45.582Z</time>
</trkpt>
<trkpt lat="-27.1359150" lon="152.9780331">
<ele>14.982</ele>
<time>2017-09-13T02:23:47.574Z</time>
</trkpt>
<trkpt lat="-27.1364443" lon="152.9780067">
<ele>15.066</ele>
<time>2017-09-13T02:23:49.599Z</time>
</trkpt>
<trkpt lat="-27.1372267" lon="152.9780817">
<ele>15.208</ele>
<time>2017-09-13T02:23:52.598Z</time>
</trkpt>
<trkpt lat="-27.1380062" lon="152.9780929">
<ele>15.438</ele>
<time>2017-09-13T02:23:55.567Z</time>
</trkpt>
<trkpt lat="-27.1385473" lon="152.9780908">
<ele>15.678</ele>
<time>2017-09-13T02:23:57.632Z</time>
</trkpt>
<trkpt lat="-27.1390575" lon="152.9781298">
<ele>15.959</ele>
<time>2017-09-13T02:23:59.599Z</time>
</trkpt>
<trkpt lat="-27.1395716" lon="152.9781825">
<ele>16.343</ele>
<time>2017-09-13T02:24:01.587Z</time>
</trkpt>
<trkpt lat="-27.1400955" lon="152.9781818">
<ele>16.692</ele>
<time>2017-09-13T02:24:03.602Z</time>
</trkpt>
<trkpt lat="-27.1408759" lon="152.9782413">
<ele>16.958</ele>
<time>2017-09-13T02:24:06.606Z</time>
</trkpt>
<trkpt lat="-27.1413977" lon="152.9782621">
<ele>17.225</ele>
<time>2017-09-13T02:24:08.600Z</time>
</trkpt>
<trkpt lat="-27.1421872" lon="152.9782463">
<ele>17.378</ele>
<time>2017-09-13T02:24:11.601Z</time>
</trkpt>
<trkpt lat="-27.1427228" lon="152.9782696">
<ele>17.201</ele>
<time>2017-09-13T02:24:13.624Z</time>
</trkpt>
<trkpt lat="-27.1432532" lon="152.9782662">
<ele>16.725</ele>
<time>2017-09-13T02:24:15.628Z</time>
</trkpt>
<trkpt lat="-27.1440437" lon="152.9783190">
<ele>16.247</ele>
<time>2017-09-13T02:24:18.625Z</time>
</trkpt>
<trkpt lat="-27.1448317" lon="152.9782811">
<ele>16.046</ele>
<time>2017-09-13T02:24:21.613Z</time>
</trkpt>
<trkpt lat="-27.1453573" lon="152.9783473">
<ele>16.187</ele>
<time>2017-09-13T02:24:23.615Z</time>
</trkpt>
<trkpt lat="-27.1461462" lon="152.9783288">
<ele>16.509</ele>
<time>2017-09-13T02:24:26.598Z</time>
</trkpt>
<trkpt lat="-27.1466737" lon="152.9782999">
<ele>16.716</ele>
<time>2017-09-13T02:24:28.590Z</time>
</trkpt>
<trkpt lat="-27.1474640" lon="152.9782605">
<ele>16.606</ele>
<time>2017-09-13T02:24:31.572Z</time>
</trkpt>
<trkpt lat="-27.1482626" lon="152.9782188">
<ele>16.265</ele>
<time>2017-09-13T02:24:34.581Z</time>
</trkpt>
<trkpt lat="-27.1487938" lon="152.9781678">
<ele>15.863</ele>
<time>2017-09-13T02:24:36.587Z</time>
</trkpt>
<trkpt lat="-27.1495748" lon="152.9780183">
<ele>15.427</ele>
<time>2017-09-13T02:24:39.579Z</time>
</trkpt>
<trkpt lat="-27.1500983" lon="152.9779800">
<ele>15.023</ele>
<time>2017-09-13T02:24:41.573Z</time>
</trkpt>
<trkpt lat="-27.1506170" lon="152.9779319">
<ele>14.808</ele>
<time>2017-09-13T02:24:43.557Z</time>
</trkpt>
<trkpt lat="-27.1514038" lon="152.9778671">
<ele>14.797</ele>
<time>2017-09-13T02:24:46.559Z</time>
</trkpt>
<trkpt lat="-27.1519239" lon="152.9777498">
<ele>14.761</ele>
<time>2017-09-13T02:24:48.567Z</time>
</trkpt>
<trkpt lat="-27.1527214" lon="152.9777916">
<ele>14.522</ele>
<time>2017-09-13T02:24:51.585Z</time>
</trkpt>
<trkpt lat="-27.1535052" lon="152.9776490">
<ele>14.142</ele>
<time>2017-09-13T02:24:54.585Z</time>
</trkpt>
<trkpt lat="-27.1543016" lon="152.9775945">
<ele>13.784</ele>
<time>2017-09-13T02:24:57.595Z</time>
</trkpt>
<trkpt lat="-27.1548305" lon="152.9776593">
<ele>13.563</ele>
<time>2017-09-13T02:24:59.598Z</time>
</trkpt>
<trkpt lat="-27.1553657" lon="152.9776982">
<ele>13.567</ele>
<time>2017-09-13T02:25:01.609Z</time>
</trkpt>
<trkpt lat="-27.1561658" lon="152.9777176">
<ele>13.741</ele>
<time>2017-09-13T02:25:04.607Z</time>
</trkpt>
<trkpt lat="-27.1566895" lon="152.9777906">
<ele>13.842</ele>
<time>2017-09-13T02:25:06.594Z</time>
</trkpt>
<trkpt lat="-27.1574745" lon="152.9779178">
<ele>13.578</ele>
<time>2017-09-13T02:25:09.604Z</time>
</trkpt>
<trkpt lat="-27.1582483" lon="152.9780357">
<ele>12.809</ele>
<time>2017-09-13T02:25:12.599Z</time>
</trkpt>
<trkpt lat="-27.1587605" lon="152.9781302">
<ele>11.790</ele>
<time>2017-09-13T02:25:14.603Z</time>
</trkpt>
<trkpt lat="-27.1592616" lon="152.9782806">
<ele>11.115</ele>
<time>2017-09-13T02:25:16.611Z</time>
</trkpt>
<trkpt lat="-27.1597692" lon="152.9783756">
<ele>11.172</ele>
<time>2017-09-13T02:25:18.610Z</time>
</trkpt>
<trkpt lat="-27.1605183" lon="152.9785802">
<ele>11.874</ele>
<time>2017-09-13T02:25:21.607Z</time>
</trkpt>
<trkpt lat="-27.1610126" lon="152.9787611">
<ele>12.973</ele>
<time>2017-09-13T02:25:23.614Z</time>
</trkpt>
<trkpt lat="-27.1615346" lon="152.9788711">
<ele>14.091</ele>
<time>2017-09-13T02:25:25.653Z</time>
</trkpt>
<trkpt lat="-27.1622869" lon="152.9791092">
<ele>14.797</ele>
<time>2017-09-13T02:25:28.650Z</time>
</trkpt>
<trkpt lat="-27.1628043" lon="152.9791984">
<ele>14.863</ele>
<time>2017-09-13T02:25:30.654Z</time>
</trkpt>
<trkpt lat="-27.1633003" lon="152.9793827">
<ele>14.401</ele>
<time>2017-09-13T02:25:32.659Z</time>
</trkpt>
<trkpt lat="-27.1640555" lon="152.9795920">
<ele>13.792</ele>
<time>2017-09-13T02:25:35.653Z</time>
</trkpt>
<trkpt lat="-27.1648110" lon="152.9797894">
<ele>13.437</ele>
<time>2017-09-13T02:25:38.641Z</time>
</trkpt>
<trkpt lat="-27.1653074" lon="152.9799965">
<ele>13.495</ele>
<time>2017-09-13T02:25:40.676Z</time>
</trkpt>
<trkpt lat="-27.1660669" lon="152.9802147">
<ele>13.943</ele>
<time>2017-09-13T02:25:43.683Z</time>
</trkpt>
<trkpt lat="-27.1665885" lon="152.9804116">
<ele>14.602</ele>
<time>2017-09-13T02:25:45.785Z</time>
</trkpt>
<trkpt lat="-27.1673581" lon="152.9805897">
<ele>15.251</ele>
<time>2017-09-13T02:25:48.786Z</time>
</trkpt>
<trkpt lat="-27.1678469" lon="152.9807956">
<ele>15.827</ele>
<time>2017-09-13T02:25:50.784Z</time>
</trkpt>
<trkpt lat="-27.1683495" lon="152.9809468">
<ele>16.414</ele>
<time>2017-09-13T02:25:52.775Z</time>
</trkpt>
<trkpt lat="-27.1688668" lon="152.9810451">
<ele>17.018</ele>
<time>2017-09-13T02:25:54.777Z</time>
</trkpt>
<trkpt lat="-27.1696173" lon="152.9813071">
<ele>17.615</ele>
<time>2017-09-13T02:25:57.773Z</time>
</trkpt>
<trkpt lat="-27.1701246" lon="152.9814572">
<ele>18.250</ele>
<time>2017-09-13T02:25:59.776Z</time>
</trkpt>
<trkpt lat="-27.1706232" lon="152.9816089">
<ele>18.858</ele>
<time>2017-09-13T02:26:01.749Z</time>
</trkpt>
<trkpt lat="-27.1711278" lon="152.9817618">
<ele>19.298</ele>
<time>2017-09-13T02:26:03.736Z</time>
</trkpt>
<trkpt lat="-27.1716321" lon="152.9819097">
<ele>19.558</ele>
<time>2017-09-13T02:26:05.724Z</time>
</trkpt>
<trkpt lat="-27.1723946" lon="152.9821048">
<ele>19.637</ele>
<time>2017-09-13T02:26:08.718Z</time>
</trkpt>
<trkpt lat="-27.1729027" lon="152.9822397">
<ele>19.498</ele>
<time>2017-09-13T02:26:10.719Z</time>
</trkpt>
<trkpt lat="-27.1734208" lon="152.9823237">
<ele>19.125</ele>
<time>2017-09-13T02:26:12.725Z</time>
</trkpt>
<trkpt lat="-27.1741739" lon="152.9825540">
<ele>18.590</ele>
<time>2017-09-13T02:26:15.715Z</time>
</trkpt>
<trkpt lat="-27.1746701" lon="152.9827274">
<ele>18.105</ele>
<time>2017-09-13T02:26:17.706Z</time>
</trkpt>
<trkpt lat="-27.1751752" lon="152.9828666">
<ele>17.902</ele>
<time>2017-09-13T02:26:19.697Z</time>
</trkpt>
<trkpt lat="-27.1756916" lon="152.9829795">
<ele>18.126</ele>
<time>2017-09-13T02:26:21.710Z</time>
</trkpt>
<trkpt lat="-27.1761908" lon="152.9831604">
<ele>18.716</ele>
<time>2017-09-13T02:26:23.718Z</time>
</trkpt>
<trkpt lat="-27.1769466" lon="152.9833871">
<ele>19.394</ele>
<time>2017-09-13T02:26:26.720Z</time>
</trkpt>
<trkpt lat="-27.1777030" lon="152.9836054">
<ele>19.965</ele>
<time>2017-09-13T02:26:29.720Z</time>
</trkpt>
<trkpt lat="-27.1784501" lon="152.9838591">
<ele>20.571</ele>
<time>2017-09-13T02:26:32.714Z</time>
</trkpt>
<trkpt lat="-27.1789529" lon="152.9839872">
<ele>21.489</ele>
<time>2017-09-13T02:26:34.688Z</time>
</trkpt>
<trkpt lat="-27.1797143" lon="152.9841773">
<ele>22.750</ele>
<time>2017-09-13T02:26:37.674Z</time>
</trkpt>
<trkpt lat="-27.1802118" lon="152.9843783">
<ele>24.219</ele>
<time>2017-09-13T02:26:39.702Z</time>
</trkpt>
<trkpt lat="-27.1807226" lon="152.9844822">
<ele>25.916</ele>
<time>2017-09-13T02:26:41.700Z</time>
</trkpt>
<trkpt lat="-27.1812309" lon="152.9845926">
<ele>27.803</ele>
<time>2017-09-13T02:26:43.694Z</time>
</trkpt>
<trkpt lat="-27.1819753" lon="152.9848637">
<ele>29.579</ele>
<time>2017-09-13T02:26:46.703Z</time>
</trkpt>
<trkpt lat="-27.1824889" lon="152.9849590">
<ele>31.123</ele>
<time>2017-09-13T02:26:48.694Z</time>
</trkpt>
<trkpt lat="-27.1832669" lon="152.9851782">
<ele>32.529</ele>
<time>2017-09-13T02:26:51.753Z</time>
</trkpt>
<trkpt lat="-27.1837848" lon="152.9853170">
<ele>33.647</ele>
<time>2017-09-13T02:26:53.778Z</time>
</trkpt>
<trkpt lat="-27.1845418" lon="152.9855398">
<ele>34.264</ele>
<time>2017-09-13T02:26:56.749Z</time>
</trkpt>
<trkpt lat="-27.1850511" lon="152.9856901">
<ele>34.526</ele>
<time>2017-09-13T02:26:58.748Z</time>
</trkpt>
<trkpt lat="-27.1855585" lon="152.9858144">
<ele>34.661</ele>
<time>2017-09-13T02:27:00.722Z</time>
</trkpt>
<trkpt lat="-27.1860791" lon="152.9859340">
<ele>34.727</ele>
<time>2017-09-13T02:27:02.750Z</time>
</trkpt>
<trkpt lat="-27.1868208" lon="152.9861807">
<ele>34.666</ele>
<time>2017-09-13T02:27:05.710Z</time>
</trkpt>
<trkpt lat="-27.1873318" lon="152.9862877">
<ele>34.456</ele>
<time>2017-09-13T02:27:07.697Z</time>
</trkpt>
<trkpt lat="-27.1880838" lon="152.9864872">
<ele>34.169</ele>
<time>2017-09-13T02:27:10.647Z</time>
</trkpt>
<trkpt lat="-27.1886118" lon="152.9866059">
<ele>33.802</ele>
<time>2017-09-13T02:27:12.705Z</time>
</trkpt>
<trkpt lat="-27.1893867" lon="152.9867565">
<ele>33.252</ele>
<time>2017-09-13T02:27:15.707Z</time>
</trkpt>
<trkpt lat="-27.1901765" lon="152.9868962">
<ele>32.364</ele>
<time>2017-09-13T02:27:18.752Z</time>
</trkpt>
<trkpt lat="-27.1906884" lon="152.9870169">
<ele>30.908</ele>
<time>2017-09-13T02:27:20.749Z</time>
</trkpt>
<trkpt lat="-27.1914673" lon="152.9871458">
<ele>28.965</ele>
<time>2017-09-13T02:27:23.769Z</time>
</trkpt>
<trkpt lat="-27.1922270" lon="152.9873037">
<ele>26.922</ele>
<time>2017-09-13T02:27:26.740Z</time>
</trkpt>
<trkpt lat="-27.1927395" lon="152.9874054">
<ele>24.999</ele>
<time>2017-09-13T02:27:28.730Z</time>
</trkpt>
<trkpt lat="-27.1932481" lon="152.9875386">
<ele>23.439</ele>
<time>2017-09-13T02:27:30.724Z</time>
</trkpt>
<trkpt lat="-27.1940277" lon="152.9876370">
<ele>22.552</ele>
<time>2017-09-13T02:27:33.719Z</time>
</trkpt>
<trkpt lat="-27.1945480" lon="152.9877021">
<ele>22.470</ele>
<time>2017-09-13T02:27:35.724Z</time>
</trkpt>
<trkpt lat="-27.1953187" lon="152.9878603">
<ele>23.124</ele>
<time>2017-09-13T02:27:38.733Z</time>
</trkpt>
<trkpt lat="-27.1958239" lon="152.9880080">
<ele>24.226</ele>
<time>2017-09-13T02:27:40.729Z</time>
</trkpt>
<trkpt lat="-27.1965996" lon="152.9881482">
<ele>25.412</ele>
<time>2017-09-13T02:27:43.730Z</time>
</trkpt>
<trkpt lat="-27.1973710" lon="152.9882884">
<ele>26.471</ele>
<time>2017-09-13T02:27:46.724Z</time>
</trkpt>
<trkpt lat="-27.1981429" lon="152.9884048">
<ele>27.525</ele>
<time>2017-09-13T02:27:49.712Z</time>
</trkpt>
<trkpt lat="-27.1989105" lon="152.9885888">
<ele>28.648</ele>
<time>2017-09-13T02:27:52.720Z</time>
</trkpt>
<trkpt lat="-27.1996853" lon="152.9887136">
<ele>29.501</ele>
<time>2017-09-13T02:27:55.713Z</time>
</trkpt>
<trkpt lat="-27.2004599" lon="152.9888419">
<ele>29.904</ele>
<time>2017-09-13T02:27:58.707Z</time>
</trkpt>
<trkpt lat="-27.2009743" lon="152.9889211">
<ele>30.102</ele>
<time>2017-09-13T02:28:00.700Z</time>
</trkpt>
<trkpt lat="-27.2014745" lon="152.9890762">
<ele>30.254</ele>
<time>2017-09-13T02:28:02.696Z</time>
</trkpt>
<trkpt lat="-27.2022429" lon="152.9891918">
<ele>30.378</ele>
<time>2017-09-13T02:28:05.679Z</time>
</trkpt>
<trkpt lat="-27.2030095" lon="152.9893430">
<ele>30.575</ele>
<time>2017-09-13T02:28:08.671Z</time>
</trkpt>
<trkpt lat="-27.2037803" lon="152.9895097">
<ele>30.915</ele>
<time>2017-09-13T02:28:11.692Z</time>
</trkpt>
<trkpt lat="-27.2042950" lon="152.9895685">
<ele>31.252</ele>
<time>2017-09-13T02:28:13.682Z</time>
</trkpt>
<trkpt lat="-27.2048010" lon="152.9897120">
<ele>31.440</ele>
<time>2017-09-13T02:28:15.685Z</time>
</trkpt>
<trkpt lat="-27.2055734" lon="152.9898417">
<ele>31.462</ele>
<time>2017-09-13T02:28:18.680Z</time>
</trkpt>
<trkpt lat="-27.2063305" lon="152.9900605">
<ele>31.365</ele>
<time>2017-09-13T02:28:21.674Z</time>
</trkpt>
<trkpt lat="-27.2068469" lon="152.9901513">
<ele>31.248</ele>
<time>2017-09-13T02:28:23.673Z</time>
</trkpt>
<trkpt lat="-27.2075963" lon="152.9904157">
<ele>31.179</ele>
<time>2017-09-13T02:28:26.677Z</time>
</trkpt>
<trkpt lat="-27.2080987" lon="152.9905763">
<ele>31.150</ele>
<time>2017-09-13T02:28:28.679Z</time>
</trkpt>
<trkpt lat="-27.2088361" lon="152.9908317">
<ele>31.077</ele>
<time>2017-09-13T02:28:31.638Z</time>
</trkpt>
<trkpt lat="-27.2093497" lon="152.9910413">
<ele>30.754</ele>
<time>2017-09-13T02:28:33.723Z</time>
</trkpt>
<trkpt lat="-27.2100900" lon="152.9913151">
<ele>30.150</ele>
<time>2017-09-13T02:28:36.696Z</time>
</trkpt>
<trkpt lat="-27.2108276" lon="152.9916327">
<ele>29.450</ele>
<time>2017-09-13T02:28:39.712Z</time>
</trkpt>
<trkpt lat="-27.2113039" lon="152.9918861">
<ele>28.663</ele>
<time>2017-09-13T02:28:41.713Z</time>
</trkpt>
<trkpt lat="-27.2117526" lon="152.9922089">
<ele>27.756</ele>
<time>2017-09-13T02:28:43.734Z</time>
</trkpt>
<trkpt lat="-27.2124898" lon="152.9925160">
<ele>26.939</ele>
<time>2017-09-13T02:28:46.722Z</time>
</trkpt>
<trkpt lat="-27.2129495" lon="152.9928083">
<ele>26.288</ele>
<time>2017-09-13T02:28:48.735Z</time>
</trkpt>
<trkpt lat="-27.2136464" lon="152.9932077">
<ele>25.620</ele>
<time>2017-09-13T02:28:51.728Z</time>
</trkpt>
<trkpt lat="-27.2140801" lon="152.9935324">
<ele>24.827</ele>
<time>2017-09-13T02:28:53.734Z</time>
</trkpt>
<trkpt lat="-27.2147906" lon="152.9938852">
<ele>24.045</ele>
<time>2017-09-13T02:28:56.727Z</time>
</trkpt>
<trkpt lat="-27.2152254" lon="152.9942212">
<ele>23.502</ele>
<time>2017-09-13T02:28:58.752Z</time>
</trkpt>
<trkpt lat="-27.2158697" lon="152.9947385">
<ele>23.250</ele>
<time>2017-09-13T02:29:01.786Z</time>
</trkpt>
<trkpt lat="-27.2162790" lon="152.9951157">
<ele>23.110</ele>
<time>2017-09-13T02:29:03.815Z</time>
</trkpt>
<trkpt lat="-27.2167225" lon="152.9954362">
<ele>22.812</ele>
<time>2017-09-13T02:29:05.839Z</time>
</trkpt>
<trkpt lat="-27.2174173" lon="152.9958268">
<ele>22.278</ele>
<time>2017-09-13T02:29:08.823Z</time>
</trkpt>
<trkpt lat="-27.2178304" lon="152.9961865">
<ele>21.752</ele>
<time>2017-09-13T02:29:10.828Z</time>
</trkpt>
<trkpt lat="-27.2185080" lon="152.9966132">
<ele>21.466</ele>
<time>2017-09-13T02:29:13.809Z</time>
</trkpt>
<trkpt lat="-27.2189337" lon="152.9969568">
<ele>21.438</ele>
<time>2017-09-13T02:29:15.822Z</time>
</trkpt>
<trkpt lat="-27.2196021" lon="152.9974000">
<ele>21.657</ele>
<time>2017-09-13T02:29:18.830Z</time>
</trkpt>
<trkpt lat="-27.2200513" lon="152.9976439">
<ele>22.194</ele>
<time>2017-09-13T02:29:20.800Z</time>
</trkpt>
<trkpt lat="-27.2207178" lon="152.9980417">
<ele>23.062</ele>
<time>2017-09-13T02:29:23.776Z</time>
</trkpt>
<trkpt lat="-27.2212069" lon="152.9982308">
<ele>24.149</ele>
<time>2017-09-13T02:29:25.811Z</time>
</trkpt>
<trkpt lat="-27.2218848" lon="152.9986163">
<ele>25.411</ele>
<time>2017-09-13T02:29:28.803Z</time>
</trkpt>
<trkpt lat="-27.2223548" lon="152.9988272">
<ele>27.016</ele>
<time>2017-09-13T02:29:30.787Z</time>
</trkpt>
<trkpt lat="-27.2228281" lon="152.9990529">
<ele>28.933</ele>
<time>2017-09-13T02:29:32.783Z</time>
</trkpt>
<trkpt lat="-27.2235333" lon="152.9994171">
<ele>30.852</ele>
<time>2017-09-13T02:29:35.777Z</time>
</trkpt>
<trkpt lat="-27.2242490" lon="152.9997702">
<ele>32.635</ele>
<time>2017-09-13T02:29:38.778Z</time>
</trkpt>
<trkpt lat="-27.2247439" lon="152.9999541">
<ele>34.257</ele>
<time>2017-09-13T02:29:40.782Z</time>
</trkpt>
<trkpt lat="-27.2254455" lon="153.0003648">
<ele>35.568</ele>
<time>2017-09-13T02:29:43.824Z</time>
</trkpt>
<trkpt lat="-27.2261722" lon="153.0007148">
<ele>36.515</ele>
<time>2017-09-13T02:29:46.862Z</time>
</trkpt>
<trkpt lat="-27.2268695" lon="153.0010769">
<ele>37.111</ele>
<time>2017-09-13T02:29:49.813Z</time>
</trkpt>
<trkpt lat="-27.2275822" lon="153.0014182">
<ele>37.384</ele>
<time>2017-09-13T02:29:52.786Z</time>
</trkpt>
<trkpt lat="-27.2280708" lon="153.0016069">
<ele>37.458</ele>
<time>2017-09-13T02:29:54.763Z</time>
</trkpt>
<trkpt lat="-27.2287868" lon="153.0019889">
<ele>37.318</ele>
<time>2017-09-13T02:29:57.795Z</time>
</trkpt>
<trkpt lat="-27.2292607" lon="153.0022441">
<ele>36.891</ele>
<time>2017-09-13T02:29:59.804Z</time>
</trkpt>
<trkpt lat="-27.2299856" lon="153.0025601">
<ele>36.304</ele>
<time>2017-09-13T02:30:02.780Z</time>
</trkpt>
<trkpt lat="-27.2306901" lon="153.0029186">
<ele>35.626</ele>
<time>2017-09-13T02:30:05.745Z</time>
</trkpt>
<trkpt lat="-27.2311649" lon="153.0031957">
<ele>34.770</ele>
<time>2017-09-13T02:30:07.793Z</time>
</trkpt>
<trkpt lat="-27.2316581" lon="153.0034004">
<ele>33.911</ele>
<time>2017-09-13T02:30:09.802Z</time>
</trkpt>
<trkpt lat="-27.2321356" lon="153.0036485">
<ele>33.346</ele>
<time>2017-09-13T02:30:11.813Z</time>
</trkpt>
<trkpt lat="-27.2328660" lon="153.0039446">
<ele>33.125</ele>
<time>2017-09-13T02:30:14.778Z</time>
</trkpt>
<trkpt lat="-27.2335841" lon="153.0043541">
<ele>33.103</ele>
<time>2017-09-13T02:30:17.847Z</time>
</trkpt>
<trkpt lat="-27.2343259" lon="153.0046172">
<ele>33.029</ele>
<time>2017-09-13T02:30:20.815Z</time>
</trkpt>
<trkpt lat="-27.2350296" lon="153.0050088">
<ele>32.694</ele>
<time>2017-09-13T02:30:23.817Z</time>
</trkpt>
<trkpt lat="-27.2355170" lon="153.0052302">
<ele>32.178</ele>
<time>2017-09-13T02:30:25.827Z</time>
</trkpt>
<trkpt lat="-27.2362209" lon="153.0056116">
<ele>31.656</ele>
<time>2017-09-13T02:30:28.815Z</time>
</trkpt>
<trkpt lat="-27.2368979" lon="153.0060539">
<ele>31.171</ele>
<time>2017-09-13T02:30:31.812Z</time>
</trkpt>
<trkpt lat="-27.2373484" lon="153.0063561">
<ele>30.631</ele>
<time>2017-09-13T02:30:33.821Z</time>
</trkpt>
<trkpt lat="-27.2379871" lon="153.0068763">
<ele>30.043</ele>
<time>2017-09-13T02:30:36.845Z</time>
</trkpt>
<trkpt lat="-27.2383824" lon="153.0072579">
<ele>29.665</ele>
<time>2017-09-13T02:30:38.847Z</time>
</trkpt>
<trkpt lat="-27.2388131" lon="153.0075902">
<ele>29.689</ele>
<time>2017-09-13T02:30:40.842Z</time>
</trkpt>
<trkpt lat="-27.2394224" lon="153.0081568">
<ele>29.955</ele>
<time>2017-09-13T02:30:43.846Z</time>
</trkpt>
<trkpt lat="-27.2397682" lon="153.0086176">
<ele>30.126</ele>
<time>2017-09-13T02:30:45.878Z</time>
</trkpt>
<trkpt lat="-27.2402583" lon="153.0093109">
<ele>29.925</ele>
<time>2017-09-13T02:30:48.872Z</time>
</trkpt>
<trkpt lat="-27.2406512" lon="153.0096993">
<ele>29.309</ele>
<time>2017-09-13T02:30:50.867Z</time>
</trkpt>
<trkpt lat="-27.2409529" lon="153.0101882">
<ele>28.524</ele>
<time>2017-09-13T02:30:52.891Z</time>
</trkpt>
<trkpt lat="-27.2414693" lon="153.0108396">
<ele>27.926</ele>
<time>2017-09-13T02:30:55.863Z</time>
</trkpt>
<trkpt lat="-27.2419600" lon="153.0115246">
<ele>27.548</ele>
<time>2017-09-13T02:30:58.861Z</time>
</trkpt>
<trkpt lat="-27.2423001" lon="153.0119623">
<ele>27.073</ele>
<time>2017-09-13T02:31:00.865Z</time>
</trkpt>
<trkpt lat="-27.2427876" lon="153.0125943">
<ele>26.364</ele>
<time>2017-09-13T02:31:03.778Z</time>
</trkpt>
<trkpt lat="-27.2432369" lon="153.0132675">
<ele>25.478</ele>
<time>2017-09-13T02:31:06.726Z</time>
</trkpt>
<trkpt lat="-27.2437773" lon="153.0138678">
<ele>24.450</ele>
<time>2017-09-13T02:31:09.711Z</time>
</trkpt>
<trkpt lat="-27.2440769" lon="153.0143374">
<ele>23.366</ele>
<time>2017-09-13T02:31:11.717Z</time>
</trkpt>
<trkpt lat="-27.2444280" lon="153.0147862">
<ele>22.273</ele>
<time>2017-09-13T02:31:13.791Z</time>
</trkpt>
<trkpt lat="-27.2449096" lon="153.0154499">
<ele>21.222</ele>
<time>2017-09-13T02:31:16.770Z</time>
</trkpt>
<trkpt lat="-27.2452544" lon="153.0158741">
<ele>20.420</ele>
<time>2017-09-13T02:31:18.763Z</time>
</trkpt>
<trkpt lat="-27.2458750" lon="153.0163951">
<ele>19.969</ele>
<time>2017-09-13T02:31:21.767Z</time>
</trkpt>
<trkpt lat="-27.2462763" lon="153.0167647">
<ele>19.601</ele>
<time>2017-09-13T02:31:23.764Z</time>
</trkpt>
<trkpt lat="-27.2469139" lon="153.0172731">
<ele>18.995</ele>
<time>2017-09-13T02:31:26.775Z</time>
</trkpt>
<trkpt lat="-27.2473671" lon="153.0175327">
<ele>18.013</ele>
<time>2017-09-13T02:31:28.750Z</time>
</trkpt>
<trkpt lat="-27.2480415" lon="153.0179610">
<ele>16.751</ele>
<time>2017-09-13T02:31:31.759Z</time>
</trkpt>
<trkpt lat="-27.2487362" lon="153.0183460">
<ele>15.392</ele>
<time>2017-09-13T02:31:34.767Z</time>
</trkpt>
<trkpt lat="-27.2494872" lon="153.0185579">
<ele>14.133</ele>
<time>2017-09-13T02:31:37.778Z</time>
</trkpt>
<trkpt lat="-27.2502163" lon="153.0188452">
<ele>13.194</ele>
<time>2017-09-13T02:31:40.789Z</time>
</trkpt>
<trkpt lat="-27.2509586" lon="153.0190432">
<ele>12.732</ele>
<time>2017-09-13T02:31:43.774Z</time>
</trkpt>
<trkpt lat="-27.2514609" lon="153.0191310">
<ele>12.691</ele>
<time>2017-09-13T02:31:45.769Z</time>
</trkpt>
<trkpt lat="-27.2519703" lon="153.0191469">
<ele>12.932</ele>
<time>2017-09-13T02:31:47.766Z</time>
</trkpt>
<trkpt lat="-27.2524762" lon="153.0192138">
<ele>13.293</ele>
<time>2017-09-13T02:31:49.760Z</time>
</trkpt>
<trkpt lat="-27.2529889" lon="153.0191753">
<ele>13.693</ele>
<time>2017-09-13T02:31:51.771Z</time>
</trkpt>
<trkpt lat="-27.2537524" lon="153.0191723">
<ele>14.208</ele>
<time>2017-09-13T02:31:54.752Z</time>
</trkpt>
<trkpt lat="-27.2545174" lon="153.0191042">
<ele>15.117</ele>
<time>2017-09-13T02:31:57.735Z</time>
</trkpt>
<trkpt lat="-27.2550253" lon="153.0190530">
<ele>16.614</ele>
<time>2017-09-13T02:31:59.723Z</time>
</trkpt>
<trkpt lat="-27.2555274" lon="153.0189838">
<ele>18.404</ele>
<time>2017-09-13T02:32:01.697Z</time>
</trkpt>
<trkpt lat="-27.2562938" lon="153.0188930">
<ele>20.037</ele>
<time>2017-09-13T02:32:04.691Z</time>
</trkpt>
<trkpt lat="-27.2568129" lon="153.0188716">
<ele>21.555</ele>
<time>2017-09-13T02:32:06.692Z</time>
</trkpt>
<trkpt lat="-27.2575913" lon="153.0188690">
<ele>23.120</ele>
<time>2017-09-13T02:32:09.691Z</time>
</trkpt>
<trkpt lat="-27.2583618" lon="153.0188116">
<ele>24.486</ele>
<time>2017-09-13T02:32:12.676Z</time>
</trkpt>
<trkpt lat="-27.2588732" lon="153.0187823">
<ele>25.396</ele>
<time>2017-09-13T02:32:14.663Z</time>
</trkpt>
<trkpt lat="-27.2593858" lon="153.0187611">
<ele>25.875</ele>
<time>2017-09-13T02:32:16.652Z</time>
</trkpt>
<trkpt lat="-27.2601529" lon="153.0187178">
<ele>26.026</ele>
<time>2017-09-13T02:32:19.621Z</time>
</trkpt>
<trkpt lat="-27.2606665" lon="153.0186767">
<ele>25.997</ele>
<time>2017-09-13T02:32:21.603Z</time>
</trkpt>
<trkpt lat="-27.2611844" lon="153.0186272">
<ele>25.886</ele>
<time>2017-09-13T02:32:23.610Z</time>
</trkpt>
<trkpt lat="-27.2616965" lon="153.0186247">
<ele>25.738</ele>
<time>2017-09-13T02:32:25.598Z</time>
</trkpt>
<trkpt lat="-27.2624640" lon="153.0185498">
<ele>25.597</ele>
<time>2017-09-13T02:32:28.583Z</time>
</trkpt>
<trkpt lat="-27.2629852" lon="153.0184916">
<ele>25.450</ele>
<time>2017-09-13T02:32:30.605Z</time>
</trkpt>
<trkpt lat="-27.2635127" lon="153.0184837">
<ele>25.197</ele>
<time>2017-09-13T02:32:32.649Z</time>
</trkpt>
<trkpt lat="-27.2642750" lon="153.0183923">
<ele>24.713</ele>
<time>2017-09-13T02:32:35.630Z</time>
</trkpt>
<trkpt lat="-27.2650427" lon="153.0183427">
<ele>23.859</ele>
<time>2017-09-13T02:32:38.618Z</time>
</trkpt>
<trkpt lat="-27.2655583" lon="153.0183125">
<ele>22.681</ele>
<time>2017-09-13T02:32:40.617Z</time>
</trkpt>
<trkpt lat="-27.2660746" lon="153.0182921">
<ele>21.408</ele>
<time>2017-09-13T02:32:42.620Z</time>
</trkpt>
<trkpt lat="-27.2668487" lon="153.0182251">
<ele>20.205</ele>
<time>2017-09-13T02:32:45.630Z</time>
</trkpt>
<trkpt lat="-27.2673613" lon="153.0181964">
<ele>19.091</ele>
<time>2017-09-13T02:32:47.621Z</time>
</trkpt>
<trkpt lat="-27.2678712" lon="153.0181492">
<ele>18.040</ele>
<time>2017-09-13T02:32:49.613Z</time>
</trkpt>
<trkpt lat="-27.2686365" lon="153.0180912">
<ele>17.040</ele>
<time>2017-09-13T02:32:52.603Z</time>
</trkpt>
<trkpt lat="-27.2691549" lon="153.0180541">
<ele>16.047</ele>
<time>2017-09-13T02:32:54.621Z</time>
</trkpt>
<trkpt lat="-27.2696708" lon="153.0180350">
<ele>15.027</ele>
<time>2017-09-13T02:32:56.623Z</time>
</trkpt>
<trkpt lat="-27.2701829" lon="153.0179952">
<ele>14.071</ele>
<time>2017-09-13T02:32:58.614Z</time>
</trkpt>
<trkpt lat="-27.2709562" lon="153.0179547">
<ele>13.356</ele>
<time>2017-09-13T02:33:01.622Z</time>
</trkpt>
<trkpt lat="-27.2717196" lon="153.0178822">
<ele>12.858</ele>
<time>2017-09-13T02:33:04.608Z</time>
</trkpt>
<trkpt lat="-27.2722339" lon="153.0178749">
<ele>12.344</ele>
<time>2017-09-13T02:33:06.623Z</time>
</trkpt>
<trkpt lat="-27.2729890" lon="153.0177661">
<ele>11.793</ele>
<time>2017-09-13T02:33:09.606Z</time>
</trkpt>
<trkpt lat="-27.2734998" lon="153.0178004">
<ele>11.492</ele>
<time>2017-09-13T02:33:11.606Z</time>
</trkpt>
<trkpt lat="-27.2742662" lon="153.0178187">
<ele>11.591</ele>
<time>2017-09-13T02:33:14.589Z</time>
</trkpt>
<trkpt lat="-27.2747869" lon="153.0178460">
<ele>11.933</ele>
<time>2017-09-13T02:33:16.610Z</time>
</trkpt>
<trkpt lat="-27.2755440" lon="153.0180174">
<ele>12.254</ele>
<time>2017-09-13T02:33:19.602Z</time>
</trkpt>
<trkpt lat="-27.2762845" lon="153.0182799">
<ele>12.429</ele>
<time>2017-09-13T02:33:22.609Z</time>
</trkpt>
<trkpt lat="-27.2767672" lon="153.0184790">
<ele>12.489</ele>
<time>2017-09-13T02:33:24.599Z</time>
</trkpt>
<trkpt lat="-27.2774883" lon="153.0188046">
<ele>12.470</ele>
<time>2017-09-13T02:33:27.609Z</time>
</trkpt>
<trkpt lat="-27.2782103" lon="153.0190977">
<ele>12.397</ele>
<time>2017-09-13T02:33:30.585Z</time>
</trkpt>
<trkpt lat="-27.2789167" lon="153.0194446">
<ele>12.339</ele>
<time>2017-09-13T02:33:33.575Z</time>
</trkpt>
<trkpt lat="-27.2796508" lon="153.0197136">
<ele>12.343</ele>
<time>2017-09-13T02:33:36.569Z</time>
</trkpt>
<trkpt lat="-27.2803529" lon="153.0200732">
<ele>12.370</ele>
<time>2017-09-13T02:33:39.563Z</time>
</trkpt>
<trkpt lat="-27.2808392" lon="153.0202507">
<ele>12.337</ele>
<time>2017-09-13T02:33:41.552Z</time>
</trkpt>
<trkpt lat="-27.2815959" lon="153.0204069">
<ele>12.195</ele>
<time>2017-09-13T02:33:44.548Z</time>
</trkpt>
<trkpt lat="-27.2821046" lon="153.0205055">
<ele>11.854</ele>
<time>2017-09-13T02:33:46.551Z</time>
</trkpt>
<trkpt lat="-27.2828782" lon="153.0205498">
<ele>11.247</ele>
<time>2017-09-13T02:33:49.540Z</time>
</trkpt>
<trkpt lat="-27.2837171" lon="153.0206455">
<ele>10.539</ele>
<time>2017-09-13T02:33:52.770Z</time>
</trkpt>
<trkpt lat="-27.2842283" lon="153.0206984">
<ele>9.964</ele>
<time>2017-09-13T02:33:54.736Z</time>
</trkpt>
<trkpt lat="-27.2849940" lon="153.0206543">
<ele>9.551</ele>
<time>2017-09-13T02:33:57.694Z</time>
</trkpt>
<trkpt lat="-27.2857607" lon="153.0206199">
<ele>9.172</ele>
<time>2017-09-13T02:34:00.679Z</time>
</trkpt>
<trkpt lat="-27.2862752" lon="153.0206009">
<ele>8.651</ele>
<time>2017-09-13T02:34:02.688Z</time>
</trkpt>
<trkpt lat="-27.2867870" lon="153.0205526">
<ele>8.030</ele>
<time>2017-09-13T02:34:04.701Z</time>
</trkpt>
<trkpt lat="-27.2875468" lon="153.0204359">
<ele>7.579</ele>
<time>2017-09-13T02:34:07.719Z</time>
</trkpt>
<trkpt lat="-27.2880344" lon="153.0203257">
<ele>7.412</ele>
<time>2017-09-13T02:34:09.688Z</time>
</trkpt>
<trkpt lat="-27.2885237" lon="153.0202075">
<ele>7.401</ele>
<time>2017-09-13T02:34:11.672Z</time>
</trkpt>
<trkpt lat="-27.2890157" lon="153.0200869">
<ele>7.332</ele>
<time>2017-09-13T02:34:13.669Z</time>
</trkpt>
<trkpt lat="-27.2894837" lon="153.0198784">
<ele>7.098</ele>
<time>2017-09-13T02:34:15.663Z</time>
</trkpt>
<trkpt lat="-27.2902183" lon="153.0196867">
<ele>6.802</ele>
<time>2017-09-13T02:34:18.649Z</time>
</trkpt>
<trkpt lat="-27.2909409" lon="153.0194397">
<ele>6.379</ele>
<time>2017-09-13T02:34:21.638Z</time>
</trkpt>
<trkpt lat="-27.2916559" lon="153.0191775">
<ele>5.628</ele>
<time>2017-09-13T02:34:24.616Z</time>
</trkpt>
<trkpt lat="-27.2921538" lon="153.0190919">
<ele>4.774</ele>
<time>2017-09-13T02:34:26.613Z</time>
</trkpt>
<trkpt lat="-27.2928737" lon="153.0188411">
<ele>4.238</ele>
<time>2017-09-13T02:34:29.615Z</time>
</trkpt>
<trkpt lat="-27.2933501" lon="153.0186651">
<ele>4.028</ele>
<time>2017-09-13T02:34:31.637Z</time>
</trkpt>
<trkpt lat="-27.2938285" lon="153.0185552">
<ele>3.892</ele>
<time>2017-09-13T02:34:33.631Z</time>
</trkpt>
<trkpt lat="-27.2945128" lon="153.0183053">
<ele>3.728</ele>
<time>2017-09-13T02:34:36.593Z</time>
</trkpt>
<trkpt lat="-27.2949846" lon="153.0181647">
<ele>3.601</ele>
<time>2017-09-13T02:34:38.605Z</time>
</trkpt>
<trkpt lat="-27.2954599" lon="153.0180488">
<ele>3.567</ele>
<time>2017-09-13T02:34:40.591Z</time>
</trkpt>
<trkpt lat="-27.2959348" lon="153.0178882">
<ele>3.605</ele>
<time>2017-09-13T02:34:42.581Z</time>
</trkpt>
<trkpt lat="-27.2966750" lon="153.0177126">
<ele>3.708</ele>
<time>2017-09-13T02:34:45.571Z</time>
</trkpt>
<trkpt lat="-27.2974221" lon="153.0174950">
<ele>3.929</ele>
<time>2017-09-13T02:34:48.582Z</time>
</trkpt>
<trkpt lat="-27.2979059" lon="153.0173094">
<ele>4.380</ele>
<time>2017-09-13T02:34:50.582Z</time>
</trkpt>
<trkpt lat="-27.2986524" lon="153.0171345">
<ele>5.040</ele>
<time>2017-09-13T02:34:53.571Z</time>
</trkpt>
<trkpt lat="-27.2991423" lon="153.0169820">
<ele>5.650</ele>
<time>2017-09-13T02:34:55.560Z</time>
</trkpt>
<trkpt lat="-27.2996380" lon="153.0168365">
<ele>5.982</ele>
<time>2017-09-13T02:34:57.561Z</time>
</trkpt>
<trkpt lat="-27.3003779" lon="153.0166228">
<ele>6.083</ele>
<time>2017-09-13T02:35:00.540Z</time>
</trkpt>
<trkpt lat="-27.3011096" lon="153.0163597">
<ele>6.125</ele>
<time>2017-09-13T02:35:03.533Z</time>
</trkpt>
<trkpt lat="-27.3018733" lon="153.0162393">
<ele>6.331</ele>
<time>2017-09-13T02:35:06.544Z</time>
</trkpt>
<trkpt lat="-27.3023596" lon="153.0160518">
<ele>6.818</ele>
<time>2017-09-13T02:35:08.547Z</time>
</trkpt>
<trkpt lat="-27.3031018" lon="153.0158221">
<ele>7.391</ele>
<time>2017-09-13T02:35:11.543Z</time>
</trkpt>
<trkpt lat="-27.3035760" lon="153.0156022">
<ele>7.724</ele>
<time>2017-09-13T02:35:13.541Z</time>
</trkpt>
<trkpt lat="-27.3042716" lon="153.0152174">
<ele>7.750</ele>
<time>2017-09-13T02:35:16.586Z</time>
</trkpt>
<trkpt lat="-27.3048989" lon="153.0147637">
<ele>7.629</ele>
<time>2017-09-13T02:35:19.570Z</time>
</trkpt>
<trkpt lat="-27.3054937" lon="153.0142793">
<ele>7.462</ele>
<time>2017-09-13T02:35:22.532Z</time>
</trkpt>
<trkpt lat="-27.3060567" lon="153.0137089">
<ele>7.273</ele>
<time>2017-09-13T02:35:25.551Z</time>
</trkpt>
<trkpt lat="-27.3066857" lon="153.0132222">
<ele>7.130</ele>
<time>2017-09-13T02:35:28.562Z</time>
</trkpt>
<trkpt lat="-27.3073521" lon="153.0128144">
<ele>7.120</ele>
<time>2017-09-13T02:35:31.566Z</time>
</trkpt>
<trkpt lat="-27.3078127" lon="153.0126066">
<ele>7.264</ele>
<time>2017-09-13T02:35:33.550Z</time>
</trkpt>
<trkpt lat="-27.3085334" lon="153.0123724">
<ele>7.473</ele>
<time>2017-09-13T02:35:36.561Z</time>
</trkpt>
<trkpt lat="-27.3092668" lon="153.0122750">
<ele>7.618</ele>
<time>2017-09-13T02:35:39.539Z</time>
</trkpt>
<trkpt lat="-27.3099992" lon="153.0121237">
<ele>7.678</ele>
<time>2017-09-13T02:35:42.551Z</time>
</trkpt>
<trkpt lat="-27.3107254" lon="153.0119685">
<ele>7.736</ele>
<time>2017-09-13T02:35:45.551Z</time>
</trkpt>
<trkpt lat="-27.3112133" lon="153.0118856">
<ele>7.839</ele>
<time>2017-09-13T02:35:47.560Z</time>
</trkpt>
<trkpt lat="-27.3119333" lon="153.0117116">
<ele>7.899</ele>
<time>2017-09-13T02:35:50.562Z</time>
</trkpt>
<trkpt lat="-27.3126697" lon="153.0116361">
<ele>7.819</ele>
<time>2017-09-13T02:35:53.584Z</time>
</trkpt>
<trkpt lat="-27.3131546" lon="153.0116357">
<ele>7.615</ele>
<time>2017-09-13T02:35:55.578Z</time>
</trkpt>
<trkpt lat="-27.3138891" lon="153.0116427">
<ele>7.390</ele>
<time>2017-09-13T02:35:58.596Z</time>
</trkpt>
<trkpt lat="-27.3143755" lon="153.0117755">
<ele>7.307</ele>
<time>2017-09-13T02:36:00.644Z</time>
</trkpt>
<trkpt lat="-27.3150779" lon="153.0119612">
<ele>7.442</ele>
<time>2017-09-13T02:36:03.592Z</time>
</trkpt>
<trkpt lat="-27.3155378" lon="153.0121554">
<ele>7.732</ele>
<time>2017-09-13T02:36:05.577Z</time>
</trkpt>
<trkpt lat="-27.3162255" lon="153.0124790">
<ele>8.139</ele>
<time>2017-09-13T02:36:08.563Z</time>
</trkpt>
<trkpt lat="-27.3166967" lon="153.0126670">
<ele>8.615</ele>
<time>2017-09-13T02:36:10.536Z</time>
</trkpt>
<trkpt lat="-27.3171773" lon="153.0128625">
<ele>9.080</ele>
<time>2017-09-13T02:36:12.542Z</time>
</trkpt>
<trkpt lat="-27.3179267" lon="153.0130541">
<ele>9.516</ele>
<time>2017-09-13T02:36:15.565Z</time>
</trkpt>
<trkpt lat="-27.3186951" lon="153.0132149">
<ele>9.928</ele>
<time>2017-09-13T02:36:18.645Z</time>
</trkpt>
<trkpt lat="-27.3192022" lon="153.0132926">
<ele>10.371</ele>
<time>2017-09-13T02:36:20.663Z</time>
</trkpt>
<trkpt lat="-27.3197063" lon="153.0134254">
<ele>10.951</ele>
<time>2017-09-13T02:36:22.693Z</time>
</trkpt>
<trkpt lat="-27.3204679" lon="153.0135438">
<ele>11.774</ele>
<time>2017-09-13T02:36:25.689Z</time>
</trkpt>
<trkpt lat="-27.3209979" lon="153.0135839">
<ele>12.929</ele>
<time>2017-09-13T02:36:27.747Z</time>
</trkpt>
<trkpt lat="-27.3217709" lon="153.0135288">
<ele>14.308</ele>
<time>2017-09-13T02:36:30.747Z</time>
</trkpt>
<trkpt lat="-27.3225330" lon="153.0133758">
<ele>15.677</ele>
<time>2017-09-13T02:36:33.744Z</time>
</trkpt>
<trkpt lat="-27.3230402" lon="153.0133190">
<ele>17.027</ele>
<time>2017-09-13T02:36:35.723Z</time>
</trkpt>
<trkpt lat="-27.3235219" lon="153.0132038">
<ele>18.366</ele>
<time>2017-09-13T02:36:37.635Z</time>
</trkpt>
<trkpt lat="-27.3242798" lon="153.0130481">
<ele>19.440</ele>
<time>2017-09-13T02:36:40.616Z</time>
</trkpt>
<trkpt lat="-27.3247884" lon="153.0129695">
<ele>20.037</ele>
<time>2017-09-13T02:36:42.595Z</time>
</trkpt>
<trkpt lat="-27.3253035" lon="153.0129014">
<ele>20.169</ele>
<time>2017-09-13T02:36:44.599Z</time>
</trkpt>
<trkpt lat="-27.3258093" lon="153.0128111">
<ele>19.880</ele>
<time>2017-09-13T02:36:46.583Z</time>
</trkpt>
<trkpt lat="-27.3265761" lon="153.0126626">
<ele>19.218</ele>
<time>2017-09-13T02:36:49.594Z</time>
</trkpt>
<trkpt lat="-27.3270894" lon="153.0125943">
<ele>18.187</ele>
<time>2017-09-13T02:36:51.597Z</time>
</trkpt>
<trkpt lat="-27.3278528" lon="153.0124617">
<ele>16.887</ele>
<time>2017-09-13T02:36:54.602Z</time>
</trkpt>
<trkpt lat="-27.3283522" lon="153.0123674">
<ele>15.690</ele>
<time>2017-09-13T02:36:56.589Z</time>
</trkpt>
<trkpt lat="-27.3291070" lon="153.0122616">
<ele>14.937</ele>
<time>2017-09-13T02:36:59.635Z</time>
</trkpt>
<trkpt lat="-27.3298143" lon="153.0121411">
<ele>14.495</ele>
<time>2017-09-13T02:37:02.613Z</time>
</trkpt>
<trkpt lat="-27.3302667" lon="153.0120596">
<ele>13.999</ele>
<time>2017-09-13T02:37:04.602Z</time>
</trkpt>
<trkpt lat="-27.3307039" lon="153.0119259">
<ele>13.314</ele>
<time>2017-09-13T02:37:06.639Z</time>
</trkpt>
<trkpt lat="-27.3311287" lon="153.0119246">
<ele>12.634</ele>
<time>2017-09-13T02:37:08.771Z</time>
</trkpt>
<trkpt lat="-27.3316442" lon="153.0117650">
<ele>12.193</ele>
<time>2017-09-13T02:37:11.828Z</time>
</trkpt>
<trkpt lat="-27.3319150" lon="153.0116916">
<ele>11.793</ele>
<time>2017-09-13T02:37:13.836Z</time>
</trkpt>
<trkpt lat="-27.3321480" lon="153.0116749">
<ele>11.052</ele>
<time>2017-09-13T02:37:15.884Z</time>
</trkpt>
<trkpt lat="-27.3323428" lon="153.0116960">
<ele>10.037</ele>
<time>2017-09-13T02:37:17.880Z</time>
</trkpt>
<trkpt lat="-27.3324676" lon="153.0118470">
<ele>9.052</ele>
<time>2017-09-13T02:37:19.792Z</time>
</trkpt>
<trkpt lat="-27.3324573" lon="153.0120866">
<ele>8.235</ele>
<time>2017-09-13T02:37:21.972Z</time>
</trkpt>
<trkpt lat="-27.3324058" lon="153.0124465">
<ele>7.698</ele>
<time>2017-09-13T02:37:25.294Z</time>
</trkpt>
<trkpt lat="-27.3321253" lon="153.0125682">
<ele>7.479</ele>
<time>2017-09-13T02:37:28.506Z</time>
</trkpt>
<trkpt lat="-27.3319423" lon="153.0125501">
<ele>7.533</ele>
<time>2017-09-13T02:37:31.699Z</time>
</trkpt>
<trkpt lat="-27.3318319" lon="153.0125291">
<ele>7.744</ele>
<time>2017-09-13T02:37:34.532Z</time>
</trkpt>
<trkpt lat="-27.3317350" lon="153.0124417">
<ele>7.920</ele>
<time>2017-09-13T02:37:37.529Z</time>
</trkpt>
<trkpt lat="-27.3316383" lon="153.0122254">
<ele>7.947</ele>
<time>2017-09-13T02:37:40.417Z</time>
</trkpt>
<trkpt lat="-27.3315578" lon="153.0119052">
<ele>8.004</ele>
<time>2017-09-13T02:37:42.962Z</time>
</trkpt>
<trkpt lat="-27.3314791" lon="153.0114832">
<ele>8.393</ele>
<time>2017-09-13T02:37:46.042Z</time>
</trkpt>
<trkpt lat="-27.3314721" lon="153.0111911">
<ele>9.223</ele>
<time>2017-09-13T02:37:48.082Z</time>
</trkpt>
<trkpt lat="-27.3313901" lon="153.0109148">
<ele>10.257</ele>
<time>2017-09-13T02:37:50.028Z</time>
</trkpt>
<trkpt lat="-27.3313454" lon="153.0104500">
<ele>11.077</ele>
<time>2017-09-13T02:37:52.945Z</time>
</trkpt>
<trkpt lat="-27.3313270" lon="153.0099179">
<ele>11.441</ele>
<time>2017-09-13T02:37:56.041Z</time>
</trkpt>
<trkpt lat="-27.3312696" lon="153.0093982">
<ele>11.419</ele>
<time>2017-09-13T02:37:59.065Z</time>
</trkpt>
<trkpt lat="-27.3312221" lon="153.0090662">
<ele>11.040</ele>
<time>2017-09-13T02:38:01.050Z</time>
</trkpt>
<trkpt lat="-27.3311459" lon="153.0087377">
<ele>10.317</ele>
<time>2017-09-13T02:38:03.049Z</time>
</trkpt>
<trkpt lat="-27.3310999" lon="153.0084013">
<ele>9.496</ele>
<time>2017-09-13T02:38:05.030Z</time>
</trkpt>
<trkpt lat="-27.3310210" lon="153.0078903">
<ele>8.886</ele>
<time>2017-09-13T02:38:08.018Z</time>
</trkpt>
<trkpt lat="-27.3309570" lon="153.0075385">
<ele>8.486</ele>
<time>2017-09-13T02:38:10.064Z</time>
</trkpt>
<trkpt lat="-27.3308949" lon="153.0070156">
<ele>8.038</ele>
<time>2017-09-13T02:38:13.070Z</time>
</trkpt>
<trkpt lat="-27.3309292" lon="153.0066719">
<ele>7.282</ele>
<time>2017-09-13T02:38:15.027Z</time>
</trkpt>
<trkpt lat="-27.3309797" lon="153.0061549">
<ele>6.256</ele>
<time>2017-09-13T02:38:17.988Z</time>
</trkpt>
<trkpt lat="-27.3310546" lon="153.0058375">
<ele>5.262</ele>
<time>2017-09-13T02:38:20.017Z</time>
</trkpt>
<trkpt lat="-27.3311128" lon="153.0055594">
<ele>4.530</ele>
<time>2017-09-13T02:38:22.167Z</time>
</trkpt>
<trkpt lat="-27.3311716" lon="153.0052392">
<ele>3.955</ele>
<time>2017-09-13T02:38:25.206Z</time>
</trkpt>
<trkpt lat="-27.3312071" lon="153.0050113">
<ele>3.255</ele>
<time>2017-09-13T02:38:28.370Z</time>
</trkpt>
<trkpt lat="-27.3312439" lon="153.0049018">
<ele>2.320</ele>
<time>2017-09-13T02:38:30.906Z</time>
</trkpt>
<trkpt lat="-27.3312646" lon="153.0048004">
<ele>1.361</ele>
<time>2017-09-13T02:38:33.517Z</time>
</trkpt>
<trkpt lat="-27.3312732" lon="153.0046746">
<ele>0.625</ele>
<time>2017-09-13T02:38:36.787Z</time>
</trkpt>
<trkpt lat="-27.3312998" lon="153.0045565">
<ele>0.195</ele>
<time>2017-09-13T02:38:39.999Z</time>
</trkpt>
<trkpt lat="-27.3312998" lon="153.0045565">
<ele>0.029</ele>
<time>2017-09-13T02:38:44.999Z</time>
</trkpt>
<trkpt lat="-27.3312998" lon="153.0045565">
<ele>0.012</ele>
<time>2017-09-13T02:38:46.200Z</time>
</trkpt>
<trkpt lat="-27.3313520" lon="153.0043566">
<ele>0.049</ele>
<time>2017-09-13T02:38:51.616Z</time>
</trkpt>
<trkpt lat="-27.3313594" lon="153.0041934">
<ele>0.116</ele>
<time>2017-09-13T02:38:53.784Z</time>
</trkpt>
<trkpt lat="-27.3313815" lon="153.0039355">
<ele>0.191</ele>
<time>2017-09-13T02:38:56.796Z</time>
</trkpt>
<trkpt lat="-27.3313902" lon="153.0037238">
<ele>0.269</ele>
<time>2017-09-13T02:38:58.840Z</time>
</trkpt>
<trkpt lat="-27.3313797" lon="153.0034890">
<ele>0.364</ele>
<time>2017-09-13T02:39:00.760Z</time>
</trkpt>
<trkpt lat="-27.3312687" lon="153.0030773">
<ele>0.456</ele>
<time>2017-09-13T02:39:03.933Z</time>
</trkpt>
<trkpt lat="-27.3311735" lon="153.0026097">
<ele>0.551</ele>
<time>2017-09-13T02:39:07.227Z</time>
</trkpt>
<trkpt lat="-27.3311235" lon="153.0023150">
<ele>0.685</ele>
<time>2017-09-13T02:39:09.274Z</time>
</trkpt>
<trkpt lat="-27.3310756" lon="153.0020395">
<ele>0.834</ele>
<time>2017-09-13T02:39:11.155Z</time>
</trkpt>
<trkpt lat="-27.3310045" lon="153.0015895">
<ele>0.902</ele>
<time>2017-09-13T02:39:14.122Z</time>
</trkpt>
<trkpt lat="-27.3309324" lon="153.0011150">
<ele>0.830</ele>
<time>2017-09-13T02:39:17.156Z</time>
</trkpt>
<trkpt lat="-27.3308628" lon="153.0008083">
<ele>0.657</ele>
<time>2017-09-13T02:39:19.138Z</time>
</trkpt>
<trkpt lat="-27.3308215" lon="153.0004998">
<ele>0.476</ele>
<time>2017-09-13T02:39:21.092Z</time>
</trkpt>
<trkpt lat="-27.3307846" lon="153.0001822">
<ele>0.362</ele>
<time>2017-09-13T02:39:23.002Z</time>
</trkpt>
<trkpt lat="-27.3306852" lon="152.9996663">
<ele>0.353</ele>
<time>2017-09-13T02:39:26.016Z</time>
</trkpt>
<trkpt lat="-27.3306149" lon="152.9993074">
<ele>0.476</ele>
<time>2017-09-13T02:39:28.073Z</time>
</trkpt>
<trkpt lat="-27.3305181" lon="152.9987970">
<ele>0.714</ele>
<time>2017-09-13T02:39:31.045Z</time>
</trkpt>
<trkpt lat="-27.3304231" lon="152.9982869">
<ele>0.984</ele>
<time>2017-09-13T02:39:33.988Z</time>
</trkpt>
<trkpt lat="-27.3303927" lon="152.9979185">
<ele>1.285</ele>
<time>2017-09-13T02:39:35.988Z</time>
</trkpt>
<trkpt lat="-27.3303326" lon="152.9975480">
<ele>1.659</ele>
<time>2017-09-13T02:39:38.011Z</time>
</trkpt>
<trkpt lat="-27.3302600" lon="152.9971897">
<ele>2.037</ele>
<time>2017-09-13T02:39:39.984Z</time>
</trkpt>
<trkpt lat="-27.3301576" lon="152.9966398">
<ele>2.349</ele>
<time>2017-09-13T02:39:42.984Z</time>
</trkpt>
<trkpt lat="-27.3300931" lon="152.9962708">
<ele>2.584</ele>
<time>2017-09-13T02:39:44.967Z</time>
</trkpt>
<trkpt lat="-27.3299965" lon="152.9959026">
<ele>2.752</ele>
<time>2017-09-13T02:39:46.979Z</time>
</trkpt>
<trkpt lat="-27.3298265" lon="152.9953645">
<ele>2.972</ele>
<time>2017-09-13T02:39:49.947Z</time>
</trkpt>
<trkpt lat="-27.3296516" lon="152.9948104">
<ele>3.382</ele>
<time>2017-09-13T02:39:52.958Z</time>
</trkpt>
<trkpt lat="-27.3294098" lon="152.9942841">
<ele>3.931</ele>
<time>2017-09-13T02:39:55.979Z</time>
</trkpt>
<trkpt lat="-27.3292408" lon="152.9939477">
<ele>4.445</ele>
<time>2017-09-13T02:39:57.966Z</time>
</trkpt>
<trkpt lat="-27.3290717" lon="152.9936112">
<ele>4.825</ele>
<time>2017-09-13T02:39:59.932Z</time>
</trkpt>
<trkpt lat="-27.3288079" lon="152.9931016">
<ele>5.092</ele>
<time>2017-09-13T02:40:02.894Z</time>
</trkpt>
<trkpt lat="-27.3286564" lon="152.9927389">
<ele>5.351</ele>
<time>2017-09-13T02:40:04.911Z</time>
</trkpt>
<trkpt lat="-27.3284329" lon="152.9922124">
<ele>5.713</ele>
<time>2017-09-13T02:40:07.908Z</time>
</trkpt>
<trkpt lat="-27.3282367" lon="152.9917100">
<ele>6.190</ele>
<time>2017-09-13T02:40:10.789Z</time>
</trkpt>
<trkpt lat="-27.3281475" lon="152.9913405">
<ele>6.689</ele>
<time>2017-09-13T02:40:12.811Z</time>
</trkpt>
<trkpt lat="-27.3280270" lon="152.9907889">
<ele>7.095</ele>
<time>2017-09-13T02:40:15.810Z</time>
</trkpt>
<trkpt lat="-27.3280123" lon="152.9904142">
<ele>7.402</ele>
<time>2017-09-13T02:40:17.785Z</time>
</trkpt>
<trkpt lat="-27.3279556" lon="152.9898496">
<ele>7.649</ele>
<time>2017-09-13T02:40:20.810Z</time>
</trkpt>
<trkpt lat="-27.3279164" lon="152.9893138">
<ele>7.707</ele>
<time>2017-09-13T02:40:23.745Z</time>
</trkpt>
<trkpt lat="-27.3278808" lon="152.9889683">
<ele>7.356</ele>
<time>2017-09-13T02:40:25.704Z</time>
</trkpt>
<trkpt lat="-27.3278252" lon="152.9886395">
<ele>6.661</ele>
<time>2017-09-13T02:40:27.703Z</time>
</trkpt>
<trkpt lat="-27.3278177" lon="152.9883372">
<ele>5.908</ele>
<time>2017-09-13T02:40:29.685Z</time>
</trkpt>
<trkpt lat="-27.3277921" lon="152.9880667">
<ele>5.219</ele>
<time>2017-09-13T02:40:31.563Z</time>
</trkpt>
<trkpt lat="-27.3277338" lon="152.9876422">
<ele>4.586</ele>
<time>2017-09-13T02:40:34.553Z</time>
</trkpt>
<trkpt lat="-27.3276908" lon="152.9873703">
<ele>4.110</ele>
<time>2017-09-13T02:40:36.560Z</time>
</trkpt>
<trkpt lat="-27.3276736" lon="152.9869887">
<ele>3.881</ele>
<time>2017-09-13T02:40:39.462Z</time>
</trkpt>
<trkpt lat="-27.3276063" lon="152.9866477">
<ele>3.869</ele>
<time>2017-09-13T02:40:42.028Z</time>
</trkpt>
<trkpt lat="-27.3275591" lon="152.9861352">
<ele>4.058</ele>
<time>2017-09-13T02:40:45.197Z</time>
</trkpt>
<trkpt lat="-27.3274875" lon="152.9857269">
<ele>4.649</ele>
<time>2017-09-13T02:40:47.321Z</time>
</trkpt>
<trkpt lat="-27.3274237" lon="152.9853321">
<ele>5.699</ele>
<time>2017-09-13T02:40:49.310Z</time>
</trkpt>
<trkpt lat="-27.3273314" lon="152.9847503">
<ele>6.830</ele>
<time>2017-09-13T02:40:52.265Z</time>
</trkpt>
<trkpt lat="-27.3272799" lon="152.9843674">
<ele>7.659</ele>
<time>2017-09-13T02:40:54.224Z</time>
</trkpt>
<trkpt lat="-27.3271875" lon="152.9837808">
<ele>8.190</ele>
<time>2017-09-13T02:40:57.235Z</time>
</trkpt>
<trkpt lat="-27.3271234" lon="152.9833913">
<ele>8.535</ele>
<time>2017-09-13T02:40:59.231Z</time>
</trkpt>
<trkpt lat="-27.3270462" lon="152.9830017">
<ele>8.709</ele>
<time>2017-09-13T02:41:01.240Z</time>
</trkpt>
<trkpt lat="-27.3270208" lon="152.9826059">
<ele>8.725</ele>
<time>2017-09-13T02:41:03.238Z</time>
</trkpt>
<trkpt lat="-27.3269452" lon="152.9822162">
<ele>8.680</ele>
<time>2017-09-13T02:41:05.244Z</time>
</trkpt>
<trkpt lat="-27.3268811" lon="152.9818237">
<ele>8.659</ele>
<time>2017-09-13T02:41:07.255Z</time>
</trkpt>
<trkpt lat="-27.3268026" lon="152.9812479">
<ele>8.704</ele>
<time>2017-09-13T02:41:10.276Z</time>
</trkpt>
<trkpt lat="-27.3267415" lon="152.9809096">
<ele>8.789</ele>
<time>2017-09-13T02:41:12.304Z</time>
</trkpt>
<trkpt lat="-27.3267434" lon="152.9806412">
<ele>8.830</ele>
<time>2017-09-13T02:41:14.124Z</time>
</trkpt>
<trkpt lat="-27.3267296" lon="152.9802721">
<ele>8.704</ele>
<time>2017-09-13T02:41:16.870Z</time>
</trkpt>
<trkpt lat="-27.3266941" lon="152.9800446">
<ele>8.288</ele>
<time>2017-09-13T02:41:18.910Z</time>
</trkpt>
<trkpt lat="-27.3266699" lon="152.9798419">
<ele>7.596</ele>
<time>2017-09-13T02:41:20.999Z</time>
</trkpt>
<trkpt lat="-27.3266699" lon="152.9798419">
<ele>6.888</ele>
<time>2017-09-13T02:41:24.999Z</time>
</trkpt>
<trkpt lat="-27.3266699" lon="152.9798419">
<ele>6.513</ele>
<time>2017-09-13T02:41:29.172Z</time>
</trkpt>
<trkpt lat="-27.3266304" lon="152.9796056">
<ele>6.542</ele>
<time>2017-09-13T02:41:34.306Z</time>
</trkpt>
<trkpt lat="-27.3265963" lon="152.9793481">
<ele>6.602</ele>
<time>2017-09-13T02:41:36.486Z</time>
</trkpt>
<trkpt lat="-27.3265236" lon="152.9790485">
<ele>6.399</ele>
<time>2017-09-13T02:41:38.362Z</time>
</trkpt>
<trkpt lat="-27.3265050" lon="152.9784258">
<ele>6.283</ele>
<time>2017-09-13T02:41:41.537Z</time>
</trkpt>
<trkpt lat="-27.3263415" lon="152.9777604">
<ele>6.991</ele>
<time>2017-09-13T02:41:44.770Z</time>
</trkpt>
<trkpt lat="-27.3262268" lon="152.9771710">
<ele>8.622</ele>
<time>2017-09-13T02:41:47.721Z</time>
</trkpt>
<trkpt lat="-27.3261497" lon="152.9765973">
<ele>10.326</ele>
<time>2017-09-13T02:41:50.659Z</time>
</trkpt>
<trkpt lat="-27.3260703" lon="152.9760091">
<ele>11.307</ele>
<time>2017-09-13T02:41:53.674Z</time>
</trkpt>
<trkpt lat="-27.3260155" lon="152.9756149">
<ele>11.572</ele>
<time>2017-09-13T02:41:55.676Z</time>
</trkpt>
<trkpt lat="-27.3259575" lon="152.9752295">
<ele>11.525</ele>
<time>2017-09-13T02:41:57.643Z</time>
</trkpt>
<trkpt lat="-27.3258600" lon="152.9746534">
<ele>11.478</ele>
<time>2017-09-13T02:42:00.603Z</time>
</trkpt>
<trkpt lat="-27.3258127" lon="152.9740641">
<ele>11.494</ele>
<time>2017-09-13T02:42:03.594Z</time>
</trkpt>
<trkpt lat="-27.3257399" lon="152.9736775">
<ele>11.503</ele>
<time>2017-09-13T02:42:05.589Z</time>
</trkpt>
<trkpt lat="-27.3256394" lon="152.9730965">
<ele>11.454</ele>
<time>2017-09-13T02:42:08.574Z</time>
</trkpt>
<trkpt lat="-27.3256001" lon="152.9726991">
<ele>11.364</ele>
<time>2017-09-13T02:42:10.583Z</time>
</trkpt>
<trkpt lat="-27.3255776" lon="152.9721024">
<ele>11.310</ele>
<time>2017-09-13T02:42:13.523Z</time>
</trkpt>
<trkpt lat="-27.3254926" lon="152.9714606">
<ele>11.360</ele>
<time>2017-09-13T02:42:16.540Z</time>
</trkpt>
<trkpt lat="-27.3254118" lon="152.9710001">
<ele>11.665</ele>
<time>2017-09-13T02:42:18.572Z</time>
</trkpt>
<trkpt lat="-27.3253133" lon="152.9703107">
<ele>12.293</ele>
<time>2017-09-13T02:42:21.568Z</time>
</trkpt>
<trkpt lat="-27.3252235" lon="152.9696267">
<ele>13.025</ele>
<time>2017-09-13T02:42:24.551Z</time>
</trkpt>
<trkpt lat="-27.3251450" lon="152.9689407">
<ele>13.572</ele>
<time>2017-09-13T02:42:27.555Z</time>
</trkpt>
<trkpt lat="-27.3250823" lon="152.9684873">
<ele>13.839</ele>
<time>2017-09-13T02:42:29.546Z</time>
</trkpt>
<trkpt lat="-27.3249940" lon="152.9678022">
<ele>13.893</ele>
<time>2017-09-13T02:42:32.542Z</time>
</trkpt>
<trkpt lat="-27.3248880" lon="152.9671158">
<ele>13.912</ele>
<time>2017-09-13T02:42:35.550Z</time>
</trkpt>
<trkpt lat="-27.3248022" lon="152.9666671">
<ele>14.041</ele>
<time>2017-09-13T02:42:37.532Z</time>
</trkpt>
<trkpt lat="-27.3247182" lon="152.9659816">
<ele>14.279</ele>
<time>2017-09-13T02:42:40.540Z</time>
</trkpt>
<trkpt lat="-27.3246177" lon="152.9653218">
<ele>14.648</ele>
<time>2017-09-13T02:42:43.487Z</time>
</trkpt>
<trkpt lat="-27.3246148" lon="152.9648698">
<ele>15.500</ele>
<time>2017-09-13T02:42:45.485Z</time>
</trkpt>
<trkpt lat="-27.3245310" lon="152.9641920">
<ele>17.261</ele>
<time>2017-09-13T02:42:48.498Z</time>
</trkpt>
<trkpt lat="-27.3246562" lon="152.9637497">
<ele>19.481</ele>
<time>2017-09-13T02:42:50.530Z</time>
</trkpt>
<trkpt lat="-27.3249208" lon="152.9634014">
<ele>20.617</ele>
<time>2017-09-13T02:42:52.531Z</time>
</trkpt>
<trkpt lat="-27.3252117" lon="152.9630703">
<ele>20.002</ele>
<time>2017-09-13T02:42:54.559Z</time>
</trkpt>
<trkpt lat="-27.3257898" lon="152.9627234">
<ele>19.309</ele>
<time>2017-09-13T02:42:57.801Z</time>
</trkpt>
<trkpt lat="-27.3262131" lon="152.9626862">
<ele>20.368</ele>
<time>2017-09-13T02:42:59.992Z</time>
</trkpt>
<trkpt lat="-27.3267737" lon="152.9625718">
<ele>22.632</ele>
<time>2017-09-13T02:43:02.941Z</time>
</trkpt>
<trkpt lat="-27.3273269" lon="152.9625015">
<ele>24.259</ele>
<time>2017-09-13T02:43:05.773Z</time>
</trkpt>
<trkpt lat="-27.3277074" lon="152.9623746">
<ele>24.208</ele>
<time>2017-09-13T02:43:07.748Z</time>
</trkpt>
<trkpt lat="-27.3283119" lon="152.9622845">
<ele>22.687</ele>
<time>2017-09-13T02:43:10.790Z</time>
</trkpt>
<trkpt lat="-27.3288874" lon="152.9621516">
<ele>20.293</ele>
<time>2017-09-13T02:43:13.738Z</time>
</trkpt>
<trkpt lat="-27.3294669" lon="152.9620327">
<ele>17.523</ele>
<time>2017-09-13T02:43:16.760Z</time>
</trkpt>
<trkpt lat="-27.3298208" lon="152.9619730">
<ele>15.122</ele>
<time>2017-09-13T02:43:18.702Z</time>
</trkpt>
<trkpt lat="-27.3301727" lon="152.9619027">
<ele>13.761</ele>
<time>2017-09-13T02:43:20.637Z</time>
</trkpt>
<trkpt lat="-27.3305393" lon="152.9618332">
<ele>13.290</ele>
<time>2017-09-13T02:43:22.562Z</time>
</trkpt>
<trkpt lat="-27.3311331" lon="152.9617306">
<ele>13.143</ele>
<time>2017-09-13T02:43:25.574Z</time>
</trkpt>
<trkpt lat="-27.3317475" lon="152.9616295">
<ele>12.994</ele>
<time>2017-09-13T02:43:28.617Z</time>
</trkpt>
<trkpt lat="-27.3323562" lon="152.9615354">
<ele>12.583</ele>
<time>2017-09-13T02:43:31.626Z</time>
</trkpt>
<trkpt lat="-27.3327664" lon="152.9614855">
<ele>11.657</ele>
<time>2017-09-13T02:43:33.660Z</time>
</trkpt>
<trkpt lat="-27.3331590" lon="152.9614421">
<ele>10.479</ele>
<time>2017-09-13T02:43:35.653Z</time>
</trkpt>
<trkpt lat="-27.3337298" lon="152.9613802">
<ele>9.710</ele>
<time>2017-09-13T02:43:38.623Z</time>
</trkpt>
<trkpt lat="-27.3342778" lon="152.9613081">
<ele>9.809</ele>
<time>2017-09-13T02:43:41.630Z</time>
</trkpt>
<trkpt lat="-27.3347735" lon="152.9612251">
<ele>10.899</ele>
<time>2017-09-13T02:43:44.515Z</time>
</trkpt>
<trkpt lat="-27.3352870" lon="152.9611141">
<ele>12.730</ele>
<time>2017-09-13T02:43:47.610Z</time>
</trkpt>
<trkpt lat="-27.3355848" lon="152.9610582">
<ele>14.592</ele>
<time>2017-09-13T02:43:49.898Z</time>
</trkpt>
<trkpt lat="-27.3358349" lon="152.9609785">
<ele>15.763</ele>
<time>2017-09-13T02:43:53.258Z</time>
</trkpt>
<trkpt lat="-27.3359339" lon="152.9609728">
<ele>15.831</ele>
<time>2017-09-13T02:43:55.178Z</time>
</trkpt>
<trkpt lat="-27.3360298" lon="152.9609423">
<ele>14.666</ele>
<time>2017-09-13T02:43:59.109Z</time>
</trkpt>
<trkpt lat="-27.3361768" lon="152.9609184">
<ele>12.690</ele>
<time>2017-09-13T02:44:01.883Z</time>
</trkpt>
<trkpt lat="-27.3364811" lon="152.9608411">
<ele>10.875</ele>
<time>2017-09-13T02:44:05.636Z</time>
</trkpt>
<trkpt lat="-27.3367504" lon="152.9607627">
<ele>9.860</ele>
<time>2017-09-13T02:44:08.520Z</time>
</trkpt>
<trkpt lat="-27.3370154" lon="152.9607335">
<ele>9.594</ele>
<time>2017-09-13T02:44:11.344Z</time>
</trkpt>
<trkpt lat="-27.3371746" lon="152.9607840">
<ele>9.710</ele>
<time>2017-09-13T02:44:13.445Z</time>
</trkpt>
<trkpt lat="-27.3373445" lon="152.9607254">
<ele>9.883</ele>
<time>2017-09-13T02:44:16.291Z</time>
</trkpt>
<trkpt lat="-27.3374386" lon="152.9606897">
<ele>9.934</ele>
<time>2017-09-13T02:44:18.454Z</time>
</trkpt>
<trkpt lat="-27.3375342" lon="152.9606824">
<ele>9.846</ele>
<time>2017-09-13T02:44:21.261Z</time>
</trkpt>
<trkpt lat="-27.3377329" lon="152.9606598">
<ele>9.724</ele>
<time>2017-09-13T02:44:25.333Z</time>
</trkpt>
<trkpt lat="-27.3379292" lon="152.9606127">
<ele>9.742</ele>
<time>2017-09-13T02:44:27.629Z</time>
</trkpt>
<trkpt lat="-27.3382640" lon="152.9605883">
<ele>10.036</ele>
<time>2017-09-13T02:44:30.719Z</time>
</trkpt>
<trkpt lat="-27.3386636" lon="152.9606499">
<ele>10.691</ele>
<time>2017-09-13T02:44:33.890Z</time>
</trkpt>
<trkpt lat="-27.3391280" lon="152.9607661">
<ele>11.565</ele>
<time>2017-09-13T02:44:37.211Z</time>
</trkpt>
<trkpt lat="-27.3394225" lon="152.9608536">
<ele>12.275</ele>
<time>2017-09-13T02:44:39.284Z</time>
</trkpt>
<trkpt lat="-27.3397022" lon="152.9609216">
<ele>12.540</ele>
<time>2017-09-13T02:44:41.268Z</time>
</trkpt>
<trkpt lat="-27.3399690" lon="152.9610010">
<ele>12.384</ele>
<time>2017-09-13T02:44:43.160Z</time>
</trkpt>
<trkpt lat="-27.3402752" lon="152.9610706">
<ele>11.955</ele>
<time>2017-09-13T02:44:45.178Z</time>
</trkpt>
<trkpt lat="-27.3408258" lon="152.9611549">
<ele>11.363</ele>
<time>2017-09-13T02:44:48.558Z</time>
</trkpt>
<trkpt lat="-27.3411897" lon="152.9611383">
<ele>10.438</ele>
<time>2017-09-13T02:44:50.712Z</time>
</trkpt>
<trkpt lat="-27.3417093" lon="152.9611983">
<ele>8.991</ele>
<time>2017-09-13T02:44:53.819Z</time>
</trkpt>
<trkpt lat="-27.3420378" lon="152.9612419">
<ele>7.103</ele>
<time>2017-09-13T02:44:55.781Z</time>
</trkpt>
<trkpt lat="-27.3423714" lon="152.9612912">
<ele>5.081</ele>
<time>2017-09-13T02:44:57.761Z</time>
</trkpt>
<trkpt lat="-27.3427143" lon="152.9612902">
<ele>3.331</ele>
<time>2017-09-13T02:44:59.777Z</time>
</trkpt>
<trkpt lat="-27.3430306" lon="152.9613828">
<ele>2.086</ele>
<time>2017-09-13T02:45:01.758Z</time>
</trkpt>
<trkpt lat="-27.3434903" lon="152.9614464">
<ele>1.261</ele>
<time>2017-09-13T02:45:04.698Z</time>
</trkpt>
<trkpt lat="-27.3437343" lon="152.9616152">
<ele>0.774</ele>
<time>2017-09-13T02:45:06.547Z</time>
</trkpt>
<trkpt lat="-27.3442026" lon="152.9617955">
<ele>0.640</ele>
<time>2017-09-13T02:45:09.506Z</time>
</trkpt>
<trkpt lat="-27.3445298" lon="152.9620489">
<ele>1.209</ele>
<time>2017-09-13T02:45:11.763Z</time>
</trkpt>
<trkpt lat="-27.3448946" lon="152.9623560">
<ele>2.724</ele>
<time>2017-09-13T02:45:14.685Z</time>
</trkpt>
<trkpt lat="-27.3451657" lon="152.9626256">
<ele>4.632</ele>
<time>2017-09-13T02:45:17.495Z</time>
</trkpt>
<trkpt lat="-27.3452942" lon="152.9628004">
<ele>6.114</ele>
<time>2017-09-13T02:45:19.484Z</time>
</trkpt>
<trkpt lat="-27.3454517" lon="152.9630051">
<ele>6.897</ele>
<time>2017-09-13T02:45:22.296Z</time>
</trkpt>
<trkpt lat="-27.3455410" lon="152.9630855">
<ele>7.094</ele>
<time>2017-09-13T02:45:24.195Z</time>
</trkpt>
<trkpt lat="-27.3455823" lon="152.9631810">
<ele>6.971</ele>
<time>2017-09-13T02:45:25.993Z</time>
</trkpt>
<trkpt lat="-27.3455823" lon="152.9631810">
<ele>6.790</ele>
<time>2017-09-13T02:45:29.993Z</time>
</trkpt>
<trkpt lat="-27.3455823" lon="152.9631810">
<ele>6.698</ele>
<time>2017-09-13T02:46:23.594Z</time>
</trkpt>
<trkpt lat="-27.3456942" lon="152.9632683">
<ele>6.704</ele>
<time>2017-09-13T02:46:28.373Z</time>
</trkpt>
<trkpt lat="-27.3458146" lon="152.9632325">
<ele>6.696</ele>
<time>2017-09-13T02:46:30.214Z</time>
</trkpt>
<trkpt lat="-27.3460469" lon="152.9630390">
<ele>6.593</ele>
<time>2017-09-13T02:46:33.445Z</time>
</trkpt>
<trkpt lat="-27.3462106" lon="152.9628512">
<ele>6.613</ele>
<time>2017-09-13T02:46:35.534Z</time>
</trkpt>
<trkpt lat="-27.3463927" lon="152.9626871">
<ele>7.094</ele>
<time>2017-09-13T02:46:37.501Z</time>
</trkpt>
<trkpt lat="-27.3465924" lon="152.9625251">
<ele>8.024</ele>
<time>2017-09-13T02:46:39.495Z</time>
</trkpt>
<trkpt lat="-27.3467893" lon="152.9623445">
<ele>9.101</ele>
<time>2017-09-13T02:46:41.523Z</time>
</trkpt>
<trkpt lat="-27.3469813" lon="152.9621722">
<ele>10.075</ele>
<time>2017-09-13T02:46:43.527Z</time>
</trkpt>
<trkpt lat="-27.3472361" lon="152.9618949">
<ele>10.779</ele>
<time>2017-09-13T02:46:46.477Z</time>
</trkpt>
<trkpt lat="-27.3474131" lon="152.9617199">
<ele>11.064</ele>
<time>2017-09-13T02:46:48.463Z</time>
</trkpt>
<trkpt lat="-27.3476042" lon="152.9615578">
<ele>10.853</ele>
<time>2017-09-13T02:46:50.485Z</time>
</trkpt>
<trkpt lat="-27.3477317" lon="152.9613457">
<ele>10.236</ele>
<time>2017-09-13T02:46:52.422Z</time>
</trkpt>
<trkpt lat="-27.3479383" lon="152.9610330">
<ele>9.467</ele>
<time>2017-09-13T02:46:55.391Z</time>
</trkpt>
<trkpt lat="-27.3480515" lon="152.9608029">
<ele>8.680</ele>
<time>2017-09-13T02:46:57.429Z</time>
</trkpt>
<trkpt lat="-27.3480349" lon="152.9604047">
<ele>7.848</ele>
<time>2017-09-13T02:47:00.572Z</time>
</trkpt>
<trkpt lat="-27.3480772" lon="152.9601563">
<ele>6.867</ele>
<time>2017-09-13T02:47:02.576Z</time>
</trkpt>
<trkpt lat="-27.3480696" lon="152.9598988">
<ele>5.555</ele>
<time>2017-09-13T02:47:04.535Z</time>
</trkpt>
<trkpt lat="-27.3479447" lon="152.9594974">
<ele>3.912</ele>
<time>2017-09-13T02:47:07.616Z</time>
</trkpt>
<trkpt lat="-27.3479306" lon="152.9591965">
<ele>2.183</ele>
<time>2017-09-13T02:47:09.689Z</time>
</trkpt>
<trkpt lat="-27.3479015" lon="152.9589146">
<ele>0.673</ele>
<time>2017-09-13T02:47:11.669Z</time>
</trkpt>
<trkpt lat="-27.3478473" lon="152.9586371">
<ele>0.000</ele>
<time>2017-09-13T02:47:13.690Z</time>
</trkpt>
<trkpt lat="-27.3477672" lon="152.9582258">
<ele>0.000</ele>
<time>2017-09-13T02:47:16.688Z</time>
</trkpt>
<trkpt lat="-27.3477398" lon="152.9579434">
<ele>0.000</ele>
<time>2017-09-13T02:47:18.686Z</time>
</trkpt>
<trkpt lat="-27.3477772" lon="152.9575153">
<ele>0.770</ele>
<time>2017-09-13T02:47:21.754Z</time>
</trkpt>
<trkpt lat="-27.3479277" lon="152.9571497">
<ele>2.517</ele>
<time>2017-09-13T02:47:24.752Z</time>
</trkpt>
<trkpt lat="-27.3480973" lon="152.9568162">
<ele>4.841</ele>
<time>2017-09-13T02:47:27.726Z</time>
</trkpt>
<trkpt lat="-27.3482447" lon="152.9566308">
<ele>7.365</ele>
<time>2017-09-13T02:47:29.742Z</time>
</trkpt>
<trkpt lat="-27.3483912" lon="152.9564786">
<ele>9.603</ele>
<time>2017-09-13T02:47:31.718Z</time>
</trkpt>
<trkpt lat="-27.3485839" lon="152.9562559">
<ele>11.255</ele>
<time>2017-09-13T02:47:34.585Z</time>
</trkpt>
<trkpt lat="-27.3487872" lon="152.9560391">
<ele>12.219</ele>
<time>2017-09-13T02:47:37.519Z</time>
</trkpt>
<trkpt lat="-27.3489988" lon="152.9558016">
<ele>12.570</ele>
<time>2017-09-13T02:47:40.613Z</time>
</trkpt>
<trkpt lat="-27.3492417" lon="152.9556490">
<ele>12.439</ele>
<time>2017-09-13T02:47:43.571Z</time>
</trkpt>
<trkpt lat="-27.3494919" lon="152.9555256">
<ele>11.880</ele>
<time>2017-09-13T02:47:46.492Z</time>
</trkpt>
<trkpt lat="-27.3496752" lon="152.9554522">
<ele>10.893</ele>
<time>2017-09-13T02:47:48.495Z</time>
</trkpt>
<trkpt lat="-27.3499519" lon="152.9553407">
<ele>9.638</ele>
<time>2017-09-13T02:47:51.469Z</time>
</trkpt>
<trkpt lat="-27.3501551" lon="152.9552878">
<ele>8.524</ele>
<time>2017-09-13T02:47:53.434Z</time>
</trkpt>
<trkpt lat="-27.3503799" lon="152.9552066">
<ele>7.912</ele>
<time>2017-09-13T02:47:55.449Z</time>
</trkpt>
<trkpt lat="-27.3507287" lon="152.9550534">
<ele>7.886</ele>
<time>2017-09-13T02:47:58.521Z</time>
</trkpt>
<trkpt lat="-27.3510751" lon="152.9549346">
<ele>8.512</ele>
<time>2017-09-13T02:48:01.528Z</time>
</trkpt>
<trkpt lat="-27.3512841" lon="152.9548469">
<ele>9.903</ele>
<time>2017-09-13T02:48:03.498Z</time>
</trkpt>
<trkpt lat="-27.3515873" lon="152.9547270">
<ele>11.777</ele>
<time>2017-09-13T02:48:06.412Z</time>
</trkpt>
<trkpt lat="-27.3518972" lon="152.9546264">
<ele>13.393</ele>
<time>2017-09-13T02:48:09.372Z</time>
</trkpt>
<trkpt lat="-27.3521049" lon="152.9545364">
<ele>14.203</ele>
<time>2017-09-13T02:48:11.444Z</time>
</trkpt>
<trkpt lat="-27.3522950" lon="152.9544459">
<ele>14.226</ele>
<time>2017-09-13T02:48:13.527Z</time>
</trkpt>
<trkpt lat="-27.3525451" lon="152.9543537">
<ele>13.750</ele>
<time>2017-09-13T02:48:16.401Z</time>
</trkpt>
<trkpt lat="-27.3527074" lon="152.9543228">
<ele>13.047</ele>
<time>2017-09-13T02:48:18.295Z</time>
</trkpt>
<trkpt lat="-27.3529794" lon="152.9542814">
<ele>12.381</ele>
<time>2017-09-13T02:48:21.154Z</time>
</trkpt>
<trkpt lat="-27.3533559" lon="152.9543270">
<ele>12.074</ele>
<time>2017-09-13T02:48:24.344Z</time>
</trkpt>
<trkpt lat="-27.3536137" lon="152.9544167">
<ele>12.642</ele>
<time>2017-09-13T02:48:26.378Z</time>
</trkpt>
<trkpt lat="-27.3538542" lon="152.9545330">
<ele>14.338</ele>
<time>2017-09-13T02:48:28.396Z</time>
</trkpt>
<trkpt lat="-27.3541802" lon="152.9547369">
<ele>16.605</ele>
<time>2017-09-13T02:48:31.341Z</time>
</trkpt>
<trkpt lat="-27.3543546" lon="152.9549268">
<ele>18.550</ele>
<time>2017-09-13T02:48:33.364Z</time>
</trkpt>
<trkpt lat="-27.3544913" lon="152.9551055">
<ele>19.747</ele>
<time>2017-09-13T02:48:35.279Z</time>
</trkpt>
<trkpt lat="-27.3546458" lon="152.9553864">
<ele>20.246</ele>
<time>2017-09-13T02:48:38.097Z</time>
</trkpt>
<trkpt lat="-27.3547788" lon="152.9556980">
<ele>20.300</ele>
<time>2017-09-13T02:48:41.036Z</time>
</trkpt>
<trkpt lat="-27.3548413" lon="152.9559443">
<ele>19.979</ele>
<time>2017-09-13T02:48:43.089Z</time>
</trkpt>
<trkpt lat="-27.3548689" lon="152.9562010">
<ele>19.121</ele>
<time>2017-09-13T02:48:45.135Z</time>
</trkpt>
<trkpt lat="-27.3549014" lon="152.9565577">
<ele>17.601</ele>
<time>2017-09-13T02:48:48.044Z</time>
</trkpt>
<trkpt lat="-27.3549002" lon="152.9567815">
<ele>15.378</ele>
<time>2017-09-13T02:48:49.988Z</time>
</trkpt>
<trkpt lat="-27.3549019" lon="152.9569826">
<ele>12.751</ele>
<time>2017-09-13T02:48:51.930Z</time>
</trkpt>
<trkpt lat="-27.3548734" lon="152.9572300">
<ele>10.389</ele>
<time>2017-09-13T02:48:54.703Z</time>
</trkpt>
<trkpt lat="-27.3548357" lon="152.9573521">
<ele>8.586</ele>
<time>2017-09-13T02:48:56.536Z</time>
</trkpt>
<trkpt lat="-27.3549457" lon="152.9574649">
<ele>7.187</ele>
<time>2017-09-13T02:48:59.308Z</time>
</trkpt>
<trkpt lat="-27.3550816" lon="152.9573985">
<ele>6.109</ele>
<time>2017-09-13T02:49:01.671Z</time>
</trkpt>
<trkpt lat="-27.3553685" lon="152.9573654">
<ele>5.379</ele>
<time>2017-09-13T02:49:04.959Z</time>
</trkpt>
<trkpt lat="-27.3555794" lon="152.9573162">
<ele>5.016</ele>
<time>2017-09-13T02:49:07.035Z</time>
</trkpt>
<trkpt lat="-27.3558702" lon="152.9572212">
<ele>4.973</ele>
<time>2017-09-13T02:49:09.976Z</time>
</trkpt>
<trkpt lat="-27.3560431" lon="152.9571115">
<ele>5.091</ele>
<time>2017-09-13T02:49:11.946Z</time>
</trkpt>
<trkpt lat="-27.3562142" lon="152.9569859">
<ele>5.218</ele>
<time>2017-09-13T02:49:13.991Z</time>
</trkpt>
<trkpt lat="-27.3564358" lon="152.9567985">
<ele>5.368</ele>
<time>2017-09-13T02:49:16.966Z</time>
</trkpt>
<trkpt lat="-27.3566171" lon="152.9566737">
<ele>5.609</ele>
<time>2017-09-13T02:49:19.798Z</time>
</trkpt>
<trkpt lat="-27.3567126" lon="152.9565836">
<ele>5.835</ele>
<time>2017-09-13T02:49:22.000Z</time>
</trkpt>
<trkpt lat="-27.3567126" lon="152.9565836">
<ele>5.924</ele>
<time>2017-09-13T02:49:27.000Z</time>
</trkpt>
<trkpt lat="-27.3567126" lon="152.9565836">
<ele>5.908</ele>
<time>2017-09-13T02:53:09.000Z</time>
</trkpt>
<trkpt lat="-27.3568530" lon="152.9566403">
<ele>9.290</ele>
<time>2017-09-13T02:53:24.000Z</time>
</trkpt>
<trkpt lat="-27.3568530" lon="152.9566403">
<ele>9.286</ele>
<time>2017-09-13T02:54:49.000Z</time>
</trkpt>
<trkpt lat="-27.3568355" lon="152.9566385">
<ele>9.461</ele>
<time>2017-09-13T02:55:13.000Z</time>
</trkpt>
<trkpt lat="-27.3568355" lon="152.9566385">
<ele>9.456</ele>
<time>2017-09-13T02:55:30.000Z</time>
</trkpt>
<trkpt lat="-27.3568355" lon="152.9566385">
<ele>9.461</ele>
<time>2017-09-13T02:56:03.000Z</time>
</trkpt>
<trkpt lat="-27.3568355" lon="152.9566385">
<ele>9.456</ele>
<time>2017-09-13T02:56:17.000Z</time>
</trkpt>
<trkpt lat="-27.3567546" lon="152.9568646">
<ele>10.858</ele>
<time>2017-09-13T03:00:08.000Z</time>
</trkpt>
<trkpt lat="-27.3567546" lon="152.9568646">
<ele>10.853</ele>
<time>2017-09-13T03:00:15.000Z</time>
</trkpt>
</trkseg>
</trk>
<extensions>
<fpdata xmlns="http://www.motionx.com/GPX-Extensions/1/1" sfv="10" origin="MotionXGPSFull 24.2 Build 5063R64">
<bin enc="base64">
RgIAAAACAAAAN1KywRZu1kEBAAAA/b6MXShu1kEAAFInKpvRQIgSAAD/7WQBLURPeOTB
TUCpbcT37bQlQAAAAAAPAAAATkcgMTMgU2VwIDIwMTcAFQAAADEzIFNlcCAyMDE3ICA4
OjA5IGFtAAAAAABNv4xdKG7WQYV6Q2YobtZB1nIKAfdy++rmRZRALAAAAAIAAACEMfpK
CR9jQEH3J3rgWzvALURPeOTBTUAAAAAAAAAgQAAAAAAAAAhAAAAAAAC4q0AAAAAAAAAA
AAAAAADhehSuR2FwQPTyt8YfvxxAAQAAAGZK9+W+A4m/AQAAAAEAAABFhVCqbhTBP3+J
MynhI8G/AQAAAAAAAAABAAAALURPeOTBTUAAAAAAAAAAAAEAAAATAAAATkdfMTNfU2Vw
XzIwMTcuZ3B4AAEAAAC6TERmKG7WQQoAAAABAAAADwAAAE5HIDEzIFNlcCAyMDE3AAAA
AAAAAAAAAAAAAAAAAABcAAAAkADAzydu1kEAAAAAAAAAAAAAAAAAAAAA/yVEvAIAAAAA
AAAAAAAAAAEAAAAnAAAAMjQuMiBCdWlsZCA1MDYzUjY0LCBNWEFFIDguMSBiLiA2MjZS
NjQAAAAAAPZqAAABAAAAAQsAAAAGW7hZc6G4WQREU7LBFm7WQURTssEWbtZBAAAAAACE
ED8AAAAAA2rBW2UnbtZBasFbZSdu1kEAQDtvqaPQQAAAAAAEE30NaSdu1kETfQ1pJ27W
QQDA5Cpbp9BAAAAAAANM+VF+J27WQUz5UX4nbtZBAAAep5+80EAAAAAABFiRTIQnbtZB
WJFMhCdu1kEAACk/msLQQAAAAAADRtSPiCdu1kFG1I+IJ27WQQDAFoLdxtBAAAAAAASM
gMuQJ27WQYyAy5AnbtZBAABiLhnP0EAAAAAAA4atUpQnbtZBhq1SlCdu1kEAQFdboNLQ
QAAAAAAEZJEKzidu1kFkkQrOJ27WQQDANT9YDNFAAAAAAAPUCc/PJ27WQdQJz88nbtZB
AACmtxwO0UAAAAAAAUhSssEWbtZBmnncXChu1kEAAFInKpvRQAAAAAAAAAAA
</bin>
</fpdata>
</extensions>
</gpx>